<?xml version="1.0" encoding="UTF-8" standalone="no" ?>
<gpx xmlns="http://www.topografix.com/GPX/1/1" xmlns:xsi="http://www.w3.org/2001/XMLSchema-instance" xsi:schemaLocation="http://www.topografix.com/GPX/1/1 http://www.topografix.com/GPX/1/1/gpx.xsd" version="1.1" creator="VisuGPX - https://www.visugpx.com">
  <metadata>
    <name>Cernay-l'Yvette</name>
  </metadata>
  <trk>
    <name><![CDATA[30-NOV-19 04:27:37 PM]]></name>
    <trkseg>
      <trkpt lat="48.69307" lon="1.90804">
        <ele>107.32</ele>
        <time>2019-11-30T08:07:52Z</time>
      </trkpt>
      <trkpt lat="48.69307" lon="1.90803">
        <ele>171.25</ele>
        <time>2019-11-30T08:08:01Z</time>
      </trkpt>
      <trkpt lat="48.69307" lon="1.90803">
        <ele>171.25</ele>
        <time>2019-11-30T08:08:02Z</time>
      </trkpt>
      <trkpt lat="48.69308" lon="1.90802">
        <ele>143.37</ele>
        <time>2019-11-30T08:08:06Z</time>
      </trkpt>
      <trkpt lat="48.69308" lon="1.90802">
        <ele>143.37</ele>
        <time>2019-11-30T08:08:07Z</time>
      </trkpt>
      <trkpt lat="48.69311" lon="1.90803">
        <ele>141.93</ele>
        <time>2019-11-30T08:08:10Z</time>
      </trkpt>
      <trkpt lat="48.69314" lon="1.90803">
        <ele>142.41</ele>
        <time>2019-11-30T08:08:11Z</time>
      </trkpt>
      <trkpt lat="48.69322" lon="1.90802">
        <ele>143.85</ele>
        <time>2019-11-30T08:08:20Z</time>
      </trkpt>
      <trkpt lat="48.69326" lon="1.90807">
        <ele>143.85</ele>
        <time>2019-11-30T08:08:24Z</time>
      </trkpt>
      <trkpt lat="48.69327" lon="1.9081">
        <ele>142.89</ele>
        <time>2019-11-30T08:08:26Z</time>
      </trkpt>
      <trkpt lat="48.69328" lon="1.90811">
        <ele>143.37</ele>
        <time>2019-11-30T08:08:27Z</time>
      </trkpt>
      <trkpt lat="48.69329" lon="1.90813">
        <ele>143.85</ele>
        <time>2019-11-30T08:08:28Z</time>
      </trkpt>
      <trkpt lat="48.6933" lon="1.90814">
        <ele>143.37</ele>
        <time>2019-11-30T08:08:29Z</time>
      </trkpt>
      <trkpt lat="48.6933" lon="1.90816">
        <ele>143.37</ele>
        <time>2019-11-30T08:08:30Z</time>
      </trkpt>
      <trkpt lat="48.6933" lon="1.90818">
        <ele>143.37</ele>
        <time>2019-11-30T08:08:31Z</time>
      </trkpt>
      <trkpt lat="48.6933" lon="1.9082">
        <ele>143.37</ele>
        <time>2019-11-30T08:08:32Z</time>
      </trkpt>
      <trkpt lat="48.69325" lon="1.9083">
        <ele>143.37</ele>
        <time>2019-11-30T08:08:39Z</time>
      </trkpt>
      <trkpt lat="48.69325" lon="1.90832">
        <ele>143.37</ele>
        <time>2019-11-30T08:08:40Z</time>
      </trkpt>
      <trkpt lat="48.69324" lon="1.90834">
        <ele>143.37</ele>
        <time>2019-11-30T08:08:41Z</time>
      </trkpt>
      <trkpt lat="48.69324" lon="1.90836">
        <ele>143.37</ele>
        <time>2019-11-30T08:08:42Z</time>
      </trkpt>
      <trkpt lat="48.69324" lon="1.90837">
        <ele>143.37</ele>
        <time>2019-11-30T08:08:43Z</time>
      </trkpt>
      <trkpt lat="48.69322" lon="1.90839">
        <ele>143.37</ele>
        <time>2019-11-30T08:08:45Z</time>
      </trkpt>
      <trkpt lat="48.69313" lon="1.90849">
        <ele>143.37</ele>
        <time>2019-11-30T08:08:56Z</time>
      </trkpt>
      <trkpt lat="48.69295" lon="1.90868">
        <ele>142.89</ele>
        <time>2019-11-30T08:09:11Z</time>
      </trkpt>
      <trkpt lat="48.69287" lon="1.90883">
        <ele>142.41</ele>
        <time>2019-11-30T08:09:24Z</time>
      </trkpt>
      <trkpt lat="48.6928" lon="1.90893">
        <ele>142.41</ele>
        <time>2019-11-30T08:09:31Z</time>
      </trkpt>
      <trkpt lat="48.69279" lon="1.90895">
        <ele>142.41</ele>
        <time>2019-11-30T08:09:32Z</time>
      </trkpt>
      <trkpt lat="48.69278" lon="1.90896">
        <ele>142.41</ele>
        <time>2019-11-30T08:09:33Z</time>
      </trkpt>
      <trkpt lat="48.69271" lon="1.90903">
        <ele>142.41</ele>
        <time>2019-11-30T08:09:38Z</time>
      </trkpt>
      <trkpt lat="48.69254" lon="1.90923">
        <ele>141.93</ele>
        <time>2019-11-30T08:09:53Z</time>
      </trkpt>
      <trkpt lat="48.69242" lon="1.90939">
        <ele>141.45</ele>
        <time>2019-11-30T08:10:05Z</time>
      </trkpt>
      <trkpt lat="48.69228" lon="1.90957">
        <ele>140.97</ele>
        <time>2019-11-30T08:10:19Z</time>
      </trkpt>
      <trkpt lat="48.6921" lon="1.90973">
        <ele>140.49</ele>
        <time>2019-11-30T08:10:34Z</time>
      </trkpt>
      <trkpt lat="48.69206" lon="1.90991">
        <ele>140.01</ele>
        <time>2019-11-30T08:10:46Z</time>
      </trkpt>
      <trkpt lat="48.69206" lon="1.90993">
        <ele>140.01</ele>
        <time>2019-11-30T08:10:47Z</time>
      </trkpt>
      <trkpt lat="48.69207" lon="1.90996">
        <ele>139.53</ele>
        <time>2019-11-30T08:10:48Z</time>
      </trkpt>
      <trkpt lat="48.69207" lon="1.90998">
        <ele>140.01</ele>
        <time>2019-11-30T08:10:49Z</time>
      </trkpt>
      <trkpt lat="48.69205" lon="1.91012">
        <ele>139.53</ele>
        <time>2019-11-30T08:10:57Z</time>
      </trkpt>
      <trkpt lat="48.69205" lon="1.91014">
        <ele>140.01</ele>
        <time>2019-11-30T08:10:58Z</time>
      </trkpt>
      <trkpt lat="48.69193" lon="1.91027">
        <ele>140.97</ele>
        <time>2019-11-30T08:11:11Z</time>
      </trkpt>
      <trkpt lat="48.69189" lon="1.91028">
        <ele>140.01</ele>
        <time>2019-11-30T08:11:16Z</time>
      </trkpt>
      <trkpt lat="48.69187" lon="1.91029">
        <ele>140.01</ele>
        <time>2019-11-30T08:11:17Z</time>
      </trkpt>
      <trkpt lat="48.69185" lon="1.91045">
        <ele>139.53</ele>
        <time>2019-11-30T08:11:26Z</time>
      </trkpt>
      <trkpt lat="48.69188" lon="1.91053">
        <ele>139.53</ele>
        <time>2019-11-30T08:11:31Z</time>
      </trkpt>
      <trkpt lat="48.69189" lon="1.91055">
        <ele>140.01</ele>
        <time>2019-11-30T08:11:32Z</time>
      </trkpt>
      <trkpt lat="48.69189" lon="1.91058">
        <ele>139.53</ele>
        <time>2019-11-30T08:11:33Z</time>
      </trkpt>
      <trkpt lat="48.69193" lon="1.91069">
        <ele>138.09</ele>
        <time>2019-11-30T08:11:40Z</time>
      </trkpt>
      <trkpt lat="48.69246" lon="1.91062">
        <ele>139.05</ele>
        <time>2019-11-30T08:12:05Z</time>
      </trkpt>
      <trkpt lat="48.69247" lon="1.91063">
        <ele>138.57</ele>
        <time>2019-11-30T08:12:06Z</time>
      </trkpt>
      <trkpt lat="48.69222" lon="1.91137">
        <ele>136.64</ele>
        <time>2019-11-30T08:12:20Z</time>
      </trkpt>
      <trkpt lat="48.69229" lon="1.9116">
        <ele>135.2</ele>
        <time>2019-11-30T08:12:35Z</time>
      </trkpt>
      <trkpt lat="48.69239" lon="1.91185">
        <ele>134.72</ele>
        <time>2019-11-30T08:12:50Z</time>
      </trkpt>
      <trkpt lat="48.69251" lon="1.91219">
        <ele>133.28</ele>
        <time>2019-11-30T08:13:08Z</time>
      </trkpt>
      <trkpt lat="48.6926" lon="1.91245">
        <ele>132.32</ele>
        <time>2019-11-30T08:13:20Z</time>
      </trkpt>
      <trkpt lat="48.69261" lon="1.9125">
        <ele>132.32</ele>
        <time>2019-11-30T08:13:23Z</time>
      </trkpt>
      <trkpt lat="48.69271" lon="1.91273">
        <ele>131.84</ele>
        <time>2019-11-30T08:13:35Z</time>
      </trkpt>
      <trkpt lat="48.69279" lon="1.91286">
        <ele>131.84</ele>
        <time>2019-11-30T08:13:44Z</time>
      </trkpt>
      <trkpt lat="48.69286" lon="1.91305">
        <ele>130.4</ele>
        <time>2019-11-30T08:13:54Z</time>
      </trkpt>
      <trkpt lat="48.69288" lon="1.9131">
        <ele>130.88</ele>
        <time>2019-11-30T08:13:57Z</time>
      </trkpt>
      <trkpt lat="48.69296" lon="1.91335">
        <ele>129.92</ele>
        <time>2019-11-30T08:14:11Z</time>
      </trkpt>
      <trkpt lat="48.69306" lon="1.91352">
        <ele>129.43</ele>
        <time>2019-11-30T08:14:24Z</time>
      </trkpt>
      <trkpt lat="48.69315" lon="1.91372">
        <ele>127.51</ele>
        <time>2019-11-30T08:14:38Z</time>
      </trkpt>
      <trkpt lat="48.69325" lon="1.91398">
        <ele>126.55</ele>
        <time>2019-11-30T08:14:51Z</time>
      </trkpt>
      <trkpt lat="48.69334" lon="1.91422">
        <ele>125.59</ele>
        <time>2019-11-30T08:15:05Z</time>
      </trkpt>
      <trkpt lat="48.69339" lon="1.91441">
        <ele>126.07</ele>
        <time>2019-11-30T08:15:16Z</time>
      </trkpt>
      <trkpt lat="48.69345" lon="1.91453">
        <ele>125.59</ele>
        <time>2019-11-30T08:15:24Z</time>
      </trkpt>
      <trkpt lat="48.69348" lon="1.91461">
        <ele>126.07</ele>
        <time>2019-11-30T08:15:34Z</time>
      </trkpt>
      <trkpt lat="48.69352" lon="1.91465">
        <ele>126.07</ele>
        <time>2019-11-30T08:15:38Z</time>
      </trkpt>
      <trkpt lat="48.69363" lon="1.91476">
        <ele>125.59</ele>
        <time>2019-11-30T08:15:47Z</time>
      </trkpt>
      <trkpt lat="48.69365" lon="1.91478">
        <ele>126.07</ele>
        <time>2019-11-30T08:15:49Z</time>
      </trkpt>
      <trkpt lat="48.69368" lon="1.91485">
        <ele>126.55</ele>
        <time>2019-11-30T08:15:53Z</time>
      </trkpt>
      <trkpt lat="48.69369" lon="1.91488">
        <ele>127.03</ele>
        <time>2019-11-30T08:15:55Z</time>
      </trkpt>
      <trkpt lat="48.69377" lon="1.91514">
        <ele>127.03</ele>
        <time>2019-11-30T08:16:10Z</time>
      </trkpt>
      <trkpt lat="48.69392" lon="1.91532">
        <ele>128.47</ele>
        <time>2019-11-30T08:16:25Z</time>
      </trkpt>
      <trkpt lat="48.69394" lon="1.91536">
        <ele>129.43</ele>
        <time>2019-11-30T08:16:28Z</time>
      </trkpt>
      <trkpt lat="48.69406" lon="1.91552">
        <ele>130.88</ele>
        <time>2019-11-30T08:16:41Z</time>
      </trkpt>
      <trkpt lat="48.69414" lon="1.91563">
        <ele>131.84</ele>
        <time>2019-11-30T08:16:51Z</time>
      </trkpt>
      <trkpt lat="48.69426" lon="1.91583">
        <ele>133.28</ele>
        <time>2019-11-30T08:17:06Z</time>
      </trkpt>
      <trkpt lat="48.69439" lon="1.91593">
        <ele>135.2</ele>
        <time>2019-11-30T08:17:20Z</time>
      </trkpt>
      <trkpt lat="48.69446" lon="1.916">
        <ele>137.13</ele>
        <time>2019-11-30T08:17:30Z</time>
      </trkpt>
      <trkpt lat="48.69451" lon="1.91606">
        <ele>137.61</ele>
        <time>2019-11-30T08:17:33Z</time>
      </trkpt>
      <trkpt lat="48.69458" lon="1.91617">
        <ele>140.01</ele>
        <time>2019-11-30T08:17:45Z</time>
      </trkpt>
      <trkpt lat="48.69462" lon="1.91625">
        <ele>142.41</ele>
        <time>2019-11-30T08:17:57Z</time>
      </trkpt>
      <trkpt lat="48.6947" lon="1.91637">
        <ele>144.82</ele>
        <time>2019-11-30T08:18:08Z</time>
      </trkpt>
      <trkpt lat="48.69477" lon="1.91647">
        <ele>147.22</ele>
        <time>2019-11-30T08:18:18Z</time>
      </trkpt>
      <trkpt lat="48.69479" lon="1.91653">
        <ele>148.18</ele>
        <time>2019-11-30T08:18:25Z</time>
      </trkpt>
      <trkpt lat="48.69487" lon="1.91648">
        <ele>150.58</ele>
        <time>2019-11-30T08:18:35Z</time>
      </trkpt>
      <trkpt lat="48.69488" lon="1.91647">
        <ele>151.54</ele>
        <time>2019-11-30T08:18:38Z</time>
      </trkpt>
      <trkpt lat="48.69491" lon="1.91639">
        <ele>152.99</ele>
        <time>2019-11-30T08:18:43Z</time>
      </trkpt>
      <trkpt lat="48.69493" lon="1.91632">
        <ele>153.95</ele>
        <time>2019-11-30T08:18:49Z</time>
      </trkpt>
      <trkpt lat="48.69494" lon="1.91628">
        <ele>154.91</ele>
        <time>2019-11-30T08:18:52Z</time>
      </trkpt>
      <trkpt lat="48.69494" lon="1.9161">
        <ele>156.83</ele>
        <time>2019-11-30T08:19:02Z</time>
      </trkpt>
      <trkpt lat="48.69497" lon="1.91602">
        <ele>158.27</ele>
        <time>2019-11-30T08:19:13Z</time>
      </trkpt>
      <trkpt lat="48.69494" lon="1.916">
        <ele>158.75</ele>
        <time>2019-11-30T08:19:26Z</time>
      </trkpt>
      <trkpt lat="48.69505" lon="1.91595">
        <ele>160.68</ele>
        <time>2019-11-30T08:19:40Z</time>
      </trkpt>
      <trkpt lat="48.69517" lon="1.91595">
        <ele>162.6</ele>
        <time>2019-11-30T08:19:55Z</time>
      </trkpt>
      <trkpt lat="48.69531" lon="1.9159">
        <ele>165.96</ele>
        <time>2019-11-30T08:20:11Z</time>
      </trkpt>
      <trkpt lat="48.69545" lon="1.91585">
        <ele>168.85</ele>
        <time>2019-11-30T08:20:26Z</time>
      </trkpt>
      <trkpt lat="48.69556" lon="1.91582">
        <ele>171.73</ele>
        <time>2019-11-30T08:20:39Z</time>
      </trkpt>
      <trkpt lat="48.6957" lon="1.91581">
        <ele>173.17</ele>
        <time>2019-11-30T08:20:55Z</time>
      </trkpt>
      <trkpt lat="48.69592" lon="1.91579">
        <ele>174.62</ele>
        <time>2019-11-30T08:21:15Z</time>
      </trkpt>
      <trkpt lat="48.69609" lon="1.9158">
        <ele>175.1</ele>
        <time>2019-11-30T08:21:31Z</time>
      </trkpt>
      <trkpt lat="48.69622" lon="1.91575">
        <ele>175.1</ele>
        <time>2019-11-30T08:21:51Z</time>
      </trkpt>
      <trkpt lat="48.69643" lon="1.91585">
        <ele>174.62</ele>
        <time>2019-11-30T08:22:09Z</time>
      </trkpt>
      <trkpt lat="48.69664" lon="1.91607">
        <ele>175.1</ele>
        <time>2019-11-30T08:22:29Z</time>
      </trkpt>
      <trkpt lat="48.69682" lon="1.91626">
        <ele>175.1</ele>
        <time>2019-11-30T08:22:48Z</time>
      </trkpt>
      <trkpt lat="48.69697" lon="1.91636">
        <ele>174.62</ele>
        <time>2019-11-30T08:23:04Z</time>
      </trkpt>
      <trkpt lat="48.69713" lon="1.91658">
        <ele>174.14</ele>
        <time>2019-11-30T08:23:21Z</time>
      </trkpt>
      <trkpt lat="48.69733" lon="1.91682">
        <ele>173.66</ele>
        <time>2019-11-30T08:23:40Z</time>
      </trkpt>
      <trkpt lat="48.69754" lon="1.91702">
        <ele>173.66</ele>
        <time>2019-11-30T08:24:00Z</time>
      </trkpt>
      <trkpt lat="48.6976" lon="1.91708">
        <ele>173.17</ele>
        <time>2019-11-30T08:24:05Z</time>
      </trkpt>
      <trkpt lat="48.69773" lon="1.91723">
        <ele>173.66</ele>
        <time>2019-11-30T08:24:18Z</time>
      </trkpt>
      <trkpt lat="48.69783" lon="1.91734">
        <ele>174.62</ele>
        <time>2019-11-30T08:24:30Z</time>
      </trkpt>
      <trkpt lat="48.69784" lon="1.91736">
        <ele>174.62</ele>
        <time>2019-11-30T08:24:31Z</time>
      </trkpt>
      <trkpt lat="48.69796" lon="1.91744">
        <ele>174.62</ele>
        <time>2019-11-30T08:24:43Z</time>
      </trkpt>
      <trkpt lat="48.69812" lon="1.91755">
        <ele>175.1</ele>
        <time>2019-11-30T08:24:57Z</time>
      </trkpt>
      <trkpt lat="48.69818" lon="1.91757">
        <ele>175.1</ele>
        <time>2019-11-30T08:25:01Z</time>
      </trkpt>
      <trkpt lat="48.69839" lon="1.91768">
        <ele>175.58</ele>
        <time>2019-11-30T08:25:16Z</time>
      </trkpt>
      <trkpt lat="48.69856" lon="1.91775">
        <ele>175.58</ele>
        <time>2019-11-30T08:25:30Z</time>
      </trkpt>
      <trkpt lat="48.69863" lon="1.91773">
        <ele>174.62</ele>
        <time>2019-11-30T08:25:34Z</time>
      </trkpt>
      <trkpt lat="48.69881" lon="1.91777">
        <ele>175.58</ele>
        <time>2019-11-30T08:25:49Z</time>
      </trkpt>
      <trkpt lat="48.6989" lon="1.91773">
        <ele>175.1</ele>
        <time>2019-11-30T08:25:57Z</time>
      </trkpt>
      <trkpt lat="48.69907" lon="1.9176">
        <ele>175.1</ele>
        <time>2019-11-30T08:26:12Z</time>
      </trkpt>
      <trkpt lat="48.69916" lon="1.91754">
        <ele>174.62</ele>
        <time>2019-11-30T08:26:18Z</time>
      </trkpt>
      <trkpt lat="48.69927" lon="1.91749">
        <ele>174.62</ele>
        <time>2019-11-30T08:26:29Z</time>
      </trkpt>
      <trkpt lat="48.6993" lon="1.91749">
        <ele>175.1</ele>
        <time>2019-11-30T08:26:31Z</time>
      </trkpt>
      <trkpt lat="48.69933" lon="1.91743">
        <ele>174.62</ele>
        <time>2019-11-30T08:26:35Z</time>
      </trkpt>
      <trkpt lat="48.69941" lon="1.91717">
        <ele>173.66</ele>
        <time>2019-11-30T08:26:49Z</time>
      </trkpt>
      <trkpt lat="48.6995" lon="1.91697">
        <ele>173.17</ele>
        <time>2019-11-30T08:27:03Z</time>
      </trkpt>
      <trkpt lat="48.69958" lon="1.9167">
        <ele>172.69</ele>
        <time>2019-11-30T08:27:16Z</time>
      </trkpt>
      <trkpt lat="48.69968" lon="1.91638">
        <ele>173.17</ele>
        <time>2019-11-30T08:27:33Z</time>
      </trkpt>
      <trkpt lat="48.69976" lon="1.91612">
        <ele>173.66</ele>
        <time>2019-11-30T08:27:47Z</time>
      </trkpt>
      <trkpt lat="48.69976" lon="1.9161">
        <ele>173.66</ele>
        <time>2019-11-30T08:27:48Z</time>
      </trkpt>
      <trkpt lat="48.69978" lon="1.91606">
        <ele>174.14</ele>
        <time>2019-11-30T08:27:53Z</time>
      </trkpt>
      <trkpt lat="48.69982" lon="1.9159">
        <ele>174.62</ele>
        <time>2019-11-30T08:28:02Z</time>
      </trkpt>
      <trkpt lat="48.69988" lon="1.9158">
        <ele>175.1</ele>
        <time>2019-11-30T08:28:11Z</time>
      </trkpt>
      <trkpt lat="48.69991" lon="1.91573">
        <ele>174.62</ele>
        <time>2019-11-30T08:28:15Z</time>
      </trkpt>
      <trkpt lat="48.69993" lon="1.91568">
        <ele>174.62</ele>
        <time>2019-11-30T08:28:17Z</time>
      </trkpt>
      <trkpt lat="48.69999" lon="1.91566">
        <ele>174.14</ele>
        <time>2019-11-30T08:28:25Z</time>
      </trkpt>
      <trkpt lat="48.70003" lon="1.91567">
        <ele>174.14</ele>
        <time>2019-11-30T08:28:29Z</time>
      </trkpt>
      <trkpt lat="48.70007" lon="1.91559">
        <ele>174.62</ele>
        <time>2019-11-30T08:28:37Z</time>
      </trkpt>
      <trkpt lat="48.70011" lon="1.91559">
        <ele>175.1</ele>
        <time>2019-11-30T08:28:40Z</time>
      </trkpt>
      <trkpt lat="48.70019" lon="1.9156">
        <ele>174.62</ele>
        <time>2019-11-30T08:28:49Z</time>
      </trkpt>
      <trkpt lat="48.70028" lon="1.91557">
        <ele>175.1</ele>
        <time>2019-11-30T08:28:58Z</time>
      </trkpt>
      <trkpt lat="48.70031" lon="1.91558">
        <ele>175.1</ele>
        <time>2019-11-30T08:29:02Z</time>
      </trkpt>
      <trkpt lat="48.70036" lon="1.91563">
        <ele>175.58</ele>
        <time>2019-11-30T08:29:08Z</time>
      </trkpt>
      <trkpt lat="48.70042" lon="1.91582">
        <ele>176.06</ele>
        <time>2019-11-30T08:29:20Z</time>
      </trkpt>
      <trkpt lat="48.7004" lon="1.91585">
        <ele>175.1</ele>
        <time>2019-11-30T08:29:24Z</time>
      </trkpt>
      <trkpt lat="48.70037" lon="1.91594">
        <ele>175.58</ele>
        <time>2019-11-30T08:29:32Z</time>
      </trkpt>
      <trkpt lat="48.70037" lon="1.916">
        <ele>175.58</ele>
        <time>2019-11-30T08:29:36Z</time>
      </trkpt>
      <trkpt lat="48.70035" lon="1.91606">
        <ele>175.1</ele>
        <time>2019-11-30T08:29:40Z</time>
      </trkpt>
      <trkpt lat="48.70033" lon="1.9161">
        <ele>175.1</ele>
        <time>2019-11-30T08:29:44Z</time>
      </trkpt>
      <trkpt lat="48.70035" lon="1.91618">
        <ele>175.58</ele>
        <time>2019-11-30T08:29:54Z</time>
      </trkpt>
      <trkpt lat="48.70036" lon="1.91619">
        <ele>176.06</ele>
        <time>2019-11-30T08:29:56Z</time>
      </trkpt>
      <trkpt lat="48.70035" lon="1.91628">
        <ele>176.54</ele>
        <time>2019-11-30T08:30:00Z</time>
      </trkpt>
      <trkpt lat="48.70033" lon="1.9163">
        <ele>176.06</ele>
        <time>2019-11-30T08:30:01Z</time>
      </trkpt>
      <trkpt lat="48.70032" lon="1.91632">
        <ele>175.58</ele>
        <time>2019-11-30T08:30:02Z</time>
      </trkpt>
      <trkpt lat="48.70032" lon="1.91633">
        <ele>175.58</ele>
        <time>2019-11-30T08:30:03Z</time>
      </trkpt>
      <trkpt lat="48.70032" lon="1.91635">
        <ele>176.54</ele>
        <time>2019-11-30T08:30:16Z</time>
      </trkpt>
      <trkpt lat="48.70033" lon="1.91635">
        <ele>175.58</ele>
        <time>2019-11-30T08:30:17Z</time>
      </trkpt>
      <trkpt lat="48.7003" lon="1.9164">
        <ele>176.06</ele>
        <time>2019-11-30T08:30:25Z</time>
      </trkpt>
      <trkpt lat="48.70023" lon="1.91655">
        <ele>176.54</ele>
        <time>2019-11-30T08:30:37Z</time>
      </trkpt>
      <trkpt lat="48.70021" lon="1.91659">
        <ele>176.06</ele>
        <time>2019-11-30T08:30:40Z</time>
      </trkpt>
      <trkpt lat="48.7002" lon="1.91661">
        <ele>176.06</ele>
        <time>2019-11-30T08:30:41Z</time>
      </trkpt>
      <trkpt lat="48.70013" lon="1.9168">
        <ele>175.58</ele>
        <time>2019-11-30T08:30:52Z</time>
      </trkpt>
      <trkpt lat="48.70014" lon="1.91697">
        <ele>176.06</ele>
        <time>2019-11-30T08:31:07Z</time>
      </trkpt>
      <trkpt lat="48.70023" lon="1.917">
        <ele>176.54</ele>
        <time>2019-11-30T08:31:16Z</time>
      </trkpt>
      <trkpt lat="48.70043" lon="1.91708">
        <ele>176.54</ele>
        <time>2019-11-30T08:31:33Z</time>
      </trkpt>
      <trkpt lat="48.70061" lon="1.91723">
        <ele>177.02</ele>
        <time>2019-11-30T08:31:46Z</time>
      </trkpt>
      <trkpt lat="48.70072" lon="1.91729">
        <ele>177.02</ele>
        <time>2019-11-30T08:32:00Z</time>
      </trkpt>
      <trkpt lat="48.70082" lon="1.91736">
        <ele>178.46</ele>
        <time>2019-11-30T08:32:12Z</time>
      </trkpt>
      <trkpt lat="48.70085" lon="1.91738">
        <ele>177.98</ele>
        <time>2019-11-30T08:32:16Z</time>
      </trkpt>
      <trkpt lat="48.70097" lon="1.91748">
        <ele>177.5</ele>
        <time>2019-11-30T08:32:29Z</time>
      </trkpt>
      <trkpt lat="48.70111" lon="1.91761">
        <ele>177.02</ele>
        <time>2019-11-30T08:32:42Z</time>
      </trkpt>
      <trkpt lat="48.70124" lon="1.9177">
        <ele>177.5</ele>
        <time>2019-11-30T08:32:58Z</time>
      </trkpt>
      <trkpt lat="48.70139" lon="1.9178">
        <ele>177.5</ele>
        <time>2019-11-30T08:33:11Z</time>
      </trkpt>
      <trkpt lat="48.70157" lon="1.91786">
        <ele>177.5</ele>
        <time>2019-11-30T08:33:25Z</time>
      </trkpt>
      <trkpt lat="48.70171" lon="1.91796">
        <ele>177.5</ele>
        <time>2019-11-30T08:33:39Z</time>
      </trkpt>
      <trkpt lat="48.70184" lon="1.91805">
        <ele>177.02</ele>
        <time>2019-11-30T08:33:50Z</time>
      </trkpt>
      <trkpt lat="48.70204" lon="1.91814">
        <ele>177.5</ele>
        <time>2019-11-30T08:34:06Z</time>
      </trkpt>
      <trkpt lat="48.70214" lon="1.91825">
        <ele>177.5</ele>
        <time>2019-11-30T08:34:21Z</time>
      </trkpt>
      <trkpt lat="48.70225" lon="1.91836">
        <ele>176.54</ele>
        <time>2019-11-30T08:34:34Z</time>
      </trkpt>
      <trkpt lat="48.70243" lon="1.91846">
        <ele>177.02</ele>
        <time>2019-11-30T08:34:48Z</time>
      </trkpt>
      <trkpt lat="48.70258" lon="1.91853">
        <ele>177.02</ele>
        <time>2019-11-30T08:35:01Z</time>
      </trkpt>
      <trkpt lat="48.70273" lon="1.91866">
        <ele>177.98</ele>
        <time>2019-11-30T08:35:14Z</time>
      </trkpt>
      <trkpt lat="48.70279" lon="1.91869">
        <ele>177.02</ele>
        <time>2019-11-30T08:35:21Z</time>
      </trkpt>
      <trkpt lat="48.70283" lon="1.91873">
        <ele>177.5</ele>
        <time>2019-11-30T08:35:28Z</time>
      </trkpt>
      <trkpt lat="48.70288" lon="1.91878">
        <ele>177.5</ele>
        <time>2019-11-30T08:35:32Z</time>
      </trkpt>
      <trkpt lat="48.70297" lon="1.91883">
        <ele>177.98</ele>
        <time>2019-11-30T08:35:40Z</time>
      </trkpt>
      <trkpt lat="48.70307" lon="1.91892">
        <ele>177.98</ele>
        <time>2019-11-30T08:35:53Z</time>
      </trkpt>
      <trkpt lat="48.70308" lon="1.91893">
        <ele>177.98</ele>
        <time>2019-11-30T08:35:55Z</time>
      </trkpt>
      <trkpt lat="48.70327" lon="1.91905">
        <ele>177.98</ele>
        <time>2019-11-30T08:36:10Z</time>
      </trkpt>
      <trkpt lat="48.70342" lon="1.91909">
        <ele>178.46</ele>
        <time>2019-11-30T08:36:23Z</time>
      </trkpt>
      <trkpt lat="48.70349" lon="1.91914">
        <ele>178.46</ele>
        <time>2019-11-30T08:36:28Z</time>
      </trkpt>
      <trkpt lat="48.70364" lon="1.9193">
        <ele>178.46</ele>
        <time>2019-11-30T08:36:41Z</time>
      </trkpt>
      <trkpt lat="48.70377" lon="1.91939">
        <ele>178.46</ele>
        <time>2019-11-30T08:36:57Z</time>
      </trkpt>
      <trkpt lat="48.70396" lon="1.91946">
        <ele>179.42</ele>
        <time>2019-11-30T08:37:11Z</time>
      </trkpt>
      <trkpt lat="48.70405" lon="1.91953">
        <ele>179.42</ele>
        <time>2019-11-30T08:37:20Z</time>
      </trkpt>
      <trkpt lat="48.70428" lon="1.91969">
        <ele>179.42</ele>
        <time>2019-11-30T08:37:36Z</time>
      </trkpt>
      <trkpt lat="48.7044" lon="1.91974">
        <ele>178.94</ele>
        <time>2019-11-30T08:37:47Z</time>
      </trkpt>
      <trkpt lat="48.70444" lon="1.91975">
        <ele>178.94</ele>
        <time>2019-11-30T08:37:51Z</time>
      </trkpt>
      <trkpt lat="48.70461" lon="1.91993">
        <ele>179.42</ele>
        <time>2019-11-30T08:38:07Z</time>
      </trkpt>
      <trkpt lat="48.70477" lon="1.92">
        <ele>178.94</ele>
        <time>2019-11-30T08:38:22Z</time>
      </trkpt>
      <trkpt lat="48.70492" lon="1.92008">
        <ele>178.94</ele>
        <time>2019-11-30T08:38:36Z</time>
      </trkpt>
      <trkpt lat="48.70509" lon="1.92022">
        <ele>178.46</ele>
        <time>2019-11-30T08:38:51Z</time>
      </trkpt>
      <trkpt lat="48.70519" lon="1.92026">
        <ele>178.94</ele>
        <time>2019-11-30T08:39:00Z</time>
      </trkpt>
      <trkpt lat="48.70535" lon="1.92038">
        <ele>178.46</ele>
        <time>2019-11-30T08:39:15Z</time>
      </trkpt>
      <trkpt lat="48.70549" lon="1.9205">
        <ele>178.46</ele>
        <time>2019-11-30T08:39:25Z</time>
      </trkpt>
      <trkpt lat="48.70566" lon="1.92056">
        <ele>177.5</ele>
        <time>2019-11-30T08:39:39Z</time>
      </trkpt>
      <trkpt lat="48.70583" lon="1.92067">
        <ele>177.98</ele>
        <time>2019-11-30T08:39:54Z</time>
      </trkpt>
      <trkpt lat="48.70585" lon="1.92065">
        <ele>177.02</ele>
        <time>2019-11-30T08:39:57Z</time>
      </trkpt>
      <trkpt lat="48.70598" lon="1.92059">
        <ele>177.5</ele>
        <time>2019-11-30T08:40:10Z</time>
      </trkpt>
      <trkpt lat="48.70609" lon="1.92051">
        <ele>176.54</ele>
        <time>2019-11-30T08:40:21Z</time>
      </trkpt>
      <trkpt lat="48.70615" lon="1.92046">
        <ele>176.06</ele>
        <time>2019-11-30T08:40:33Z</time>
      </trkpt>
      <trkpt lat="48.70618" lon="1.92046">
        <ele>175.58</ele>
        <time>2019-11-30T08:40:36Z</time>
      </trkpt>
      <trkpt lat="48.70632" lon="1.92045">
        <ele>175.58</ele>
        <time>2019-11-30T08:40:50Z</time>
      </trkpt>
      <trkpt lat="48.7064" lon="1.9205">
        <ele>174.62</ele>
        <time>2019-11-30T08:40:57Z</time>
      </trkpt>
      <trkpt lat="48.70647" lon="1.92049">
        <ele>175.1</ele>
        <time>2019-11-30T08:41:06Z</time>
      </trkpt>
      <trkpt lat="48.70647" lon="1.92052">
        <ele>174.62</ele>
        <time>2019-11-30T08:41:16Z</time>
      </trkpt>
      <trkpt lat="48.70646" lon="1.92053">
        <ele>175.1</ele>
        <time>2019-11-30T08:41:39Z</time>
      </trkpt>
      <trkpt lat="48.70645" lon="1.92054">
        <ele>174.62</ele>
        <time>2019-11-30T08:41:54Z</time>
      </trkpt>
      <trkpt lat="48.70645" lon="1.9205">
        <ele>175.1</ele>
        <time>2019-11-30T08:42:02Z</time>
      </trkpt>
      <trkpt lat="48.70644" lon="1.92049">
        <ele>174.62</ele>
        <time>2019-11-30T08:42:18Z</time>
      </trkpt>
      <trkpt lat="48.70643" lon="1.9205">
        <ele>175.1</ele>
        <time>2019-11-30T08:42:35Z</time>
      </trkpt>
      <trkpt lat="48.70652" lon="1.9205">
        <ele>174.62</ele>
        <time>2019-11-30T08:42:50Z</time>
      </trkpt>
      <trkpt lat="48.70661" lon="1.92055">
        <ele>174.62</ele>
        <time>2019-11-30T08:43:01Z</time>
      </trkpt>
      <trkpt lat="48.70664" lon="1.92073">
        <ele>174.62</ele>
        <time>2019-11-30T08:43:12Z</time>
      </trkpt>
      <trkpt lat="48.70664" lon="1.92077">
        <ele>175.1</ele>
        <time>2019-11-30T08:43:15Z</time>
      </trkpt>
      <trkpt lat="48.70664" lon="1.92079">
        <ele>174.62</ele>
        <time>2019-11-30T08:43:16Z</time>
      </trkpt>
      <trkpt lat="48.70662" lon="1.92097">
        <ele>174.14</ele>
        <time>2019-11-30T08:43:27Z</time>
      </trkpt>
      <trkpt lat="48.70662" lon="1.92105">
        <ele>174.62</ele>
        <time>2019-11-30T08:43:31Z</time>
      </trkpt>
      <trkpt lat="48.70664" lon="1.92133">
        <ele>175.1</ele>
        <time>2019-11-30T08:43:47Z</time>
      </trkpt>
      <trkpt lat="48.70665" lon="1.92141">
        <ele>174.62</ele>
        <time>2019-11-30T08:43:52Z</time>
      </trkpt>
      <trkpt lat="48.70672" lon="1.92162">
        <ele>175.1</ele>
        <time>2019-11-30T08:44:05Z</time>
      </trkpt>
      <trkpt lat="48.70674" lon="1.92174">
        <ele>175.1</ele>
        <time>2019-11-30T08:44:11Z</time>
      </trkpt>
      <trkpt lat="48.70675" lon="1.92175">
        <ele>175.1</ele>
        <time>2019-11-30T08:44:12Z</time>
      </trkpt>
      <trkpt lat="48.70676" lon="1.92177">
        <ele>174.62</ele>
        <time>2019-11-30T08:44:13Z</time>
      </trkpt>
      <trkpt lat="48.70677" lon="1.92179">
        <ele>175.1</ele>
        <time>2019-11-30T08:44:14Z</time>
      </trkpt>
      <trkpt lat="48.70677" lon="1.92181">
        <ele>175.58</ele>
        <time>2019-11-30T08:44:15Z</time>
      </trkpt>
      <trkpt lat="48.70683" lon="1.92204">
        <ele>174.62</ele>
        <time>2019-11-30T08:44:29Z</time>
      </trkpt>
      <trkpt lat="48.70691" lon="1.92234">
        <ele>174.62</ele>
        <time>2019-11-30T08:44:45Z</time>
      </trkpt>
      <trkpt lat="48.70702" lon="1.92269">
        <ele>175.1</ele>
        <time>2019-11-30T08:45:03Z</time>
      </trkpt>
      <trkpt lat="48.7071" lon="1.92298">
        <ele>175.1</ele>
        <time>2019-11-30T08:45:19Z</time>
      </trkpt>
      <trkpt lat="48.7072" lon="1.92335">
        <ele>174.62</ele>
        <time>2019-11-30T08:45:40Z</time>
      </trkpt>
      <trkpt lat="48.70731" lon="1.92365">
        <ele>174.14</ele>
        <time>2019-11-30T08:45:55Z</time>
      </trkpt>
      <trkpt lat="48.70737" lon="1.92388">
        <ele>174.14</ele>
        <time>2019-11-30T08:46:07Z</time>
      </trkpt>
      <trkpt lat="48.7074" lon="1.92396">
        <ele>174.14</ele>
        <time>2019-11-30T08:46:12Z</time>
      </trkpt>
      <trkpt lat="48.70741" lon="1.92396">
        <ele>173.66</ele>
        <time>2019-11-30T08:46:13Z</time>
      </trkpt>
      <trkpt lat="48.70745" lon="1.92394">
        <ele>173.66</ele>
        <time>2019-11-30T08:46:17Z</time>
      </trkpt>
      <trkpt lat="48.70753" lon="1.92364">
        <ele>173.17</ele>
        <time>2019-11-30T08:46:30Z</time>
      </trkpt>
      <trkpt lat="48.7076" lon="1.92346">
        <ele>172.69</ele>
        <time>2019-11-30T08:46:40Z</time>
      </trkpt>
      <trkpt lat="48.70769" lon="1.92325">
        <ele>172.21</ele>
        <time>2019-11-30T08:46:53Z</time>
      </trkpt>
      <trkpt lat="48.70776" lon="1.92314">
        <ele>171.25</ele>
        <time>2019-11-30T08:47:03Z</time>
      </trkpt>
      <trkpt lat="48.70777" lon="1.92313">
        <ele>171.25</ele>
        <time>2019-11-30T08:47:04Z</time>
      </trkpt>
      <trkpt lat="48.70778" lon="1.92313">
        <ele>170.77</ele>
        <time>2019-11-30T08:47:05Z</time>
      </trkpt>
      <trkpt lat="48.70792" lon="1.92325">
        <ele>170.77</ele>
        <time>2019-11-30T08:47:18Z</time>
      </trkpt>
      <trkpt lat="48.70793" lon="1.92325">
        <ele>170.77</ele>
        <time>2019-11-30T08:47:19Z</time>
      </trkpt>
      <trkpt lat="48.70794" lon="1.92326">
        <ele>170.29</ele>
        <time>2019-11-30T08:47:20Z</time>
      </trkpt>
      <trkpt lat="48.70807" lon="1.92336">
        <ele>170.29</ele>
        <time>2019-11-30T08:47:33Z</time>
      </trkpt>
      <trkpt lat="48.70812" lon="1.92336">
        <ele>170.29</ele>
        <time>2019-11-30T08:47:37Z</time>
      </trkpt>
      <trkpt lat="48.70813" lon="1.92336">
        <ele>170.29</ele>
        <time>2019-11-30T08:47:38Z</time>
      </trkpt>
      <trkpt lat="48.70814" lon="1.92336">
        <ele>170.29</ele>
        <time>2019-11-30T08:47:39Z</time>
      </trkpt>
      <trkpt lat="48.70815" lon="1.92337">
        <ele>170.77</ele>
        <time>2019-11-30T08:47:40Z</time>
      </trkpt>
      <trkpt lat="48.70816" lon="1.92337">
        <ele>170.29</ele>
        <time>2019-11-30T08:47:41Z</time>
      </trkpt>
      <trkpt lat="48.70817" lon="1.92337">
        <ele>170.29</ele>
        <time>2019-11-30T08:47:42Z</time>
      </trkpt>
      <trkpt lat="48.70829" lon="1.92341">
        <ele>171.73</ele>
        <time>2019-11-30T08:47:54Z</time>
      </trkpt>
      <trkpt lat="48.70841" lon="1.92345">
        <ele>171.73</ele>
        <time>2019-11-30T08:48:07Z</time>
      </trkpt>
      <trkpt lat="48.70842" lon="1.92344">
        <ele>171.25</ele>
        <time>2019-11-30T08:48:17Z</time>
      </trkpt>
      <trkpt lat="48.70843" lon="1.92345">
        <ele>171.25</ele>
        <time>2019-11-30T08:48:18Z</time>
      </trkpt>
      <trkpt lat="48.70844" lon="1.92345">
        <ele>171.25</ele>
        <time>2019-11-30T08:48:19Z</time>
      </trkpt>
      <trkpt lat="48.70845" lon="1.92344">
        <ele>171.25</ele>
        <time>2019-11-30T08:48:20Z</time>
      </trkpt>
      <trkpt lat="48.70848" lon="1.92344">
        <ele>171.73</ele>
        <time>2019-11-30T08:48:22Z</time>
      </trkpt>
      <trkpt lat="48.7085" lon="1.92344">
        <ele>171.73</ele>
        <time>2019-11-30T08:48:24Z</time>
      </trkpt>
      <trkpt lat="48.70852" lon="1.92345">
        <ele>172.21</ele>
        <time>2019-11-30T08:48:26Z</time>
      </trkpt>
      <trkpt lat="48.70865" lon="1.92354">
        <ele>172.69</ele>
        <time>2019-11-30T08:48:38Z</time>
      </trkpt>
      <trkpt lat="48.70875" lon="1.92364">
        <ele>173.17</ele>
        <time>2019-11-30T08:48:47Z</time>
      </trkpt>
      <trkpt lat="48.70884" lon="1.92381">
        <ele>173.66</ele>
        <time>2019-11-30T08:48:59Z</time>
      </trkpt>
      <trkpt lat="48.70889" lon="1.92408">
        <ele>173.66</ele>
        <time>2019-11-30T08:49:14Z</time>
      </trkpt>
      <trkpt lat="48.70891" lon="1.92431">
        <ele>173.17</ele>
        <time>2019-11-30T08:49:29Z</time>
      </trkpt>
      <trkpt lat="48.70892" lon="1.92448">
        <ele>172.69</ele>
        <time>2019-11-30T08:49:39Z</time>
      </trkpt>
      <trkpt lat="48.70895" lon="1.92476">
        <ele>172.21</ele>
        <time>2019-11-30T08:49:52Z</time>
      </trkpt>
      <trkpt lat="48.70896" lon="1.92503">
        <ele>171.73</ele>
        <time>2019-11-30T08:50:06Z</time>
      </trkpt>
      <trkpt lat="48.70899" lon="1.92529">
        <ele>172.21</ele>
        <time>2019-11-30T08:50:21Z</time>
      </trkpt>
      <trkpt lat="48.70901" lon="1.92543">
        <ele>172.21</ele>
        <time>2019-11-30T08:50:30Z</time>
      </trkpt>
      <trkpt lat="48.70901" lon="1.92544">
        <ele>172.21</ele>
        <time>2019-11-30T08:50:31Z</time>
      </trkpt>
      <trkpt lat="48.70903" lon="1.92552">
        <ele>172.69</ele>
        <time>2019-11-30T08:50:36Z</time>
      </trkpt>
      <trkpt lat="48.70908" lon="1.92574">
        <ele>172.21</ele>
        <time>2019-11-30T08:50:51Z</time>
      </trkpt>
      <trkpt lat="48.70919" lon="1.92604">
        <ele>172.21</ele>
        <time>2019-11-30T08:51:06Z</time>
      </trkpt>
      <trkpt lat="48.70923" lon="1.92611">
        <ele>172.69</ele>
        <time>2019-11-30T08:51:10Z</time>
      </trkpt>
      <trkpt lat="48.70924" lon="1.92613">
        <ele>172.21</ele>
        <time>2019-11-30T08:51:11Z</time>
      </trkpt>
      <trkpt lat="48.70934" lon="1.92628">
        <ele>171.73</ele>
        <time>2019-11-30T08:51:23Z</time>
      </trkpt>
      <trkpt lat="48.70947" lon="1.92639">
        <ele>171.73</ele>
        <time>2019-11-30T08:51:36Z</time>
      </trkpt>
      <trkpt lat="48.70952" lon="1.92641">
        <ele>171.73</ele>
        <time>2019-11-30T08:51:40Z</time>
      </trkpt>
      <trkpt lat="48.70953" lon="1.92642">
        <ele>172.21</ele>
        <time>2019-11-30T08:51:41Z</time>
      </trkpt>
      <trkpt lat="48.70955" lon="1.92643">
        <ele>171.73</ele>
        <time>2019-11-30T08:51:42Z</time>
      </trkpt>
      <trkpt lat="48.70957" lon="1.92645">
        <ele>172.21</ele>
        <time>2019-11-30T08:51:43Z</time>
      </trkpt>
      <trkpt lat="48.70959" lon="1.92648">
        <ele>172.69</ele>
        <time>2019-11-30T08:51:46Z</time>
      </trkpt>
      <trkpt lat="48.70967" lon="1.92649">
        <ele>172.69</ele>
        <time>2019-11-30T08:51:54Z</time>
      </trkpt>
      <trkpt lat="48.70984" lon="1.92654">
        <ele>173.17</ele>
        <time>2019-11-30T08:52:07Z</time>
      </trkpt>
      <trkpt lat="48.71002" lon="1.92655">
        <ele>173.17</ele>
        <time>2019-11-30T08:52:21Z</time>
      </trkpt>
      <trkpt lat="48.71023" lon="1.92651">
        <ele>173.66</ele>
        <time>2019-11-30T08:52:37Z</time>
      </trkpt>
      <trkpt lat="48.71025" lon="1.92652">
        <ele>173.66</ele>
        <time>2019-11-30T08:52:39Z</time>
      </trkpt>
      <trkpt lat="48.71026" lon="1.92651">
        <ele>173.66</ele>
        <time>2019-11-30T08:52:40Z</time>
      </trkpt>
      <trkpt lat="48.7103" lon="1.92649">
        <ele>174.14</ele>
        <time>2019-11-30T08:52:47Z</time>
      </trkpt>
      <trkpt lat="48.71031" lon="1.92649">
        <ele>174.14</ele>
        <time>2019-11-30T08:52:48Z</time>
      </trkpt>
      <trkpt lat="48.71038" lon="1.92646">
        <ele>173.66</ele>
        <time>2019-11-30T08:52:56Z</time>
      </trkpt>
      <trkpt lat="48.71039" lon="1.92645">
        <ele>173.66</ele>
        <time>2019-11-30T08:52:57Z</time>
      </trkpt>
      <trkpt lat="48.71041" lon="1.92645">
        <ele>173.66</ele>
        <time>2019-11-30T08:52:58Z</time>
      </trkpt>
      <trkpt lat="48.71042" lon="1.92645">
        <ele>174.14</ele>
        <time>2019-11-30T08:52:59Z</time>
      </trkpt>
      <trkpt lat="48.71045" lon="1.92646">
        <ele>173.66</ele>
        <time>2019-11-30T08:53:02Z</time>
      </trkpt>
      <trkpt lat="48.71047" lon="1.92646">
        <ele>173.66</ele>
        <time>2019-11-30T08:53:03Z</time>
      </trkpt>
      <trkpt lat="48.71049" lon="1.92646">
        <ele>174.14</ele>
        <time>2019-11-30T08:53:05Z</time>
      </trkpt>
      <trkpt lat="48.71051" lon="1.92646">
        <ele>174.14</ele>
        <time>2019-11-30T08:53:07Z</time>
      </trkpt>
      <trkpt lat="48.71052" lon="1.92647">
        <ele>174.62</ele>
        <time>2019-11-30T08:53:09Z</time>
      </trkpt>
      <trkpt lat="48.71067" lon="1.92644">
        <ele>173.66</ele>
        <time>2019-11-30T08:53:22Z</time>
      </trkpt>
      <trkpt lat="48.71086" lon="1.92641">
        <ele>174.14</ele>
        <time>2019-11-30T08:53:39Z</time>
      </trkpt>
      <trkpt lat="48.711" lon="1.92638">
        <ele>173.66</ele>
        <time>2019-11-30T08:53:52Z</time>
      </trkpt>
      <trkpt lat="48.71117" lon="1.92635">
        <ele>173.17</ele>
        <time>2019-11-30T08:54:05Z</time>
      </trkpt>
      <trkpt lat="48.71137" lon="1.9263">
        <ele>172.69</ele>
        <time>2019-11-30T08:54:22Z</time>
      </trkpt>
      <trkpt lat="48.71154" lon="1.92625">
        <ele>172.69</ele>
        <time>2019-11-30T08:54:36Z</time>
      </trkpt>
      <trkpt lat="48.71172" lon="1.9262">
        <ele>172.21</ele>
        <time>2019-11-30T08:54:52Z</time>
      </trkpt>
      <trkpt lat="48.71191" lon="1.92614">
        <ele>171.73</ele>
        <time>2019-11-30T08:55:07Z</time>
      </trkpt>
      <trkpt lat="48.7121" lon="1.92608">
        <ele>171.73</ele>
        <time>2019-11-30T08:55:24Z</time>
      </trkpt>
      <trkpt lat="48.71227" lon="1.92602">
        <ele>173.17</ele>
        <time>2019-11-30T08:55:38Z</time>
      </trkpt>
      <trkpt lat="48.71241" lon="1.92597">
        <ele>172.69</ele>
        <time>2019-11-30T08:55:50Z</time>
      </trkpt>
      <trkpt lat="48.71258" lon="1.92588">
        <ele>172.21</ele>
        <time>2019-11-30T08:56:04Z</time>
      </trkpt>
      <trkpt lat="48.71259" lon="1.92588">
        <ele>172.21</ele>
        <time>2019-11-30T08:56:05Z</time>
      </trkpt>
      <trkpt lat="48.7126" lon="1.92588">
        <ele>172.21</ele>
        <time>2019-11-30T08:56:06Z</time>
      </trkpt>
      <trkpt lat="48.71261" lon="1.92588">
        <ele>172.21</ele>
        <time>2019-11-30T08:56:07Z</time>
      </trkpt>
      <trkpt lat="48.71276" lon="1.9258">
        <ele>173.17</ele>
        <time>2019-11-30T08:56:20Z</time>
      </trkpt>
      <trkpt lat="48.71291" lon="1.9257">
        <ele>172.69</ele>
        <time>2019-11-30T08:56:34Z</time>
      </trkpt>
      <trkpt lat="48.71302" lon="1.92564">
        <ele>172.21</ele>
        <time>2019-11-30T08:56:46Z</time>
      </trkpt>
      <trkpt lat="48.71304" lon="1.92562">
        <ele>172.21</ele>
        <time>2019-11-30T08:56:48Z</time>
      </trkpt>
      <trkpt lat="48.71312" lon="1.92556">
        <ele>172.21</ele>
        <time>2019-11-30T08:56:57Z</time>
      </trkpt>
      <trkpt lat="48.71314" lon="1.92555">
        <ele>172.21</ele>
        <time>2019-11-30T08:56:58Z</time>
      </trkpt>
      <trkpt lat="48.71315" lon="1.92554">
        <ele>172.21</ele>
        <time>2019-11-30T08:56:59Z</time>
      </trkpt>
      <trkpt lat="48.71327" lon="1.92546">
        <ele>171.73</ele>
        <time>2019-11-30T08:57:10Z</time>
      </trkpt>
      <trkpt lat="48.7133" lon="1.92544">
        <ele>172.21</ele>
        <time>2019-11-30T08:57:13Z</time>
      </trkpt>
      <trkpt lat="48.71343" lon="1.92535">
        <ele>172.69</ele>
        <time>2019-11-30T08:57:25Z</time>
      </trkpt>
      <trkpt lat="48.71345" lon="1.92535">
        <ele>173.17</ele>
        <time>2019-11-30T08:57:26Z</time>
      </trkpt>
      <trkpt lat="48.71346" lon="1.92535">
        <ele>173.17</ele>
        <time>2019-11-30T08:57:27Z</time>
      </trkpt>
      <trkpt lat="48.71348" lon="1.92535">
        <ele>172.69</ele>
        <time>2019-11-30T08:57:29Z</time>
      </trkpt>
      <trkpt lat="48.71349" lon="1.92534">
        <ele>173.17</ele>
        <time>2019-11-30T08:57:30Z</time>
      </trkpt>
      <trkpt lat="48.71351" lon="1.92533">
        <ele>172.69</ele>
        <time>2019-11-30T08:57:31Z</time>
      </trkpt>
      <trkpt lat="48.71359" lon="1.92527">
        <ele>172.69</ele>
        <time>2019-11-30T08:57:41Z</time>
      </trkpt>
      <trkpt lat="48.71361" lon="1.92526">
        <ele>172.69</ele>
        <time>2019-11-30T08:57:46Z</time>
      </trkpt>
      <trkpt lat="48.71364" lon="1.92525">
        <ele>172.69</ele>
        <time>2019-11-30T08:57:49Z</time>
      </trkpt>
      <trkpt lat="48.71371" lon="1.92521">
        <ele>173.17</ele>
        <time>2019-11-30T08:57:58Z</time>
      </trkpt>
      <trkpt lat="48.71372" lon="1.9252">
        <ele>172.21</ele>
        <time>2019-11-30T08:57:59Z</time>
      </trkpt>
      <trkpt lat="48.71373" lon="1.92519">
        <ele>172.69</ele>
        <time>2019-11-30T08:58:00Z</time>
      </trkpt>
      <trkpt lat="48.71386" lon="1.92511">
        <ele>172.69</ele>
        <time>2019-11-30T08:58:12Z</time>
      </trkpt>
      <trkpt lat="48.71395" lon="1.92505">
        <ele>172.69</ele>
        <time>2019-11-30T08:58:21Z</time>
      </trkpt>
      <trkpt lat="48.71396" lon="1.92503">
        <ele>172.69</ele>
        <time>2019-11-30T08:58:22Z</time>
      </trkpt>
      <trkpt lat="48.71397" lon="1.92501">
        <ele>172.69</ele>
        <time>2019-11-30T08:58:23Z</time>
      </trkpt>
      <trkpt lat="48.71399" lon="1.92499">
        <ele>172.69</ele>
        <time>2019-11-30T08:58:24Z</time>
      </trkpt>
      <trkpt lat="48.714" lon="1.92499">
        <ele>172.69</ele>
        <time>2019-11-30T08:58:25Z</time>
      </trkpt>
      <trkpt lat="48.71404" lon="1.92496">
        <ele>172.69</ele>
        <time>2019-11-30T08:58:29Z</time>
      </trkpt>
      <trkpt lat="48.71405" lon="1.92495">
        <ele>172.69</ele>
        <time>2019-11-30T08:58:30Z</time>
      </trkpt>
      <trkpt lat="48.71405" lon="1.92492">
        <ele>172.69</ele>
        <time>2019-11-30T08:58:41Z</time>
      </trkpt>
      <trkpt lat="48.71404" lon="1.92494">
        <ele>172.69</ele>
        <time>2019-11-30T08:58:42Z</time>
      </trkpt>
      <trkpt lat="48.71404" lon="1.92495">
        <ele>172.69</ele>
        <time>2019-11-30T08:58:43Z</time>
      </trkpt>
      <trkpt lat="48.714" lon="1.92502">
        <ele>172.21</ele>
        <time>2019-11-30T08:58:54Z</time>
      </trkpt>
      <trkpt lat="48.714" lon="1.92505">
        <ele>172.69</ele>
        <time>2019-11-30T08:58:59Z</time>
      </trkpt>
      <trkpt lat="48.71397" lon="1.9251">
        <ele>172.21</ele>
        <time>2019-11-30T08:59:05Z</time>
      </trkpt>
      <trkpt lat="48.71396" lon="1.92512">
        <ele>172.69</ele>
        <time>2019-11-30T08:59:06Z</time>
      </trkpt>
      <trkpt lat="48.71398" lon="1.92522">
        <ele>172.69</ele>
        <time>2019-11-30T08:59:11Z</time>
      </trkpt>
      <trkpt lat="48.71397" lon="1.92523">
        <ele>172.69</ele>
        <time>2019-11-30T08:59:12Z</time>
      </trkpt>
      <trkpt lat="48.71397" lon="1.92524">
        <ele>172.69</ele>
        <time>2019-11-30T08:59:13Z</time>
      </trkpt>
      <trkpt lat="48.714" lon="1.92539">
        <ele>172.69</ele>
        <time>2019-11-30T08:59:24Z</time>
      </trkpt>
      <trkpt lat="48.714" lon="1.92541">
        <ele>172.69</ele>
        <time>2019-11-30T08:59:26Z</time>
      </trkpt>
      <trkpt lat="48.71402" lon="1.92553">
        <ele>172.21</ele>
        <time>2019-11-30T08:59:40Z</time>
      </trkpt>
      <trkpt lat="48.71402" lon="1.92548">
        <ele>172.69</ele>
        <time>2019-11-30T08:59:52Z</time>
      </trkpt>
      <trkpt lat="48.71404" lon="1.92551">
        <ele>172.69</ele>
        <time>2019-11-30T09:00:07Z</time>
      </trkpt>
      <trkpt lat="48.71401" lon="1.92555">
        <ele>172.21</ele>
        <time>2019-11-30T09:00:24Z</time>
      </trkpt>
      <trkpt lat="48.71402" lon="1.92553">
        <ele>172.69</ele>
        <time>2019-11-30T09:00:33Z</time>
      </trkpt>
      <trkpt lat="48.71403" lon="1.92552">
        <ele>172.69</ele>
        <time>2019-11-30T09:00:37Z</time>
      </trkpt>
      <trkpt lat="48.71402" lon="1.92555">
        <ele>172.21</ele>
        <time>2019-11-30T09:00:40Z</time>
      </trkpt>
      <trkpt lat="48.71403" lon="1.92558">
        <ele>172.21</ele>
        <time>2019-11-30T09:00:48Z</time>
      </trkpt>
      <trkpt lat="48.71407" lon="1.92577">
        <ele>172.21</ele>
        <time>2019-11-30T09:00:59Z</time>
      </trkpt>
      <trkpt lat="48.71407" lon="1.92581">
        <ele>172.21</ele>
        <time>2019-11-30T09:01:04Z</time>
      </trkpt>
      <trkpt lat="48.71409" lon="1.92597">
        <ele>172.69</ele>
        <time>2019-11-30T09:01:14Z</time>
      </trkpt>
      <trkpt lat="48.71413" lon="1.92615">
        <ele>172.21</ele>
        <time>2019-11-30T09:01:26Z</time>
      </trkpt>
      <trkpt lat="48.71415" lon="1.92623">
        <ele>172.21</ele>
        <time>2019-11-30T09:01:32Z</time>
      </trkpt>
      <trkpt lat="48.71414" lon="1.92635">
        <ele>172.21</ele>
        <time>2019-11-30T09:01:39Z</time>
      </trkpt>
      <trkpt lat="48.71416" lon="1.92648">
        <ele>172.21</ele>
        <time>2019-11-30T09:01:51Z</time>
      </trkpt>
      <trkpt lat="48.71416" lon="1.92654">
        <ele>172.21</ele>
        <time>2019-11-30T09:01:55Z</time>
      </trkpt>
      <trkpt lat="48.71416" lon="1.9266">
        <ele>172.21</ele>
        <time>2019-11-30T09:01:58Z</time>
      </trkpt>
      <trkpt lat="48.71419" lon="1.9268">
        <ele>172.21</ele>
        <time>2019-11-30T09:02:10Z</time>
      </trkpt>
      <trkpt lat="48.71419" lon="1.92699">
        <ele>172.69</ele>
        <time>2019-11-30T09:02:21Z</time>
      </trkpt>
      <trkpt lat="48.7142" lon="1.92711">
        <ele>172.21</ele>
        <time>2019-11-30T09:02:31Z</time>
      </trkpt>
      <trkpt lat="48.71421" lon="1.92733">
        <ele>172.69</ele>
        <time>2019-11-30T09:02:45Z</time>
      </trkpt>
      <trkpt lat="48.71421" lon="1.92736">
        <ele>172.21</ele>
        <time>2019-11-30T09:02:47Z</time>
      </trkpt>
      <trkpt lat="48.71428" lon="1.92754">
        <ele>172.21</ele>
        <time>2019-11-30T09:02:58Z</time>
      </trkpt>
      <trkpt lat="48.71435" lon="1.92763">
        <ele>171.73</ele>
        <time>2019-11-30T09:03:06Z</time>
      </trkpt>
      <trkpt lat="48.7144" lon="1.92771">
        <ele>172.21</ele>
        <time>2019-11-30T09:03:14Z</time>
      </trkpt>
      <trkpt lat="48.71452" lon="1.92789">
        <ele>171.73</ele>
        <time>2019-11-30T09:03:29Z</time>
      </trkpt>
      <trkpt lat="48.71462" lon="1.92807">
        <ele>172.21</ele>
        <time>2019-11-30T09:03:42Z</time>
      </trkpt>
      <trkpt lat="48.71469" lon="1.92819">
        <ele>171.73</ele>
        <time>2019-11-30T09:03:54Z</time>
      </trkpt>
      <trkpt lat="48.71476" lon="1.9283">
        <ele>171.73</ele>
        <time>2019-11-30T09:04:04Z</time>
      </trkpt>
      <trkpt lat="48.71483" lon="1.92845">
        <ele>171.73</ele>
        <time>2019-11-30T09:04:15Z</time>
      </trkpt>
      <trkpt lat="48.71495" lon="1.92859">
        <ele>171.25</ele>
        <time>2019-11-30T09:04:29Z</time>
      </trkpt>
      <trkpt lat="48.71504" lon="1.92875">
        <ele>171.25</ele>
        <time>2019-11-30T09:04:44Z</time>
      </trkpt>
      <trkpt lat="48.71513" lon="1.92894">
        <ele>171.25</ele>
        <time>2019-11-30T09:05:02Z</time>
      </trkpt>
      <trkpt lat="48.71519" lon="1.92903">
        <ele>170.29</ele>
        <time>2019-11-30T09:05:21Z</time>
      </trkpt>
      <trkpt lat="48.71524" lon="1.92907">
        <ele>171.25</ele>
        <time>2019-11-30T09:05:50Z</time>
      </trkpt>
      <trkpt lat="48.71531" lon="1.92925">
        <ele>171.25</ele>
        <time>2019-11-30T09:06:03Z</time>
      </trkpt>
      <trkpt lat="48.71535" lon="1.92949">
        <ele>169.33</ele>
        <time>2019-11-30T09:06:16Z</time>
      </trkpt>
      <trkpt lat="48.71536" lon="1.92957">
        <ele>168.37</ele>
        <time>2019-11-30T09:06:19Z</time>
      </trkpt>
      <trkpt lat="48.71535" lon="1.92962">
        <ele>169.33</ele>
        <time>2019-11-30T09:06:20Z</time>
      </trkpt>
      <trkpt lat="48.71539" lon="1.92997">
        <ele>166.93</ele>
        <time>2019-11-30T09:06:31Z</time>
      </trkpt>
      <trkpt lat="48.71543" lon="1.93017">
        <ele>166.93</ele>
        <time>2019-11-30T09:06:41Z</time>
      </trkpt>
      <trkpt lat="48.71544" lon="1.93019">
        <ele>166.93</ele>
        <time>2019-11-30T09:06:42Z</time>
      </trkpt>
      <trkpt lat="48.71545" lon="1.93021">
        <ele>165.96</ele>
        <time>2019-11-30T09:06:43Z</time>
      </trkpt>
      <trkpt lat="48.71544" lon="1.93024">
        <ele>166.93</ele>
        <time>2019-11-30T09:06:44Z</time>
      </trkpt>
      <trkpt lat="48.71544" lon="1.93026">
        <ele>166.45</ele>
        <time>2019-11-30T09:06:45Z</time>
      </trkpt>
      <trkpt lat="48.71545" lon="1.93039">
        <ele>166.45</ele>
        <time>2019-11-30T09:06:52Z</time>
      </trkpt>
      <trkpt lat="48.71546" lon="1.93042">
        <ele>165.96</ele>
        <time>2019-11-30T09:06:54Z</time>
      </trkpt>
      <trkpt lat="48.71547" lon="1.93066">
        <ele>164.52</ele>
        <time>2019-11-30T09:07:08Z</time>
      </trkpt>
      <trkpt lat="48.71547" lon="1.9307">
        <ele>164.52</ele>
        <time>2019-11-30T09:07:09Z</time>
      </trkpt>
      <trkpt lat="48.71546" lon="1.93092">
        <ele>164.52</ele>
        <time>2019-11-30T09:07:19Z</time>
      </trkpt>
      <trkpt lat="48.71545" lon="1.93109">
        <ele>163.56</ele>
        <time>2019-11-30T09:07:31Z</time>
      </trkpt>
      <trkpt lat="48.71546" lon="1.93118">
        <ele>164.04</ele>
        <time>2019-11-30T09:07:35Z</time>
      </trkpt>
      <trkpt lat="48.71546" lon="1.9312">
        <ele>164.04</ele>
        <time>2019-11-30T09:07:36Z</time>
      </trkpt>
      <trkpt lat="48.7154" lon="1.93144">
        <ele>163.08</ele>
        <time>2019-11-30T09:07:50Z</time>
      </trkpt>
      <trkpt lat="48.71539" lon="1.93162">
        <ele>163.08</ele>
        <time>2019-11-30T09:08:00Z</time>
      </trkpt>
      <trkpt lat="48.71539" lon="1.93164">
        <ele>163.08</ele>
        <time>2019-11-30T09:08:01Z</time>
      </trkpt>
      <trkpt lat="48.71538" lon="1.93166">
        <ele>163.08</ele>
        <time>2019-11-30T09:08:02Z</time>
      </trkpt>
      <trkpt lat="48.71536" lon="1.93181">
        <ele>162.6</ele>
        <time>2019-11-30T09:08:11Z</time>
      </trkpt>
      <trkpt lat="48.71536" lon="1.93183">
        <ele>162.12</ele>
        <time>2019-11-30T09:08:12Z</time>
      </trkpt>
      <trkpt lat="48.71535" lon="1.93185">
        <ele>162.6</ele>
        <time>2019-11-30T09:08:13Z</time>
      </trkpt>
      <trkpt lat="48.71535" lon="1.93187">
        <ele>162.6</ele>
        <time>2019-11-30T09:08:14Z</time>
      </trkpt>
      <trkpt lat="48.71535" lon="1.9319">
        <ele>162.6</ele>
        <time>2019-11-30T09:08:15Z</time>
      </trkpt>
      <trkpt lat="48.71532" lon="1.93206">
        <ele>162.6</ele>
        <time>2019-11-30T09:08:22Z</time>
      </trkpt>
      <trkpt lat="48.71531" lon="1.93208">
        <ele>163.08</ele>
        <time>2019-11-30T09:08:23Z</time>
      </trkpt>
      <trkpt lat="48.71531" lon="1.9321">
        <ele>162.6</ele>
        <time>2019-11-30T09:08:24Z</time>
      </trkpt>
      <trkpt lat="48.71531" lon="1.93212">
        <ele>162.6</ele>
        <time>2019-11-30T09:08:25Z</time>
      </trkpt>
      <trkpt lat="48.71529" lon="1.93226">
        <ele>163.08</ele>
        <time>2019-11-30T09:08:33Z</time>
      </trkpt>
      <trkpt lat="48.7153" lon="1.93228">
        <ele>163.08</ele>
        <time>2019-11-30T09:08:34Z</time>
      </trkpt>
      <trkpt lat="48.71531" lon="1.93243">
        <ele>162.6</ele>
        <time>2019-11-30T09:08:42Z</time>
      </trkpt>
      <trkpt lat="48.71531" lon="1.93246">
        <ele>162.6</ele>
        <time>2019-11-30T09:08:43Z</time>
      </trkpt>
      <trkpt lat="48.71534" lon="1.93266">
        <ele>161.64</ele>
        <time>2019-11-30T09:08:53Z</time>
      </trkpt>
      <trkpt lat="48.71537" lon="1.93278">
        <ele>161.16</ele>
        <time>2019-11-30T09:09:03Z</time>
      </trkpt>
      <trkpt lat="48.71538" lon="1.9328">
        <ele>161.16</ele>
        <time>2019-11-30T09:09:04Z</time>
      </trkpt>
      <trkpt lat="48.71539" lon="1.93281">
        <ele>160.68</ele>
        <time>2019-11-30T09:09:05Z</time>
      </trkpt>
      <trkpt lat="48.71546" lon="1.93303">
        <ele>160.68</ele>
        <time>2019-11-30T09:09:17Z</time>
      </trkpt>
      <trkpt lat="48.71557" lon="1.93326">
        <ele>159.24</ele>
        <time>2019-11-30T09:09:32Z</time>
      </trkpt>
      <trkpt lat="48.71565" lon="1.93341">
        <ele>158.27</ele>
        <time>2019-11-30T09:09:44Z</time>
      </trkpt>
      <trkpt lat="48.71566" lon="1.93344">
        <ele>158.75</ele>
        <time>2019-11-30T09:09:45Z</time>
      </trkpt>
      <trkpt lat="48.71567" lon="1.93346">
        <ele>158.75</ele>
        <time>2019-11-30T09:09:46Z</time>
      </trkpt>
      <trkpt lat="48.71568" lon="1.93347">
        <ele>157.79</ele>
        <time>2019-11-30T09:09:47Z</time>
      </trkpt>
      <trkpt lat="48.7157" lon="1.93349">
        <ele>158.27</ele>
        <time>2019-11-30T09:09:48Z</time>
      </trkpt>
      <trkpt lat="48.71572" lon="1.93351">
        <ele>158.27</ele>
        <time>2019-11-30T09:09:49Z</time>
      </trkpt>
      <trkpt lat="48.71575" lon="1.93355">
        <ele>157.79</ele>
        <time>2019-11-30T09:09:51Z</time>
      </trkpt>
      <trkpt lat="48.71578" lon="1.93361">
        <ele>157.31</ele>
        <time>2019-11-30T09:09:54Z</time>
      </trkpt>
      <trkpt lat="48.7158" lon="1.93369">
        <ele>157.79</ele>
        <time>2019-11-30T09:09:58Z</time>
      </trkpt>
      <trkpt lat="48.71587" lon="1.93389">
        <ele>157.31</ele>
        <time>2019-11-30T09:10:11Z</time>
      </trkpt>
      <trkpt lat="48.71588" lon="1.9339">
        <ele>157.31</ele>
        <time>2019-11-30T09:10:12Z</time>
      </trkpt>
      <trkpt lat="48.71598" lon="1.93416">
        <ele>157.31</ele>
        <time>2019-11-30T09:10:23Z</time>
      </trkpt>
      <trkpt lat="48.71602" lon="1.93427">
        <ele>156.83</ele>
        <time>2019-11-30T09:10:32Z</time>
      </trkpt>
      <trkpt lat="48.71604" lon="1.93448">
        <ele>157.31</ele>
        <time>2019-11-30T09:10:46Z</time>
      </trkpt>
      <trkpt lat="48.7161" lon="1.93464">
        <ele>157.31</ele>
        <time>2019-11-30T09:10:56Z</time>
      </trkpt>
      <trkpt lat="48.71611" lon="1.93468">
        <ele>156.83</ele>
        <time>2019-11-30T09:10:58Z</time>
      </trkpt>
      <trkpt lat="48.71613" lon="1.93471">
        <ele>157.31</ele>
        <time>2019-11-30T09:10:59Z</time>
      </trkpt>
      <trkpt lat="48.71614" lon="1.93474">
        <ele>157.31</ele>
        <time>2019-11-30T09:11:00Z</time>
      </trkpt>
      <trkpt lat="48.71615" lon="1.93477">
        <ele>157.31</ele>
        <time>2019-11-30T09:11:01Z</time>
      </trkpt>
      <trkpt lat="48.71616" lon="1.9348">
        <ele>157.31</ele>
        <time>2019-11-30T09:11:02Z</time>
      </trkpt>
      <trkpt lat="48.71617" lon="1.93483">
        <ele>156.83</ele>
        <time>2019-11-30T09:11:03Z</time>
      </trkpt>
      <trkpt lat="48.71618" lon="1.93485">
        <ele>156.35</ele>
        <time>2019-11-30T09:11:04Z</time>
      </trkpt>
      <trkpt lat="48.71619" lon="1.93488">
        <ele>156.83</ele>
        <time>2019-11-30T09:11:05Z</time>
      </trkpt>
      <trkpt lat="48.7162" lon="1.9349">
        <ele>156.83</ele>
        <time>2019-11-30T09:11:06Z</time>
      </trkpt>
      <trkpt lat="48.7162" lon="1.93493">
        <ele>156.83</ele>
        <time>2019-11-30T09:11:07Z</time>
      </trkpt>
      <trkpt lat="48.71621" lon="1.93494">
        <ele>157.31</ele>
        <time>2019-11-30T09:11:08Z</time>
      </trkpt>
      <trkpt lat="48.71627" lon="1.93512">
        <ele>155.87</ele>
        <time>2019-11-30T09:11:21Z</time>
      </trkpt>
      <trkpt lat="48.71628" lon="1.93514">
        <ele>155.87</ele>
        <time>2019-11-30T09:11:22Z</time>
      </trkpt>
      <trkpt lat="48.71629" lon="1.93517">
        <ele>155.87</ele>
        <time>2019-11-30T09:11:23Z</time>
      </trkpt>
      <trkpt lat="48.71629" lon="1.93519">
        <ele>155.39</ele>
        <time>2019-11-30T09:11:24Z</time>
      </trkpt>
      <trkpt lat="48.71635" lon="1.9354">
        <ele>154.91</ele>
        <time>2019-11-30T09:11:37Z</time>
      </trkpt>
      <trkpt lat="48.71638" lon="1.93542">
        <ele>155.39</ele>
        <time>2019-11-30T09:11:42Z</time>
      </trkpt>
      <trkpt lat="48.71643" lon="1.93567">
        <ele>154.43</ele>
        <time>2019-11-30T09:11:55Z</time>
      </trkpt>
      <trkpt lat="48.71649" lon="1.93586">
        <ele>154.43</ele>
        <time>2019-11-30T09:12:06Z</time>
      </trkpt>
      <trkpt lat="48.71651" lon="1.9361">
        <ele>152.99</ele>
        <time>2019-11-30T09:12:17Z</time>
      </trkpt>
      <trkpt lat="48.71653" lon="1.93624">
        <ele>152.51</ele>
        <time>2019-11-30T09:12:29Z</time>
      </trkpt>
      <trkpt lat="48.71654" lon="1.93626">
        <ele>152.03</ele>
        <time>2019-11-30T09:12:30Z</time>
      </trkpt>
      <trkpt lat="48.7166" lon="1.93637">
        <ele>149.14</ele>
        <time>2019-11-30T09:12:39Z</time>
      </trkpt>
      <trkpt lat="48.71668" lon="1.93649">
        <ele>146.74</ele>
        <time>2019-11-30T09:12:44Z</time>
      </trkpt>
      <trkpt lat="48.71677" lon="1.93663">
        <ele>143.85</ele>
        <time>2019-11-30T09:12:50Z</time>
      </trkpt>
      <trkpt lat="48.71691" lon="1.93685">
        <ele>140.97</ele>
        <time>2019-11-30T09:12:57Z</time>
      </trkpt>
      <trkpt lat="48.71693" lon="1.937">
        <ele>139.05</ele>
        <time>2019-11-30T09:13:09Z</time>
      </trkpt>
      <trkpt lat="48.71693" lon="1.93704">
        <ele>138.57</ele>
        <time>2019-11-30T09:13:11Z</time>
      </trkpt>
      <trkpt lat="48.71693" lon="1.93707">
        <ele>138.57</ele>
        <time>2019-11-30T09:13:12Z</time>
      </trkpt>
      <trkpt lat="48.71694" lon="1.9371">
        <ele>138.09</ele>
        <time>2019-11-30T09:13:13Z</time>
      </trkpt>
      <trkpt lat="48.71694" lon="1.93714">
        <ele>138.09</ele>
        <time>2019-11-30T09:13:14Z</time>
      </trkpt>
      <trkpt lat="48.71695" lon="1.93717">
        <ele>138.09</ele>
        <time>2019-11-30T09:13:15Z</time>
      </trkpt>
      <trkpt lat="48.71696" lon="1.93738">
        <ele>137.13</ele>
        <time>2019-11-30T09:13:26Z</time>
      </trkpt>
      <trkpt lat="48.717" lon="1.93762">
        <ele>135.68</ele>
        <time>2019-11-30T09:13:39Z</time>
      </trkpt>
      <trkpt lat="48.71705" lon="1.93762">
        <ele>135.2</ele>
        <time>2019-11-30T09:13:55Z</time>
      </trkpt>
      <trkpt lat="48.71703" lon="1.93765">
        <ele>136.16</ele>
        <time>2019-11-30T09:14:10Z</time>
      </trkpt>
      <trkpt lat="48.71704" lon="1.93776">
        <ele>135.2</ele>
        <time>2019-11-30T09:14:16Z</time>
      </trkpt>
      <trkpt lat="48.71704" lon="1.93778">
        <ele>134.72</ele>
        <time>2019-11-30T09:14:17Z</time>
      </trkpt>
      <trkpt lat="48.71711" lon="1.938">
        <ele>133.76</ele>
        <time>2019-11-30T09:14:30Z</time>
      </trkpt>
      <trkpt lat="48.71715" lon="1.93807">
        <ele>132.8</ele>
        <time>2019-11-30T09:14:43Z</time>
      </trkpt>
      <trkpt lat="48.71717" lon="1.93809">
        <ele>133.28</ele>
        <time>2019-11-30T09:14:45Z</time>
      </trkpt>
      <trkpt lat="48.71717" lon="1.93811">
        <ele>133.28</ele>
        <time>2019-11-30T09:14:46Z</time>
      </trkpt>
      <trkpt lat="48.71728" lon="1.93831">
        <ele>131.84</ele>
        <time>2019-11-30T09:14:58Z</time>
      </trkpt>
      <trkpt lat="48.71738" lon="1.93853">
        <ele>130.88</ele>
        <time>2019-11-30T09:15:12Z</time>
      </trkpt>
      <trkpt lat="48.71744" lon="1.93867">
        <ele>130.4</ele>
        <time>2019-11-30T09:15:21Z</time>
      </trkpt>
      <trkpt lat="48.71744" lon="1.93869">
        <ele>130.4</ele>
        <time>2019-11-30T09:15:22Z</time>
      </trkpt>
      <trkpt lat="48.71745" lon="1.9387">
        <ele>130.4</ele>
        <time>2019-11-30T09:15:23Z</time>
      </trkpt>
      <trkpt lat="48.71758" lon="1.93892">
        <ele>129.43</ele>
        <time>2019-11-30T09:15:39Z</time>
      </trkpt>
      <trkpt lat="48.71769" lon="1.93912">
        <ele>127.99</ele>
        <time>2019-11-30T09:15:52Z</time>
      </trkpt>
      <trkpt lat="48.71774" lon="1.93919">
        <ele>127.51</ele>
        <time>2019-11-30T09:15:59Z</time>
      </trkpt>
      <trkpt lat="48.71779" lon="1.93923">
        <ele>127.03</ele>
        <time>2019-11-30T09:16:01Z</time>
      </trkpt>
      <trkpt lat="48.71781" lon="1.93925">
        <ele>127.03</ele>
        <time>2019-11-30T09:16:02Z</time>
      </trkpt>
      <trkpt lat="48.71783" lon="1.93926">
        <ele>127.03</ele>
        <time>2019-11-30T09:16:03Z</time>
      </trkpt>
      <trkpt lat="48.71786" lon="1.93927">
        <ele>127.03</ele>
        <time>2019-11-30T09:16:04Z</time>
      </trkpt>
      <trkpt lat="48.71787" lon="1.93928">
        <ele>127.03</ele>
        <time>2019-11-30T09:16:05Z</time>
      </trkpt>
      <trkpt lat="48.71797" lon="1.93932">
        <ele>125.59</ele>
        <time>2019-11-30T09:16:15Z</time>
      </trkpt>
      <trkpt lat="48.71799" lon="1.93933">
        <ele>125.59</ele>
        <time>2019-11-30T09:16:16Z</time>
      </trkpt>
      <trkpt lat="48.71817" lon="1.93934">
        <ele>123.67</ele>
        <time>2019-11-30T09:16:26Z</time>
      </trkpt>
      <trkpt lat="48.71829" lon="1.93942">
        <ele>121.74</ele>
        <time>2019-11-30T09:16:40Z</time>
      </trkpt>
      <trkpt lat="48.71845" lon="1.93951">
        <ele>120.3</ele>
        <time>2019-11-30T09:16:50Z</time>
      </trkpt>
      <trkpt lat="48.71852" lon="1.93957">
        <ele>118.86</ele>
        <time>2019-11-30T09:16:58Z</time>
      </trkpt>
      <trkpt lat="48.71865" lon="1.93965">
        <ele>117.9</ele>
        <time>2019-11-30T09:17:10Z</time>
      </trkpt>
      <trkpt lat="48.71877" lon="1.93972">
        <ele>116.46</ele>
        <time>2019-11-30T09:17:21Z</time>
      </trkpt>
      <trkpt lat="48.71895" lon="1.93978">
        <ele>116.46</ele>
        <time>2019-11-30T09:17:33Z</time>
      </trkpt>
      <trkpt lat="48.71899" lon="1.93977">
        <ele>115.5</ele>
        <time>2019-11-30T09:17:39Z</time>
      </trkpt>
      <trkpt lat="48.719" lon="1.93977">
        <ele>115.5</ele>
        <time>2019-11-30T09:17:40Z</time>
      </trkpt>
      <trkpt lat="48.71921" lon="1.9399">
        <ele>114.05</ele>
        <time>2019-11-30T09:17:52Z</time>
      </trkpt>
      <trkpt lat="48.71929" lon="1.94005">
        <ele>113.57</ele>
        <time>2019-11-30T09:18:02Z</time>
      </trkpt>
      <trkpt lat="48.71931" lon="1.94007">
        <ele>113.57</ele>
        <time>2019-11-30T09:18:03Z</time>
      </trkpt>
      <trkpt lat="48.71941" lon="1.94024">
        <ele>112.61</ele>
        <time>2019-11-30T09:18:17Z</time>
      </trkpt>
      <trkpt lat="48.7195" lon="1.94035">
        <ele>111.65</ele>
        <time>2019-11-30T09:18:27Z</time>
      </trkpt>
      <trkpt lat="48.71954" lon="1.94038">
        <ele>111.65</ele>
        <time>2019-11-30T09:18:37Z</time>
      </trkpt>
      <trkpt lat="48.71964" lon="1.94039">
        <ele>112.13</ele>
        <time>2019-11-30T09:18:48Z</time>
      </trkpt>
      <trkpt lat="48.71973" lon="1.94038">
        <ele>110.21</ele>
        <time>2019-11-30T09:18:59Z</time>
      </trkpt>
      <trkpt lat="48.71974" lon="1.94038">
        <ele>115.01</ele>
        <time>2019-11-30T09:19:00Z</time>
      </trkpt>
      <trkpt lat="48.71975" lon="1.94037">
        <ele>113.09</ele>
        <time>2019-11-30T09:19:01Z</time>
      </trkpt>
      <trkpt lat="48.71977" lon="1.94037">
        <ele>112.13</ele>
        <time>2019-11-30T09:19:03Z</time>
      </trkpt>
      <trkpt lat="48.71983" lon="1.94037">
        <ele>111.65</ele>
        <time>2019-11-30T09:19:14Z</time>
      </trkpt>
      <trkpt lat="48.71985" lon="1.94038">
        <ele>112.13</ele>
        <time>2019-11-30T09:19:32Z</time>
      </trkpt>
      <trkpt lat="48.71981" lon="1.94042">
        <ele>111.65</ele>
        <time>2019-11-30T09:19:46Z</time>
      </trkpt>
      <trkpt lat="48.71982" lon="1.94041">
        <ele>111.65</ele>
        <time>2019-11-30T09:19:49Z</time>
      </trkpt>
      <trkpt lat="48.71991" lon="1.94036">
        <ele>111.65</ele>
        <time>2019-11-30T09:19:56Z</time>
      </trkpt>
      <trkpt lat="48.71998" lon="1.94031">
        <ele>112.13</ele>
        <time>2019-11-30T09:20:08Z</time>
      </trkpt>
      <trkpt lat="48.72005" lon="1.94028">
        <ele>111.65</ele>
        <time>2019-11-30T09:20:21Z</time>
      </trkpt>
      <trkpt lat="48.72007" lon="1.94027">
        <ele>111.17</ele>
        <time>2019-11-30T09:20:24Z</time>
      </trkpt>
      <trkpt lat="48.72009" lon="1.94026">
        <ele>111.65</ele>
        <time>2019-11-30T09:20:25Z</time>
      </trkpt>
      <trkpt lat="48.72019" lon="1.9402">
        <ele>112.13</ele>
        <time>2019-11-30T09:20:37Z</time>
      </trkpt>
      <trkpt lat="48.72024" lon="1.94028">
        <ele>112.13</ele>
        <time>2019-11-30T09:20:50Z</time>
      </trkpt>
      <trkpt lat="48.72026" lon="1.94035">
        <ele>112.13</ele>
        <time>2019-11-30T09:21:01Z</time>
      </trkpt>
      <trkpt lat="48.72027" lon="1.94038">
        <ele>112.13</ele>
        <time>2019-11-30T09:21:02Z</time>
      </trkpt>
      <trkpt lat="48.72029" lon="1.94052">
        <ele>111.65</ele>
        <time>2019-11-30T09:21:08Z</time>
      </trkpt>
      <trkpt lat="48.72029" lon="1.94054">
        <ele>112.13</ele>
        <time>2019-11-30T09:21:09Z</time>
      </trkpt>
      <trkpt lat="48.72029" lon="1.94056">
        <ele>112.13</ele>
        <time>2019-11-30T09:21:10Z</time>
      </trkpt>
      <trkpt lat="48.72029" lon="1.94059">
        <ele>111.65</ele>
        <time>2019-11-30T09:21:11Z</time>
      </trkpt>
      <trkpt lat="48.72029" lon="1.94061">
        <ele>112.13</ele>
        <time>2019-11-30T09:21:12Z</time>
      </trkpt>
      <trkpt lat="48.72029" lon="1.94063">
        <ele>111.65</ele>
        <time>2019-11-30T09:21:13Z</time>
      </trkpt>
      <trkpt lat="48.72029" lon="1.94066">
        <ele>111.65</ele>
        <time>2019-11-30T09:21:14Z</time>
      </trkpt>
      <trkpt lat="48.72029" lon="1.94068">
        <ele>111.65</ele>
        <time>2019-11-30T09:21:15Z</time>
      </trkpt>
      <trkpt lat="48.72029" lon="1.94069">
        <ele>111.65</ele>
        <time>2019-11-30T09:21:16Z</time>
      </trkpt>
      <trkpt lat="48.72031" lon="1.94082">
        <ele>111.65</ele>
        <time>2019-11-30T09:21:28Z</time>
      </trkpt>
      <trkpt lat="48.7203" lon="1.94087">
        <ele>111.65</ele>
        <time>2019-11-30T09:21:31Z</time>
      </trkpt>
      <trkpt lat="48.72029" lon="1.94089">
        <ele>111.17</ele>
        <time>2019-11-30T09:21:32Z</time>
      </trkpt>
      <trkpt lat="48.72028" lon="1.94091">
        <ele>111.65</ele>
        <time>2019-11-30T09:21:33Z</time>
      </trkpt>
      <trkpt lat="48.72027" lon="1.94093">
        <ele>111.65</ele>
        <time>2019-11-30T09:21:34Z</time>
      </trkpt>
      <trkpt lat="48.72026" lon="1.94095">
        <ele>111.65</ele>
        <time>2019-11-30T09:21:35Z</time>
      </trkpt>
      <trkpt lat="48.72025" lon="1.94099">
        <ele>111.65</ele>
        <time>2019-11-30T09:21:36Z</time>
      </trkpt>
      <trkpt lat="48.72025" lon="1.94102">
        <ele>112.13</ele>
        <time>2019-11-30T09:21:37Z</time>
      </trkpt>
      <trkpt lat="48.72024" lon="1.94104">
        <ele>111.65</ele>
        <time>2019-11-30T09:21:38Z</time>
      </trkpt>
      <trkpt lat="48.72024" lon="1.94106">
        <ele>111.65</ele>
        <time>2019-11-30T09:21:39Z</time>
      </trkpt>
      <trkpt lat="48.72023" lon="1.94108">
        <ele>111.65</ele>
        <time>2019-11-30T09:21:40Z</time>
      </trkpt>
      <trkpt lat="48.72023" lon="1.94109">
        <ele>112.13</ele>
        <time>2019-11-30T09:21:41Z</time>
      </trkpt>
      <trkpt lat="48.72022" lon="1.94111">
        <ele>111.65</ele>
        <time>2019-11-30T09:21:42Z</time>
      </trkpt>
      <trkpt lat="48.72022" lon="1.94113">
        <ele>111.65</ele>
        <time>2019-11-30T09:21:43Z</time>
      </trkpt>
      <trkpt lat="48.7202" lon="1.94121">
        <ele>111.65</ele>
        <time>2019-11-30T09:21:49Z</time>
      </trkpt>
      <trkpt lat="48.7202" lon="1.94122">
        <ele>111.65</ele>
        <time>2019-11-30T09:21:50Z</time>
      </trkpt>
      <trkpt lat="48.72017" lon="1.94147">
        <ele>111.65</ele>
        <time>2019-11-30T09:22:02Z</time>
      </trkpt>
      <trkpt lat="48.72017" lon="1.94149">
        <ele>112.61</ele>
        <time>2019-11-30T09:22:03Z</time>
      </trkpt>
      <trkpt lat="48.72017" lon="1.94151">
        <ele>113.09</ele>
        <time>2019-11-30T09:22:04Z</time>
      </trkpt>
      <trkpt lat="48.72016" lon="1.94153">
        <ele>111.65</ele>
        <time>2019-11-30T09:22:05Z</time>
      </trkpt>
      <trkpt lat="48.72016" lon="1.94155">
        <ele>112.13</ele>
        <time>2019-11-30T09:22:06Z</time>
      </trkpt>
      <trkpt lat="48.72016" lon="1.94157">
        <ele>112.13</ele>
        <time>2019-11-30T09:22:07Z</time>
      </trkpt>
      <trkpt lat="48.72018" lon="1.94178">
        <ele>112.13</ele>
        <time>2019-11-30T09:22:17Z</time>
      </trkpt>
      <trkpt lat="48.7202" lon="1.94195">
        <ele>111.65</ele>
        <time>2019-11-30T09:22:28Z</time>
      </trkpt>
      <trkpt lat="48.72018" lon="1.94198">
        <ele>112.13</ele>
        <time>2019-11-30T09:22:30Z</time>
      </trkpt>
      <trkpt lat="48.72016" lon="1.9421">
        <ele>112.13</ele>
        <time>2019-11-30T09:22:42Z</time>
      </trkpt>
      <trkpt lat="48.72016" lon="1.94213">
        <ele>111.65</ele>
        <time>2019-11-30T09:22:46Z</time>
      </trkpt>
      <trkpt lat="48.72019" lon="1.94219">
        <ele>111.65</ele>
        <time>2019-11-30T09:22:50Z</time>
      </trkpt>
      <trkpt lat="48.72019" lon="1.94222">
        <ele>112.13</ele>
        <time>2019-11-30T09:22:52Z</time>
      </trkpt>
      <trkpt lat="48.72019" lon="1.94224">
        <ele>112.13</ele>
        <time>2019-11-30T09:22:53Z</time>
      </trkpt>
      <trkpt lat="48.72028" lon="1.9426">
        <ele>113.09</ele>
        <time>2019-11-30T09:23:09Z</time>
      </trkpt>
      <trkpt lat="48.72029" lon="1.94261">
        <ele>112.61</ele>
        <time>2019-11-30T09:23:10Z</time>
      </trkpt>
      <trkpt lat="48.72037" lon="1.94293">
        <ele>113.09</ele>
        <time>2019-11-30T09:23:28Z</time>
      </trkpt>
      <trkpt lat="48.72039" lon="1.94297">
        <ele>111.17</ele>
        <time>2019-11-30T09:23:30Z</time>
      </trkpt>
      <trkpt lat="48.72039" lon="1.94299">
        <ele>114.53</ele>
        <time>2019-11-30T09:23:31Z</time>
      </trkpt>
      <trkpt lat="48.7204" lon="1.943">
        <ele>113.09</ele>
        <time>2019-11-30T09:23:32Z</time>
      </trkpt>
      <trkpt lat="48.72046" lon="1.94324">
        <ele>113.09</ele>
        <time>2019-11-30T09:23:45Z</time>
      </trkpt>
      <trkpt lat="48.72053" lon="1.94341">
        <ele>113.09</ele>
        <time>2019-11-30T09:23:55Z</time>
      </trkpt>
      <trkpt lat="48.72054" lon="1.94343">
        <ele>113.09</ele>
        <time>2019-11-30T09:23:56Z</time>
      </trkpt>
      <trkpt lat="48.72054" lon="1.94345">
        <ele>113.09</ele>
        <time>2019-11-30T09:23:57Z</time>
      </trkpt>
      <trkpt lat="48.72055" lon="1.94347">
        <ele>113.09</ele>
        <time>2019-11-30T09:23:58Z</time>
      </trkpt>
      <trkpt lat="48.72055" lon="1.94349">
        <ele>113.57</ele>
        <time>2019-11-30T09:23:59Z</time>
      </trkpt>
      <trkpt lat="48.72058" lon="1.94359">
        <ele>113.09</ele>
        <time>2019-11-30T09:24:06Z</time>
      </trkpt>
      <trkpt lat="48.72058" lon="1.94361">
        <ele>113.09</ele>
        <time>2019-11-30T09:24:07Z</time>
      </trkpt>
      <trkpt lat="48.7206" lon="1.9437">
        <ele>112.61</ele>
        <time>2019-11-30T09:24:13Z</time>
      </trkpt>
      <trkpt lat="48.7206" lon="1.94372">
        <ele>112.61</ele>
        <time>2019-11-30T09:24:14Z</time>
      </trkpt>
      <trkpt lat="48.72061" lon="1.94374">
        <ele>112.61</ele>
        <time>2019-11-30T09:24:15Z</time>
      </trkpt>
      <trkpt lat="48.72061" lon="1.94377">
        <ele>112.13</ele>
        <time>2019-11-30T09:24:16Z</time>
      </trkpt>
      <trkpt lat="48.72061" lon="1.94379">
        <ele>112.13</ele>
        <time>2019-11-30T09:24:17Z</time>
      </trkpt>
      <trkpt lat="48.72066" lon="1.9441">
        <ele>112.13</ele>
        <time>2019-11-30T09:24:32Z</time>
      </trkpt>
      <trkpt lat="48.72071" lon="1.94441">
        <ele>111.65</ele>
        <time>2019-11-30T09:24:48Z</time>
      </trkpt>
      <trkpt lat="48.72073" lon="1.94467">
        <ele>111.65</ele>
        <time>2019-11-30T09:25:02Z</time>
      </trkpt>
      <trkpt lat="48.72073" lon="1.94472">
        <ele>111.17</ele>
        <time>2019-11-30T09:25:04Z</time>
      </trkpt>
      <trkpt lat="48.72073" lon="1.94474">
        <ele>111.65</ele>
        <time>2019-11-30T09:25:05Z</time>
      </trkpt>
      <trkpt lat="48.72073" lon="1.94477">
        <ele>111.17</ele>
        <time>2019-11-30T09:25:06Z</time>
      </trkpt>
      <trkpt lat="48.72077" lon="1.94503">
        <ele>111.17</ele>
        <time>2019-11-30T09:25:20Z</time>
      </trkpt>
      <trkpt lat="48.72078" lon="1.94507">
        <ele>111.17</ele>
        <time>2019-11-30T09:25:22Z</time>
      </trkpt>
      <trkpt lat="48.72078" lon="1.94514">
        <ele>110.69</ele>
        <time>2019-11-30T09:25:26Z</time>
      </trkpt>
      <trkpt lat="48.72078" lon="1.94517">
        <ele>110.69</ele>
        <time>2019-11-30T09:25:27Z</time>
      </trkpt>
      <trkpt lat="48.72078" lon="1.94519">
        <ele>111.17</ele>
        <time>2019-11-30T09:25:28Z</time>
      </trkpt>
      <trkpt lat="48.72078" lon="1.94522">
        <ele>110.69</ele>
        <time>2019-11-30T09:25:29Z</time>
      </trkpt>
      <trkpt lat="48.72078" lon="1.94525">
        <ele>110.69</ele>
        <time>2019-11-30T09:25:30Z</time>
      </trkpt>
      <trkpt lat="48.72078" lon="1.94527">
        <ele>110.21</ele>
        <time>2019-11-30T09:25:31Z</time>
      </trkpt>
      <trkpt lat="48.72078" lon="1.94529">
        <ele>109.73</ele>
        <time>2019-11-30T09:25:32Z</time>
      </trkpt>
      <trkpt lat="48.72081" lon="1.9455">
        <ele>110.21</ele>
        <time>2019-11-30T09:25:43Z</time>
      </trkpt>
      <trkpt lat="48.72084" lon="1.94571">
        <ele>110.21</ele>
        <time>2019-11-30T09:25:55Z</time>
      </trkpt>
      <trkpt lat="48.72084" lon="1.94571">
        <ele>110.21</ele>
        <time>2019-11-30T09:25:56Z</time>
      </trkpt>
      <trkpt lat="48.72084" lon="1.94573">
        <ele>110.21</ele>
        <time>2019-11-30T09:25:57Z</time>
      </trkpt>
      <trkpt lat="48.72085" lon="1.94574">
        <ele>110.21</ele>
        <time>2019-11-30T09:25:58Z</time>
      </trkpt>
      <trkpt lat="48.72085" lon="1.94582">
        <ele>110.21</ele>
        <time>2019-11-30T09:26:02Z</time>
      </trkpt>
      <trkpt lat="48.72092" lon="1.94606">
        <ele>110.21</ele>
        <time>2019-11-30T09:26:15Z</time>
      </trkpt>
      <trkpt lat="48.72103" lon="1.94628">
        <ele>110.21</ele>
        <time>2019-11-30T09:26:29Z</time>
      </trkpt>
      <trkpt lat="48.72104" lon="1.94628">
        <ele>111.17</ele>
        <time>2019-11-30T09:26:31Z</time>
      </trkpt>
      <trkpt lat="48.72105" lon="1.9463">
        <ele>110.69</ele>
        <time>2019-11-30T09:26:32Z</time>
      </trkpt>
      <trkpt lat="48.72105" lon="1.94631">
        <ele>109.73</ele>
        <time>2019-11-30T09:26:36Z</time>
      </trkpt>
      <trkpt lat="48.72104" lon="1.94632">
        <ele>110.69</ele>
        <time>2019-11-30T09:26:37Z</time>
      </trkpt>
      <trkpt lat="48.72104" lon="1.94635">
        <ele>109.73</ele>
        <time>2019-11-30T09:26:38Z</time>
      </trkpt>
      <trkpt lat="48.72104" lon="1.94637">
        <ele>110.21</ele>
        <time>2019-11-30T09:26:39Z</time>
      </trkpt>
      <trkpt lat="48.72105" lon="1.94639">
        <ele>109.73</ele>
        <time>2019-11-30T09:26:40Z</time>
      </trkpt>
      <trkpt lat="48.72113" lon="1.94665">
        <ele>110.21</ele>
        <time>2019-11-30T09:26:54Z</time>
      </trkpt>
      <trkpt lat="48.72119" lon="1.94683">
        <ele>109.73</ele>
        <time>2019-11-30T09:27:05Z</time>
      </trkpt>
      <trkpt lat="48.72124" lon="1.94706">
        <ele>109.73</ele>
        <time>2019-11-30T09:27:20Z</time>
      </trkpt>
      <trkpt lat="48.72129" lon="1.94733">
        <ele>110.21</ele>
        <time>2019-11-30T09:27:36Z</time>
      </trkpt>
      <trkpt lat="48.7213" lon="1.94746">
        <ele>109.73</ele>
        <time>2019-11-30T09:27:43Z</time>
      </trkpt>
      <trkpt lat="48.72131" lon="1.94754">
        <ele>109.73</ele>
        <time>2019-11-30T09:27:48Z</time>
      </trkpt>
      <trkpt lat="48.72131" lon="1.94756">
        <ele>109.73</ele>
        <time>2019-11-30T09:27:49Z</time>
      </trkpt>
      <trkpt lat="48.72132" lon="1.94758">
        <ele>110.21</ele>
        <time>2019-11-30T09:27:50Z</time>
      </trkpt>
      <trkpt lat="48.72132" lon="1.9476">
        <ele>109.73</ele>
        <time>2019-11-30T09:27:51Z</time>
      </trkpt>
      <trkpt lat="48.72133" lon="1.94762">
        <ele>110.21</ele>
        <time>2019-11-30T09:27:52Z</time>
      </trkpt>
      <trkpt lat="48.72138" lon="1.94792">
        <ele>109.73</ele>
        <time>2019-11-30T09:28:09Z</time>
      </trkpt>
      <trkpt lat="48.7214" lon="1.94799">
        <ele>109.73</ele>
        <time>2019-11-30T09:28:15Z</time>
      </trkpt>
      <trkpt lat="48.72141" lon="1.94801">
        <ele>110.21</ele>
        <time>2019-11-30T09:28:16Z</time>
      </trkpt>
      <trkpt lat="48.72141" lon="1.9481">
        <ele>109.25</ele>
        <time>2019-11-30T09:28:22Z</time>
      </trkpt>
      <trkpt lat="48.72141" lon="1.94812">
        <ele>109.25</ele>
        <time>2019-11-30T09:28:23Z</time>
      </trkpt>
      <trkpt lat="48.7214" lon="1.94815">
        <ele>109.25</ele>
        <time>2019-11-30T09:28:24Z</time>
      </trkpt>
      <trkpt lat="48.7214" lon="1.94817">
        <ele>109.25</ele>
        <time>2019-11-30T09:28:25Z</time>
      </trkpt>
      <trkpt lat="48.72135" lon="1.94825">
        <ele>109.25</ele>
        <time>2019-11-30T09:28:37Z</time>
      </trkpt>
      <trkpt lat="48.72132" lon="1.9483">
        <ele>109.73</ele>
        <time>2019-11-30T09:28:52Z</time>
      </trkpt>
      <trkpt lat="48.72134" lon="1.94829">
        <ele>109.25</ele>
        <time>2019-11-30T09:29:12Z</time>
      </trkpt>
      <trkpt lat="48.72131" lon="1.94831">
        <ele>108.77</ele>
        <time>2019-11-30T09:29:16Z</time>
      </trkpt>
      <trkpt lat="48.7213" lon="1.9483">
        <ele>108.77</ele>
        <time>2019-11-30T09:29:18Z</time>
      </trkpt>
      <trkpt lat="48.72126" lon="1.94828">
        <ele>108.77</ele>
        <time>2019-11-30T09:29:24Z</time>
      </trkpt>
      <trkpt lat="48.72125" lon="1.94827">
        <ele>108.77</ele>
        <time>2019-11-30T09:29:25Z</time>
      </trkpt>
      <trkpt lat="48.72116" lon="1.94829">
        <ele>108.77</ele>
        <time>2019-11-30T09:29:35Z</time>
      </trkpt>
      <trkpt lat="48.72115" lon="1.94827">
        <ele>108.77</ele>
        <time>2019-11-30T09:29:38Z</time>
      </trkpt>
      <trkpt lat="48.72113" lon="1.94827">
        <ele>107.81</ele>
        <time>2019-11-30T09:29:39Z</time>
      </trkpt>
      <trkpt lat="48.72111" lon="1.94827">
        <ele>108.29</ele>
        <time>2019-11-30T09:29:41Z</time>
      </trkpt>
      <trkpt lat="48.72106" lon="1.94824">
        <ele>108.29</ele>
        <time>2019-11-30T09:29:51Z</time>
      </trkpt>
      <trkpt lat="48.72105" lon="1.94824">
        <ele>107.81</ele>
        <time>2019-11-30T09:29:52Z</time>
      </trkpt>
      <trkpt lat="48.721" lon="1.94823">
        <ele>108.29</ele>
        <time>2019-11-30T09:29:57Z</time>
      </trkpt>
      <trkpt lat="48.72099" lon="1.94822">
        <ele>107.32</ele>
        <time>2019-11-30T09:29:58Z</time>
      </trkpt>
      <trkpt lat="48.72097" lon="1.94822">
        <ele>107.81</ele>
        <time>2019-11-30T09:29:59Z</time>
      </trkpt>
      <trkpt lat="48.72096" lon="1.94822">
        <ele>107.81</ele>
        <time>2019-11-30T09:30:00Z</time>
      </trkpt>
      <trkpt lat="48.72085" lon="1.94829">
        <ele>108.29</ele>
        <time>2019-11-30T09:30:12Z</time>
      </trkpt>
      <trkpt lat="48.72078" lon="1.94832">
        <ele>108.29</ele>
        <time>2019-11-30T09:30:21Z</time>
      </trkpt>
      <trkpt lat="48.72076" lon="1.94834">
        <ele>109.25</ele>
        <time>2019-11-30T09:30:24Z</time>
      </trkpt>
      <trkpt lat="48.72076" lon="1.94835">
        <ele>109.25</ele>
        <time>2019-11-30T09:30:25Z</time>
      </trkpt>
      <trkpt lat="48.72075" lon="1.94836">
        <ele>108.29</ele>
        <time>2019-11-30T09:30:26Z</time>
      </trkpt>
      <trkpt lat="48.72074" lon="1.94837">
        <ele>109.25</ele>
        <time>2019-11-30T09:30:27Z</time>
      </trkpt>
      <trkpt lat="48.72072" lon="1.94837">
        <ele>108.29</ele>
        <time>2019-11-30T09:30:28Z</time>
      </trkpt>
      <trkpt lat="48.72071" lon="1.94838">
        <ele>108.77</ele>
        <time>2019-11-30T09:30:29Z</time>
      </trkpt>
      <trkpt lat="48.72068" lon="1.94839">
        <ele>109.25</ele>
        <time>2019-11-30T09:30:32Z</time>
      </trkpt>
      <trkpt lat="48.72067" lon="1.9484">
        <ele>108.77</ele>
        <time>2019-11-30T09:30:33Z</time>
      </trkpt>
      <trkpt lat="48.72064" lon="1.94842">
        <ele>108.77</ele>
        <time>2019-11-30T09:30:37Z</time>
      </trkpt>
      <trkpt lat="48.72063" lon="1.94843">
        <ele>109.25</ele>
        <time>2019-11-30T09:30:38Z</time>
      </trkpt>
      <trkpt lat="48.72062" lon="1.94844">
        <ele>108.77</ele>
        <time>2019-11-30T09:30:39Z</time>
      </trkpt>
      <trkpt lat="48.72049" lon="1.94858">
        <ele>108.77</ele>
        <time>2019-11-30T09:30:54Z</time>
      </trkpt>
      <trkpt lat="48.72042" lon="1.94861">
        <ele>108.29</ele>
        <time>2019-11-30T09:31:03Z</time>
      </trkpt>
      <trkpt lat="48.72037" lon="1.94866">
        <ele>108.77</ele>
        <time>2019-11-30T09:31:17Z</time>
      </trkpt>
      <trkpt lat="48.72036" lon="1.94868">
        <ele>108.77</ele>
        <time>2019-11-30T09:31:18Z</time>
      </trkpt>
      <trkpt lat="48.72036" lon="1.9487">
        <ele>108.77</ele>
        <time>2019-11-30T09:31:19Z</time>
      </trkpt>
      <trkpt lat="48.72036" lon="1.94873">
        <ele>108.29</ele>
        <time>2019-11-30T09:31:20Z</time>
      </trkpt>
      <trkpt lat="48.72034" lon="1.94877">
        <ele>108.29</ele>
        <time>2019-11-30T09:31:24Z</time>
      </trkpt>
      <trkpt lat="48.72034" lon="1.9488">
        <ele>108.77</ele>
        <time>2019-11-30T09:31:26Z</time>
      </trkpt>
      <trkpt lat="48.72033" lon="1.94883">
        <ele>108.77</ele>
        <time>2019-11-30T09:31:36Z</time>
      </trkpt>
      <trkpt lat="48.7203" lon="1.94887">
        <ele>109.25</ele>
        <time>2019-11-30T09:31:46Z</time>
      </trkpt>
      <trkpt lat="48.72027" lon="1.9489">
        <ele>109.73</ele>
        <time>2019-11-30T09:31:49Z</time>
      </trkpt>
      <trkpt lat="48.72027" lon="1.94892">
        <ele>109.73</ele>
        <time>2019-11-30T09:31:50Z</time>
      </trkpt>
      <trkpt lat="48.72022" lon="1.94909">
        <ele>110.21</ele>
        <time>2019-11-30T09:32:01Z</time>
      </trkpt>
      <trkpt lat="48.72021" lon="1.94916">
        <ele>110.21</ele>
        <time>2019-11-30T09:32:05Z</time>
      </trkpt>
      <trkpt lat="48.72021" lon="1.94918">
        <ele>110.69</ele>
        <time>2019-11-30T09:32:06Z</time>
      </trkpt>
      <trkpt lat="48.72021" lon="1.94919">
        <ele>111.17</ele>
        <time>2019-11-30T09:32:07Z</time>
      </trkpt>
      <trkpt lat="48.72022" lon="1.94921">
        <ele>110.69</ele>
        <time>2019-11-30T09:32:08Z</time>
      </trkpt>
      <trkpt lat="48.72022" lon="1.94923">
        <ele>111.17</ele>
        <time>2019-11-30T09:32:09Z</time>
      </trkpt>
      <trkpt lat="48.72021" lon="1.94925">
        <ele>111.17</ele>
        <time>2019-11-30T09:32:10Z</time>
      </trkpt>
      <trkpt lat="48.72021" lon="1.94927">
        <ele>111.17</ele>
        <time>2019-11-30T09:32:11Z</time>
      </trkpt>
      <trkpt lat="48.72021" lon="1.94939">
        <ele>111.65</ele>
        <time>2019-11-30T09:32:17Z</time>
      </trkpt>
      <trkpt lat="48.72021" lon="1.9494">
        <ele>111.65</ele>
        <time>2019-11-30T09:32:18Z</time>
      </trkpt>
      <trkpt lat="48.72021" lon="1.94942">
        <ele>111.65</ele>
        <time>2019-11-30T09:32:19Z</time>
      </trkpt>
      <trkpt lat="48.72021" lon="1.94944">
        <ele>112.13</ele>
        <time>2019-11-30T09:32:20Z</time>
      </trkpt>
      <trkpt lat="48.72021" lon="1.94946">
        <ele>111.17</ele>
        <time>2019-11-30T09:32:21Z</time>
      </trkpt>
      <trkpt lat="48.72021" lon="1.94948">
        <ele>111.65</ele>
        <time>2019-11-30T09:32:22Z</time>
      </trkpt>
      <trkpt lat="48.7202" lon="1.9495">
        <ele>111.17</ele>
        <time>2019-11-30T09:32:23Z</time>
      </trkpt>
      <trkpt lat="48.72021" lon="1.94976">
        <ele>112.13</ele>
        <time>2019-11-30T09:32:38Z</time>
      </trkpt>
      <trkpt lat="48.72021" lon="1.9498">
        <ele>112.13</ele>
        <time>2019-11-30T09:32:40Z</time>
      </trkpt>
      <trkpt lat="48.72021" lon="1.94987">
        <ele>112.13</ele>
        <time>2019-11-30T09:32:44Z</time>
      </trkpt>
      <trkpt lat="48.72011" lon="1.95011">
        <ele>113.09</ele>
        <time>2019-11-30T09:32:57Z</time>
      </trkpt>
      <trkpt lat="48.72005" lon="1.95022">
        <ele>113.57</ele>
        <time>2019-11-30T09:33:08Z</time>
      </trkpt>
      <trkpt lat="48.7199" lon="1.95039">
        <ele>114.53</ele>
        <time>2019-11-30T09:33:23Z</time>
      </trkpt>
      <trkpt lat="48.71976" lon="1.95059">
        <ele>115.5</ele>
        <time>2019-11-30T09:33:38Z</time>
      </trkpt>
      <trkpt lat="48.7197" lon="1.9508">
        <ele>115.5</ele>
        <time>2019-11-30T09:33:50Z</time>
      </trkpt>
      <trkpt lat="48.71963" lon="1.95108">
        <ele>115.98</ele>
        <time>2019-11-30T09:34:04Z</time>
      </trkpt>
      <trkpt lat="48.71957" lon="1.95132">
        <ele>116.46</ele>
        <time>2019-11-30T09:34:17Z</time>
      </trkpt>
      <trkpt lat="48.71955" lon="1.95144">
        <ele>116.94</ele>
        <time>2019-11-30T09:34:24Z</time>
      </trkpt>
      <trkpt lat="48.71955" lon="1.95161">
        <ele>117.42</ele>
        <time>2019-11-30T09:34:34Z</time>
      </trkpt>
      <trkpt lat="48.71952" lon="1.95174">
        <ele>117.9</ele>
        <time>2019-11-30T09:34:42Z</time>
      </trkpt>
      <trkpt lat="48.71952" lon="1.95176">
        <ele>117.9</ele>
        <time>2019-11-30T09:34:43Z</time>
      </trkpt>
      <trkpt lat="48.71952" lon="1.95178">
        <ele>118.38</ele>
        <time>2019-11-30T09:34:44Z</time>
      </trkpt>
      <trkpt lat="48.71952" lon="1.95181">
        <ele>118.38</ele>
        <time>2019-11-30T09:34:45Z</time>
      </trkpt>
      <trkpt lat="48.71952" lon="1.95183">
        <ele>118.38</ele>
        <time>2019-11-30T09:34:46Z</time>
      </trkpt>
      <trkpt lat="48.71952" lon="1.95186">
        <ele>117.9</ele>
        <time>2019-11-30T09:34:47Z</time>
      </trkpt>
      <trkpt lat="48.7195" lon="1.95209">
        <ele>118.86</ele>
        <time>2019-11-30T09:34:59Z</time>
      </trkpt>
      <trkpt lat="48.71948" lon="1.95215">
        <ele>118.86</ele>
        <time>2019-11-30T09:35:03Z</time>
      </trkpt>
      <trkpt lat="48.71947" lon="1.95217">
        <ele>118.86</ele>
        <time>2019-11-30T09:35:04Z</time>
      </trkpt>
      <trkpt lat="48.71947" lon="1.9522">
        <ele>119.34</ele>
        <time>2019-11-30T09:35:05Z</time>
      </trkpt>
      <trkpt lat="48.71947" lon="1.95221">
        <ele>119.34</ele>
        <time>2019-11-30T09:35:06Z</time>
      </trkpt>
      <trkpt lat="48.71947" lon="1.95224">
        <ele>118.86</ele>
        <time>2019-11-30T09:35:07Z</time>
      </trkpt>
      <trkpt lat="48.71947" lon="1.95227">
        <ele>119.34</ele>
        <time>2019-11-30T09:35:08Z</time>
      </trkpt>
      <trkpt lat="48.71947" lon="1.95232">
        <ele>119.34</ele>
        <time>2019-11-30T09:35:10Z</time>
      </trkpt>
      <trkpt lat="48.71947" lon="1.95233">
        <ele>119.34</ele>
        <time>2019-11-30T09:35:11Z</time>
      </trkpt>
      <trkpt lat="48.71947" lon="1.95236">
        <ele>119.82</ele>
        <time>2019-11-30T09:35:12Z</time>
      </trkpt>
      <trkpt lat="48.71947" lon="1.95239">
        <ele>119.34</ele>
        <time>2019-11-30T09:35:13Z</time>
      </trkpt>
      <trkpt lat="48.71947" lon="1.95241">
        <ele>119.34</ele>
        <time>2019-11-30T09:35:14Z</time>
      </trkpt>
      <trkpt lat="48.71947" lon="1.95243">
        <ele>119.34</ele>
        <time>2019-11-30T09:35:15Z</time>
      </trkpt>
      <trkpt lat="48.71947" lon="1.95246">
        <ele>119.34</ele>
        <time>2019-11-30T09:35:16Z</time>
      </trkpt>
      <trkpt lat="48.71946" lon="1.95248">
        <ele>119.34</ele>
        <time>2019-11-30T09:35:17Z</time>
      </trkpt>
      <trkpt lat="48.71946" lon="1.9525">
        <ele>119.82</ele>
        <time>2019-11-30T09:35:18Z</time>
      </trkpt>
      <trkpt lat="48.71946" lon="1.95252">
        <ele>119.34</ele>
        <time>2019-11-30T09:35:19Z</time>
      </trkpt>
      <trkpt lat="48.71946" lon="1.95254">
        <ele>119.34</ele>
        <time>2019-11-30T09:35:20Z</time>
      </trkpt>
      <trkpt lat="48.71946" lon="1.95256">
        <ele>119.34</ele>
        <time>2019-11-30T09:35:21Z</time>
      </trkpt>
      <trkpt lat="48.71945" lon="1.95258">
        <ele>119.82</ele>
        <time>2019-11-30T09:35:22Z</time>
      </trkpt>
      <trkpt lat="48.71945" lon="1.95259">
        <ele>119.34</ele>
        <time>2019-11-30T09:35:23Z</time>
      </trkpt>
      <trkpt lat="48.71944" lon="1.95261">
        <ele>119.34</ele>
        <time>2019-11-30T09:35:24Z</time>
      </trkpt>
      <trkpt lat="48.71943" lon="1.95288">
        <ele>119.34</ele>
        <time>2019-11-30T09:35:38Z</time>
      </trkpt>
      <trkpt lat="48.71943" lon="1.95306">
        <ele>117.42</ele>
        <time>2019-11-30T09:35:51Z</time>
      </trkpt>
      <trkpt lat="48.71943" lon="1.95308">
        <ele>118.86</ele>
        <time>2019-11-30T09:35:52Z</time>
      </trkpt>
      <trkpt lat="48.71943" lon="1.9531">
        <ele>117.42</ele>
        <time>2019-11-30T09:35:53Z</time>
      </trkpt>
      <trkpt lat="48.71943" lon="1.95312">
        <ele>117.9</ele>
        <time>2019-11-30T09:35:54Z</time>
      </trkpt>
      <trkpt lat="48.71943" lon="1.95314">
        <ele>117.42</ele>
        <time>2019-11-30T09:35:55Z</time>
      </trkpt>
      <trkpt lat="48.71945" lon="1.95325">
        <ele>117.42</ele>
        <time>2019-11-30T09:36:07Z</time>
      </trkpt>
      <trkpt lat="48.71945" lon="1.95343">
        <ele>117.42</ele>
        <time>2019-11-30T09:36:20Z</time>
      </trkpt>
      <trkpt lat="48.71945" lon="1.95345">
        <ele>116.94</ele>
        <time>2019-11-30T09:36:21Z</time>
      </trkpt>
      <trkpt lat="48.71945" lon="1.95354">
        <ele>116.46</ele>
        <time>2019-11-30T09:36:25Z</time>
      </trkpt>
      <trkpt lat="48.71945" lon="1.95357">
        <ele>116.46</ele>
        <time>2019-11-30T09:36:26Z</time>
      </trkpt>
      <trkpt lat="48.71945" lon="1.95359">
        <ele>116.46</ele>
        <time>2019-11-30T09:36:27Z</time>
      </trkpt>
      <trkpt lat="48.71942" lon="1.95383">
        <ele>115.98</ele>
        <time>2019-11-30T09:36:40Z</time>
      </trkpt>
      <trkpt lat="48.71941" lon="1.95402">
        <ele>115.01</ele>
        <time>2019-11-30T09:36:49Z</time>
      </trkpt>
      <trkpt lat="48.71941" lon="1.95406">
        <ele>115.01</ele>
        <time>2019-11-30T09:36:51Z</time>
      </trkpt>
      <trkpt lat="48.71941" lon="1.95408">
        <ele>115.01</ele>
        <time>2019-11-30T09:36:52Z</time>
      </trkpt>
      <trkpt lat="48.7194" lon="1.95409">
        <ele>114.53</ele>
        <time>2019-11-30T09:36:53Z</time>
      </trkpt>
      <trkpt lat="48.71939" lon="1.95412">
        <ele>115.01</ele>
        <time>2019-11-30T09:36:54Z</time>
      </trkpt>
      <trkpt lat="48.71939" lon="1.95414">
        <ele>115.01</ele>
        <time>2019-11-30T09:36:55Z</time>
      </trkpt>
      <trkpt lat="48.71939" lon="1.95415">
        <ele>115.01</ele>
        <time>2019-11-30T09:36:56Z</time>
      </trkpt>
      <trkpt lat="48.71939" lon="1.95417">
        <ele>114.53</ele>
        <time>2019-11-30T09:36:57Z</time>
      </trkpt>
      <trkpt lat="48.71939" lon="1.95419">
        <ele>115.01</ele>
        <time>2019-11-30T09:36:58Z</time>
      </trkpt>
      <trkpt lat="48.71938" lon="1.95421">
        <ele>115.5</ele>
        <time>2019-11-30T09:36:59Z</time>
      </trkpt>
      <trkpt lat="48.71938" lon="1.95422">
        <ele>115.01</ele>
        <time>2019-11-30T09:37:00Z</time>
      </trkpt>
      <trkpt lat="48.71938" lon="1.95424">
        <ele>114.53</ele>
        <time>2019-11-30T09:37:01Z</time>
      </trkpt>
      <trkpt lat="48.71938" lon="1.95426">
        <ele>114.05</ele>
        <time>2019-11-30T09:37:02Z</time>
      </trkpt>
      <trkpt lat="48.71935" lon="1.95455">
        <ele>113.57</ele>
        <time>2019-11-30T09:37:17Z</time>
      </trkpt>
      <trkpt lat="48.71932" lon="1.95481">
        <ele>113.57</ele>
        <time>2019-11-30T09:37:33Z</time>
      </trkpt>
      <trkpt lat="48.71927" lon="1.95505">
        <ele>113.09</ele>
        <time>2019-11-30T09:37:46Z</time>
      </trkpt>
      <trkpt lat="48.71927" lon="1.95507">
        <ele>113.09</ele>
        <time>2019-11-30T09:37:47Z</time>
      </trkpt>
      <trkpt lat="48.71926" lon="1.9551">
        <ele>113.09</ele>
        <time>2019-11-30T09:37:48Z</time>
      </trkpt>
      <trkpt lat="48.71925" lon="1.95512">
        <ele>113.57</ele>
        <time>2019-11-30T09:37:49Z</time>
      </trkpt>
      <trkpt lat="48.71925" lon="1.95515">
        <ele>113.09</ele>
        <time>2019-11-30T09:37:50Z</time>
      </trkpt>
      <trkpt lat="48.71922" lon="1.9553">
        <ele>113.09</ele>
        <time>2019-11-30T09:37:57Z</time>
      </trkpt>
      <trkpt lat="48.71913" lon="1.95554">
        <ele>113.09</ele>
        <time>2019-11-30T09:38:12Z</time>
      </trkpt>
      <trkpt lat="48.71904" lon="1.9558">
        <ele>112.61</ele>
        <time>2019-11-30T09:38:24Z</time>
      </trkpt>
      <trkpt lat="48.71902" lon="1.95587">
        <ele>112.13</ele>
        <time>2019-11-30T09:38:27Z</time>
      </trkpt>
      <trkpt lat="48.71901" lon="1.95589">
        <ele>112.13</ele>
        <time>2019-11-30T09:38:28Z</time>
      </trkpt>
      <trkpt lat="48.71901" lon="1.95592">
        <ele>112.61</ele>
        <time>2019-11-30T09:38:29Z</time>
      </trkpt>
      <trkpt lat="48.719" lon="1.95593">
        <ele>112.13</ele>
        <time>2019-11-30T09:38:30Z</time>
      </trkpt>
      <trkpt lat="48.71899" lon="1.95595">
        <ele>112.13</ele>
        <time>2019-11-30T09:38:31Z</time>
      </trkpt>
      <trkpt lat="48.71899" lon="1.95596">
        <ele>112.13</ele>
        <time>2019-11-30T09:38:32Z</time>
      </trkpt>
      <trkpt lat="48.71898" lon="1.95598">
        <ele>112.61</ele>
        <time>2019-11-30T09:38:33Z</time>
      </trkpt>
      <trkpt lat="48.71897" lon="1.95599">
        <ele>112.61</ele>
        <time>2019-11-30T09:38:34Z</time>
      </trkpt>
      <trkpt lat="48.71886" lon="1.95621">
        <ele>112.61</ele>
        <time>2019-11-30T09:38:46Z</time>
      </trkpt>
      <trkpt lat="48.71875" lon="1.95647">
        <ele>112.13</ele>
        <time>2019-11-30T09:39:00Z</time>
      </trkpt>
      <trkpt lat="48.71867" lon="1.95673">
        <ele>112.13</ele>
        <time>2019-11-30T09:39:15Z</time>
      </trkpt>
      <trkpt lat="48.71865" lon="1.9568">
        <ele>112.13</ele>
        <time>2019-11-30T09:39:19Z</time>
      </trkpt>
      <trkpt lat="48.71865" lon="1.95682">
        <ele>112.13</ele>
        <time>2019-11-30T09:39:20Z</time>
      </trkpt>
      <trkpt lat="48.71858" lon="1.95708">
        <ele>112.13</ele>
        <time>2019-11-30T09:39:34Z</time>
      </trkpt>
      <trkpt lat="48.71857" lon="1.95711">
        <ele>112.13</ele>
        <time>2019-11-30T09:39:36Z</time>
      </trkpt>
      <trkpt lat="48.71856" lon="1.95712">
        <ele>112.13</ele>
        <time>2019-11-30T09:39:37Z</time>
      </trkpt>
      <trkpt lat="48.71855" lon="1.95713">
        <ele>111.65</ele>
        <time>2019-11-30T09:39:38Z</time>
      </trkpt>
      <trkpt lat="48.71854" lon="1.95715">
        <ele>112.13</ele>
        <time>2019-11-30T09:39:39Z</time>
      </trkpt>
      <trkpt lat="48.71845" lon="1.95731">
        <ele>111.65</ele>
        <time>2019-11-30T09:39:52Z</time>
      </trkpt>
      <trkpt lat="48.71844" lon="1.95734">
        <ele>112.13</ele>
        <time>2019-11-30T09:39:55Z</time>
      </trkpt>
      <trkpt lat="48.71836" lon="1.95751">
        <ele>112.13</ele>
        <time>2019-11-30T09:40:05Z</time>
      </trkpt>
      <trkpt lat="48.71829" lon="1.95782">
        <ele>111.65</ele>
        <time>2019-11-30T09:40:17Z</time>
      </trkpt>
      <trkpt lat="48.7183" lon="1.95788">
        <ele>111.65</ele>
        <time>2019-11-30T09:40:20Z</time>
      </trkpt>
      <trkpt lat="48.71831" lon="1.95791">
        <ele>111.17</ele>
        <time>2019-11-30T09:40:22Z</time>
      </trkpt>
      <trkpt lat="48.71833" lon="1.95793">
        <ele>110.69</ele>
        <time>2019-11-30T09:40:23Z</time>
      </trkpt>
      <trkpt lat="48.71842" lon="1.95798">
        <ele>110.69</ele>
        <time>2019-11-30T09:40:28Z</time>
      </trkpt>
      <trkpt lat="48.71846" lon="1.95807">
        <ele>110.69</ele>
        <time>2019-11-30T09:40:37Z</time>
      </trkpt>
      <trkpt lat="48.71847" lon="1.95808">
        <ele>110.21</ele>
        <time>2019-11-30T09:40:38Z</time>
      </trkpt>
      <trkpt lat="48.71849" lon="1.95809">
        <ele>109.73</ele>
        <time>2019-11-30T09:40:39Z</time>
      </trkpt>
      <trkpt lat="48.7185" lon="1.95809">
        <ele>109.73</ele>
        <time>2019-11-30T09:40:40Z</time>
      </trkpt>
      <trkpt lat="48.71856" lon="1.95812">
        <ele>109.73</ele>
        <time>2019-11-30T09:40:49Z</time>
      </trkpt>
      <trkpt lat="48.71861" lon="1.95817">
        <ele>109.73</ele>
        <time>2019-11-30T09:41:00Z</time>
      </trkpt>
      <trkpt lat="48.71863" lon="1.95818">
        <ele>109.73</ele>
        <time>2019-11-30T09:41:01Z</time>
      </trkpt>
      <trkpt lat="48.71864" lon="1.95819">
        <ele>109.25</ele>
        <time>2019-11-30T09:41:02Z</time>
      </trkpt>
      <trkpt lat="48.71866" lon="1.9582">
        <ele>108.77</ele>
        <time>2019-11-30T09:41:03Z</time>
      </trkpt>
      <trkpt lat="48.71868" lon="1.95821">
        <ele>108.77</ele>
        <time>2019-11-30T09:41:04Z</time>
      </trkpt>
      <trkpt lat="48.71871" lon="1.95822">
        <ele>108.77</ele>
        <time>2019-11-30T09:41:06Z</time>
      </trkpt>
      <trkpt lat="48.71873" lon="1.95823">
        <ele>108.77</ele>
        <time>2019-11-30T09:41:07Z</time>
      </trkpt>
      <trkpt lat="48.71874" lon="1.95822">
        <ele>109.25</ele>
        <time>2019-11-30T09:41:08Z</time>
      </trkpt>
      <trkpt lat="48.71881" lon="1.95822">
        <ele>107.81</ele>
        <time>2019-11-30T09:41:19Z</time>
      </trkpt>
      <trkpt lat="48.71886" lon="1.95826">
        <ele>107.81</ele>
        <time>2019-11-30T09:41:30Z</time>
      </trkpt>
      <trkpt lat="48.71905" lon="1.95838">
        <ele>107.32</ele>
        <time>2019-11-30T09:41:41Z</time>
      </trkpt>
      <trkpt lat="48.71915" lon="1.95846">
        <ele>106.36</ele>
        <time>2019-11-30T09:41:50Z</time>
      </trkpt>
      <trkpt lat="48.71917" lon="1.95847">
        <ele>106.36</ele>
        <time>2019-11-30T09:41:52Z</time>
      </trkpt>
      <trkpt lat="48.71918" lon="1.95848">
        <ele>106.36</ele>
        <time>2019-11-30T09:41:53Z</time>
      </trkpt>
      <trkpt lat="48.71932" lon="1.95859">
        <ele>105.88</ele>
        <time>2019-11-30T09:42:08Z</time>
      </trkpt>
      <trkpt lat="48.71946" lon="1.95872">
        <ele>105.4</ele>
        <time>2019-11-30T09:42:21Z</time>
      </trkpt>
      <trkpt lat="48.71957" lon="1.9588">
        <ele>106.36</ele>
        <time>2019-11-30T09:42:33Z</time>
      </trkpt>
      <trkpt lat="48.71976" lon="1.9589">
        <ele>107.32</ele>
        <time>2019-11-30T09:42:47Z</time>
      </trkpt>
      <trkpt lat="48.71977" lon="1.95892">
        <ele>106.84</ele>
        <time>2019-11-30T09:42:48Z</time>
      </trkpt>
      <trkpt lat="48.7198" lon="1.95896">
        <ele>107.32</ele>
        <time>2019-11-30T09:42:51Z</time>
      </trkpt>
      <trkpt lat="48.71983" lon="1.95903">
        <ele>108.29</ele>
        <time>2019-11-30T09:42:56Z</time>
      </trkpt>
      <trkpt lat="48.71982" lon="1.95925">
        <ele>108.29</ele>
        <time>2019-11-30T09:43:08Z</time>
      </trkpt>
      <trkpt lat="48.71981" lon="1.95932">
        <ele>108.29</ele>
        <time>2019-11-30T09:43:12Z</time>
      </trkpt>
      <trkpt lat="48.71982" lon="1.95934">
        <ele>107.81</ele>
        <time>2019-11-30T09:43:13Z</time>
      </trkpt>
      <trkpt lat="48.71984" lon="1.95941">
        <ele>108.29</ele>
        <time>2019-11-30T09:43:18Z</time>
      </trkpt>
      <trkpt lat="48.71985" lon="1.95946">
        <ele>108.29</ele>
        <time>2019-11-30T09:43:22Z</time>
      </trkpt>
      <trkpt lat="48.71985" lon="1.95949">
        <ele>108.77</ele>
        <time>2019-11-30T09:43:23Z</time>
      </trkpt>
      <trkpt lat="48.71987" lon="1.95967">
        <ele>108.77</ele>
        <time>2019-11-30T09:43:34Z</time>
      </trkpt>
      <trkpt lat="48.71985" lon="1.95987">
        <ele>108.77</ele>
        <time>2019-11-30T09:43:44Z</time>
      </trkpt>
      <trkpt lat="48.71985" lon="1.9599">
        <ele>108.77</ele>
        <time>2019-11-30T09:43:45Z</time>
      </trkpt>
      <trkpt lat="48.71982" lon="1.9601">
        <ele>108.77</ele>
        <time>2019-11-30T09:43:57Z</time>
      </trkpt>
      <trkpt lat="48.71982" lon="1.96023">
        <ele>108.29</ele>
        <time>2019-11-30T09:44:06Z</time>
      </trkpt>
      <trkpt lat="48.71982" lon="1.96025">
        <ele>108.29</ele>
        <time>2019-11-30T09:44:07Z</time>
      </trkpt>
      <trkpt lat="48.71981" lon="1.96028">
        <ele>108.29</ele>
        <time>2019-11-30T09:44:08Z</time>
      </trkpt>
      <trkpt lat="48.71978" lon="1.96046">
        <ele>108.29</ele>
        <time>2019-11-30T09:44:23Z</time>
      </trkpt>
      <trkpt lat="48.71976" lon="1.96051">
        <ele>108.29</ele>
        <time>2019-11-30T09:44:30Z</time>
      </trkpt>
      <trkpt lat="48.71976" lon="1.96053">
        <ele>108.77</ele>
        <time>2019-11-30T09:44:31Z</time>
      </trkpt>
      <trkpt lat="48.71975" lon="1.96055">
        <ele>108.29</ele>
        <time>2019-11-30T09:44:32Z</time>
      </trkpt>
      <trkpt lat="48.71975" lon="1.96057">
        <ele>108.29</ele>
        <time>2019-11-30T09:44:33Z</time>
      </trkpt>
      <trkpt lat="48.71975" lon="1.96059">
        <ele>108.29</ele>
        <time>2019-11-30T09:44:34Z</time>
      </trkpt>
      <trkpt lat="48.71974" lon="1.96061">
        <ele>108.29</ele>
        <time>2019-11-30T09:44:35Z</time>
      </trkpt>
      <trkpt lat="48.71966" lon="1.9608">
        <ele>107.81</ele>
        <time>2019-11-30T09:44:48Z</time>
      </trkpt>
      <trkpt lat="48.71965" lon="1.96087">
        <ele>107.32</ele>
        <time>2019-11-30T09:44:53Z</time>
      </trkpt>
      <trkpt lat="48.71965" lon="1.96089">
        <ele>108.29</ele>
        <time>2019-11-30T09:44:54Z</time>
      </trkpt>
      <trkpt lat="48.71965" lon="1.96091">
        <ele>107.32</ele>
        <time>2019-11-30T09:44:55Z</time>
      </trkpt>
      <trkpt lat="48.71964" lon="1.96096">
        <ele>106.84</ele>
        <time>2019-11-30T09:44:57Z</time>
      </trkpt>
      <trkpt lat="48.71964" lon="1.96098">
        <ele>107.32</ele>
        <time>2019-11-30T09:44:58Z</time>
      </trkpt>
      <trkpt lat="48.71962" lon="1.9611">
        <ele>107.32</ele>
        <time>2019-11-30T09:45:12Z</time>
      </trkpt>
      <trkpt lat="48.71962" lon="1.96115">
        <ele>106.84</ele>
        <time>2019-11-30T09:45:32Z</time>
      </trkpt>
      <trkpt lat="48.7196" lon="1.9612">
        <ele>106.84</ele>
        <time>2019-11-30T09:45:44Z</time>
      </trkpt>
      <trkpt lat="48.71959" lon="1.96135">
        <ele>106.84</ele>
        <time>2019-11-30T09:45:56Z</time>
      </trkpt>
      <trkpt lat="48.71956" lon="1.96149">
        <ele>106.36</ele>
        <time>2019-11-30T09:46:08Z</time>
      </trkpt>
      <trkpt lat="48.71948" lon="1.96152">
        <ele>105.88</ele>
        <time>2019-11-30T09:46:20Z</time>
      </trkpt>
      <trkpt lat="48.71948" lon="1.9615">
        <ele>104.92</ele>
        <time>2019-11-30T09:46:22Z</time>
      </trkpt>
      <trkpt lat="48.71948" lon="1.96147">
        <ele>104.92</ele>
        <time>2019-11-30T09:46:23Z</time>
      </trkpt>
      <trkpt lat="48.71947" lon="1.96145">
        <ele>105.4</ele>
        <time>2019-11-30T09:46:24Z</time>
      </trkpt>
      <trkpt lat="48.71945" lon="1.96142">
        <ele>104.92</ele>
        <time>2019-11-30T09:46:26Z</time>
      </trkpt>
      <trkpt lat="48.7194" lon="1.96126">
        <ele>104.44</ele>
        <time>2019-11-30T09:46:38Z</time>
      </trkpt>
      <trkpt lat="48.71938" lon="1.9611">
        <ele>104.44</ele>
        <time>2019-11-30T09:46:46Z</time>
      </trkpt>
      <trkpt lat="48.71929" lon="1.96096">
        <ele>103.96</ele>
        <time>2019-11-30T09:46:58Z</time>
      </trkpt>
      <trkpt lat="48.71925" lon="1.96092">
        <ele>103.48</ele>
        <time>2019-11-30T09:47:02Z</time>
      </trkpt>
      <trkpt lat="48.71916" lon="1.96088">
        <ele>103.48</ele>
        <time>2019-11-30T09:47:16Z</time>
      </trkpt>
      <trkpt lat="48.71915" lon="1.96091">
        <ele>103</ele>
        <time>2019-11-30T09:47:31Z</time>
      </trkpt>
      <trkpt lat="48.71908" lon="1.96085">
        <ele>103.48</ele>
        <time>2019-11-30T09:47:41Z</time>
      </trkpt>
      <trkpt lat="48.71901" lon="1.96092">
        <ele>103</ele>
        <time>2019-11-30T09:47:53Z</time>
      </trkpt>
      <trkpt lat="48.71891" lon="1.96105">
        <ele>103.48</ele>
        <time>2019-11-30T09:48:03Z</time>
      </trkpt>
      <trkpt lat="48.71889" lon="1.9611">
        <ele>103.48</ele>
        <time>2019-11-30T09:48:07Z</time>
      </trkpt>
      <trkpt lat="48.71885" lon="1.9613">
        <ele>103.48</ele>
        <time>2019-11-30T09:48:19Z</time>
      </trkpt>
      <trkpt lat="48.71886" lon="1.96159">
        <ele>103</ele>
        <time>2019-11-30T09:48:33Z</time>
      </trkpt>
      <trkpt lat="48.71887" lon="1.96172">
        <ele>103.48</ele>
        <time>2019-11-30T09:48:44Z</time>
      </trkpt>
      <trkpt lat="48.71873" lon="1.96178">
        <ele>103</ele>
        <time>2019-11-30T09:48:58Z</time>
      </trkpt>
      <trkpt lat="48.71872" lon="1.96184">
        <ele>103.48</ele>
        <time>2019-11-30T09:49:20Z</time>
      </trkpt>
      <trkpt lat="48.71877" lon="1.96188">
        <ele>103.48</ele>
        <time>2019-11-30T09:49:33Z</time>
      </trkpt>
      <trkpt lat="48.71868" lon="1.96201">
        <ele>103.48</ele>
        <time>2019-11-30T09:49:45Z</time>
      </trkpt>
      <trkpt lat="48.71858" lon="1.96223">
        <ele>103.48</ele>
        <time>2019-11-30T09:49:57Z</time>
      </trkpt>
      <trkpt lat="48.71851" lon="1.96235">
        <ele>103</ele>
        <time>2019-11-30T09:50:08Z</time>
      </trkpt>
      <trkpt lat="48.7185" lon="1.96241">
        <ele>103.48</ele>
        <time>2019-11-30T09:50:12Z</time>
      </trkpt>
      <trkpt lat="48.71849" lon="1.96244">
        <ele>103</ele>
        <time>2019-11-30T09:50:13Z</time>
      </trkpt>
      <trkpt lat="48.71845" lon="1.96258">
        <ele>102.52</ele>
        <time>2019-11-30T09:50:25Z</time>
      </trkpt>
      <trkpt lat="48.71845" lon="1.96277">
        <ele>103</ele>
        <time>2019-11-30T09:50:38Z</time>
      </trkpt>
      <trkpt lat="48.71849" lon="1.96293">
        <ele>102.52</ele>
        <time>2019-11-30T09:50:45Z</time>
      </trkpt>
      <trkpt lat="48.71847" lon="1.96314">
        <ele>103</ele>
        <time>2019-11-30T09:50:59Z</time>
      </trkpt>
      <trkpt lat="48.71846" lon="1.9632">
        <ele>103</ele>
        <time>2019-11-30T09:51:13Z</time>
      </trkpt>
      <trkpt lat="48.71846" lon="1.96321">
        <ele>102.52</ele>
        <time>2019-11-30T09:51:31Z</time>
      </trkpt>
      <trkpt lat="48.71846" lon="1.96318">
        <ele>102.52</ele>
        <time>2019-11-30T09:51:39Z</time>
      </trkpt>
      <trkpt lat="48.71828" lon="1.96324">
        <ele>102.52</ele>
        <time>2019-11-30T09:51:53Z</time>
      </trkpt>
      <trkpt lat="48.71823" lon="1.96335">
        <ele>103</ele>
        <time>2019-11-30T09:52:04Z</time>
      </trkpt>
      <trkpt lat="48.71821" lon="1.96341">
        <ele>102.52</ele>
        <time>2019-11-30T09:52:14Z</time>
      </trkpt>
      <trkpt lat="48.7182" lon="1.96344">
        <ele>103</ele>
        <time>2019-11-30T09:52:27Z</time>
      </trkpt>
      <trkpt lat="48.71818" lon="1.96349">
        <ele>103.48</ele>
        <time>2019-11-30T09:52:30Z</time>
      </trkpt>
      <trkpt lat="48.71824" lon="1.96354">
        <ele>103</ele>
        <time>2019-11-30T09:52:40Z</time>
      </trkpt>
      <trkpt lat="48.71822" lon="1.96348">
        <ele>102.04</ele>
        <time>2019-11-30T09:52:55Z</time>
      </trkpt>
      <trkpt lat="48.71825" lon="1.96346">
        <ele>102.52</ele>
        <time>2019-11-30T09:53:13Z</time>
      </trkpt>
      <trkpt lat="48.71819" lon="1.96341">
        <ele>103</ele>
        <time>2019-11-30T09:53:27Z</time>
      </trkpt>
      <trkpt lat="48.71819" lon="1.9635">
        <ele>103</ele>
        <time>2019-11-30T09:53:41Z</time>
      </trkpt>
      <trkpt lat="48.71823" lon="1.96357">
        <ele>103</ele>
        <time>2019-11-30T09:53:54Z</time>
      </trkpt>
      <trkpt lat="48.71827" lon="1.96352">
        <ele>102.52</ele>
        <time>2019-11-30T09:54:12Z</time>
      </trkpt>
      <trkpt lat="48.71827" lon="1.96359">
        <ele>103</ele>
        <time>2019-11-30T09:54:27Z</time>
      </trkpt>
      <trkpt lat="48.71826" lon="1.96358">
        <ele>102.52</ele>
        <time>2019-11-30T09:54:47Z</time>
      </trkpt>
      <trkpt lat="48.71824" lon="1.9636">
        <ele>101.56</ele>
        <time>2019-11-30T09:55:15Z</time>
      </trkpt>
      <trkpt lat="48.71821" lon="1.96359">
        <ele>102.52</ele>
        <time>2019-11-30T09:55:45Z</time>
      </trkpt>
      <trkpt lat="48.71821" lon="1.96357">
        <ele>102.04</ele>
        <time>2019-11-30T09:56:06Z</time>
      </trkpt>
      <trkpt lat="48.71822" lon="1.96358">
        <ele>102.04</ele>
        <time>2019-11-30T09:56:28Z</time>
      </trkpt>
      <trkpt lat="48.71823" lon="1.96362">
        <ele>102.04</ele>
        <time>2019-11-30T09:56:52Z</time>
      </trkpt>
      <trkpt lat="48.71823" lon="1.96362">
        <ele>102.04</ele>
        <time>2019-11-30T09:57:14Z</time>
      </trkpt>
      <trkpt lat="48.71819" lon="1.96365">
        <ele>102.04</ele>
        <time>2019-11-30T09:57:41Z</time>
      </trkpt>
      <trkpt lat="48.71818" lon="1.96361">
        <ele>102.04</ele>
        <time>2019-11-30T09:58:09Z</time>
      </trkpt>
      <trkpt lat="48.71823" lon="1.96362">
        <ele>102.04</ele>
        <time>2019-11-30T09:58:33Z</time>
      </trkpt>
      <trkpt lat="48.71819" lon="1.96362">
        <ele>102.52</ele>
        <time>2019-11-30T09:58:54Z</time>
      </trkpt>
      <trkpt lat="48.71823" lon="1.96361">
        <ele>102.52</ele>
        <time>2019-11-30T09:59:17Z</time>
      </trkpt>
      <trkpt lat="48.71825" lon="1.96359">
        <ele>102.52</ele>
        <time>2019-11-30T09:59:51Z</time>
      </trkpt>
      <trkpt lat="48.71823" lon="1.96361">
        <ele>102.52</ele>
        <time>2019-11-30T10:00:20Z</time>
      </trkpt>
      <trkpt lat="48.71818" lon="1.96365">
        <ele>102.04</ele>
        <time>2019-11-30T10:00:44Z</time>
      </trkpt>
      <trkpt lat="48.71822" lon="1.96366">
        <ele>102.52</ele>
        <time>2019-11-30T10:01:10Z</time>
      </trkpt>
      <trkpt lat="48.71824" lon="1.96358">
        <ele>103</ele>
        <time>2019-11-30T10:01:27Z</time>
      </trkpt>
      <trkpt lat="48.71827" lon="1.9636">
        <ele>103</ele>
        <time>2019-11-30T10:01:51Z</time>
      </trkpt>
      <trkpt lat="48.71828" lon="1.96357">
        <ele>103.48</ele>
        <time>2019-11-30T10:02:23Z</time>
      </trkpt>
      <trkpt lat="48.71824" lon="1.9635">
        <ele>103.48</ele>
        <time>2019-11-30T10:02:39Z</time>
      </trkpt>
      <trkpt lat="48.71814" lon="1.96355">
        <ele>103.48</ele>
        <time>2019-11-30T10:02:54Z</time>
      </trkpt>
      <trkpt lat="48.71808" lon="1.96358">
        <ele>103.48</ele>
        <time>2019-11-30T10:03:12Z</time>
      </trkpt>
      <trkpt lat="48.71804" lon="1.96354">
        <ele>103.48</ele>
        <time>2019-11-30T10:03:16Z</time>
      </trkpt>
      <trkpt lat="48.71791" lon="1.96346">
        <ele>103.48</ele>
        <time>2019-11-30T10:03:29Z</time>
      </trkpt>
      <trkpt lat="48.71776" lon="1.96341">
        <ele>104.44</ele>
        <time>2019-11-30T10:03:41Z</time>
      </trkpt>
      <trkpt lat="48.71763" lon="1.96332">
        <ele>104.92</ele>
        <time>2019-11-30T10:03:54Z</time>
      </trkpt>
      <trkpt lat="48.71758" lon="1.96331">
        <ele>104.92</ele>
        <time>2019-11-30T10:04:05Z</time>
      </trkpt>
      <trkpt lat="48.71746" lon="1.96321">
        <ele>104.92</ele>
        <time>2019-11-30T10:04:19Z</time>
      </trkpt>
      <trkpt lat="48.71736" lon="1.96315">
        <ele>105.4</ele>
        <time>2019-11-30T10:04:28Z</time>
      </trkpt>
      <trkpt lat="48.71726" lon="1.96326">
        <ele>106.84</ele>
        <time>2019-11-30T10:04:42Z</time>
      </trkpt>
      <trkpt lat="48.71722" lon="1.96349">
        <ele>106.36</ele>
        <time>2019-11-30T10:04:57Z</time>
      </trkpt>
      <trkpt lat="48.71715" lon="1.96355">
        <ele>107.32</ele>
        <time>2019-11-30T10:05:05Z</time>
      </trkpt>
      <trkpt lat="48.71711" lon="1.96353">
        <ele>106.36</ele>
        <time>2019-11-30T10:05:47Z</time>
      </trkpt>
      <trkpt lat="48.7172" lon="1.96366">
        <ele>106.84</ele>
        <time>2019-11-30T10:06:06Z</time>
      </trkpt>
      <trkpt lat="48.7172" lon="1.96374">
        <ele>106.36</ele>
        <time>2019-11-30T10:06:10Z</time>
      </trkpt>
      <trkpt lat="48.7172" lon="1.96381">
        <ele>106.36</ele>
        <time>2019-11-30T10:06:12Z</time>
      </trkpt>
      <trkpt lat="48.71721" lon="1.96386">
        <ele>105.88</ele>
        <time>2019-11-30T10:06:14Z</time>
      </trkpt>
      <trkpt lat="48.71724" lon="1.96426">
        <ele>104.92</ele>
        <time>2019-11-30T10:06:24Z</time>
      </trkpt>
      <trkpt lat="48.71731" lon="1.96455">
        <ele>103.96</ele>
        <time>2019-11-30T10:06:30Z</time>
      </trkpt>
      <trkpt lat="48.71759" lon="1.96471">
        <ele>103.48</ele>
        <time>2019-11-30T10:06:40Z</time>
      </trkpt>
      <trkpt lat="48.71775" lon="1.96468">
        <ele>103</ele>
        <time>2019-11-30T10:06:45Z</time>
      </trkpt>
      <trkpt lat="48.71775" lon="1.96484">
        <ele>103</ele>
        <time>2019-11-30T10:06:53Z</time>
      </trkpt>
      <trkpt lat="48.71772" lon="1.96486">
        <ele>102.52</ele>
        <time>2019-11-30T10:06:55Z</time>
      </trkpt>
      <trkpt lat="48.71769" lon="1.96496">
        <ele>103</ele>
        <time>2019-11-30T10:07:08Z</time>
      </trkpt>
      <trkpt lat="48.71766" lon="1.96504">
        <ele>103.48</ele>
        <time>2019-11-30T10:07:14Z</time>
      </trkpt>
      <trkpt lat="48.71756" lon="1.96523">
        <ele>102.52</ele>
        <time>2019-11-30T10:07:27Z</time>
      </trkpt>
      <trkpt lat="48.7175" lon="1.96535">
        <ele>103</ele>
        <time>2019-11-30T10:07:37Z</time>
      </trkpt>
      <trkpt lat="48.71748" lon="1.96544">
        <ele>102.52</ele>
        <time>2019-11-30T10:07:43Z</time>
      </trkpt>
      <trkpt lat="48.71743" lon="1.96554">
        <ele>102.52</ele>
        <time>2019-11-30T10:07:50Z</time>
      </trkpt>
      <trkpt lat="48.71736" lon="1.96567">
        <ele>103</ele>
        <time>2019-11-30T10:08:02Z</time>
      </trkpt>
      <trkpt lat="48.71731" lon="1.96577">
        <ele>103</ele>
        <time>2019-11-30T10:08:12Z</time>
      </trkpt>
      <trkpt lat="48.7173" lon="1.96579">
        <ele>103</ele>
        <time>2019-11-30T10:08:14Z</time>
      </trkpt>
      <trkpt lat="48.71726" lon="1.96588">
        <ele>102.52</ele>
        <time>2019-11-30T10:08:19Z</time>
      </trkpt>
      <trkpt lat="48.71716" lon="1.96609">
        <ele>103</ele>
        <time>2019-11-30T10:08:31Z</time>
      </trkpt>
      <trkpt lat="48.71707" lon="1.96632">
        <ele>103</ele>
        <time>2019-11-30T10:08:43Z</time>
      </trkpt>
      <trkpt lat="48.71696" lon="1.9665">
        <ele>103</ele>
        <time>2019-11-30T10:08:57Z</time>
      </trkpt>
      <trkpt lat="48.7169" lon="1.96675">
        <ele>103</ele>
        <time>2019-11-30T10:09:12Z</time>
      </trkpt>
      <trkpt lat="48.71677" lon="1.967">
        <ele>103</ele>
        <time>2019-11-30T10:09:26Z</time>
      </trkpt>
      <trkpt lat="48.71673" lon="1.96708">
        <ele>103</ele>
        <time>2019-11-30T10:09:32Z</time>
      </trkpt>
      <trkpt lat="48.71673" lon="1.96713">
        <ele>103.48</ele>
        <time>2019-11-30T10:09:35Z</time>
      </trkpt>
      <trkpt lat="48.71664" lon="1.96739">
        <ele>104.44</ele>
        <time>2019-11-30T10:09:50Z</time>
      </trkpt>
      <trkpt lat="48.7166" lon="1.96744">
        <ele>104.44</ele>
        <time>2019-11-30T10:09:54Z</time>
      </trkpt>
      <trkpt lat="48.71661" lon="1.9675">
        <ele>104.44</ele>
        <time>2019-11-30T10:09:59Z</time>
      </trkpt>
      <trkpt lat="48.71658" lon="1.96768">
        <ele>103.96</ele>
        <time>2019-11-30T10:10:11Z</time>
      </trkpt>
      <trkpt lat="48.7165" lon="1.96781">
        <ele>103.96</ele>
        <time>2019-11-30T10:10:24Z</time>
      </trkpt>
      <trkpt lat="48.71641" lon="1.96798">
        <ele>103.96</ele>
        <time>2019-11-30T10:10:37Z</time>
      </trkpt>
      <trkpt lat="48.71632" lon="1.9681">
        <ele>103.96</ele>
        <time>2019-11-30T10:10:49Z</time>
      </trkpt>
      <trkpt lat="48.71626" lon="1.96815">
        <ele>103.48</ele>
        <time>2019-11-30T10:10:55Z</time>
      </trkpt>
      <trkpt lat="48.71617" lon="1.96824">
        <ele>103.96</ele>
        <time>2019-11-30T10:11:06Z</time>
      </trkpt>
      <trkpt lat="48.71613" lon="1.96835">
        <ele>103.96</ele>
        <time>2019-11-30T10:11:12Z</time>
      </trkpt>
      <trkpt lat="48.71623" lon="1.96842">
        <ele>102.52</ele>
        <time>2019-11-30T10:11:20Z</time>
      </trkpt>
      <trkpt lat="48.71626" lon="1.96848">
        <ele>102.52</ele>
        <time>2019-11-30T10:11:26Z</time>
      </trkpt>
      <trkpt lat="48.7163" lon="1.96849">
        <ele>102.04</ele>
        <time>2019-11-30T10:11:29Z</time>
      </trkpt>
      <trkpt lat="48.71633" lon="1.96853">
        <ele>102.04</ele>
        <time>2019-11-30T10:11:34Z</time>
      </trkpt>
      <trkpt lat="48.71635" lon="1.96853">
        <ele>102.04</ele>
        <time>2019-11-30T10:11:36Z</time>
      </trkpt>
      <trkpt lat="48.71642" lon="1.96852">
        <ele>103</ele>
        <time>2019-11-30T10:11:48Z</time>
      </trkpt>
      <trkpt lat="48.71651" lon="1.96853">
        <ele>103</ele>
        <time>2019-11-30T10:11:56Z</time>
      </trkpt>
      <trkpt lat="48.71654" lon="1.96854">
        <ele>102.52</ele>
        <time>2019-11-30T10:11:59Z</time>
      </trkpt>
      <trkpt lat="48.71668" lon="1.96859">
        <ele>102.04</ele>
        <time>2019-11-30T10:12:11Z</time>
      </trkpt>
      <trkpt lat="48.71673" lon="1.96859">
        <ele>102.52</ele>
        <time>2019-11-30T10:12:16Z</time>
      </trkpt>
      <trkpt lat="48.71678" lon="1.96863">
        <ele>103</ele>
        <time>2019-11-30T10:12:20Z</time>
      </trkpt>
      <trkpt lat="48.71693" lon="1.96868">
        <ele>102.52</ele>
        <time>2019-11-30T10:12:32Z</time>
      </trkpt>
      <trkpt lat="48.71695" lon="1.9687">
        <ele>102.52</ele>
        <time>2019-11-30T10:12:35Z</time>
      </trkpt>
      <trkpt lat="48.71705" lon="1.96875">
        <ele>103</ele>
        <time>2019-11-30T10:12:48Z</time>
      </trkpt>
      <trkpt lat="48.71706" lon="1.96878">
        <ele>102.52</ele>
        <time>2019-11-30T10:12:53Z</time>
      </trkpt>
      <trkpt lat="48.71716" lon="1.96885">
        <ele>102.52</ele>
        <time>2019-11-30T10:13:03Z</time>
      </trkpt>
      <trkpt lat="48.71726" lon="1.96895">
        <ele>103</ele>
        <time>2019-11-30T10:13:16Z</time>
      </trkpt>
      <trkpt lat="48.71729" lon="1.96899">
        <ele>103</ele>
        <time>2019-11-30T10:13:20Z</time>
      </trkpt>
      <trkpt lat="48.71735" lon="1.96905">
        <ele>103</ele>
        <time>2019-11-30T10:13:28Z</time>
      </trkpt>
      <trkpt lat="48.71738" lon="1.96906">
        <ele>102.52</ele>
        <time>2019-11-30T10:13:31Z</time>
      </trkpt>
      <trkpt lat="48.7174" lon="1.96908">
        <ele>102.52</ele>
        <time>2019-11-30T10:13:33Z</time>
      </trkpt>
      <trkpt lat="48.71742" lon="1.96909">
        <ele>102.52</ele>
        <time>2019-11-30T10:13:34Z</time>
      </trkpt>
      <trkpt lat="48.71744" lon="1.96911">
        <ele>102.52</ele>
        <time>2019-11-30T10:13:35Z</time>
      </trkpt>
      <trkpt lat="48.71749" lon="1.96922">
        <ele>102.04</ele>
        <time>2019-11-30T10:13:46Z</time>
      </trkpt>
      <trkpt lat="48.71749" lon="1.96927">
        <ele>102.04</ele>
        <time>2019-11-30T10:13:49Z</time>
      </trkpt>
      <trkpt lat="48.71749" lon="1.9693">
        <ele>101.56</ele>
        <time>2019-11-30T10:13:50Z</time>
      </trkpt>
      <trkpt lat="48.71749" lon="1.96933">
        <ele>102.04</ele>
        <time>2019-11-30T10:13:51Z</time>
      </trkpt>
      <trkpt lat="48.71749" lon="1.96941">
        <ele>102.04</ele>
        <time>2019-11-30T10:13:54Z</time>
      </trkpt>
      <trkpt lat="48.71751" lon="1.96959">
        <ele>102.52</ele>
        <time>2019-11-30T10:14:04Z</time>
      </trkpt>
      <trkpt lat="48.71754" lon="1.96966">
        <ele>102.04</ele>
        <time>2019-11-30T10:14:07Z</time>
      </trkpt>
      <trkpt lat="48.71754" lon="1.96968">
        <ele>102.52</ele>
        <time>2019-11-30T10:14:08Z</time>
      </trkpt>
      <trkpt lat="48.71754" lon="1.9697">
        <ele>102.52</ele>
        <time>2019-11-30T10:14:09Z</time>
      </trkpt>
      <trkpt lat="48.71753" lon="1.96978">
        <ele>102.04</ele>
        <time>2019-11-30T10:14:14Z</time>
      </trkpt>
      <trkpt lat="48.71753" lon="1.96983">
        <ele>102.04</ele>
        <time>2019-11-30T10:14:17Z</time>
      </trkpt>
      <trkpt lat="48.71752" lon="1.96985">
        <ele>102.04</ele>
        <time>2019-11-30T10:14:18Z</time>
      </trkpt>
      <trkpt lat="48.71753" lon="1.97">
        <ele>101.08</ele>
        <time>2019-11-30T10:14:28Z</time>
      </trkpt>
      <trkpt lat="48.71753" lon="1.97002">
        <ele>100.6</ele>
        <time>2019-11-30T10:14:29Z</time>
      </trkpt>
      <trkpt lat="48.71752" lon="1.97004">
        <ele>100.6</ele>
        <time>2019-11-30T10:14:30Z</time>
      </trkpt>
      <trkpt lat="48.71751" lon="1.97007">
        <ele>100.11</ele>
        <time>2019-11-30T10:14:31Z</time>
      </trkpt>
      <trkpt lat="48.7175" lon="1.97009">
        <ele>100.6</ele>
        <time>2019-11-30T10:14:32Z</time>
      </trkpt>
      <trkpt lat="48.7175" lon="1.97011">
        <ele>99.63</ele>
        <time>2019-11-30T10:14:33Z</time>
      </trkpt>
      <trkpt lat="48.71749" lon="1.97013">
        <ele>100.11</ele>
        <time>2019-11-30T10:14:34Z</time>
      </trkpt>
      <trkpt lat="48.71748" lon="1.97022">
        <ele>99.63</ele>
        <time>2019-11-30T10:14:45Z</time>
      </trkpt>
      <trkpt lat="48.71744" lon="1.97027">
        <ele>99.63</ele>
        <time>2019-11-30T10:15:01Z</time>
      </trkpt>
      <trkpt lat="48.71736" lon="1.97039">
        <ele>99.63</ele>
        <time>2019-11-30T10:15:16Z</time>
      </trkpt>
      <trkpt lat="48.71736" lon="1.97046">
        <ele>100.11</ele>
        <time>2019-11-30T10:15:27Z</time>
      </trkpt>
      <trkpt lat="48.7174" lon="1.9705">
        <ele>100.6</ele>
        <time>2019-11-30T10:15:47Z</time>
      </trkpt>
      <trkpt lat="48.71742" lon="1.97061">
        <ele>100.6</ele>
        <time>2019-11-30T10:15:57Z</time>
      </trkpt>
      <trkpt lat="48.71739" lon="1.97071">
        <ele>102.04</ele>
        <time>2019-11-30T10:16:08Z</time>
      </trkpt>
      <trkpt lat="48.71735" lon="1.97087">
        <ele>103</ele>
        <time>2019-11-30T10:16:20Z</time>
      </trkpt>
      <trkpt lat="48.71735" lon="1.97094">
        <ele>103</ele>
        <time>2019-11-30T10:16:27Z</time>
      </trkpt>
      <trkpt lat="48.71735" lon="1.97103">
        <ele>103</ele>
        <time>2019-11-30T10:16:35Z</time>
      </trkpt>
      <trkpt lat="48.71734" lon="1.97113">
        <ele>103.48</ele>
        <time>2019-11-30T10:16:42Z</time>
      </trkpt>
      <trkpt lat="48.71734" lon="1.97116">
        <ele>103.48</ele>
        <time>2019-11-30T10:16:43Z</time>
      </trkpt>
      <trkpt lat="48.71732" lon="1.9713">
        <ele>104.44</ele>
        <time>2019-11-30T10:16:53Z</time>
      </trkpt>
      <trkpt lat="48.71732" lon="1.97131">
        <ele>104.44</ele>
        <time>2019-11-30T10:16:54Z</time>
      </trkpt>
      <trkpt lat="48.71732" lon="1.97133">
        <ele>103.96</ele>
        <time>2019-11-30T10:16:55Z</time>
      </trkpt>
      <trkpt lat="48.71732" lon="1.97135">
        <ele>104.92</ele>
        <time>2019-11-30T10:16:56Z</time>
      </trkpt>
      <trkpt lat="48.71732" lon="1.97137">
        <ele>103.96</ele>
        <time>2019-11-30T10:16:57Z</time>
      </trkpt>
      <trkpt lat="48.71727" lon="1.97156">
        <ele>104.44</ele>
        <time>2019-11-30T10:17:11Z</time>
      </trkpt>
      <trkpt lat="48.71721" lon="1.97177">
        <ele>103.48</ele>
        <time>2019-11-30T10:17:23Z</time>
      </trkpt>
      <trkpt lat="48.71721" lon="1.97184">
        <ele>103.48</ele>
        <time>2019-11-30T10:17:28Z</time>
      </trkpt>
      <trkpt lat="48.7172" lon="1.97198">
        <ele>103</ele>
        <time>2019-11-30T10:17:39Z</time>
      </trkpt>
      <trkpt lat="48.71719" lon="1.97202">
        <ele>103</ele>
        <time>2019-11-30T10:17:41Z</time>
      </trkpt>
      <trkpt lat="48.71718" lon="1.97204">
        <ele>103</ele>
        <time>2019-11-30T10:17:42Z</time>
      </trkpt>
      <trkpt lat="48.71715" lon="1.9722">
        <ele>104.44</ele>
        <time>2019-11-30T10:17:54Z</time>
      </trkpt>
      <trkpt lat="48.71713" lon="1.97229">
        <ele>105.4</ele>
        <time>2019-11-30T10:18:00Z</time>
      </trkpt>
      <trkpt lat="48.71709" lon="1.97244">
        <ele>105.4</ele>
        <time>2019-11-30T10:18:09Z</time>
      </trkpt>
      <trkpt lat="48.71705" lon="1.97256">
        <ele>104.92</ele>
        <time>2019-11-30T10:18:18Z</time>
      </trkpt>
      <trkpt lat="48.71705" lon="1.97259">
        <ele>104.44</ele>
        <time>2019-11-30T10:18:19Z</time>
      </trkpt>
      <trkpt lat="48.71704" lon="1.97264">
        <ele>104.92</ele>
        <time>2019-11-30T10:18:21Z</time>
      </trkpt>
      <trkpt lat="48.71699" lon="1.97278">
        <ele>104.92</ele>
        <time>2019-11-30T10:18:30Z</time>
      </trkpt>
      <trkpt lat="48.71694" lon="1.97294">
        <ele>105.4</ele>
        <time>2019-11-30T10:18:40Z</time>
      </trkpt>
      <trkpt lat="48.71691" lon="1.9731">
        <ele>105.88</ele>
        <time>2019-11-30T10:18:51Z</time>
      </trkpt>
      <trkpt lat="48.71689" lon="1.97326">
        <ele>104.92</ele>
        <time>2019-11-30T10:19:02Z</time>
      </trkpt>
      <trkpt lat="48.71688" lon="1.97334">
        <ele>105.88</ele>
        <time>2019-11-30T10:19:07Z</time>
      </trkpt>
      <trkpt lat="48.71687" lon="1.97335">
        <ele>105.4</ele>
        <time>2019-11-30T10:19:08Z</time>
      </trkpt>
      <trkpt lat="48.71687" lon="1.97337">
        <ele>105.4</ele>
        <time>2019-11-30T10:19:09Z</time>
      </trkpt>
      <trkpt lat="48.71686" lon="1.97341">
        <ele>105.4</ele>
        <time>2019-11-30T10:19:12Z</time>
      </trkpt>
      <trkpt lat="48.71685" lon="1.97343">
        <ele>105.4</ele>
        <time>2019-11-30T10:19:13Z</time>
      </trkpt>
      <trkpt lat="48.71684" lon="1.97344">
        <ele>105.4</ele>
        <time>2019-11-30T10:19:14Z</time>
      </trkpt>
      <trkpt lat="48.71673" lon="1.97361">
        <ele>105.4</ele>
        <time>2019-11-30T10:19:28Z</time>
      </trkpt>
      <trkpt lat="48.71664" lon="1.97377">
        <ele>104.92</ele>
        <time>2019-11-30T10:19:40Z</time>
      </trkpt>
      <trkpt lat="48.71664" lon="1.97379">
        <ele>105.4</ele>
        <time>2019-11-30T10:19:41Z</time>
      </trkpt>
      <trkpt lat="48.7166" lon="1.97397">
        <ele>106.36</ele>
        <time>2019-11-30T10:19:52Z</time>
      </trkpt>
      <trkpt lat="48.7166" lon="1.97399">
        <ele>106.84</ele>
        <time>2019-11-30T10:19:54Z</time>
      </trkpt>
      <trkpt lat="48.7166" lon="1.97401">
        <ele>106.84</ele>
        <time>2019-11-30T10:19:55Z</time>
      </trkpt>
      <trkpt lat="48.71659" lon="1.97417">
        <ele>107.81</ele>
        <time>2019-11-30T10:20:08Z</time>
      </trkpt>
      <trkpt lat="48.71657" lon="1.97432">
        <ele>108.77</ele>
        <time>2019-11-30T10:20:23Z</time>
      </trkpt>
      <trkpt lat="48.71655" lon="1.97434">
        <ele>108.29</ele>
        <time>2019-11-30T10:20:25Z</time>
      </trkpt>
      <trkpt lat="48.71653" lon="1.97434">
        <ele>108.29</ele>
        <time>2019-11-30T10:20:26Z</time>
      </trkpt>
      <trkpt lat="48.71647" lon="1.97435">
        <ele>108.29</ele>
        <time>2019-11-30T10:20:36Z</time>
      </trkpt>
      <trkpt lat="48.71641" lon="1.97438">
        <ele>107.32</ele>
        <time>2019-11-30T10:20:44Z</time>
      </trkpt>
      <trkpt lat="48.7164" lon="1.9744">
        <ele>106.84</ele>
        <time>2019-11-30T10:20:45Z</time>
      </trkpt>
      <trkpt lat="48.71638" lon="1.97441">
        <ele>106.36</ele>
        <time>2019-11-30T10:20:46Z</time>
      </trkpt>
      <trkpt lat="48.71636" lon="1.97443">
        <ele>106.36</ele>
        <time>2019-11-30T10:20:47Z</time>
      </trkpt>
      <trkpt lat="48.71635" lon="1.97445">
        <ele>105.88</ele>
        <time>2019-11-30T10:20:48Z</time>
      </trkpt>
      <trkpt lat="48.71634" lon="1.97446">
        <ele>105.88</ele>
        <time>2019-11-30T10:20:49Z</time>
      </trkpt>
      <trkpt lat="48.71628" lon="1.97457">
        <ele>106.36</ele>
        <time>2019-11-30T10:21:02Z</time>
      </trkpt>
      <trkpt lat="48.71628" lon="1.97461">
        <ele>106.36</ele>
        <time>2019-11-30T10:21:06Z</time>
      </trkpt>
      <trkpt lat="48.71628" lon="1.97463">
        <ele>105.88</ele>
        <time>2019-11-30T10:21:07Z</time>
      </trkpt>
      <trkpt lat="48.71623" lon="1.97472">
        <ele>104.92</ele>
        <time>2019-11-30T10:21:15Z</time>
      </trkpt>
      <trkpt lat="48.71608" lon="1.97482">
        <ele>103</ele>
        <time>2019-11-30T10:21:28Z</time>
      </trkpt>
      <trkpt lat="48.716" lon="1.9749">
        <ele>103</ele>
        <time>2019-11-30T10:21:38Z</time>
      </trkpt>
      <trkpt lat="48.7159" lon="1.97512">
        <ele>103.96</ele>
        <time>2019-11-30T10:21:53Z</time>
      </trkpt>
      <trkpt lat="48.71587" lon="1.97523">
        <ele>106.36</ele>
        <time>2019-11-30T10:22:05Z</time>
      </trkpt>
      <trkpt lat="48.71579" lon="1.97538">
        <ele>105.88</ele>
        <time>2019-11-30T10:22:18Z</time>
      </trkpt>
      <trkpt lat="48.71578" lon="1.9754">
        <ele>106.36</ele>
        <time>2019-11-30T10:22:19Z</time>
      </trkpt>
      <trkpt lat="48.71572" lon="1.97552">
        <ele>105.88</ele>
        <time>2019-11-30T10:22:32Z</time>
      </trkpt>
      <trkpt lat="48.71563" lon="1.97576">
        <ele>104.92</ele>
        <time>2019-11-30T10:22:44Z</time>
      </trkpt>
      <trkpt lat="48.71553" lon="1.97597">
        <ele>103.48</ele>
        <time>2019-11-30T10:22:56Z</time>
      </trkpt>
      <trkpt lat="48.71543" lon="1.97608">
        <ele>103</ele>
        <time>2019-11-30T10:23:10Z</time>
      </trkpt>
      <trkpt lat="48.71537" lon="1.97619">
        <ele>103</ele>
        <time>2019-11-30T10:23:23Z</time>
      </trkpt>
      <trkpt lat="48.71528" lon="1.97643">
        <ele>103.96</ele>
        <time>2019-11-30T10:23:38Z</time>
      </trkpt>
      <trkpt lat="48.71524" lon="1.97656">
        <ele>104.92</ele>
        <time>2019-11-30T10:23:46Z</time>
      </trkpt>
      <trkpt lat="48.71523" lon="1.97658">
        <ele>104.92</ele>
        <time>2019-11-30T10:23:47Z</time>
      </trkpt>
      <trkpt lat="48.71522" lon="1.97669">
        <ele>105.4</ele>
        <time>2019-11-30T10:23:53Z</time>
      </trkpt>
      <trkpt lat="48.71519" lon="1.97681">
        <ele>107.32</ele>
        <time>2019-11-30T10:24:03Z</time>
      </trkpt>
      <trkpt lat="48.71517" lon="1.97691">
        <ele>106.84</ele>
        <time>2019-11-30T10:24:11Z</time>
      </trkpt>
      <trkpt lat="48.71516" lon="1.97693">
        <ele>106.36</ele>
        <time>2019-11-30T10:24:12Z</time>
      </trkpt>
      <trkpt lat="48.71513" lon="1.97707">
        <ele>106.36</ele>
        <time>2019-11-30T10:24:23Z</time>
      </trkpt>
      <trkpt lat="48.71512" lon="1.97709">
        <ele>106.84</ele>
        <time>2019-11-30T10:24:24Z</time>
      </trkpt>
      <trkpt lat="48.71511" lon="1.97711">
        <ele>105.88</ele>
        <time>2019-11-30T10:24:25Z</time>
      </trkpt>
      <trkpt lat="48.71505" lon="1.97725">
        <ele>104.92</ele>
        <time>2019-11-30T10:24:37Z</time>
      </trkpt>
      <trkpt lat="48.715" lon="1.97732">
        <ele>103</ele>
        <time>2019-11-30T10:24:48Z</time>
      </trkpt>
      <trkpt lat="48.71495" lon="1.97739">
        <ele>102.52</ele>
        <time>2019-11-30T10:24:59Z</time>
      </trkpt>
      <trkpt lat="48.71492" lon="1.97749">
        <ele>103</ele>
        <time>2019-11-30T10:25:07Z</time>
      </trkpt>
      <trkpt lat="48.71492" lon="1.97751">
        <ele>103.48</ele>
        <time>2019-11-30T10:25:09Z</time>
      </trkpt>
      <trkpt lat="48.7149" lon="1.97753">
        <ele>103.48</ele>
        <time>2019-11-30T10:25:10Z</time>
      </trkpt>
      <trkpt lat="48.7148" lon="1.97763">
        <ele>101.56</ele>
        <time>2019-11-30T10:25:22Z</time>
      </trkpt>
      <trkpt lat="48.71478" lon="1.97772">
        <ele>102.04</ele>
        <time>2019-11-30T10:25:37Z</time>
      </trkpt>
      <trkpt lat="48.71475" lon="1.9778">
        <ele>101.56</ele>
        <time>2019-11-30T10:25:51Z</time>
      </trkpt>
      <trkpt lat="48.71474" lon="1.97795">
        <ele>101.56</ele>
        <time>2019-11-30T10:26:01Z</time>
      </trkpt>
      <trkpt lat="48.7147" lon="1.97805">
        <ele>102.52</ele>
        <time>2019-11-30T10:26:10Z</time>
      </trkpt>
      <trkpt lat="48.71466" lon="1.97821">
        <ele>103</ele>
        <time>2019-11-30T10:26:20Z</time>
      </trkpt>
      <trkpt lat="48.71463" lon="1.97828">
        <ele>102.52</ele>
        <time>2019-11-30T10:26:28Z</time>
      </trkpt>
      <trkpt lat="48.71462" lon="1.97834">
        <ele>102.04</ele>
        <time>2019-11-30T10:26:32Z</time>
      </trkpt>
      <trkpt lat="48.71462" lon="1.97836">
        <ele>102.04</ele>
        <time>2019-11-30T10:26:33Z</time>
      </trkpt>
      <trkpt lat="48.71461" lon="1.9784">
        <ele>102.52</ele>
        <time>2019-11-30T10:26:34Z</time>
      </trkpt>
      <trkpt lat="48.71459" lon="1.97847">
        <ele>102.52</ele>
        <time>2019-11-30T10:26:37Z</time>
      </trkpt>
      <trkpt lat="48.71458" lon="1.97849">
        <ele>103</ele>
        <time>2019-11-30T10:26:38Z</time>
      </trkpt>
      <trkpt lat="48.71458" lon="1.97851">
        <ele>103</ele>
        <time>2019-11-30T10:26:39Z</time>
      </trkpt>
      <trkpt lat="48.71457" lon="1.97855">
        <ele>103</ele>
        <time>2019-11-30T10:26:41Z</time>
      </trkpt>
      <trkpt lat="48.71457" lon="1.97857">
        <ele>103</ele>
        <time>2019-11-30T10:26:42Z</time>
      </trkpt>
      <trkpt lat="48.71457" lon="1.97868">
        <ele>103</ele>
        <time>2019-11-30T10:26:51Z</time>
      </trkpt>
      <trkpt lat="48.71457" lon="1.9787">
        <ele>103.48</ele>
        <time>2019-11-30T10:26:52Z</time>
      </trkpt>
      <trkpt lat="48.71456" lon="1.97872">
        <ele>103.48</ele>
        <time>2019-11-30T10:26:53Z</time>
      </trkpt>
      <trkpt lat="48.71455" lon="1.97878">
        <ele>103</ele>
        <time>2019-11-30T10:26:56Z</time>
      </trkpt>
      <trkpt lat="48.71455" lon="1.97895">
        <ele>103.48</ele>
        <time>2019-11-30T10:27:10Z</time>
      </trkpt>
      <trkpt lat="48.71456" lon="1.97898">
        <ele>102.52</ele>
        <time>2019-11-30T10:27:13Z</time>
      </trkpt>
      <trkpt lat="48.71457" lon="1.97901">
        <ele>102.52</ele>
        <time>2019-11-30T10:27:15Z</time>
      </trkpt>
      <trkpt lat="48.71457" lon="1.97906">
        <ele>102.52</ele>
        <time>2019-11-30T10:27:17Z</time>
      </trkpt>
      <trkpt lat="48.71455" lon="1.97915">
        <ele>102.52</ele>
        <time>2019-11-30T10:27:23Z</time>
      </trkpt>
      <trkpt lat="48.71455" lon="1.9792">
        <ele>103</ele>
        <time>2019-11-30T10:27:26Z</time>
      </trkpt>
      <trkpt lat="48.71454" lon="1.97936">
        <ele>104.44</ele>
        <time>2019-11-30T10:27:38Z</time>
      </trkpt>
      <trkpt lat="48.71453" lon="1.97958">
        <ele>105.4</ele>
        <time>2019-11-30T10:27:52Z</time>
      </trkpt>
      <trkpt lat="48.7145" lon="1.97971">
        <ele>105.88</ele>
        <time>2019-11-30T10:28:01Z</time>
      </trkpt>
      <trkpt lat="48.71449" lon="1.97973">
        <ele>106.36</ele>
        <time>2019-11-30T10:28:02Z</time>
      </trkpt>
      <trkpt lat="48.71448" lon="1.97975">
        <ele>106.36</ele>
        <time>2019-11-30T10:28:03Z</time>
      </trkpt>
      <trkpt lat="48.71447" lon="1.9798">
        <ele>106.84</ele>
        <time>2019-11-30T10:28:07Z</time>
      </trkpt>
      <trkpt lat="48.71446" lon="1.97983">
        <ele>107.32</ele>
        <time>2019-11-30T10:28:10Z</time>
      </trkpt>
      <trkpt lat="48.71444" lon="1.97988">
        <ele>107.81</ele>
        <time>2019-11-30T10:28:13Z</time>
      </trkpt>
      <trkpt lat="48.71442" lon="1.97992">
        <ele>107.81</ele>
        <time>2019-11-30T10:28:16Z</time>
      </trkpt>
      <trkpt lat="48.71437" lon="1.98004">
        <ele>108.77</ele>
        <time>2019-11-30T10:28:25Z</time>
      </trkpt>
      <trkpt lat="48.71436" lon="1.98006">
        <ele>109.25</ele>
        <time>2019-11-30T10:28:26Z</time>
      </trkpt>
      <trkpt lat="48.71435" lon="1.98026">
        <ele>109.25</ele>
        <time>2019-11-30T10:28:36Z</time>
      </trkpt>
      <trkpt lat="48.71434" lon="1.98029">
        <ele>109.73</ele>
        <time>2019-11-30T10:28:37Z</time>
      </trkpt>
      <trkpt lat="48.71434" lon="1.98031">
        <ele>109.73</ele>
        <time>2019-11-30T10:28:38Z</time>
      </trkpt>
      <trkpt lat="48.71433" lon="1.98033">
        <ele>109.73</ele>
        <time>2019-11-30T10:28:39Z</time>
      </trkpt>
      <trkpt lat="48.71432" lon="1.98035">
        <ele>109.73</ele>
        <time>2019-11-30T10:28:40Z</time>
      </trkpt>
      <trkpt lat="48.71432" lon="1.9804">
        <ele>110.21</ele>
        <time>2019-11-30T10:28:44Z</time>
      </trkpt>
      <trkpt lat="48.71432" lon="1.98042">
        <ele>110.21</ele>
        <time>2019-11-30T10:28:45Z</time>
      </trkpt>
      <trkpt lat="48.71429" lon="1.98063">
        <ele>110.69</ele>
        <time>2019-11-30T10:28:58Z</time>
      </trkpt>
      <trkpt lat="48.71429" lon="1.98065">
        <ele>111.17</ele>
        <time>2019-11-30T10:28:59Z</time>
      </trkpt>
      <trkpt lat="48.71429" lon="1.98067">
        <ele>111.17</ele>
        <time>2019-11-30T10:29:00Z</time>
      </trkpt>
      <trkpt lat="48.71429" lon="1.98073">
        <ele>110.69</ele>
        <time>2019-11-30T10:29:15Z</time>
      </trkpt>
      <trkpt lat="48.71427" lon="1.98092">
        <ele>112.13</ele>
        <time>2019-11-30T10:29:25Z</time>
      </trkpt>
      <trkpt lat="48.71431" lon="1.98108">
        <ele>111.65</ele>
        <time>2019-11-30T10:29:40Z</time>
      </trkpt>
      <trkpt lat="48.71431" lon="1.98122">
        <ele>111.17</ele>
        <time>2019-11-30T10:29:49Z</time>
      </trkpt>
      <trkpt lat="48.71431" lon="1.98125">
        <ele>111.17</ele>
        <time>2019-11-30T10:29:50Z</time>
      </trkpt>
      <trkpt lat="48.7143" lon="1.98131">
        <ele>110.69</ele>
        <time>2019-11-30T10:29:53Z</time>
      </trkpt>
      <trkpt lat="48.71426" lon="1.98146">
        <ele>109.73</ele>
        <time>2019-11-30T10:30:02Z</time>
      </trkpt>
      <trkpt lat="48.71427" lon="1.98166">
        <ele>108.77</ele>
        <time>2019-11-30T10:30:16Z</time>
      </trkpt>
      <trkpt lat="48.71427" lon="1.98171">
        <ele>107.81</ele>
        <time>2019-11-30T10:30:20Z</time>
      </trkpt>
      <trkpt lat="48.71424" lon="1.9818">
        <ele>107.81</ele>
        <time>2019-11-30T10:30:28Z</time>
      </trkpt>
      <trkpt lat="48.71422" lon="1.98182">
        <ele>107.81</ele>
        <time>2019-11-30T10:30:30Z</time>
      </trkpt>
      <trkpt lat="48.71422" lon="1.98184">
        <ele>107.81</ele>
        <time>2019-11-30T10:30:31Z</time>
      </trkpt>
      <trkpt lat="48.71419" lon="1.98197">
        <ele>106.84</ele>
        <time>2019-11-30T10:30:42Z</time>
      </trkpt>
      <trkpt lat="48.71418" lon="1.98199">
        <ele>106.84</ele>
        <time>2019-11-30T10:30:43Z</time>
      </trkpt>
      <trkpt lat="48.71417" lon="1.98202">
        <ele>106.36</ele>
        <time>2019-11-30T10:30:44Z</time>
      </trkpt>
      <trkpt lat="48.71416" lon="1.98204">
        <ele>106.36</ele>
        <time>2019-11-30T10:30:45Z</time>
      </trkpt>
      <trkpt lat="48.71411" lon="1.98214">
        <ele>105.4</ele>
        <time>2019-11-30T10:30:56Z</time>
      </trkpt>
      <trkpt lat="48.71406" lon="1.98234">
        <ele>103.96</ele>
        <time>2019-11-30T10:31:09Z</time>
      </trkpt>
      <trkpt lat="48.71405" lon="1.98238">
        <ele>103</ele>
        <time>2019-11-30T10:31:10Z</time>
      </trkpt>
      <trkpt lat="48.71401" lon="1.98246">
        <ele>102.52</ele>
        <time>2019-11-30T10:31:23Z</time>
      </trkpt>
      <trkpt lat="48.714" lon="1.98247">
        <ele>103</ele>
        <time>2019-11-30T10:31:28Z</time>
      </trkpt>
      <trkpt lat="48.71399" lon="1.98249">
        <ele>103</ele>
        <time>2019-11-30T10:31:32Z</time>
      </trkpt>
      <trkpt lat="48.71399" lon="1.98249">
        <ele>103</ele>
        <time>2019-11-30T10:31:33Z</time>
      </trkpt>
      <trkpt lat="48.71386" lon="1.98256">
        <ele>102.04</ele>
        <time>2019-11-30T10:31:46Z</time>
      </trkpt>
      <trkpt lat="48.71367" lon="1.98269">
        <ele>103</ele>
        <time>2019-11-30T10:32:00Z</time>
      </trkpt>
      <trkpt lat="48.71364" lon="1.98271">
        <ele>103</ele>
        <time>2019-11-30T10:32:03Z</time>
      </trkpt>
      <trkpt lat="48.71358" lon="1.9828">
        <ele>103.48</ele>
        <time>2019-11-30T10:32:14Z</time>
      </trkpt>
      <trkpt lat="48.71355" lon="1.98287">
        <ele>103.48</ele>
        <time>2019-11-30T10:32:20Z</time>
      </trkpt>
      <trkpt lat="48.71355" lon="1.98288">
        <ele>103.48</ele>
        <time>2019-11-30T10:32:21Z</time>
      </trkpt>
      <trkpt lat="48.71354" lon="1.98292">
        <ele>103.96</ele>
        <time>2019-11-30T10:32:22Z</time>
      </trkpt>
      <trkpt lat="48.71354" lon="1.98294">
        <ele>103.48</ele>
        <time>2019-11-30T10:32:23Z</time>
      </trkpt>
      <trkpt lat="48.71354" lon="1.98296">
        <ele>103.96</ele>
        <time>2019-11-30T10:32:24Z</time>
      </trkpt>
      <trkpt lat="48.71352" lon="1.98301">
        <ele>103.96</ele>
        <time>2019-11-30T10:32:28Z</time>
      </trkpt>
      <trkpt lat="48.71349" lon="1.98317">
        <ele>103.48</ele>
        <time>2019-11-30T10:32:37Z</time>
      </trkpt>
      <trkpt lat="48.71348" lon="1.98319">
        <ele>103.48</ele>
        <time>2019-11-30T10:32:38Z</time>
      </trkpt>
      <trkpt lat="48.71347" lon="1.9832">
        <ele>103</ele>
        <time>2019-11-30T10:32:39Z</time>
      </trkpt>
      <trkpt lat="48.71335" lon="1.9834">
        <ele>102.52</ele>
        <time>2019-11-30T10:32:51Z</time>
      </trkpt>
      <trkpt lat="48.71334" lon="1.98344">
        <ele>102.04</ele>
        <time>2019-11-30T10:32:54Z</time>
      </trkpt>
      <trkpt lat="48.71333" lon="1.98346">
        <ele>102.04</ele>
        <time>2019-11-30T10:32:55Z</time>
      </trkpt>
      <trkpt lat="48.71327" lon="1.98357">
        <ele>102.04</ele>
        <time>2019-11-30T10:33:04Z</time>
      </trkpt>
      <trkpt lat="48.71326" lon="1.98359">
        <ele>102.04</ele>
        <time>2019-11-30T10:33:05Z</time>
      </trkpt>
      <trkpt lat="48.71325" lon="1.98362">
        <ele>102.04</ele>
        <time>2019-11-30T10:33:06Z</time>
      </trkpt>
      <trkpt lat="48.71324" lon="1.98366">
        <ele>102.52</ele>
        <time>2019-11-30T10:33:07Z</time>
      </trkpt>
      <trkpt lat="48.71323" lon="1.9837">
        <ele>102.04</ele>
        <time>2019-11-30T10:33:08Z</time>
      </trkpt>
      <trkpt lat="48.71323" lon="1.98372">
        <ele>102.04</ele>
        <time>2019-11-30T10:33:09Z</time>
      </trkpt>
      <trkpt lat="48.71322" lon="1.9838">
        <ele>102.04</ele>
        <time>2019-11-30T10:33:22Z</time>
      </trkpt>
      <trkpt lat="48.7132" lon="1.98385">
        <ele>102.04</ele>
        <time>2019-11-30T10:33:41Z</time>
      </trkpt>
      <trkpt lat="48.71313" lon="1.98389">
        <ele>101.08</ele>
        <time>2019-11-30T10:33:46Z</time>
      </trkpt>
      <trkpt lat="48.71311" lon="1.9839">
        <ele>101.56</ele>
        <time>2019-11-30T10:33:47Z</time>
      </trkpt>
      <trkpt lat="48.71305" lon="1.98397">
        <ele>101.08</ele>
        <time>2019-11-30T10:33:53Z</time>
      </trkpt>
      <trkpt lat="48.71305" lon="1.98399">
        <ele>100.6</ele>
        <time>2019-11-30T10:33:54Z</time>
      </trkpt>
      <trkpt lat="48.71301" lon="1.98414">
        <ele>99.63</ele>
        <time>2019-11-30T10:34:02Z</time>
      </trkpt>
      <trkpt lat="48.71301" lon="1.98416">
        <ele>100.11</ele>
        <time>2019-11-30T10:34:03Z</time>
      </trkpt>
      <trkpt lat="48.71298" lon="1.98441">
        <ele>100.11</ele>
        <time>2019-11-30T10:34:16Z</time>
      </trkpt>
      <trkpt lat="48.71296" lon="1.9845">
        <ele>100.11</ele>
        <time>2019-11-30T10:34:21Z</time>
      </trkpt>
      <trkpt lat="48.71295" lon="1.98461">
        <ele>100.11</ele>
        <time>2019-11-30T10:34:30Z</time>
      </trkpt>
      <trkpt lat="48.71295" lon="1.98474">
        <ele>100.11</ele>
        <time>2019-11-30T10:34:39Z</time>
      </trkpt>
      <trkpt lat="48.71295" lon="1.98482">
        <ele>101.08</ele>
        <time>2019-11-30T10:34:45Z</time>
      </trkpt>
      <trkpt lat="48.71295" lon="1.98484">
        <ele>100.6</ele>
        <time>2019-11-30T10:34:46Z</time>
      </trkpt>
      <trkpt lat="48.71289" lon="1.98497">
        <ele>100.6</ele>
        <time>2019-11-30T10:34:57Z</time>
      </trkpt>
      <trkpt lat="48.71286" lon="1.98497">
        <ele>99.63</ele>
        <time>2019-11-30T10:35:00Z</time>
      </trkpt>
      <trkpt lat="48.71273" lon="1.98502">
        <ele>99.63</ele>
        <time>2019-11-30T10:35:08Z</time>
      </trkpt>
      <trkpt lat="48.71258" lon="1.98507">
        <ele>99.15</ele>
        <time>2019-11-30T10:35:23Z</time>
      </trkpt>
      <trkpt lat="48.71244" lon="1.98513">
        <ele>99.15</ele>
        <time>2019-11-30T10:35:36Z</time>
      </trkpt>
      <trkpt lat="48.71234" lon="1.98525">
        <ele>98.67</ele>
        <time>2019-11-30T10:35:49Z</time>
      </trkpt>
      <trkpt lat="48.71224" lon="1.98554">
        <ele>98.19</ele>
        <time>2019-11-30T10:36:03Z</time>
      </trkpt>
      <trkpt lat="48.7122" lon="1.98558">
        <ele>98.19</ele>
        <time>2019-11-30T10:36:08Z</time>
      </trkpt>
      <trkpt lat="48.71219" lon="1.98559">
        <ele>97.71</ele>
        <time>2019-11-30T10:36:09Z</time>
      </trkpt>
      <trkpt lat="48.71212" lon="1.98569">
        <ele>97.23</ele>
        <time>2019-11-30T10:36:19Z</time>
      </trkpt>
      <trkpt lat="48.712" lon="1.98579">
        <ele>97.71</ele>
        <time>2019-11-30T10:36:33Z</time>
      </trkpt>
      <trkpt lat="48.71194" lon="1.98583">
        <ele>97.23</ele>
        <time>2019-11-30T10:36:45Z</time>
      </trkpt>
      <trkpt lat="48.71177" lon="1.98586">
        <ele>97.71</ele>
        <time>2019-11-30T10:36:58Z</time>
      </trkpt>
      <trkpt lat="48.71161" lon="1.98586">
        <ele>98.67</ele>
        <time>2019-11-30T10:37:13Z</time>
      </trkpt>
      <trkpt lat="48.71156" lon="1.98586">
        <ele>98.19</ele>
        <time>2019-11-30T10:37:18Z</time>
      </trkpt>
      <trkpt lat="48.71154" lon="1.98586">
        <ele>98.67</ele>
        <time>2019-11-30T10:37:20Z</time>
      </trkpt>
      <trkpt lat="48.71152" lon="1.98585">
        <ele>99.15</ele>
        <time>2019-11-30T10:37:21Z</time>
      </trkpt>
      <trkpt lat="48.7115" lon="1.98585">
        <ele>98.67</ele>
        <time>2019-11-30T10:37:22Z</time>
      </trkpt>
      <trkpt lat="48.71149" lon="1.98584">
        <ele>98.67</ele>
        <time>2019-11-30T10:37:23Z</time>
      </trkpt>
      <trkpt lat="48.71147" lon="1.98585">
        <ele>98.67</ele>
        <time>2019-11-30T10:37:24Z</time>
      </trkpt>
      <trkpt lat="48.71141" lon="1.98583">
        <ele>98.67</ele>
        <time>2019-11-30T10:37:30Z</time>
      </trkpt>
      <trkpt lat="48.7114" lon="1.98583">
        <ele>98.19</ele>
        <time>2019-11-30T10:37:31Z</time>
      </trkpt>
      <trkpt lat="48.71138" lon="1.98583">
        <ele>98.19</ele>
        <time>2019-11-30T10:37:32Z</time>
      </trkpt>
      <trkpt lat="48.71136" lon="1.98582">
        <ele>98.67</ele>
        <time>2019-11-30T10:37:33Z</time>
      </trkpt>
      <trkpt lat="48.71135" lon="1.98582">
        <ele>98.67</ele>
        <time>2019-11-30T10:37:34Z</time>
      </trkpt>
      <trkpt lat="48.71134" lon="1.98581">
        <ele>98.67</ele>
        <time>2019-11-30T10:37:35Z</time>
      </trkpt>
      <trkpt lat="48.71133" lon="1.98581">
        <ele>98.67</ele>
        <time>2019-11-30T10:37:36Z</time>
      </trkpt>
      <trkpt lat="48.7113" lon="1.98582">
        <ele>98.67</ele>
        <time>2019-11-30T10:37:38Z</time>
      </trkpt>
      <trkpt lat="48.71115" lon="1.98583">
        <ele>99.15</ele>
        <time>2019-11-30T10:37:50Z</time>
      </trkpt>
      <trkpt lat="48.71095" lon="1.98582">
        <ele>99.15</ele>
        <time>2019-11-30T10:38:05Z</time>
      </trkpt>
      <trkpt lat="48.71078" lon="1.9858">
        <ele>100.11</ele>
        <time>2019-11-30T10:38:18Z</time>
      </trkpt>
      <trkpt lat="48.71062" lon="1.9858">
        <ele>100.6</ele>
        <time>2019-11-30T10:38:33Z</time>
      </trkpt>
      <trkpt lat="48.71054" lon="1.98583">
        <ele>100.6</ele>
        <time>2019-11-30T10:38:39Z</time>
      </trkpt>
      <trkpt lat="48.71053" lon="1.98584">
        <ele>101.08</ele>
        <time>2019-11-30T10:38:41Z</time>
      </trkpt>
      <trkpt lat="48.71041" lon="1.98581">
        <ele>101.08</ele>
        <time>2019-11-30T10:38:53Z</time>
      </trkpt>
      <trkpt lat="48.71028" lon="1.98584">
        <ele>102.04</ele>
        <time>2019-11-30T10:39:05Z</time>
      </trkpt>
      <trkpt lat="48.71027" lon="1.98584">
        <ele>102.04</ele>
        <time>2019-11-30T10:39:06Z</time>
      </trkpt>
      <trkpt lat="48.71011" lon="1.98588">
        <ele>102.04</ele>
        <time>2019-11-30T10:39:18Z</time>
      </trkpt>
      <trkpt lat="48.7101" lon="1.98588">
        <ele>102.52</ele>
        <time>2019-11-30T10:39:19Z</time>
      </trkpt>
      <trkpt lat="48.70995" lon="1.98595">
        <ele>103</ele>
        <time>2019-11-30T10:39:31Z</time>
      </trkpt>
      <trkpt lat="48.70978" lon="1.98596">
        <ele>104.44</ele>
        <time>2019-11-30T10:39:45Z</time>
      </trkpt>
      <trkpt lat="48.70974" lon="1.98593">
        <ele>104.92</ele>
        <time>2019-11-30T10:39:51Z</time>
      </trkpt>
      <trkpt lat="48.70972" lon="1.98593">
        <ele>105.4</ele>
        <time>2019-11-30T10:39:52Z</time>
      </trkpt>
      <trkpt lat="48.70962" lon="1.98588">
        <ele>105.4</ele>
        <time>2019-11-30T10:40:03Z</time>
      </trkpt>
      <trkpt lat="48.70946" lon="1.98576">
        <ele>107.32</ele>
        <time>2019-11-30T10:40:18Z</time>
      </trkpt>
      <trkpt lat="48.70935" lon="1.98568">
        <ele>108.29</ele>
        <time>2019-11-30T10:40:29Z</time>
      </trkpt>
      <trkpt lat="48.70931" lon="1.98562">
        <ele>108.29</ele>
        <time>2019-11-30T10:40:41Z</time>
      </trkpt>
      <trkpt lat="48.70929" lon="1.98562">
        <ele>109.25</ele>
        <time>2019-11-30T10:40:42Z</time>
      </trkpt>
      <trkpt lat="48.70923" lon="1.98559">
        <ele>109.25</ele>
        <time>2019-11-30T10:40:50Z</time>
      </trkpt>
      <trkpt lat="48.70913" lon="1.98554">
        <ele>110.21</ele>
        <time>2019-11-30T10:40:58Z</time>
      </trkpt>
      <trkpt lat="48.70909" lon="1.9855">
        <ele>110.69</ele>
        <time>2019-11-30T10:41:03Z</time>
      </trkpt>
      <trkpt lat="48.70902" lon="1.98548">
        <ele>111.17</ele>
        <time>2019-11-30T10:41:08Z</time>
      </trkpt>
      <trkpt lat="48.70901" lon="1.98547">
        <ele>111.17</ele>
        <time>2019-11-30T10:41:09Z</time>
      </trkpt>
      <trkpt lat="48.70899" lon="1.98546">
        <ele>111.65</ele>
        <time>2019-11-30T10:41:10Z</time>
      </trkpt>
      <trkpt lat="48.70898" lon="1.98546">
        <ele>111.65</ele>
        <time>2019-11-30T10:41:11Z</time>
      </trkpt>
      <trkpt lat="48.70881" lon="1.98543">
        <ele>112.61</ele>
        <time>2019-11-30T10:41:25Z</time>
      </trkpt>
      <trkpt lat="48.70875" lon="1.98544">
        <ele>113.09</ele>
        <time>2019-11-30T10:41:38Z</time>
      </trkpt>
      <trkpt lat="48.70859" lon="1.98545">
        <ele>112.61</ele>
        <time>2019-11-30T10:41:52Z</time>
      </trkpt>
      <trkpt lat="48.70857" lon="1.98545">
        <ele>116.46</ele>
        <time>2019-11-30T10:41:53Z</time>
      </trkpt>
      <trkpt lat="48.70848" lon="1.98546">
        <ele>114.53</ele>
        <time>2019-11-30T10:42:01Z</time>
      </trkpt>
      <trkpt lat="48.70832" lon="1.98548">
        <ele>117.9</ele>
        <time>2019-11-30T10:42:15Z</time>
      </trkpt>
      <trkpt lat="48.7083" lon="1.98551">
        <ele>117.42</ele>
        <time>2019-11-30T10:42:17Z</time>
      </trkpt>
      <trkpt lat="48.70829" lon="1.98553">
        <ele>116.94</ele>
        <time>2019-11-30T10:42:18Z</time>
      </trkpt>
      <trkpt lat="48.70829" lon="1.98559">
        <ele>117.42</ele>
        <time>2019-11-30T10:42:21Z</time>
      </trkpt>
      <trkpt lat="48.70826" lon="1.98568">
        <ele>117.42</ele>
        <time>2019-11-30T10:42:28Z</time>
      </trkpt>
      <trkpt lat="48.70826" lon="1.9857">
        <ele>117.42</ele>
        <time>2019-11-30T10:42:29Z</time>
      </trkpt>
      <trkpt lat="48.70826" lon="1.98573">
        <ele>117.9</ele>
        <time>2019-11-30T10:42:30Z</time>
      </trkpt>
      <trkpt lat="48.70826" lon="1.98575">
        <ele>117.9</ele>
        <time>2019-11-30T10:42:31Z</time>
      </trkpt>
      <trkpt lat="48.70825" lon="1.98577">
        <ele>117.42</ele>
        <time>2019-11-30T10:42:32Z</time>
      </trkpt>
      <trkpt lat="48.70814" lon="1.98594">
        <ele>117.42</ele>
        <time>2019-11-30T10:42:45Z</time>
      </trkpt>
      <trkpt lat="48.70809" lon="1.98604">
        <ele>116.94</ele>
        <time>2019-11-30T10:42:52Z</time>
      </trkpt>
      <trkpt lat="48.70808" lon="1.98614">
        <ele>116.94</ele>
        <time>2019-11-30T10:42:58Z</time>
      </trkpt>
      <trkpt lat="48.70807" lon="1.9862">
        <ele>116.94</ele>
        <time>2019-11-30T10:43:04Z</time>
      </trkpt>
      <trkpt lat="48.70806" lon="1.98621">
        <ele>117.42</ele>
        <time>2019-11-30T10:43:05Z</time>
      </trkpt>
      <trkpt lat="48.70805" lon="1.98623">
        <ele>117.9</ele>
        <time>2019-11-30T10:43:06Z</time>
      </trkpt>
      <trkpt lat="48.70803" lon="1.98625">
        <ele>117.9</ele>
        <time>2019-11-30T10:43:08Z</time>
      </trkpt>
      <trkpt lat="48.70802" lon="1.98627">
        <ele>116.94</ele>
        <time>2019-11-30T10:43:09Z</time>
      </trkpt>
      <trkpt lat="48.70802" lon="1.98633">
        <ele>117.42</ele>
        <time>2019-11-30T10:43:24Z</time>
      </trkpt>
      <trkpt lat="48.70794" lon="1.98638">
        <ele>116.94</ele>
        <time>2019-11-30T10:43:34Z</time>
      </trkpt>
      <trkpt lat="48.70788" lon="1.98645">
        <ele>116.94</ele>
        <time>2019-11-30T10:43:40Z</time>
      </trkpt>
      <trkpt lat="48.70787" lon="1.98647">
        <ele>116.94</ele>
        <time>2019-11-30T10:43:41Z</time>
      </trkpt>
      <trkpt lat="48.70782" lon="1.98646">
        <ele>117.42</ele>
        <time>2019-11-30T10:43:48Z</time>
      </trkpt>
      <trkpt lat="48.7077" lon="1.98627">
        <ele>118.86</ele>
        <time>2019-11-30T10:44:04Z</time>
      </trkpt>
      <trkpt lat="48.70767" lon="1.98626">
        <ele>119.34</ele>
        <time>2019-11-30T10:44:07Z</time>
      </trkpt>
      <trkpt lat="48.70767" lon="1.98625">
        <ele>119.34</ele>
        <time>2019-11-30T10:44:08Z</time>
      </trkpt>
      <trkpt lat="48.70764" lon="1.98622">
        <ele>119.34</ele>
        <time>2019-11-30T10:44:12Z</time>
      </trkpt>
      <trkpt lat="48.70763" lon="1.98621">
        <ele>119.34</ele>
        <time>2019-11-30T10:44:13Z</time>
      </trkpt>
      <trkpt lat="48.70752" lon="1.986">
        <ele>120.78</ele>
        <time>2019-11-30T10:44:26Z</time>
      </trkpt>
      <trkpt lat="48.7075" lon="1.98596">
        <ele>121.74</ele>
        <time>2019-11-30T10:44:29Z</time>
      </trkpt>
      <trkpt lat="48.70737" lon="1.98574">
        <ele>123.19</ele>
        <time>2019-11-30T10:44:48Z</time>
      </trkpt>
      <trkpt lat="48.70731" lon="1.98558">
        <ele>124.63</ele>
        <time>2019-11-30T10:45:02Z</time>
      </trkpt>
      <trkpt lat="48.70729" lon="1.98557">
        <ele>125.59</ele>
        <time>2019-11-30T10:45:05Z</time>
      </trkpt>
      <trkpt lat="48.70728" lon="1.98556">
        <ele>125.59</ele>
        <time>2019-11-30T10:45:06Z</time>
      </trkpt>
      <trkpt lat="48.70721" lon="1.98545">
        <ele>126.55</ele>
        <time>2019-11-30T10:45:17Z</time>
      </trkpt>
      <trkpt lat="48.70721" lon="1.98543">
        <ele>127.03</ele>
        <time>2019-11-30T10:45:18Z</time>
      </trkpt>
      <trkpt lat="48.70717" lon="1.98538">
        <ele>127.99</ele>
        <time>2019-11-30T10:45:23Z</time>
      </trkpt>
      <trkpt lat="48.70706" lon="1.98524">
        <ele>129.92</ele>
        <time>2019-11-30T10:45:37Z</time>
      </trkpt>
      <trkpt lat="48.70696" lon="1.9851">
        <ele>132.32</ele>
        <time>2019-11-30T10:45:50Z</time>
      </trkpt>
      <trkpt lat="48.70694" lon="1.98512">
        <ele>132.32</ele>
        <time>2019-11-30T10:45:53Z</time>
      </trkpt>
      <trkpt lat="48.70691" lon="1.98521">
        <ele>132.32</ele>
        <time>2019-11-30T10:45:58Z</time>
      </trkpt>
      <trkpt lat="48.70687" lon="1.98531">
        <ele>131.36</ele>
        <time>2019-11-30T10:46:06Z</time>
      </trkpt>
      <trkpt lat="48.7068" lon="1.98539">
        <ele>131.36</ele>
        <time>2019-11-30T10:46:13Z</time>
      </trkpt>
      <trkpt lat="48.70679" lon="1.98542">
        <ele>131.84</ele>
        <time>2019-11-30T10:46:16Z</time>
      </trkpt>
      <trkpt lat="48.70675" lon="1.98548">
        <ele>130.88</ele>
        <time>2019-11-30T10:46:26Z</time>
      </trkpt>
      <trkpt lat="48.70675" lon="1.98549">
        <ele>130.88</ele>
        <time>2019-11-30T10:46:29Z</time>
      </trkpt>
      <trkpt lat="48.70668" lon="1.98554">
        <ele>129.92</ele>
        <time>2019-11-30T10:46:39Z</time>
      </trkpt>
      <trkpt lat="48.70656" lon="1.98565">
        <ele>128.47</ele>
        <time>2019-11-30T10:46:52Z</time>
      </trkpt>
      <trkpt lat="48.70654" lon="1.98572">
        <ele>127.51</ele>
        <time>2019-11-30T10:47:03Z</time>
      </trkpt>
      <trkpt lat="48.70654" lon="1.98578">
        <ele>127.51</ele>
        <time>2019-11-30T10:47:15Z</time>
      </trkpt>
      <trkpt lat="48.70653" lon="1.98584">
        <ele>127.51</ele>
        <time>2019-11-30T10:47:24Z</time>
      </trkpt>
      <trkpt lat="48.70653" lon="1.98583">
        <ele>127.03</ele>
        <time>2019-11-30T10:47:32Z</time>
      </trkpt>
      <trkpt lat="48.70646" lon="1.98588">
        <ele>126.55</ele>
        <time>2019-11-30T10:47:55Z</time>
      </trkpt>
      <trkpt lat="48.70648" lon="1.98576">
        <ele>127.03</ele>
        <time>2019-11-30T10:48:26Z</time>
      </trkpt>
      <trkpt lat="48.70647" lon="1.98575">
        <ele>126.55</ele>
        <time>2019-11-30T10:49:01Z</time>
      </trkpt>
      <trkpt lat="48.70645" lon="1.98578">
        <ele>126.55</ele>
        <time>2019-11-30T10:49:35Z</time>
      </trkpt>
      <trkpt lat="48.70643" lon="1.98589">
        <ele>126.55</ele>
        <time>2019-11-30T10:50:01Z</time>
      </trkpt>
      <trkpt lat="48.70646" lon="1.98579">
        <ele>126.07</ele>
        <time>2019-11-30T10:50:31Z</time>
      </trkpt>
      <trkpt lat="48.70646" lon="1.98577">
        <ele>126.07</ele>
        <time>2019-11-30T10:50:47Z</time>
      </trkpt>
      <trkpt lat="48.70647" lon="1.98578">
        <ele>126.07</ele>
        <time>2019-11-30T10:51:02Z</time>
      </trkpt>
      <trkpt lat="48.70646" lon="1.98579">
        <ele>126.07</ele>
        <time>2019-11-30T10:51:18Z</time>
      </trkpt>
      <trkpt lat="48.70642" lon="1.98578">
        <ele>124.63</ele>
        <time>2019-11-30T10:51:25Z</time>
      </trkpt>
      <trkpt lat="48.70633" lon="1.98577">
        <ele>123.67</ele>
        <time>2019-11-30T10:51:37Z</time>
      </trkpt>
      <trkpt lat="48.70619" lon="1.98579">
        <ele>121.26</ele>
        <time>2019-11-30T10:51:52Z</time>
      </trkpt>
      <trkpt lat="48.70608" lon="1.98584">
        <ele>118.86</ele>
        <time>2019-11-30T10:52:03Z</time>
      </trkpt>
      <trkpt lat="48.70601" lon="1.9859">
        <ele>115.98</ele>
        <time>2019-11-30T10:52:15Z</time>
      </trkpt>
      <trkpt lat="48.70597" lon="1.98594">
        <ele>113.57</ele>
        <time>2019-11-30T10:52:23Z</time>
      </trkpt>
      <trkpt lat="48.70588" lon="1.98607">
        <ele>110.69</ele>
        <time>2019-11-30T10:52:37Z</time>
      </trkpt>
      <trkpt lat="48.70579" lon="1.98615">
        <ele>107.81</ele>
        <time>2019-11-30T10:52:49Z</time>
      </trkpt>
      <trkpt lat="48.70564" lon="1.98622">
        <ele>105.4</ele>
        <time>2019-11-30T10:53:00Z</time>
      </trkpt>
      <trkpt lat="48.70561" lon="1.98625">
        <ele>104.44</ele>
        <time>2019-11-30T10:53:08Z</time>
      </trkpt>
      <trkpt lat="48.7056" lon="1.98626">
        <ele>103.96</ele>
        <time>2019-11-30T10:53:09Z</time>
      </trkpt>
      <trkpt lat="48.7056" lon="1.98628">
        <ele>104.44</ele>
        <time>2019-11-30T10:53:10Z</time>
      </trkpt>
      <trkpt lat="48.70559" lon="1.98631">
        <ele>103.96</ele>
        <time>2019-11-30T10:53:11Z</time>
      </trkpt>
      <trkpt lat="48.70558" lon="1.9864">
        <ele>103.96</ele>
        <time>2019-11-30T10:53:17Z</time>
      </trkpt>
      <trkpt lat="48.70559" lon="1.98641">
        <ele>103.96</ele>
        <time>2019-11-30T10:53:18Z</time>
      </trkpt>
      <trkpt lat="48.70563" lon="1.98646">
        <ele>103.48</ele>
        <time>2019-11-30T10:53:29Z</time>
      </trkpt>
      <trkpt lat="48.70562" lon="1.98646">
        <ele>103.48</ele>
        <time>2019-11-30T10:53:31Z</time>
      </trkpt>
      <trkpt lat="48.70561" lon="1.98646">
        <ele>103.96</ele>
        <time>2019-11-30T10:53:32Z</time>
      </trkpt>
      <trkpt lat="48.7056" lon="1.98646">
        <ele>103.96</ele>
        <time>2019-11-30T10:53:33Z</time>
      </trkpt>
      <trkpt lat="48.70558" lon="1.98653">
        <ele>103</ele>
        <time>2019-11-30T10:53:44Z</time>
      </trkpt>
      <trkpt lat="48.70559" lon="1.98654">
        <ele>103</ele>
        <time>2019-11-30T10:53:45Z</time>
      </trkpt>
      <trkpt lat="48.7056" lon="1.98659">
        <ele>103</ele>
        <time>2019-11-30T10:53:50Z</time>
      </trkpt>
      <trkpt lat="48.7056" lon="1.9866">
        <ele>103</ele>
        <time>2019-11-30T10:54:02Z</time>
      </trkpt>
      <trkpt lat="48.70562" lon="1.98666">
        <ele>102.52</ele>
        <time>2019-11-30T10:54:21Z</time>
      </trkpt>
      <trkpt lat="48.70563" lon="1.98669">
        <ele>102.04</ele>
        <time>2019-11-30T10:54:33Z</time>
      </trkpt>
      <trkpt lat="48.70564" lon="1.9867">
        <ele>102.52</ele>
        <time>2019-11-30T10:54:48Z</time>
      </trkpt>
      <trkpt lat="48.70566" lon="1.98666">
        <ele>102.52</ele>
        <time>2019-11-30T10:54:59Z</time>
      </trkpt>
      <trkpt lat="48.70566" lon="1.98663">
        <ele>103</ele>
        <time>2019-11-30T10:55:01Z</time>
      </trkpt>
      <trkpt lat="48.70564" lon="1.98657">
        <ele>103.48</ele>
        <time>2019-11-30T10:55:06Z</time>
      </trkpt>
      <trkpt lat="48.70558" lon="1.98642">
        <ele>103.96</ele>
        <time>2019-11-30T10:55:19Z</time>
      </trkpt>
      <trkpt lat="48.70554" lon="1.98639">
        <ele>103.96</ele>
        <time>2019-11-30T10:55:24Z</time>
      </trkpt>
      <trkpt lat="48.70548" lon="1.98634">
        <ele>105.88</ele>
        <time>2019-11-30T10:55:36Z</time>
      </trkpt>
      <trkpt lat="48.70544" lon="1.98627">
        <ele>105.4</ele>
        <time>2019-11-30T10:55:43Z</time>
      </trkpt>
      <trkpt lat="48.70542" lon="1.98622">
        <ele>104.92</ele>
        <time>2019-11-30T10:55:48Z</time>
      </trkpt>
      <trkpt lat="48.70541" lon="1.9862">
        <ele>104.92</ele>
        <time>2019-11-30T10:55:51Z</time>
      </trkpt>
      <trkpt lat="48.7054" lon="1.9862">
        <ele>104.92</ele>
        <time>2019-11-30T10:55:52Z</time>
      </trkpt>
      <trkpt lat="48.70538" lon="1.98619">
        <ele>104.92</ele>
        <time>2019-11-30T10:55:53Z</time>
      </trkpt>
      <trkpt lat="48.70534" lon="1.98611">
        <ele>105.88</ele>
        <time>2019-11-30T10:56:06Z</time>
      </trkpt>
      <trkpt lat="48.70535" lon="1.98613">
        <ele>106.36</ele>
        <time>2019-11-30T10:56:24Z</time>
      </trkpt>
      <trkpt lat="48.70532" lon="1.98615">
        <ele>106.36</ele>
        <time>2019-11-30T10:56:41Z</time>
      </trkpt>
      <trkpt lat="48.70529" lon="1.98615">
        <ele>105.88</ele>
        <time>2019-11-30T10:56:50Z</time>
      </trkpt>
      <trkpt lat="48.70525" lon="1.9861">
        <ele>105.88</ele>
        <time>2019-11-30T10:57:00Z</time>
      </trkpt>
      <trkpt lat="48.70524" lon="1.98615">
        <ele>105.88</ele>
        <time>2019-11-30T10:57:09Z</time>
      </trkpt>
      <trkpt lat="48.70523" lon="1.98616">
        <ele>105.88</ele>
        <time>2019-11-30T10:57:10Z</time>
      </trkpt>
      <trkpt lat="48.70521" lon="1.98615">
        <ele>106.36</ele>
        <time>2019-11-30T10:57:11Z</time>
      </trkpt>
      <trkpt lat="48.70519" lon="1.98617">
        <ele>105.4</ele>
        <time>2019-11-30T10:57:24Z</time>
      </trkpt>
      <trkpt lat="48.70514" lon="1.98618">
        <ele>105.4</ele>
        <time>2019-11-30T10:57:51Z</time>
      </trkpt>
      <trkpt lat="48.70507" lon="1.98605">
        <ele>105.4</ele>
        <time>2019-11-30T10:58:05Z</time>
      </trkpt>
      <trkpt lat="48.70501" lon="1.98595">
        <ele>105.88</ele>
        <time>2019-11-30T10:58:13Z</time>
      </trkpt>
      <trkpt lat="48.70498" lon="1.98595">
        <ele>105.88</ele>
        <time>2019-11-30T10:58:16Z</time>
      </trkpt>
      <trkpt lat="48.70496" lon="1.98595">
        <ele>105.88</ele>
        <time>2019-11-30T10:58:17Z</time>
      </trkpt>
      <trkpt lat="48.70481" lon="1.98583">
        <ele>106.84</ele>
        <time>2019-11-30T10:58:32Z</time>
      </trkpt>
      <trkpt lat="48.7048" lon="1.98571">
        <ele>107.32</ele>
        <time>2019-11-30T10:58:50Z</time>
      </trkpt>
      <trkpt lat="48.70478" lon="1.98576">
        <ele>107.81</ele>
        <time>2019-11-30T10:59:10Z</time>
      </trkpt>
      <trkpt lat="48.70474" lon="1.98572">
        <ele>107.81</ele>
        <time>2019-11-30T10:59:37Z</time>
      </trkpt>
      <trkpt lat="48.70475" lon="1.98575">
        <ele>106.36</ele>
        <time>2019-11-30T10:59:42Z</time>
      </trkpt>
      <trkpt lat="48.70499" lon="1.98554">
        <ele>113.57</ele>
        <time>2019-11-30T12:35:17Z</time>
      </trkpt>
      <trkpt lat="48.705" lon="1.98555">
        <ele>113.09</ele>
        <time>2019-11-30T12:35:18Z</time>
      </trkpt>
      <trkpt lat="48.7048" lon="1.9857">
        <ele>111.17</ele>
        <time>2019-11-30T12:35:36Z</time>
      </trkpt>
      <trkpt lat="48.70477" lon="1.98573">
        <ele>107.81</ele>
        <time>2019-11-30T12:35:47Z</time>
      </trkpt>
      <trkpt lat="48.70482" lon="1.98573">
        <ele>106.84</ele>
        <time>2019-11-30T12:36:00Z</time>
      </trkpt>
      <trkpt lat="48.70483" lon="1.98574">
        <ele>105.4</ele>
        <time>2019-11-30T12:36:15Z</time>
      </trkpt>
      <trkpt lat="48.7048" lon="1.98576">
        <ele>104.92</ele>
        <time>2019-11-30T12:36:33Z</time>
      </trkpt>
      <trkpt lat="48.70476" lon="1.98574">
        <ele>104.92</ele>
        <time>2019-11-30T12:36:49Z</time>
      </trkpt>
      <trkpt lat="48.70475" lon="1.98578">
        <ele>104.44</ele>
        <time>2019-11-30T12:37:07Z</time>
      </trkpt>
      <trkpt lat="48.70479" lon="1.98576">
        <ele>104.44</ele>
        <time>2019-11-30T12:37:18Z</time>
      </trkpt>
      <trkpt lat="48.70483" lon="1.98584">
        <ele>104.92</ele>
        <time>2019-11-30T12:37:26Z</time>
      </trkpt>
      <trkpt lat="48.70491" lon="1.98597">
        <ele>104.44</ele>
        <time>2019-11-30T12:37:40Z</time>
      </trkpt>
      <trkpt lat="48.70497" lon="1.98592">
        <ele>104.92</ele>
        <time>2019-11-30T12:37:51Z</time>
      </trkpt>
      <trkpt lat="48.70508" lon="1.98577">
        <ele>105.4</ele>
        <time>2019-11-30T12:38:05Z</time>
      </trkpt>
      <trkpt lat="48.70511" lon="1.98574">
        <ele>105.88</ele>
        <time>2019-11-30T12:38:07Z</time>
      </trkpt>
      <trkpt lat="48.70519" lon="1.98562">
        <ele>106.84</ele>
        <time>2019-11-30T12:38:14Z</time>
      </trkpt>
      <trkpt lat="48.70528" lon="1.9855">
        <ele>109.25</ele>
        <time>2019-11-30T12:38:27Z</time>
      </trkpt>
      <trkpt lat="48.70536" lon="1.98536">
        <ele>110.69</ele>
        <time>2019-11-30T12:38:39Z</time>
      </trkpt>
      <trkpt lat="48.70544" lon="1.98522">
        <ele>112.61</ele>
        <time>2019-11-30T12:38:52Z</time>
      </trkpt>
      <trkpt lat="48.70547" lon="1.98517">
        <ele>113.57</ele>
        <time>2019-11-30T12:38:57Z</time>
      </trkpt>
      <trkpt lat="48.70552" lon="1.9851">
        <ele>114.05</ele>
        <time>2019-11-30T12:39:04Z</time>
      </trkpt>
      <trkpt lat="48.70556" lon="1.98501">
        <ele>115.5</ele>
        <time>2019-11-30T12:39:11Z</time>
      </trkpt>
      <trkpt lat="48.7056" lon="1.98493">
        <ele>116.46</ele>
        <time>2019-11-30T12:39:18Z</time>
      </trkpt>
      <trkpt lat="48.70564" lon="1.98476">
        <ele>118.86</ele>
        <time>2019-11-30T12:39:32Z</time>
      </trkpt>
      <trkpt lat="48.7057" lon="1.98461">
        <ele>120.78</ele>
        <time>2019-11-30T12:39:44Z</time>
      </trkpt>
      <trkpt lat="48.70572" lon="1.98459">
        <ele>121.26</ele>
        <time>2019-11-30T12:39:48Z</time>
      </trkpt>
      <trkpt lat="48.7058" lon="1.98448">
        <ele>122.71</ele>
        <time>2019-11-30T12:40:03Z</time>
      </trkpt>
      <trkpt lat="48.70586" lon="1.98436">
        <ele>126.07</ele>
        <time>2019-11-30T12:40:16Z</time>
      </trkpt>
      <trkpt lat="48.70585" lon="1.98423">
        <ele>128.95</ele>
        <time>2019-11-30T12:40:29Z</time>
      </trkpt>
      <trkpt lat="48.70594" lon="1.98413">
        <ele>131.84</ele>
        <time>2019-11-30T12:40:42Z</time>
      </trkpt>
      <trkpt lat="48.70597" lon="1.98403">
        <ele>133.76</ele>
        <time>2019-11-30T12:40:55Z</time>
      </trkpt>
      <trkpt lat="48.70603" lon="1.98395">
        <ele>136.64</ele>
        <time>2019-11-30T12:41:07Z</time>
      </trkpt>
      <trkpt lat="48.70606" lon="1.98388">
        <ele>138.57</ele>
        <time>2019-11-30T12:41:11Z</time>
      </trkpt>
      <trkpt lat="48.70608" lon="1.98375">
        <ele>140.49</ele>
        <time>2019-11-30T12:41:24Z</time>
      </trkpt>
      <trkpt lat="48.7061" lon="1.98359">
        <ele>143.85</ele>
        <time>2019-11-30T12:41:38Z</time>
      </trkpt>
      <trkpt lat="48.70613" lon="1.98342">
        <ele>145.78</ele>
        <time>2019-11-30T12:41:49Z</time>
      </trkpt>
      <trkpt lat="48.70613" lon="1.98331">
        <ele>148.18</ele>
        <time>2019-11-30T12:42:00Z</time>
      </trkpt>
      <trkpt lat="48.70614" lon="1.98322">
        <ele>149.14</ele>
        <time>2019-11-30T12:42:13Z</time>
      </trkpt>
      <trkpt lat="48.7061" lon="1.98311">
        <ele>150.1</ele>
        <time>2019-11-30T12:42:24Z</time>
      </trkpt>
      <trkpt lat="48.70607" lon="1.98306">
        <ele>150.58</ele>
        <time>2019-11-30T12:42:38Z</time>
      </trkpt>
      <trkpt lat="48.70606" lon="1.98301">
        <ele>151.06</ele>
        <time>2019-11-30T12:42:58Z</time>
      </trkpt>
      <trkpt lat="48.70608" lon="1.98277">
        <ele>152.51</ele>
        <time>2019-11-30T12:43:10Z</time>
      </trkpt>
      <trkpt lat="48.70605" lon="1.98262">
        <ele>152.51</ele>
        <time>2019-11-30T12:43:19Z</time>
      </trkpt>
      <trkpt lat="48.70608" lon="1.98253">
        <ele>153.47</ele>
        <time>2019-11-30T12:43:24Z</time>
      </trkpt>
      <trkpt lat="48.70609" lon="1.98238">
        <ele>154.43</ele>
        <time>2019-11-30T12:43:38Z</time>
      </trkpt>
      <trkpt lat="48.70607" lon="1.98229">
        <ele>154.91</ele>
        <time>2019-11-30T12:43:51Z</time>
      </trkpt>
      <trkpt lat="48.70604" lon="1.98226">
        <ele>155.39</ele>
        <time>2019-11-30T12:44:05Z</time>
      </trkpt>
      <trkpt lat="48.70603" lon="1.98204">
        <ele>156.83</ele>
        <time>2019-11-30T12:44:18Z</time>
      </trkpt>
      <trkpt lat="48.70603" lon="1.98202">
        <ele>156.83</ele>
        <time>2019-11-30T12:44:19Z</time>
      </trkpt>
      <trkpt lat="48.706" lon="1.98175">
        <ele>158.75</ele>
        <time>2019-11-30T12:44:34Z</time>
      </trkpt>
      <trkpt lat="48.70599" lon="1.98171">
        <ele>159.24</ele>
        <time>2019-11-30T12:44:36Z</time>
      </trkpt>
      <trkpt lat="48.70602" lon="1.98147">
        <ele>160.2</ele>
        <time>2019-11-30T12:44:50Z</time>
      </trkpt>
      <trkpt lat="48.70609" lon="1.98141">
        <ele>160.68</ele>
        <time>2019-11-30T12:44:58Z</time>
      </trkpt>
      <trkpt lat="48.70612" lon="1.98139">
        <ele>161.16</ele>
        <time>2019-11-30T12:45:00Z</time>
      </trkpt>
      <trkpt lat="48.70617" lon="1.98124">
        <ele>162.12</ele>
        <time>2019-11-30T12:45:11Z</time>
      </trkpt>
      <trkpt lat="48.70615" lon="1.98119">
        <ele>162.6</ele>
        <time>2019-11-30T12:45:14Z</time>
      </trkpt>
      <trkpt lat="48.70618" lon="1.9809">
        <ele>161.64</ele>
        <time>2019-11-30T12:45:29Z</time>
      </trkpt>
      <trkpt lat="48.70619" lon="1.98084">
        <ele>162.12</ele>
        <time>2019-11-30T12:45:33Z</time>
      </trkpt>
      <trkpt lat="48.70615" lon="1.98072">
        <ele>162.12</ele>
        <time>2019-11-30T12:45:39Z</time>
      </trkpt>
      <trkpt lat="48.70615" lon="1.98048">
        <ele>161.64</ele>
        <time>2019-11-30T12:45:51Z</time>
      </trkpt>
      <trkpt lat="48.70617" lon="1.9802">
        <ele>162.6</ele>
        <time>2019-11-30T12:46:05Z</time>
      </trkpt>
      <trkpt lat="48.70618" lon="1.98012">
        <ele>161.64</ele>
        <time>2019-11-30T12:46:10Z</time>
      </trkpt>
      <trkpt lat="48.7062" lon="1.98003">
        <ele>162.12</ele>
        <time>2019-11-30T12:46:14Z</time>
      </trkpt>
      <trkpt lat="48.7062" lon="1.97984">
        <ele>162.12</ele>
        <time>2019-11-30T12:46:25Z</time>
      </trkpt>
      <trkpt lat="48.70602" lon="1.9797">
        <ele>161.16</ele>
        <time>2019-11-30T12:46:37Z</time>
      </trkpt>
      <trkpt lat="48.70587" lon="1.97947">
        <ele>161.16</ele>
        <time>2019-11-30T12:46:53Z</time>
      </trkpt>
      <trkpt lat="48.70581" lon="1.97932">
        <ele>160.68</ele>
        <time>2019-11-30T12:47:04Z</time>
      </trkpt>
      <trkpt lat="48.70566" lon="1.97913">
        <ele>160.68</ele>
        <time>2019-11-30T12:47:17Z</time>
      </trkpt>
      <trkpt lat="48.70558" lon="1.97909">
        <ele>160.2</ele>
        <time>2019-11-30T12:47:23Z</time>
      </trkpt>
      <trkpt lat="48.70552" lon="1.97907">
        <ele>160.2</ele>
        <time>2019-11-30T12:47:27Z</time>
      </trkpt>
      <trkpt lat="48.70546" lon="1.97904">
        <ele>159.72</ele>
        <time>2019-11-30T12:47:33Z</time>
      </trkpt>
      <trkpt lat="48.70543" lon="1.97902">
        <ele>159.72</ele>
        <time>2019-11-30T12:47:36Z</time>
      </trkpt>
      <trkpt lat="48.70536" lon="1.97899">
        <ele>159.72</ele>
        <time>2019-11-30T12:47:42Z</time>
      </trkpt>
      <trkpt lat="48.70526" lon="1.97888">
        <ele>159.72</ele>
        <time>2019-11-30T12:47:50Z</time>
      </trkpt>
      <trkpt lat="48.7051" lon="1.97879">
        <ele>159.72</ele>
        <time>2019-11-30T12:48:03Z</time>
      </trkpt>
      <trkpt lat="48.70502" lon="1.97871">
        <ele>160.68</ele>
        <time>2019-11-30T12:48:14Z</time>
      </trkpt>
      <trkpt lat="48.70494" lon="1.97859">
        <ele>161.16</ele>
        <time>2019-11-30T12:48:25Z</time>
      </trkpt>
      <trkpt lat="48.7048" lon="1.9784">
        <ele>162.12</ele>
        <time>2019-11-30T12:48:40Z</time>
      </trkpt>
      <trkpt lat="48.7047" lon="1.97824">
        <ele>163.56</ele>
        <time>2019-11-30T12:48:54Z</time>
      </trkpt>
      <trkpt lat="48.70464" lon="1.97811">
        <ele>163.56</ele>
        <time>2019-11-30T12:49:04Z</time>
      </trkpt>
      <trkpt lat="48.70445" lon="1.97794">
        <ele>164.52</ele>
        <time>2019-11-30T12:49:20Z</time>
      </trkpt>
      <trkpt lat="48.7043" lon="1.97784">
        <ele>165</ele>
        <time>2019-11-30T12:49:35Z</time>
      </trkpt>
      <trkpt lat="48.70428" lon="1.97783">
        <ele>165</ele>
        <time>2019-11-30T12:49:36Z</time>
      </trkpt>
      <trkpt lat="48.70409" lon="1.97775">
        <ele>165.48</ele>
        <time>2019-11-30T12:49:49Z</time>
      </trkpt>
      <trkpt lat="48.70408" lon="1.97775">
        <ele>165.48</ele>
        <time>2019-11-30T12:49:51Z</time>
      </trkpt>
      <trkpt lat="48.70391" lon="1.97765">
        <ele>165</ele>
        <time>2019-11-30T12:50:07Z</time>
      </trkpt>
      <trkpt lat="48.70383" lon="1.97754">
        <ele>165.96</ele>
        <time>2019-11-30T12:50:16Z</time>
      </trkpt>
      <trkpt lat="48.70369" lon="1.97741">
        <ele>166.45</ele>
        <time>2019-11-30T12:50:28Z</time>
      </trkpt>
      <trkpt lat="48.70365" lon="1.97738">
        <ele>165.96</ele>
        <time>2019-11-30T12:50:32Z</time>
      </trkpt>
      <trkpt lat="48.70358" lon="1.9773">
        <ele>165.96</ele>
        <time>2019-11-30T12:50:38Z</time>
      </trkpt>
      <trkpt lat="48.70347" lon="1.97719">
        <ele>165.48</ele>
        <time>2019-11-30T12:50:49Z</time>
      </trkpt>
      <trkpt lat="48.70333" lon="1.97704">
        <ele>165</ele>
        <time>2019-11-30T12:51:02Z</time>
      </trkpt>
      <trkpt lat="48.70332" lon="1.977">
        <ele>165</ele>
        <time>2019-11-30T12:51:05Z</time>
      </trkpt>
      <trkpt lat="48.70328" lon="1.97687">
        <ele>165.96</ele>
        <time>2019-11-30T12:51:12Z</time>
      </trkpt>
      <trkpt lat="48.70329" lon="1.97679">
        <ele>165.96</ele>
        <time>2019-11-30T12:51:19Z</time>
      </trkpt>
      <trkpt lat="48.70331" lon="1.97673">
        <ele>166.45</ele>
        <time>2019-11-30T12:51:22Z</time>
      </trkpt>
      <trkpt lat="48.70336" lon="1.9765">
        <ele>166.93</ele>
        <time>2019-11-30T12:51:36Z</time>
      </trkpt>
      <trkpt lat="48.70337" lon="1.97624">
        <ele>167.41</ele>
        <time>2019-11-30T12:51:50Z</time>
      </trkpt>
      <trkpt lat="48.70337" lon="1.97619">
        <ele>167.41</ele>
        <time>2019-11-30T12:51:53Z</time>
      </trkpt>
      <trkpt lat="48.70342" lon="1.97595">
        <ele>168.37</ele>
        <time>2019-11-30T12:52:05Z</time>
      </trkpt>
      <trkpt lat="48.70343" lon="1.97573">
        <ele>167.89</ele>
        <time>2019-11-30T12:52:17Z</time>
      </trkpt>
      <trkpt lat="48.70339" lon="1.97561">
        <ele>164.52</ele>
        <time>2019-11-30T12:52:29Z</time>
      </trkpt>
      <trkpt lat="48.70337" lon="1.9755">
        <ele>162.12</ele>
        <time>2019-11-30T12:52:36Z</time>
      </trkpt>
      <trkpt lat="48.70336" lon="1.97548">
        <ele>161.16</ele>
        <time>2019-11-30T12:52:39Z</time>
      </trkpt>
      <trkpt lat="48.70329" lon="1.97532">
        <ele>157.31</ele>
        <time>2019-11-30T12:52:51Z</time>
      </trkpt>
      <trkpt lat="48.70328" lon="1.97518">
        <ele>153.95</ele>
        <time>2019-11-30T12:53:01Z</time>
      </trkpt>
      <trkpt lat="48.70322" lon="1.97504">
        <ele>150.58</ele>
        <time>2019-11-30T12:53:11Z</time>
      </trkpt>
      <trkpt lat="48.70321" lon="1.97496">
        <ele>149.62</ele>
        <time>2019-11-30T12:53:23Z</time>
      </trkpt>
      <trkpt lat="48.7032" lon="1.97499">
        <ele>149.62</ele>
        <time>2019-11-30T12:53:44Z</time>
      </trkpt>
      <trkpt lat="48.70316" lon="1.97516">
        <ele>148.18</ele>
        <time>2019-11-30T12:53:56Z</time>
      </trkpt>
      <trkpt lat="48.70312" lon="1.97527">
        <ele>146.74</ele>
        <time>2019-11-30T12:54:06Z</time>
      </trkpt>
      <trkpt lat="48.70309" lon="1.97535">
        <ele>146.26</ele>
        <time>2019-11-30T12:54:15Z</time>
      </trkpt>
      <trkpt lat="48.70305" lon="1.97544">
        <ele>146.74</ele>
        <time>2019-11-30T12:54:19Z</time>
      </trkpt>
      <trkpt lat="48.70299" lon="1.97553">
        <ele>145.3</ele>
        <time>2019-11-30T12:54:25Z</time>
      </trkpt>
      <trkpt lat="48.70295" lon="1.97568">
        <ele>143.85</ele>
        <time>2019-11-30T12:54:36Z</time>
      </trkpt>
      <trkpt lat="48.70287" lon="1.97588">
        <ele>141.93</ele>
        <time>2019-11-30T12:54:48Z</time>
      </trkpt>
      <trkpt lat="48.70279" lon="1.97603">
        <ele>139.53</ele>
        <time>2019-11-30T12:55:00Z</time>
      </trkpt>
      <trkpt lat="48.70275" lon="1.97613">
        <ele>138.09</ele>
        <time>2019-11-30T12:55:07Z</time>
      </trkpt>
      <trkpt lat="48.70264" lon="1.97634">
        <ele>135.2</ele>
        <time>2019-11-30T12:55:19Z</time>
      </trkpt>
      <trkpt lat="48.70258" lon="1.97657">
        <ele>133.28</ele>
        <time>2019-11-30T12:55:33Z</time>
      </trkpt>
      <trkpt lat="48.70254" lon="1.97668">
        <ele>131.84</ele>
        <time>2019-11-30T12:55:39Z</time>
      </trkpt>
      <trkpt lat="48.70251" lon="1.97683">
        <ele>129.92</ele>
        <time>2019-11-30T12:55:47Z</time>
      </trkpt>
      <trkpt lat="48.70236" lon="1.97686">
        <ele>128.47</ele>
        <time>2019-11-30T12:55:54Z</time>
      </trkpt>
      <trkpt lat="48.70227" lon="1.97682">
        <ele>127.99</ele>
        <time>2019-11-30T12:56:03Z</time>
      </trkpt>
      <trkpt lat="48.70224" lon="1.97684">
        <ele>126.55</ele>
        <time>2019-11-30T12:56:11Z</time>
      </trkpt>
      <trkpt lat="48.70214" lon="1.97687">
        <ele>124.15</ele>
        <time>2019-11-30T12:56:18Z</time>
      </trkpt>
      <trkpt lat="48.70203" lon="1.9769">
        <ele>121.74</ele>
        <time>2019-11-30T12:56:29Z</time>
      </trkpt>
      <trkpt lat="48.702" lon="1.97689">
        <ele>120.78</ele>
        <time>2019-11-30T12:56:34Z</time>
      </trkpt>
      <trkpt lat="48.70194" lon="1.97686">
        <ele>117.9</ele>
        <time>2019-11-30T12:56:42Z</time>
      </trkpt>
      <trkpt lat="48.70192" lon="1.97684">
        <ele>117.42</ele>
        <time>2019-11-30T12:56:45Z</time>
      </trkpt>
      <trkpt lat="48.70191" lon="1.9768">
        <ele>115.98</ele>
        <time>2019-11-30T12:56:51Z</time>
      </trkpt>
      <trkpt lat="48.70184" lon="1.97676">
        <ele>113.09</ele>
        <time>2019-11-30T12:57:02Z</time>
      </trkpt>
      <trkpt lat="48.7018" lon="1.97679">
        <ele>113.09</ele>
        <time>2019-11-30T12:57:05Z</time>
      </trkpt>
      <trkpt lat="48.70176" lon="1.97686">
        <ele>112.13</ele>
        <time>2019-11-30T12:57:09Z</time>
      </trkpt>
      <trkpt lat="48.7016" lon="1.97685">
        <ele>110.21</ele>
        <time>2019-11-30T12:57:20Z</time>
      </trkpt>
      <trkpt lat="48.70159" lon="1.97696">
        <ele>109.73</ele>
        <time>2019-11-30T12:57:32Z</time>
      </trkpt>
      <trkpt lat="48.70157" lon="1.97701">
        <ele>109.73</ele>
        <time>2019-11-30T12:57:37Z</time>
      </trkpt>
      <trkpt lat="48.70149" lon="1.97718">
        <ele>109.73</ele>
        <time>2019-11-30T12:57:53Z</time>
      </trkpt>
      <trkpt lat="48.70153" lon="1.97717">
        <ele>109.25</ele>
        <time>2019-11-30T12:58:05Z</time>
      </trkpt>
      <trkpt lat="48.70145" lon="1.97711">
        <ele>109.25</ele>
        <time>2019-11-30T12:58:18Z</time>
      </trkpt>
      <trkpt lat="48.70143" lon="1.97706">
        <ele>108.77</ele>
        <time>2019-11-30T12:58:26Z</time>
      </trkpt>
      <trkpt lat="48.70133" lon="1.97693">
        <ele>107.81</ele>
        <time>2019-11-30T12:58:38Z</time>
      </trkpt>
      <trkpt lat="48.70123" lon="1.9768">
        <ele>107.32</ele>
        <time>2019-11-30T12:58:51Z</time>
      </trkpt>
      <trkpt lat="48.70119" lon="1.97673">
        <ele>107.32</ele>
        <time>2019-11-30T12:58:56Z</time>
      </trkpt>
      <trkpt lat="48.70109" lon="1.97652">
        <ele>107.32</ele>
        <time>2019-11-30T12:59:10Z</time>
      </trkpt>
      <trkpt lat="48.701" lon="1.97638">
        <ele>107.81</ele>
        <time>2019-11-30T12:59:21Z</time>
      </trkpt>
      <trkpt lat="48.7009" lon="1.97632">
        <ele>107.81</ele>
        <time>2019-11-30T12:59:29Z</time>
      </trkpt>
      <trkpt lat="48.70073" lon="1.97621">
        <ele>108.29</ele>
        <time>2019-11-30T12:59:43Z</time>
      </trkpt>
      <trkpt lat="48.70056" lon="1.97612">
        <ele>109.25</ele>
        <time>2019-11-30T12:59:59Z</time>
      </trkpt>
      <trkpt lat="48.70047" lon="1.97607">
        <ele>110.69</ele>
        <time>2019-11-30T13:00:08Z</time>
      </trkpt>
      <trkpt lat="48.70032" lon="1.97599">
        <ele>111.65</ele>
        <time>2019-11-30T13:00:21Z</time>
      </trkpt>
      <trkpt lat="48.70031" lon="1.97599">
        <ele>111.65</ele>
        <time>2019-11-30T13:00:22Z</time>
      </trkpt>
      <trkpt lat="48.70024" lon="1.97595">
        <ele>112.61</ele>
        <time>2019-11-30T13:00:29Z</time>
      </trkpt>
      <trkpt lat="48.70018" lon="1.97594">
        <ele>113.09</ele>
        <time>2019-11-30T13:00:34Z</time>
      </trkpt>
      <trkpt lat="48.70019" lon="1.97613">
        <ele>112.61</ele>
        <time>2019-11-30T13:00:44Z</time>
      </trkpt>
      <trkpt lat="48.70019" lon="1.97627">
        <ele>112.13</ele>
        <time>2019-11-30T13:00:50Z</time>
      </trkpt>
      <trkpt lat="48.70018" lon="1.97638">
        <ele>112.61</ele>
        <time>2019-11-30T13:00:57Z</time>
      </trkpt>
      <trkpt lat="48.70018" lon="1.97649">
        <ele>112.13</ele>
        <time>2019-11-30T13:01:02Z</time>
      </trkpt>
      <trkpt lat="48.70019" lon="1.97667">
        <ele>111.65</ele>
        <time>2019-11-30T13:01:11Z</time>
      </trkpt>
      <trkpt lat="48.70017" lon="1.97688">
        <ele>111.65</ele>
        <time>2019-11-30T13:01:24Z</time>
      </trkpt>
      <trkpt lat="48.70017" lon="1.97691">
        <ele>111.17</ele>
        <time>2019-11-30T13:01:26Z</time>
      </trkpt>
      <trkpt lat="48.70017" lon="1.97699">
        <ele>111.17</ele>
        <time>2019-11-30T13:01:29Z</time>
      </trkpt>
      <trkpt lat="48.70017" lon="1.97701">
        <ele>111.65</ele>
        <time>2019-11-30T13:01:30Z</time>
      </trkpt>
      <trkpt lat="48.70017" lon="1.97703">
        <ele>111.17</ele>
        <time>2019-11-30T13:01:31Z</time>
      </trkpt>
      <trkpt lat="48.70018" lon="1.97725">
        <ele>111.17</ele>
        <time>2019-11-30T13:01:44Z</time>
      </trkpt>
      <trkpt lat="48.70016" lon="1.97739">
        <ele>110.69</ele>
        <time>2019-11-30T13:01:52Z</time>
      </trkpt>
      <trkpt lat="48.70014" lon="1.97765">
        <ele>110.69</ele>
        <time>2019-11-30T13:02:07Z</time>
      </trkpt>
      <trkpt lat="48.70008" lon="1.97788">
        <ele>109.73</ele>
        <time>2019-11-30T13:02:22Z</time>
      </trkpt>
      <trkpt lat="48.70002" lon="1.97816">
        <ele>109.25</ele>
        <time>2019-11-30T13:02:38Z</time>
      </trkpt>
      <trkpt lat="48.69996" lon="1.97834">
        <ele>109.25</ele>
        <time>2019-11-30T13:02:48Z</time>
      </trkpt>
      <trkpt lat="48.69995" lon="1.97836">
        <ele>109.25</ele>
        <time>2019-11-30T13:02:49Z</time>
      </trkpt>
      <trkpt lat="48.69994" lon="1.97838">
        <ele>109.25</ele>
        <time>2019-11-30T13:02:50Z</time>
      </trkpt>
      <trkpt lat="48.69994" lon="1.97839">
        <ele>109.25</ele>
        <time>2019-11-30T13:02:51Z</time>
      </trkpt>
      <trkpt lat="48.69993" lon="1.9784">
        <ele>109.25</ele>
        <time>2019-11-30T13:02:52Z</time>
      </trkpt>
      <trkpt lat="48.69987" lon="1.97868">
        <ele>108.77</ele>
        <time>2019-11-30T13:03:07Z</time>
      </trkpt>
      <trkpt lat="48.69981" lon="1.9789">
        <ele>108.29</ele>
        <time>2019-11-30T13:03:21Z</time>
      </trkpt>
      <trkpt lat="48.6998" lon="1.97892">
        <ele>108.29</ele>
        <time>2019-11-30T13:03:22Z</time>
      </trkpt>
      <trkpt lat="48.69979" lon="1.97893">
        <ele>107.81</ele>
        <time>2019-11-30T13:03:23Z</time>
      </trkpt>
      <trkpt lat="48.69978" lon="1.97895">
        <ele>108.29</ele>
        <time>2019-11-30T13:03:24Z</time>
      </trkpt>
      <trkpt lat="48.69978" lon="1.97897">
        <ele>108.29</ele>
        <time>2019-11-30T13:03:25Z</time>
      </trkpt>
      <trkpt lat="48.69977" lon="1.97898">
        <ele>107.81</ele>
        <time>2019-11-30T13:03:26Z</time>
      </trkpt>
      <trkpt lat="48.6997" lon="1.97925">
        <ele>107.81</ele>
        <time>2019-11-30T13:03:41Z</time>
      </trkpt>
      <trkpt lat="48.69963" lon="1.97954">
        <ele>107.32</ele>
        <time>2019-11-30T13:03:57Z</time>
      </trkpt>
      <trkpt lat="48.6995" lon="1.97973">
        <ele>107.32</ele>
        <time>2019-11-30T13:04:12Z</time>
      </trkpt>
      <trkpt lat="48.69932" lon="1.97968">
        <ele>107.81</ele>
        <time>2019-11-30T13:04:26Z</time>
      </trkpt>
      <trkpt lat="48.69923" lon="1.97963">
        <ele>107.81</ele>
        <time>2019-11-30T13:04:40Z</time>
      </trkpt>
      <trkpt lat="48.6992" lon="1.9797">
        <ele>107.81</ele>
        <time>2019-11-30T13:04:55Z</time>
      </trkpt>
      <trkpt lat="48.69918" lon="1.97963">
        <ele>107.81</ele>
        <time>2019-11-30T13:05:17Z</time>
      </trkpt>
      <trkpt lat="48.69904" lon="1.97952">
        <ele>108.29</ele>
        <time>2019-11-30T13:05:31Z</time>
      </trkpt>
      <trkpt lat="48.69891" lon="1.97948">
        <ele>108.77</ele>
        <time>2019-11-30T13:05:44Z</time>
      </trkpt>
      <trkpt lat="48.69878" lon="1.97933">
        <ele>109.73</ele>
        <time>2019-11-30T13:05:58Z</time>
      </trkpt>
      <trkpt lat="48.69859" lon="1.9792">
        <ele>110.21</ele>
        <time>2019-11-30T13:06:15Z</time>
      </trkpt>
      <trkpt lat="48.69844" lon="1.97911">
        <ele>110.69</ele>
        <time>2019-11-30T13:06:28Z</time>
      </trkpt>
      <trkpt lat="48.6984" lon="1.97899">
        <ele>111.17</ele>
        <time>2019-11-30T13:06:37Z</time>
      </trkpt>
      <trkpt lat="48.69839" lon="1.97897">
        <ele>111.17</ele>
        <time>2019-11-30T13:06:38Z</time>
      </trkpt>
      <trkpt lat="48.69838" lon="1.97895">
        <ele>111.17</ele>
        <time>2019-11-30T13:06:39Z</time>
      </trkpt>
      <trkpt lat="48.69837" lon="1.97894">
        <ele>111.17</ele>
        <time>2019-11-30T13:06:40Z</time>
      </trkpt>
      <trkpt lat="48.69835" lon="1.97892">
        <ele>111.65</ele>
        <time>2019-11-30T13:06:41Z</time>
      </trkpt>
      <trkpt lat="48.69833" lon="1.97891">
        <ele>111.17</ele>
        <time>2019-11-30T13:06:42Z</time>
      </trkpt>
      <trkpt lat="48.69832" lon="1.9789">
        <ele>111.17</ele>
        <time>2019-11-30T13:06:43Z</time>
      </trkpt>
      <trkpt lat="48.69831" lon="1.9789">
        <ele>111.17</ele>
        <time>2019-11-30T13:06:44Z</time>
      </trkpt>
      <trkpt lat="48.69828" lon="1.97891">
        <ele>111.17</ele>
        <time>2019-11-30T13:06:47Z</time>
      </trkpt>
      <trkpt lat="48.69825" lon="1.97893">
        <ele>111.17</ele>
        <time>2019-11-30T13:06:50Z</time>
      </trkpt>
      <trkpt lat="48.6981" lon="1.97887">
        <ele>111.65</ele>
        <time>2019-11-30T13:07:02Z</time>
      </trkpt>
      <trkpt lat="48.69794" lon="1.97888">
        <ele>112.13</ele>
        <time>2019-11-30T13:07:16Z</time>
      </trkpt>
      <trkpt lat="48.69787" lon="1.97893">
        <ele>111.65</ele>
        <time>2019-11-30T13:07:30Z</time>
      </trkpt>
      <trkpt lat="48.69783" lon="1.97888">
        <ele>112.13</ele>
        <time>2019-11-30T13:07:44Z</time>
      </trkpt>
      <trkpt lat="48.69769" lon="1.97878">
        <ele>112.61</ele>
        <time>2019-11-30T13:07:56Z</time>
      </trkpt>
      <trkpt lat="48.69762" lon="1.97874">
        <ele>113.09</ele>
        <time>2019-11-30T13:08:02Z</time>
      </trkpt>
      <trkpt lat="48.69756" lon="1.97873">
        <ele>113.09</ele>
        <time>2019-11-30T13:08:07Z</time>
      </trkpt>
      <trkpt lat="48.69748" lon="1.97888">
        <ele>112.13</ele>
        <time>2019-11-30T13:08:18Z</time>
      </trkpt>
      <trkpt lat="48.69743" lon="1.97903">
        <ele>112.13</ele>
        <time>2019-11-30T13:08:29Z</time>
      </trkpt>
      <trkpt lat="48.69736" lon="1.97929">
        <ele>111.65</ele>
        <time>2019-11-30T13:08:44Z</time>
      </trkpt>
      <trkpt lat="48.69729" lon="1.97952">
        <ele>111.17</ele>
        <time>2019-11-30T13:08:57Z</time>
      </trkpt>
      <trkpt lat="48.69729" lon="1.97955">
        <ele>110.69</ele>
        <time>2019-11-30T13:08:58Z</time>
      </trkpt>
      <trkpt lat="48.69728" lon="1.97957">
        <ele>111.17</ele>
        <time>2019-11-30T13:08:59Z</time>
      </trkpt>
      <trkpt lat="48.69728" lon="1.97959">
        <ele>110.69</ele>
        <time>2019-11-30T13:09:00Z</time>
      </trkpt>
      <trkpt lat="48.69719" lon="1.97984">
        <ele>111.17</ele>
        <time>2019-11-30T13:09:15Z</time>
      </trkpt>
      <trkpt lat="48.69719" lon="1.97985">
        <ele>110.69</ele>
        <time>2019-11-30T13:09:16Z</time>
      </trkpt>
      <trkpt lat="48.69718" lon="1.97987">
        <ele>110.21</ele>
        <time>2019-11-30T13:09:17Z</time>
      </trkpt>
      <trkpt lat="48.69718" lon="1.97989">
        <ele>110.21</ele>
        <time>2019-11-30T13:09:18Z</time>
      </trkpt>
      <trkpt lat="48.69712" lon="1.98014">
        <ele>110.21</ele>
        <time>2019-11-30T13:09:33Z</time>
      </trkpt>
      <trkpt lat="48.69712" lon="1.98015">
        <ele>109.73</ele>
        <time>2019-11-30T13:09:34Z</time>
      </trkpt>
      <trkpt lat="48.69711" lon="1.98017">
        <ele>110.21</ele>
        <time>2019-11-30T13:09:35Z</time>
      </trkpt>
      <trkpt lat="48.69711" lon="1.98019">
        <ele>110.21</ele>
        <time>2019-11-30T13:09:36Z</time>
      </trkpt>
      <trkpt lat="48.69705" lon="1.98045">
        <ele>108.77</ele>
        <time>2019-11-30T13:09:51Z</time>
      </trkpt>
      <trkpt lat="48.69704" lon="1.98072">
        <ele>108.77</ele>
        <time>2019-11-30T13:10:06Z</time>
      </trkpt>
      <trkpt lat="48.69707" lon="1.98079">
        <ele>108.29</ele>
        <time>2019-11-30T13:10:12Z</time>
      </trkpt>
      <trkpt lat="48.69708" lon="1.9808">
        <ele>108.77</ele>
        <time>2019-11-30T13:10:13Z</time>
      </trkpt>
      <trkpt lat="48.69708" lon="1.98081">
        <ele>108.77</ele>
        <time>2019-11-30T13:10:14Z</time>
      </trkpt>
      <trkpt lat="48.6971" lon="1.98081">
        <ele>108.29</ele>
        <time>2019-11-30T13:10:16Z</time>
      </trkpt>
      <trkpt lat="48.69714" lon="1.9808">
        <ele>107.81</ele>
        <time>2019-11-30T13:10:29Z</time>
      </trkpt>
      <trkpt lat="48.69716" lon="1.98081">
        <ele>108.29</ele>
        <time>2019-11-30T13:10:49Z</time>
      </trkpt>
      <trkpt lat="48.69717" lon="1.9808">
        <ele>108.77</ele>
        <time>2019-11-30T13:11:05Z</time>
      </trkpt>
      <trkpt lat="48.69713" lon="1.98079">
        <ele>108.29</ele>
        <time>2019-11-30T13:11:15Z</time>
      </trkpt>
      <trkpt lat="48.69706" lon="1.98081">
        <ele>108.77</ele>
        <time>2019-11-30T13:11:29Z</time>
      </trkpt>
      <trkpt lat="48.69704" lon="1.9808">
        <ele>108.77</ele>
        <time>2019-11-30T13:11:34Z</time>
      </trkpt>
      <trkpt lat="48.69703" lon="1.98079">
        <ele>108.77</ele>
        <time>2019-11-30T13:11:35Z</time>
      </trkpt>
      <trkpt lat="48.697" lon="1.98078">
        <ele>108.77</ele>
        <time>2019-11-30T13:11:38Z</time>
      </trkpt>
      <trkpt lat="48.69693" lon="1.98086">
        <ele>108.77</ele>
        <time>2019-11-30T13:11:51Z</time>
      </trkpt>
      <trkpt lat="48.69692" lon="1.98088">
        <ele>108.29</ele>
        <time>2019-11-30T13:11:52Z</time>
      </trkpt>
      <trkpt lat="48.69692" lon="1.98089">
        <ele>107.81</ele>
        <time>2019-11-30T13:11:53Z</time>
      </trkpt>
      <trkpt lat="48.69687" lon="1.98095">
        <ele>107.81</ele>
        <time>2019-11-30T13:12:03Z</time>
      </trkpt>
      <trkpt lat="48.69681" lon="1.98108">
        <ele>107.32</ele>
        <time>2019-11-30T13:12:15Z</time>
      </trkpt>
      <trkpt lat="48.69681" lon="1.98111">
        <ele>107.81</ele>
        <time>2019-11-30T13:12:18Z</time>
      </trkpt>
      <trkpt lat="48.6968" lon="1.98115">
        <ele>107.32</ele>
        <time>2019-11-30T13:12:21Z</time>
      </trkpt>
      <trkpt lat="48.69679" lon="1.98117">
        <ele>107.32</ele>
        <time>2019-11-30T13:12:22Z</time>
      </trkpt>
      <trkpt lat="48.69673" lon="1.98138">
        <ele>106.36</ele>
        <time>2019-11-30T13:12:35Z</time>
      </trkpt>
      <trkpt lat="48.69664" lon="1.98163">
        <ele>105.4</ele>
        <time>2019-11-30T13:12:50Z</time>
      </trkpt>
      <trkpt lat="48.69651" lon="1.98186">
        <ele>103.48</ele>
        <time>2019-11-30T13:13:05Z</time>
      </trkpt>
      <trkpt lat="48.69642" lon="1.982">
        <ele>102.52</ele>
        <time>2019-11-30T13:13:14Z</time>
      </trkpt>
      <trkpt lat="48.69639" lon="1.98202">
        <ele>102.04</ele>
        <time>2019-11-30T13:13:26Z</time>
      </trkpt>
      <trkpt lat="48.69638" lon="1.98207">
        <ele>101.56</ele>
        <time>2019-11-30T13:13:35Z</time>
      </trkpt>
      <trkpt lat="48.69638" lon="1.98209">
        <ele>102.04</ele>
        <time>2019-11-30T13:13:36Z</time>
      </trkpt>
      <trkpt lat="48.69637" lon="1.98211">
        <ele>102.04</ele>
        <time>2019-11-30T13:13:37Z</time>
      </trkpt>
      <trkpt lat="48.69636" lon="1.98213">
        <ele>102.04</ele>
        <time>2019-11-30T13:13:38Z</time>
      </trkpt>
      <trkpt lat="48.69635" lon="1.98216">
        <ele>102.04</ele>
        <time>2019-11-30T13:13:39Z</time>
      </trkpt>
      <trkpt lat="48.69629" lon="1.98225">
        <ele>101.56</ele>
        <time>2019-11-30T13:13:45Z</time>
      </trkpt>
      <trkpt lat="48.69618" lon="1.9824">
        <ele>100.6</ele>
        <time>2019-11-30T13:14:00Z</time>
      </trkpt>
      <trkpt lat="48.69611" lon="1.9825">
        <ele>100.11</ele>
        <time>2019-11-30T13:14:07Z</time>
      </trkpt>
      <trkpt lat="48.69611" lon="1.98251">
        <ele>100.11</ele>
        <time>2019-11-30T13:14:08Z</time>
      </trkpt>
      <trkpt lat="48.69595" lon="1.9827">
        <ele>99.63</ele>
        <time>2019-11-30T13:14:24Z</time>
      </trkpt>
      <trkpt lat="48.69583" lon="1.98279">
        <ele>99.63</ele>
        <time>2019-11-30T13:14:37Z</time>
      </trkpt>
      <trkpt lat="48.69582" lon="1.98281">
        <ele>99.15</ele>
        <time>2019-11-30T13:14:38Z</time>
      </trkpt>
      <trkpt lat="48.69578" lon="1.9829">
        <ele>98.67</ele>
        <time>2019-11-30T13:14:49Z</time>
      </trkpt>
      <trkpt lat="48.69579" lon="1.98293">
        <ele>98.67</ele>
        <time>2019-11-30T13:14:59Z</time>
      </trkpt>
      <trkpt lat="48.69576" lon="1.98288">
        <ele>98.67</ele>
        <time>2019-11-30T13:15:12Z</time>
      </trkpt>
      <trkpt lat="48.69577" lon="1.98291">
        <ele>99.15</ele>
        <time>2019-11-30T13:15:22Z</time>
      </trkpt>
      <trkpt lat="48.69576" lon="1.9829">
        <ele>98.67</ele>
        <time>2019-11-30T13:15:25Z</time>
      </trkpt>
      <trkpt lat="48.69564" lon="1.98294">
        <ele>99.15</ele>
        <time>2019-11-30T13:15:38Z</time>
      </trkpt>
      <trkpt lat="48.69558" lon="1.98304">
        <ele>99.63</ele>
        <time>2019-11-30T13:15:50Z</time>
      </trkpt>
      <trkpt lat="48.69555" lon="1.98301">
        <ele>99.15</ele>
        <time>2019-11-30T13:15:53Z</time>
      </trkpt>
      <trkpt lat="48.69536" lon="1.98305">
        <ele>99.63</ele>
        <time>2019-11-30T13:16:08Z</time>
      </trkpt>
      <trkpt lat="48.69523" lon="1.98314">
        <ele>99.63</ele>
        <time>2019-11-30T13:16:20Z</time>
      </trkpt>
      <trkpt lat="48.69515" lon="1.98318">
        <ele>98.67</ele>
        <time>2019-11-30T13:16:26Z</time>
      </trkpt>
      <trkpt lat="48.69514" lon="1.98318">
        <ele>99.63</ele>
        <time>2019-11-30T13:16:28Z</time>
      </trkpt>
      <trkpt lat="48.69513" lon="1.98318">
        <ele>99.15</ele>
        <time>2019-11-30T13:16:29Z</time>
      </trkpt>
      <trkpt lat="48.69512" lon="1.98318">
        <ele>98.67</ele>
        <time>2019-11-30T13:16:30Z</time>
      </trkpt>
      <trkpt lat="48.69511" lon="1.98319">
        <ele>98.67</ele>
        <time>2019-11-30T13:16:31Z</time>
      </trkpt>
      <trkpt lat="48.69508" lon="1.98321">
        <ele>98.67</ele>
        <time>2019-11-30T13:16:36Z</time>
      </trkpt>
      <trkpt lat="48.69504" lon="1.98325">
        <ele>97.71</ele>
        <time>2019-11-30T13:16:43Z</time>
      </trkpt>
      <trkpt lat="48.69496" lon="1.98333">
        <ele>96.75</ele>
        <time>2019-11-30T13:16:52Z</time>
      </trkpt>
      <trkpt lat="48.69495" lon="1.98336">
        <ele>96.75</ele>
        <time>2019-11-30T13:16:54Z</time>
      </trkpt>
      <trkpt lat="48.69494" lon="1.98337">
        <ele>97.23</ele>
        <time>2019-11-30T13:16:55Z</time>
      </trkpt>
      <trkpt lat="48.69484" lon="1.98356">
        <ele>97.23</ele>
        <time>2019-11-30T13:17:09Z</time>
      </trkpt>
      <trkpt lat="48.69482" lon="1.9836">
        <ele>97.23</ele>
        <time>2019-11-30T13:17:12Z</time>
      </trkpt>
      <trkpt lat="48.6948" lon="1.98363">
        <ele>97.23</ele>
        <time>2019-11-30T13:17:14Z</time>
      </trkpt>
      <trkpt lat="48.6948" lon="1.98364">
        <ele>96.75</ele>
        <time>2019-11-30T13:17:15Z</time>
      </trkpt>
      <trkpt lat="48.69478" lon="1.98365">
        <ele>97.23</ele>
        <time>2019-11-30T13:17:16Z</time>
      </trkpt>
      <trkpt lat="48.69477" lon="1.98367">
        <ele>97.23</ele>
        <time>2019-11-30T13:17:17Z</time>
      </trkpt>
      <trkpt lat="48.69476" lon="1.9837">
        <ele>97.23</ele>
        <time>2019-11-30T13:17:19Z</time>
      </trkpt>
      <trkpt lat="48.69471" lon="1.98376">
        <ele>97.23</ele>
        <time>2019-11-30T13:17:26Z</time>
      </trkpt>
      <trkpt lat="48.69459" lon="1.98391">
        <ele>97.71</ele>
        <time>2019-11-30T13:17:37Z</time>
      </trkpt>
      <trkpt lat="48.69449" lon="1.9841">
        <ele>98.19</ele>
        <time>2019-11-30T13:17:51Z</time>
      </trkpt>
      <trkpt lat="48.69441" lon="1.98425">
        <ele>99.63</ele>
        <time>2019-11-30T13:18:03Z</time>
      </trkpt>
      <trkpt lat="48.69434" lon="1.98441">
        <ele>100.6</ele>
        <time>2019-11-30T13:18:15Z</time>
      </trkpt>
      <trkpt lat="48.69424" lon="1.98454">
        <ele>101.08</ele>
        <time>2019-11-30T13:18:29Z</time>
      </trkpt>
      <trkpt lat="48.69417" lon="1.98463">
        <ele>103</ele>
        <time>2019-11-30T13:18:39Z</time>
      </trkpt>
      <trkpt lat="48.69413" lon="1.98462">
        <ele>103</ele>
        <time>2019-11-30T13:18:42Z</time>
      </trkpt>
      <trkpt lat="48.69408" lon="1.9846">
        <ele>103</ele>
        <time>2019-11-30T13:18:46Z</time>
      </trkpt>
      <trkpt lat="48.69406" lon="1.98461">
        <ele>103.48</ele>
        <time>2019-11-30T13:18:47Z</time>
      </trkpt>
      <trkpt lat="48.69401" lon="1.98465">
        <ele>103.48</ele>
        <time>2019-11-30T13:18:59Z</time>
      </trkpt>
      <trkpt lat="48.69395" lon="1.98463">
        <ele>103.96</ele>
        <time>2019-11-30T13:19:13Z</time>
      </trkpt>
      <trkpt lat="48.69401" lon="1.98465">
        <ele>103</ele>
        <time>2019-11-30T13:19:29Z</time>
      </trkpt>
      <trkpt lat="48.694" lon="1.98467">
        <ele>102.52</ele>
        <time>2019-11-30T13:19:45Z</time>
      </trkpt>
      <trkpt lat="48.694" lon="1.98466">
        <ele>102.52</ele>
        <time>2019-11-30T13:20:03Z</time>
      </trkpt>
      <trkpt lat="48.694" lon="1.98471">
        <ele>103</ele>
        <time>2019-11-30T13:20:14Z</time>
      </trkpt>
      <trkpt lat="48.69399" lon="1.9847">
        <ele>102.52</ele>
        <time>2019-11-30T13:20:15Z</time>
      </trkpt>
      <trkpt lat="48.69394" lon="1.9847">
        <ele>103</ele>
        <time>2019-11-30T13:20:26Z</time>
      </trkpt>
      <trkpt lat="48.69388" lon="1.98471">
        <ele>103.48</ele>
        <time>2019-11-30T13:20:32Z</time>
      </trkpt>
      <trkpt lat="48.69387" lon="1.98472">
        <ele>103</ele>
        <time>2019-11-30T13:20:33Z</time>
      </trkpt>
      <trkpt lat="48.69382" lon="1.98476">
        <ele>103.96</ele>
        <time>2019-11-30T13:20:44Z</time>
      </trkpt>
      <trkpt lat="48.69379" lon="1.98481">
        <ele>104.44</ele>
        <time>2019-11-30T13:20:53Z</time>
      </trkpt>
      <trkpt lat="48.69371" lon="1.98485">
        <ele>104.92</ele>
        <time>2019-11-30T13:21:05Z</time>
      </trkpt>
      <trkpt lat="48.69362" lon="1.9849">
        <ele>105.4</ele>
        <time>2019-11-30T13:21:16Z</time>
      </trkpt>
      <trkpt lat="48.69361" lon="1.9849">
        <ele>105.88</ele>
        <time>2019-11-30T13:21:17Z</time>
      </trkpt>
      <trkpt lat="48.69354" lon="1.98486">
        <ele>105.88</ele>
        <time>2019-11-30T13:21:25Z</time>
      </trkpt>
      <trkpt lat="48.69349" lon="1.98482">
        <ele>105.88</ele>
        <time>2019-11-30T13:21:29Z</time>
      </trkpt>
      <trkpt lat="48.69343" lon="1.98481">
        <ele>106.84</ele>
        <time>2019-11-30T13:21:37Z</time>
      </trkpt>
      <trkpt lat="48.69342" lon="1.98482">
        <ele>107.32</ele>
        <time>2019-11-30T13:21:38Z</time>
      </trkpt>
      <trkpt lat="48.69334" lon="1.98478">
        <ele>106.84</ele>
        <time>2019-11-30T13:21:48Z</time>
      </trkpt>
      <trkpt lat="48.69328" lon="1.98478">
        <ele>107.32</ele>
        <time>2019-11-30T13:21:53Z</time>
      </trkpt>
      <trkpt lat="48.69326" lon="1.98479">
        <ele>106.84</ele>
        <time>2019-11-30T13:21:54Z</time>
      </trkpt>
      <trkpt lat="48.69319" lon="1.98477">
        <ele>107.32</ele>
        <time>2019-11-30T13:22:00Z</time>
      </trkpt>
      <trkpt lat="48.69318" lon="1.98476">
        <ele>107.32</ele>
        <time>2019-11-30T13:22:01Z</time>
      </trkpt>
      <trkpt lat="48.69315" lon="1.98476">
        <ele>107.81</ele>
        <time>2019-11-30T13:22:04Z</time>
      </trkpt>
      <trkpt lat="48.69313" lon="1.98477">
        <ele>107.32</ele>
        <time>2019-11-30T13:22:14Z</time>
      </trkpt>
      <trkpt lat="48.6931" lon="1.98475">
        <ele>107.32</ele>
        <time>2019-11-30T13:22:17Z</time>
      </trkpt>
      <trkpt lat="48.69309" lon="1.98475">
        <ele>107.32</ele>
        <time>2019-11-30T13:22:18Z</time>
      </trkpt>
      <trkpt lat="48.69295" lon="1.98468">
        <ele>107.81</ele>
        <time>2019-11-30T13:22:31Z</time>
      </trkpt>
      <trkpt lat="48.69277" lon="1.98461">
        <ele>108.29</ele>
        <time>2019-11-30T13:22:45Z</time>
      </trkpt>
      <trkpt lat="48.69263" lon="1.98458">
        <ele>108.29</ele>
        <time>2019-11-30T13:22:57Z</time>
      </trkpt>
      <trkpt lat="48.69251" lon="1.98458">
        <ele>107.32</ele>
        <time>2019-11-30T13:23:11Z</time>
      </trkpt>
      <trkpt lat="48.69251" lon="1.98462">
        <ele>107.81</ele>
        <time>2019-11-30T13:23:17Z</time>
      </trkpt>
      <trkpt lat="48.69248" lon="1.9846">
        <ele>107.81</ele>
        <time>2019-11-30T13:23:29Z</time>
      </trkpt>
      <trkpt lat="48.69247" lon="1.98459">
        <ele>107.32</ele>
        <time>2019-11-30T13:23:31Z</time>
      </trkpt>
      <trkpt lat="48.6924" lon="1.98459">
        <ele>108.29</ele>
        <time>2019-11-30T13:23:39Z</time>
      </trkpt>
      <trkpt lat="48.69235" lon="1.98461">
        <ele>107.32</ele>
        <time>2019-11-30T13:23:52Z</time>
      </trkpt>
      <trkpt lat="48.69228" lon="1.98464">
        <ele>106.84</ele>
        <time>2019-11-30T13:24:05Z</time>
      </trkpt>
      <trkpt lat="48.69227" lon="1.98463">
        <ele>107.32</ele>
        <time>2019-11-30T13:24:06Z</time>
      </trkpt>
      <trkpt lat="48.69225" lon="1.98463">
        <ele>106.84</ele>
        <time>2019-11-30T13:24:07Z</time>
      </trkpt>
      <trkpt lat="48.69224" lon="1.98463">
        <ele>106.84</ele>
        <time>2019-11-30T13:24:08Z</time>
      </trkpt>
      <trkpt lat="48.69222" lon="1.98463">
        <ele>106.84</ele>
        <time>2019-11-30T13:24:09Z</time>
      </trkpt>
      <trkpt lat="48.69212" lon="1.98464">
        <ele>106.36</ele>
        <time>2019-11-30T13:24:20Z</time>
      </trkpt>
      <trkpt lat="48.69207" lon="1.98465">
        <ele>106.84</ele>
        <time>2019-11-30T13:24:24Z</time>
      </trkpt>
      <trkpt lat="48.69204" lon="1.98462">
        <ele>106.84</ele>
        <time>2019-11-30T13:24:27Z</time>
      </trkpt>
      <trkpt lat="48.69202" lon="1.98462">
        <ele>106.36</ele>
        <time>2019-11-30T13:24:28Z</time>
      </trkpt>
      <trkpt lat="48.692" lon="1.98461">
        <ele>106.36</ele>
        <time>2019-11-30T13:24:29Z</time>
      </trkpt>
      <trkpt lat="48.69199" lon="1.98461">
        <ele>106.36</ele>
        <time>2019-11-30T13:24:30Z</time>
      </trkpt>
      <trkpt lat="48.69197" lon="1.9846">
        <ele>106.84</ele>
        <time>2019-11-30T13:24:31Z</time>
      </trkpt>
      <trkpt lat="48.69196" lon="1.98459">
        <ele>106.84</ele>
        <time>2019-11-30T13:24:32Z</time>
      </trkpt>
      <trkpt lat="48.69193" lon="1.98459">
        <ele>106.84</ele>
        <time>2019-11-30T13:24:38Z</time>
      </trkpt>
      <trkpt lat="48.69192" lon="1.98459">
        <ele>106.36</ele>
        <time>2019-11-30T13:24:39Z</time>
      </trkpt>
      <trkpt lat="48.69191" lon="1.98458">
        <ele>106.36</ele>
        <time>2019-11-30T13:24:40Z</time>
      </trkpt>
      <trkpt lat="48.69183" lon="1.9846">
        <ele>106.84</ele>
        <time>2019-11-30T13:24:53Z</time>
      </trkpt>
      <trkpt lat="48.69181" lon="1.98459">
        <ele>106.36</ele>
        <time>2019-11-30T13:25:01Z</time>
      </trkpt>
      <trkpt lat="48.6918" lon="1.98459">
        <ele>106.84</ele>
        <time>2019-11-30T13:25:02Z</time>
      </trkpt>
      <trkpt lat="48.69164" lon="1.98459">
        <ele>107.32</ele>
        <time>2019-11-30T13:25:16Z</time>
      </trkpt>
      <trkpt lat="48.69158" lon="1.98457">
        <ele>107.32</ele>
        <time>2019-11-30T13:25:22Z</time>
      </trkpt>
      <trkpt lat="48.69157" lon="1.98457">
        <ele>106.84</ele>
        <time>2019-11-30T13:25:23Z</time>
      </trkpt>
      <trkpt lat="48.69153" lon="1.98456">
        <ele>107.32</ele>
        <time>2019-11-30T13:25:27Z</time>
      </trkpt>
      <trkpt lat="48.69151" lon="1.98456">
        <ele>107.81</ele>
        <time>2019-11-30T13:25:28Z</time>
      </trkpt>
      <trkpt lat="48.6915" lon="1.98457">
        <ele>107.81</ele>
        <time>2019-11-30T13:25:29Z</time>
      </trkpt>
      <trkpt lat="48.69148" lon="1.98456">
        <ele>106.84</ele>
        <time>2019-11-30T13:25:30Z</time>
      </trkpt>
      <trkpt lat="48.69147" lon="1.98456">
        <ele>107.32</ele>
        <time>2019-11-30T13:25:31Z</time>
      </trkpt>
      <trkpt lat="48.69132" lon="1.98449">
        <ele>107.32</ele>
        <time>2019-11-30T13:25:45Z</time>
      </trkpt>
      <trkpt lat="48.6913" lon="1.98447">
        <ele>107.81</ele>
        <time>2019-11-30T13:25:47Z</time>
      </trkpt>
      <trkpt lat="48.6912" lon="1.98438">
        <ele>107.32</ele>
        <time>2019-11-30T13:25:58Z</time>
      </trkpt>
      <trkpt lat="48.69108" lon="1.98426">
        <ele>108.29</ele>
        <time>2019-11-30T13:26:11Z</time>
      </trkpt>
      <trkpt lat="48.69102" lon="1.9842">
        <ele>107.81</ele>
        <time>2019-11-30T13:26:16Z</time>
      </trkpt>
      <trkpt lat="48.691" lon="1.9842">
        <ele>108.29</ele>
        <time>2019-11-30T13:26:17Z</time>
      </trkpt>
      <trkpt lat="48.69099" lon="1.98419">
        <ele>108.77</ele>
        <time>2019-11-30T13:26:18Z</time>
      </trkpt>
      <trkpt lat="48.69082" lon="1.98404">
        <ele>109.25</ele>
        <time>2019-11-30T13:26:33Z</time>
      </trkpt>
      <trkpt lat="48.69066" lon="1.98389">
        <ele>109.25</ele>
        <time>2019-11-30T13:26:49Z</time>
      </trkpt>
      <trkpt lat="48.69053" lon="1.98375">
        <ele>109.25</ele>
        <time>2019-11-30T13:27:02Z</time>
      </trkpt>
      <trkpt lat="48.69048" lon="1.9837">
        <ele>109.25</ele>
        <time>2019-11-30T13:27:07Z</time>
      </trkpt>
      <trkpt lat="48.69047" lon="1.9837">
        <ele>109.25</ele>
        <time>2019-11-30T13:27:08Z</time>
      </trkpt>
      <trkpt lat="48.69045" lon="1.98369">
        <ele>108.77</ele>
        <time>2019-11-30T13:27:09Z</time>
      </trkpt>
      <trkpt lat="48.69044" lon="1.98368">
        <ele>108.77</ele>
        <time>2019-11-30T13:27:10Z</time>
      </trkpt>
      <trkpt lat="48.69042" lon="1.98367">
        <ele>108.77</ele>
        <time>2019-11-30T13:27:11Z</time>
      </trkpt>
      <trkpt lat="48.69041" lon="1.98365">
        <ele>108.77</ele>
        <time>2019-11-30T13:27:12Z</time>
      </trkpt>
      <trkpt lat="48.69039" lon="1.98364">
        <ele>108.29</ele>
        <time>2019-11-30T13:27:13Z</time>
      </trkpt>
      <trkpt lat="48.69031" lon="1.98355">
        <ele>108.29</ele>
        <time>2019-11-30T13:27:22Z</time>
      </trkpt>
      <trkpt lat="48.69026" lon="1.9835">
        <ele>108.29</ele>
        <time>2019-11-30T13:27:27Z</time>
      </trkpt>
      <trkpt lat="48.69016" lon="1.98332">
        <ele>107.32</ele>
        <time>2019-11-30T13:27:41Z</time>
      </trkpt>
      <trkpt lat="48.69015" lon="1.9833">
        <ele>107.32</ele>
        <time>2019-11-30T13:27:42Z</time>
      </trkpt>
      <trkpt lat="48.69014" lon="1.98328">
        <ele>107.32</ele>
        <time>2019-11-30T13:27:43Z</time>
      </trkpt>
      <trkpt lat="48.69013" lon="1.98326">
        <ele>107.32</ele>
        <time>2019-11-30T13:27:44Z</time>
      </trkpt>
      <trkpt lat="48.69011" lon="1.98324">
        <ele>107.32</ele>
        <time>2019-11-30T13:27:45Z</time>
      </trkpt>
      <trkpt lat="48.6901" lon="1.98323">
        <ele>107.32</ele>
        <time>2019-11-30T13:27:46Z</time>
      </trkpt>
      <trkpt lat="48.69009" lon="1.98321">
        <ele>107.32</ele>
        <time>2019-11-30T13:27:47Z</time>
      </trkpt>
      <trkpt lat="48.69008" lon="1.9832">
        <ele>107.32</ele>
        <time>2019-11-30T13:27:48Z</time>
      </trkpt>
      <trkpt lat="48.68997" lon="1.98304">
        <ele>106.84</ele>
        <time>2019-11-30T13:28:00Z</time>
      </trkpt>
      <trkpt lat="48.68986" lon="1.9829">
        <ele>107.32</ele>
        <time>2019-11-30T13:28:13Z</time>
      </trkpt>
      <trkpt lat="48.68983" lon="1.98287">
        <ele>107.32</ele>
        <time>2019-11-30T13:28:16Z</time>
      </trkpt>
      <trkpt lat="48.68981" lon="1.98286">
        <ele>107.32</ele>
        <time>2019-11-30T13:28:17Z</time>
      </trkpt>
      <trkpt lat="48.68964" lon="1.98273">
        <ele>106.84</ele>
        <time>2019-11-30T13:28:31Z</time>
      </trkpt>
      <trkpt lat="48.68948" lon="1.98266">
        <ele>105.88</ele>
        <time>2019-11-30T13:28:45Z</time>
      </trkpt>
      <trkpt lat="48.6894" lon="1.98265">
        <ele>106.36</ele>
        <time>2019-11-30T13:28:51Z</time>
      </trkpt>
      <trkpt lat="48.68939" lon="1.98266">
        <ele>105.88</ele>
        <time>2019-11-30T13:28:52Z</time>
      </trkpt>
      <trkpt lat="48.68937" lon="1.98265">
        <ele>105.88</ele>
        <time>2019-11-30T13:28:54Z</time>
      </trkpt>
      <trkpt lat="48.68932" lon="1.98262">
        <ele>105.4</ele>
        <time>2019-11-30T13:28:59Z</time>
      </trkpt>
      <trkpt lat="48.68914" lon="1.98262">
        <ele>105.88</ele>
        <time>2019-11-30T13:29:14Z</time>
      </trkpt>
      <trkpt lat="48.68897" lon="1.98263">
        <ele>106.84</ele>
        <time>2019-11-30T13:29:28Z</time>
      </trkpt>
      <trkpt lat="48.68883" lon="1.98273">
        <ele>107.32</ele>
        <time>2019-11-30T13:29:41Z</time>
      </trkpt>
      <trkpt lat="48.68882" lon="1.98274">
        <ele>107.81</ele>
        <time>2019-11-30T13:29:42Z</time>
      </trkpt>
      <trkpt lat="48.6888" lon="1.98278">
        <ele>107.81</ele>
        <time>2019-11-30T13:29:44Z</time>
      </trkpt>
      <trkpt lat="48.68879" lon="1.98279">
        <ele>107.32</ele>
        <time>2019-11-30T13:29:45Z</time>
      </trkpt>
      <trkpt lat="48.68878" lon="1.9828">
        <ele>107.81</ele>
        <time>2019-11-30T13:29:46Z</time>
      </trkpt>
      <trkpt lat="48.68864" lon="1.98295">
        <ele>109.25</ele>
        <time>2019-11-30T13:30:00Z</time>
      </trkpt>
      <trkpt lat="48.68858" lon="1.98305">
        <ele>109.73</ele>
        <time>2019-11-30T13:30:12Z</time>
      </trkpt>
      <trkpt lat="48.68857" lon="1.98305">
        <ele>109.73</ele>
        <time>2019-11-30T13:30:18Z</time>
      </trkpt>
      <trkpt lat="48.68856" lon="1.98307">
        <ele>109.73</ele>
        <time>2019-11-30T13:30:19Z</time>
      </trkpt>
      <trkpt lat="48.68855" lon="1.98309">
        <ele>110.69</ele>
        <time>2019-11-30T13:30:20Z</time>
      </trkpt>
      <trkpt lat="48.68853" lon="1.98311">
        <ele>111.17</ele>
        <time>2019-11-30T13:30:22Z</time>
      </trkpt>
      <trkpt lat="48.68853" lon="1.98313">
        <ele>110.69</ele>
        <time>2019-11-30T13:30:23Z</time>
      </trkpt>
      <trkpt lat="48.6885" lon="1.98315">
        <ele>111.65</ele>
        <time>2019-11-30T13:30:26Z</time>
      </trkpt>
      <trkpt lat="48.68838" lon="1.98317">
        <ele>111.17</ele>
        <time>2019-11-30T13:30:38Z</time>
      </trkpt>
      <trkpt lat="48.68837" lon="1.98316">
        <ele>110.69</ele>
        <time>2019-11-30T13:30:39Z</time>
      </trkpt>
      <trkpt lat="48.68836" lon="1.98315">
        <ele>110.21</ele>
        <time>2019-11-30T13:30:40Z</time>
      </trkpt>
      <trkpt lat="48.68835" lon="1.98313">
        <ele>110.69</ele>
        <time>2019-11-30T13:30:41Z</time>
      </trkpt>
      <trkpt lat="48.68834" lon="1.98313">
        <ele>110.69</ele>
        <time>2019-11-30T13:30:42Z</time>
      </trkpt>
      <trkpt lat="48.68833" lon="1.98312">
        <ele>110.69</ele>
        <time>2019-11-30T13:30:43Z</time>
      </trkpt>
      <trkpt lat="48.6883" lon="1.98308">
        <ele>110.21</ele>
        <time>2019-11-30T13:30:46Z</time>
      </trkpt>
      <trkpt lat="48.68829" lon="1.98306">
        <ele>110.69</ele>
        <time>2019-11-30T13:30:47Z</time>
      </trkpt>
      <trkpt lat="48.68817" lon="1.98291">
        <ele>110.69</ele>
        <time>2019-11-30T13:30:57Z</time>
      </trkpt>
      <trkpt lat="48.68811" lon="1.98272">
        <ele>111.17</ele>
        <time>2019-11-30T13:31:10Z</time>
      </trkpt>
      <trkpt lat="48.68805" lon="1.9824">
        <ele>111.17</ele>
        <time>2019-11-30T13:31:27Z</time>
      </trkpt>
      <trkpt lat="48.68804" lon="1.98238">
        <ele>111.65</ele>
        <time>2019-11-30T13:31:28Z</time>
      </trkpt>
      <trkpt lat="48.68798" lon="1.98223">
        <ele>111.65</ele>
        <time>2019-11-30T13:31:39Z</time>
      </trkpt>
      <trkpt lat="48.68786" lon="1.98202">
        <ele>112.13</ele>
        <time>2019-11-30T13:31:54Z</time>
      </trkpt>
      <trkpt lat="48.6878" lon="1.98194">
        <ele>111.65</ele>
        <time>2019-11-30T13:32:02Z</time>
      </trkpt>
      <trkpt lat="48.68775" lon="1.98189">
        <ele>110.21</ele>
        <time>2019-11-30T13:32:16Z</time>
      </trkpt>
      <trkpt lat="48.68767" lon="1.98185">
        <ele>110.69</ele>
        <time>2019-11-30T13:32:40Z</time>
      </trkpt>
      <trkpt lat="48.68763" lon="1.98187">
        <ele>110.69</ele>
        <time>2019-11-30T13:32:46Z</time>
      </trkpt>
      <trkpt lat="48.68761" lon="1.98188">
        <ele>111.17</ele>
        <time>2019-11-30T13:32:49Z</time>
      </trkpt>
      <trkpt lat="48.68748" lon="1.9819">
        <ele>111.17</ele>
        <time>2019-11-30T13:33:02Z</time>
      </trkpt>
      <trkpt lat="48.68747" lon="1.9819">
        <ele>111.65</ele>
        <time>2019-11-30T13:33:03Z</time>
      </trkpt>
      <trkpt lat="48.68745" lon="1.98191">
        <ele>111.65</ele>
        <time>2019-11-30T13:33:04Z</time>
      </trkpt>
      <trkpt lat="48.68743" lon="1.98193">
        <ele>111.65</ele>
        <time>2019-11-30T13:33:05Z</time>
      </trkpt>
      <trkpt lat="48.68742" lon="1.98193">
        <ele>111.65</ele>
        <time>2019-11-30T13:33:06Z</time>
      </trkpt>
      <trkpt lat="48.68741" lon="1.98194">
        <ele>111.65</ele>
        <time>2019-11-30T13:33:07Z</time>
      </trkpt>
      <trkpt lat="48.6874" lon="1.98194">
        <ele>112.13</ele>
        <time>2019-11-30T13:33:08Z</time>
      </trkpt>
      <trkpt lat="48.68727" lon="1.98199">
        <ele>112.13</ele>
        <time>2019-11-30T13:33:21Z</time>
      </trkpt>
      <trkpt lat="48.68723" lon="1.98205">
        <ele>112.13</ele>
        <time>2019-11-30T13:33:33Z</time>
      </trkpt>
      <trkpt lat="48.68707" lon="1.9821">
        <ele>113.09</ele>
        <time>2019-11-30T13:33:45Z</time>
      </trkpt>
      <trkpt lat="48.68691" lon="1.98206">
        <ele>111.65</ele>
        <time>2019-11-30T13:33:59Z</time>
      </trkpt>
      <trkpt lat="48.68678" lon="1.98199">
        <ele>111.17</ele>
        <time>2019-11-30T13:34:09Z</time>
      </trkpt>
      <trkpt lat="48.68676" lon="1.98198">
        <ele>112.13</ele>
        <time>2019-11-30T13:34:10Z</time>
      </trkpt>
      <trkpt lat="48.68658" lon="1.98188">
        <ele>111.17</ele>
        <time>2019-11-30T13:34:25Z</time>
      </trkpt>
      <trkpt lat="48.68653" lon="1.98182">
        <ele>110.69</ele>
        <time>2019-11-30T13:34:37Z</time>
      </trkpt>
      <trkpt lat="48.6865" lon="1.98181">
        <ele>111.17</ele>
        <time>2019-11-30T13:34:48Z</time>
      </trkpt>
      <trkpt lat="48.6865" lon="1.98179">
        <ele>111.17</ele>
        <time>2019-11-30T13:34:49Z</time>
      </trkpt>
      <trkpt lat="48.68648" lon="1.98178">
        <ele>110.69</ele>
        <time>2019-11-30T13:34:50Z</time>
      </trkpt>
      <trkpt lat="48.68637" lon="1.98165">
        <ele>110.69</ele>
        <time>2019-11-30T13:35:03Z</time>
      </trkpt>
      <trkpt lat="48.68621" lon="1.98148">
        <ele>110.21</ele>
        <time>2019-11-30T13:35:17Z</time>
      </trkpt>
      <trkpt lat="48.68607" lon="1.98131">
        <ele>111.65</ele>
        <time>2019-11-30T13:35:34Z</time>
      </trkpt>
      <trkpt lat="48.68603" lon="1.9813">
        <ele>111.17</ele>
        <time>2019-11-30T13:35:39Z</time>
      </trkpt>
      <trkpt lat="48.68602" lon="1.9813">
        <ele>111.65</ele>
        <time>2019-11-30T13:35:40Z</time>
      </trkpt>
      <trkpt lat="48.68601" lon="1.98131">
        <ele>111.65</ele>
        <time>2019-11-30T13:35:41Z</time>
      </trkpt>
      <trkpt lat="48.68594" lon="1.98131">
        <ele>111.65</ele>
        <time>2019-11-30T13:35:50Z</time>
      </trkpt>
      <trkpt lat="48.68585" lon="1.98131">
        <ele>112.13</ele>
        <time>2019-11-30T13:35:57Z</time>
      </trkpt>
      <trkpt lat="48.68583" lon="1.98132">
        <ele>112.13</ele>
        <time>2019-11-30T13:35:58Z</time>
      </trkpt>
      <trkpt lat="48.68581" lon="1.98132">
        <ele>112.13</ele>
        <time>2019-11-30T13:35:59Z</time>
      </trkpt>
      <trkpt lat="48.6858" lon="1.98133">
        <ele>112.61</ele>
        <time>2019-11-30T13:36:00Z</time>
      </trkpt>
      <trkpt lat="48.68578" lon="1.98133">
        <ele>112.61</ele>
        <time>2019-11-30T13:36:01Z</time>
      </trkpt>
      <trkpt lat="48.68576" lon="1.98132">
        <ele>112.61</ele>
        <time>2019-11-30T13:36:04Z</time>
      </trkpt>
      <trkpt lat="48.68573" lon="1.98131">
        <ele>112.61</ele>
        <time>2019-11-30T13:36:07Z</time>
      </trkpt>
      <trkpt lat="48.68564" lon="1.98132">
        <ele>113.57</ele>
        <time>2019-11-30T13:36:14Z</time>
      </trkpt>
      <trkpt lat="48.68563" lon="1.9813">
        <ele>113.57</ele>
        <time>2019-11-30T13:36:15Z</time>
      </trkpt>
      <trkpt lat="48.68563" lon="1.98128">
        <ele>113.57</ele>
        <time>2019-11-30T13:36:16Z</time>
      </trkpt>
      <trkpt lat="48.6856" lon="1.98123">
        <ele>113.57</ele>
        <time>2019-11-30T13:36:21Z</time>
      </trkpt>
      <trkpt lat="48.68548" lon="1.98124">
        <ele>115.01</ele>
        <time>2019-11-30T13:36:33Z</time>
      </trkpt>
      <trkpt lat="48.68547" lon="1.98124">
        <ele>115.01</ele>
        <time>2019-11-30T13:36:34Z</time>
      </trkpt>
      <trkpt lat="48.6853" lon="1.98125">
        <ele>115.98</ele>
        <time>2019-11-30T13:36:48Z</time>
      </trkpt>
      <trkpt lat="48.68522" lon="1.98127">
        <ele>116.46</ele>
        <time>2019-11-30T13:36:59Z</time>
      </trkpt>
      <trkpt lat="48.68521" lon="1.98127">
        <ele>116.46</ele>
        <time>2019-11-30T13:37:00Z</time>
      </trkpt>
      <trkpt lat="48.68513" lon="1.98127">
        <ele>116.94</ele>
        <time>2019-11-30T13:37:09Z</time>
      </trkpt>
      <trkpt lat="48.6851" lon="1.98127">
        <ele>116.94</ele>
        <time>2019-11-30T13:37:10Z</time>
      </trkpt>
      <trkpt lat="48.68508" lon="1.98126">
        <ele>116.94</ele>
        <time>2019-11-30T13:37:11Z</time>
      </trkpt>
      <trkpt lat="48.68502" lon="1.98123">
        <ele>117.42</ele>
        <time>2019-11-30T13:37:17Z</time>
      </trkpt>
      <trkpt lat="48.68489" lon="1.9812">
        <ele>116.94</ele>
        <time>2019-11-30T13:37:26Z</time>
      </trkpt>
      <trkpt lat="48.68483" lon="1.98119">
        <ele>117.42</ele>
        <time>2019-11-30T13:37:34Z</time>
      </trkpt>
      <trkpt lat="48.68482" lon="1.9812">
        <ele>117.42</ele>
        <time>2019-11-30T13:37:35Z</time>
      </trkpt>
      <trkpt lat="48.68481" lon="1.98121">
        <ele>117.42</ele>
        <time>2019-11-30T13:37:36Z</time>
      </trkpt>
      <trkpt lat="48.68477" lon="1.98121">
        <ele>117.42</ele>
        <time>2019-11-30T13:37:41Z</time>
      </trkpt>
      <trkpt lat="48.68467" lon="1.98119">
        <ele>117.9</ele>
        <time>2019-11-30T13:37:48Z</time>
      </trkpt>
      <trkpt lat="48.68465" lon="1.98118">
        <ele>118.38</ele>
        <time>2019-11-30T13:37:49Z</time>
      </trkpt>
      <trkpt lat="48.68448" lon="1.98112">
        <ele>119.34</ele>
        <time>2019-11-30T13:38:01Z</time>
      </trkpt>
      <trkpt lat="48.68435" lon="1.98107">
        <ele>119.34</ele>
        <time>2019-11-30T13:38:14Z</time>
      </trkpt>
      <trkpt lat="48.68432" lon="1.98107">
        <ele>119.82</ele>
        <time>2019-11-30T13:38:16Z</time>
      </trkpt>
      <trkpt lat="48.68415" lon="1.98103">
        <ele>118.38</ele>
        <time>2019-11-30T13:38:28Z</time>
      </trkpt>
      <trkpt lat="48.68403" lon="1.98103">
        <ele>117.42</ele>
        <time>2019-11-30T13:38:41Z</time>
      </trkpt>
      <trkpt lat="48.68391" lon="1.98103">
        <ele>116.46</ele>
        <time>2019-11-30T13:38:51Z</time>
      </trkpt>
      <trkpt lat="48.6839" lon="1.98103">
        <ele>115.98</ele>
        <time>2019-11-30T13:38:52Z</time>
      </trkpt>
      <trkpt lat="48.68389" lon="1.98103">
        <ele>115.98</ele>
        <time>2019-11-30T13:38:53Z</time>
      </trkpt>
      <trkpt lat="48.68375" lon="1.98098">
        <ele>115.98</ele>
        <time>2019-11-30T13:39:05Z</time>
      </trkpt>
      <trkpt lat="48.68365" lon="1.98094">
        <ele>115.01</ele>
        <time>2019-11-30T13:39:17Z</time>
      </trkpt>
      <trkpt lat="48.68357" lon="1.98093">
        <ele>115.01</ele>
        <time>2019-11-30T13:39:23Z</time>
      </trkpt>
      <trkpt lat="48.68356" lon="1.98092">
        <ele>115.01</ele>
        <time>2019-11-30T13:39:24Z</time>
      </trkpt>
      <trkpt lat="48.68355" lon="1.98091">
        <ele>114.53</ele>
        <time>2019-11-30T13:39:25Z</time>
      </trkpt>
      <trkpt lat="48.68353" lon="1.9809">
        <ele>115.01</ele>
        <time>2019-11-30T13:39:26Z</time>
      </trkpt>
      <trkpt lat="48.68343" lon="1.98086">
        <ele>114.53</ele>
        <time>2019-11-30T13:39:35Z</time>
      </trkpt>
      <trkpt lat="48.68326" lon="1.98076">
        <ele>114.53</ele>
        <time>2019-11-30T13:39:50Z</time>
      </trkpt>
      <trkpt lat="48.68323" lon="1.98078">
        <ele>114.05</ele>
        <time>2019-11-30T13:39:53Z</time>
      </trkpt>
      <trkpt lat="48.68322" lon="1.98079">
        <ele>114.05</ele>
        <time>2019-11-30T13:39:54Z</time>
      </trkpt>
      <trkpt lat="48.68303" lon="1.98076">
        <ele>114.05</ele>
        <time>2019-11-30T13:40:07Z</time>
      </trkpt>
      <trkpt lat="48.68294" lon="1.9808">
        <ele>114.53</ele>
        <time>2019-11-30T13:40:21Z</time>
      </trkpt>
      <trkpt lat="48.68276" lon="1.98085">
        <ele>114.05</ele>
        <time>2019-11-30T13:40:33Z</time>
      </trkpt>
      <trkpt lat="48.68261" lon="1.98089">
        <ele>114.05</ele>
        <time>2019-11-30T13:40:47Z</time>
      </trkpt>
      <trkpt lat="48.68253" lon="1.9809">
        <ele>114.05</ele>
        <time>2019-11-30T13:41:00Z</time>
      </trkpt>
      <trkpt lat="48.68243" lon="1.98084">
        <ele>113.57</ele>
        <time>2019-11-30T13:41:10Z</time>
      </trkpt>
      <trkpt lat="48.68239" lon="1.98081">
        <ele>113.57</ele>
        <time>2019-11-30T13:41:14Z</time>
      </trkpt>
      <trkpt lat="48.68238" lon="1.9808">
        <ele>113.57</ele>
        <time>2019-11-30T13:41:15Z</time>
      </trkpt>
      <trkpt lat="48.68225" lon="1.98066">
        <ele>113.57</ele>
        <time>2019-11-30T13:41:31Z</time>
      </trkpt>
      <trkpt lat="48.68205" lon="1.98049">
        <ele>114.53</ele>
        <time>2019-11-30T13:41:46Z</time>
      </trkpt>
      <trkpt lat="48.68199" lon="1.98035">
        <ele>115.01</ele>
        <time>2019-11-30T13:41:55Z</time>
      </trkpt>
      <trkpt lat="48.68199" lon="1.98033">
        <ele>114.53</ele>
        <time>2019-11-30T13:41:56Z</time>
      </trkpt>
      <trkpt lat="48.68207" lon="1.98018">
        <ele>114.05</ele>
        <time>2019-11-30T13:42:05Z</time>
      </trkpt>
      <trkpt lat="48.68208" lon="1.9801">
        <ele>114.53</ele>
        <time>2019-11-30T13:42:10Z</time>
      </trkpt>
      <trkpt lat="48.68209" lon="1.98007">
        <ele>114.05</ele>
        <time>2019-11-30T13:42:11Z</time>
      </trkpt>
      <trkpt lat="48.6821" lon="1.97999">
        <ele>113.09</ele>
        <time>2019-11-30T13:42:15Z</time>
      </trkpt>
      <trkpt lat="48.68212" lon="1.97988">
        <ele>113.57</ele>
        <time>2019-11-30T13:42:23Z</time>
      </trkpt>
      <trkpt lat="48.68217" lon="1.97975">
        <ele>113.57</ele>
        <time>2019-11-30T13:42:34Z</time>
      </trkpt>
      <trkpt lat="48.68219" lon="1.97974">
        <ele>113.57</ele>
        <time>2019-11-30T13:42:35Z</time>
      </trkpt>
      <trkpt lat="48.68228" lon="1.97963">
        <ele>113.09</ele>
        <time>2019-11-30T13:42:46Z</time>
      </trkpt>
      <trkpt lat="48.6824" lon="1.97948">
        <ele>113.09</ele>
        <time>2019-11-30T13:42:57Z</time>
      </trkpt>
      <trkpt lat="48.68242" lon="1.97941">
        <ele>113.57</ele>
        <time>2019-11-30T13:43:02Z</time>
      </trkpt>
      <trkpt lat="48.68243" lon="1.97941">
        <ele>113.09</ele>
        <time>2019-11-30T13:43:03Z</time>
      </trkpt>
      <trkpt lat="48.6825" lon="1.97932">
        <ele>113.09</ele>
        <time>2019-11-30T13:43:12Z</time>
      </trkpt>
      <trkpt lat="48.68253" lon="1.97925">
        <ele>113.57</ele>
        <time>2019-11-30T13:43:17Z</time>
      </trkpt>
      <trkpt lat="48.68254" lon="1.97914">
        <ele>114.05</ele>
        <time>2019-11-30T13:43:25Z</time>
      </trkpt>
      <trkpt lat="48.68249" lon="1.97901">
        <ele>114.05</ele>
        <time>2019-11-30T13:43:36Z</time>
      </trkpt>
      <trkpt lat="48.6825" lon="1.97886">
        <ele>113.57</ele>
        <time>2019-11-30T13:43:44Z</time>
      </trkpt>
      <trkpt lat="48.68253" lon="1.97881">
        <ele>113.57</ele>
        <time>2019-11-30T13:43:48Z</time>
      </trkpt>
      <trkpt lat="48.6826" lon="1.97859">
        <ele>114.05</ele>
        <time>2019-11-30T13:44:02Z</time>
      </trkpt>
      <trkpt lat="48.68263" lon="1.97847">
        <ele>114.05</ele>
        <time>2019-11-30T13:44:09Z</time>
      </trkpt>
      <trkpt lat="48.68255" lon="1.97835">
        <ele>113.57</ele>
        <time>2019-11-30T13:44:16Z</time>
      </trkpt>
      <trkpt lat="48.68247" lon="1.97812">
        <ele>114.53</ele>
        <time>2019-11-30T13:44:28Z</time>
      </trkpt>
      <trkpt lat="48.68246" lon="1.97797">
        <ele>114.05</ele>
        <time>2019-11-30T13:44:34Z</time>
      </trkpt>
      <trkpt lat="48.68245" lon="1.97789">
        <ele>113.57</ele>
        <time>2019-11-30T13:44:39Z</time>
      </trkpt>
      <trkpt lat="48.68245" lon="1.97778">
        <ele>113.09</ele>
        <time>2019-11-30T13:44:50Z</time>
      </trkpt>
      <trkpt lat="48.68245" lon="1.97776">
        <ele>113.09</ele>
        <time>2019-11-30T13:44:58Z</time>
      </trkpt>
      <trkpt lat="48.68251" lon="1.97771">
        <ele>112.61</ele>
        <time>2019-11-30T13:45:03Z</time>
      </trkpt>
      <trkpt lat="48.68255" lon="1.9776">
        <ele>112.13</ele>
        <time>2019-11-30T13:45:14Z</time>
      </trkpt>
      <trkpt lat="48.68255" lon="1.97755">
        <ele>111.65</ele>
        <time>2019-11-30T13:45:17Z</time>
      </trkpt>
      <trkpt lat="48.68258" lon="1.97737">
        <ele>111.65</ele>
        <time>2019-11-30T13:45:27Z</time>
      </trkpt>
      <trkpt lat="48.68258" lon="1.97726">
        <ele>112.13</ele>
        <time>2019-11-30T13:45:39Z</time>
      </trkpt>
      <trkpt lat="48.6826" lon="1.9771">
        <ele>112.61</ele>
        <time>2019-11-30T13:45:48Z</time>
      </trkpt>
      <trkpt lat="48.68259" lon="1.97689">
        <ele>113.09</ele>
        <time>2019-11-30T13:46:00Z</time>
      </trkpt>
      <trkpt lat="48.68252" lon="1.97668">
        <ele>113.57</ele>
        <time>2019-11-30T13:46:12Z</time>
      </trkpt>
      <trkpt lat="48.68252" lon="1.97658">
        <ele>112.61</ele>
        <time>2019-11-30T13:46:18Z</time>
      </trkpt>
      <trkpt lat="48.68248" lon="1.97636">
        <ele>111.65</ele>
        <time>2019-11-30T13:46:30Z</time>
      </trkpt>
      <trkpt lat="48.68246" lon="1.97633">
        <ele>111.65</ele>
        <time>2019-11-30T13:46:33Z</time>
      </trkpt>
      <trkpt lat="48.68247" lon="1.97625">
        <ele>111.17</ele>
        <time>2019-11-30T13:46:38Z</time>
      </trkpt>
      <trkpt lat="48.68249" lon="1.97609">
        <ele>109.73</ele>
        <time>2019-11-30T13:46:50Z</time>
      </trkpt>
      <trkpt lat="48.68248" lon="1.97602">
        <ele>108.77</ele>
        <time>2019-11-30T13:46:54Z</time>
      </trkpt>
      <trkpt lat="48.68237" lon="1.976">
        <ele>109.73</ele>
        <time>2019-11-30T13:47:06Z</time>
      </trkpt>
      <trkpt lat="48.68236" lon="1.97596">
        <ele>109.73</ele>
        <time>2019-11-30T13:47:10Z</time>
      </trkpt>
      <trkpt lat="48.68228" lon="1.97588">
        <ele>109.25</ele>
        <time>2019-11-30T13:47:17Z</time>
      </trkpt>
      <trkpt lat="48.68221" lon="1.97594">
        <ele>109.73</ele>
        <time>2019-11-30T13:47:27Z</time>
      </trkpt>
      <trkpt lat="48.68213" lon="1.97597">
        <ele>111.17</ele>
        <time>2019-11-30T13:47:39Z</time>
      </trkpt>
      <trkpt lat="48.68198" lon="1.976">
        <ele>112.13</ele>
        <time>2019-11-30T13:47:51Z</time>
      </trkpt>
      <trkpt lat="48.68197" lon="1.97601">
        <ele>112.61</ele>
        <time>2019-11-30T13:47:52Z</time>
      </trkpt>
      <trkpt lat="48.68185" lon="1.97616">
        <ele>113.57</ele>
        <time>2019-11-30T13:48:07Z</time>
      </trkpt>
      <trkpt lat="48.68164" lon="1.97613">
        <ele>114.53</ele>
        <time>2019-11-30T13:48:22Z</time>
      </trkpt>
      <trkpt lat="48.68155" lon="1.97625">
        <ele>115.98</ele>
        <time>2019-11-30T13:48:35Z</time>
      </trkpt>
      <trkpt lat="48.68146" lon="1.97632">
        <ele>116.94</ele>
        <time>2019-11-30T13:48:47Z</time>
      </trkpt>
      <trkpt lat="48.68138" lon="1.97636">
        <ele>118.86</ele>
        <time>2019-11-30T13:48:59Z</time>
      </trkpt>
      <trkpt lat="48.68133" lon="1.97631">
        <ele>118.86</ele>
        <time>2019-11-30T13:49:07Z</time>
      </trkpt>
      <trkpt lat="48.68138" lon="1.9762">
        <ele>117.9</ele>
        <time>2019-11-30T13:49:11Z</time>
      </trkpt>
      <trkpt lat="48.68141" lon="1.97608">
        <ele>116.46</ele>
        <time>2019-11-30T13:49:19Z</time>
      </trkpt>
      <trkpt lat="48.68143" lon="1.97597">
        <ele>115.01</ele>
        <time>2019-11-30T13:49:29Z</time>
      </trkpt>
      <trkpt lat="48.68143" lon="1.97596">
        <ele>115.5</ele>
        <time>2019-11-30T13:49:30Z</time>
      </trkpt>
      <trkpt lat="48.68143" lon="1.97585">
        <ele>114.53</ele>
        <time>2019-11-30T13:49:39Z</time>
      </trkpt>
      <trkpt lat="48.68143" lon="1.97567">
        <ele>113.57</ele>
        <time>2019-11-30T13:49:50Z</time>
      </trkpt>
      <trkpt lat="48.68142" lon="1.97562">
        <ele>113.09</ele>
        <time>2019-11-30T13:49:53Z</time>
      </trkpt>
      <trkpt lat="48.68147" lon="1.97534">
        <ele>112.61</ele>
        <time>2019-11-30T13:50:08Z</time>
      </trkpt>
      <trkpt lat="48.68149" lon="1.97529">
        <ele>112.13</ele>
        <time>2019-11-30T13:50:12Z</time>
      </trkpt>
      <trkpt lat="48.68156" lon="1.97503">
        <ele>111.65</ele>
        <time>2019-11-30T13:50:24Z</time>
      </trkpt>
      <trkpt lat="48.68157" lon="1.97499">
        <ele>111.17</ele>
        <time>2019-11-30T13:50:27Z</time>
      </trkpt>
      <trkpt lat="48.68157" lon="1.97484">
        <ele>111.65</ele>
        <time>2019-11-30T13:50:38Z</time>
      </trkpt>
      <trkpt lat="48.68154" lon="1.97465">
        <ele>111.17</ele>
        <time>2019-11-30T13:50:51Z</time>
      </trkpt>
      <trkpt lat="48.68156" lon="1.97455">
        <ele>111.65</ele>
        <time>2019-11-30T13:51:00Z</time>
      </trkpt>
      <trkpt lat="48.68169" lon="1.97436">
        <ele>111.65</ele>
        <time>2019-11-30T13:51:11Z</time>
      </trkpt>
      <trkpt lat="48.6817" lon="1.97428">
        <ele>111.65</ele>
        <time>2019-11-30T13:51:15Z</time>
      </trkpt>
      <trkpt lat="48.68173" lon="1.97411">
        <ele>111.17</ele>
        <time>2019-11-30T13:51:24Z</time>
      </trkpt>
      <trkpt lat="48.68178" lon="1.97388">
        <ele>110.69</ele>
        <time>2019-11-30T13:51:37Z</time>
      </trkpt>
      <trkpt lat="48.68179" lon="1.97378">
        <ele>109.25</ele>
        <time>2019-11-30T13:51:41Z</time>
      </trkpt>
      <trkpt lat="48.68168" lon="1.97373">
        <ele>110.69</ele>
        <time>2019-11-30T13:51:55Z</time>
      </trkpt>
      <trkpt lat="48.68164" lon="1.97369">
        <ele>110.69</ele>
        <time>2019-11-30T13:52:00Z</time>
      </trkpt>
      <trkpt lat="48.68164" lon="1.97368">
        <ele>110.69</ele>
        <time>2019-11-30T13:52:01Z</time>
      </trkpt>
      <trkpt lat="48.68158" lon="1.97357">
        <ele>110.21</ele>
        <time>2019-11-30T13:52:13Z</time>
      </trkpt>
      <trkpt lat="48.68155" lon="1.97355">
        <ele>110.21</ele>
        <time>2019-11-30T13:52:15Z</time>
      </trkpt>
      <trkpt lat="48.68151" lon="1.97351">
        <ele>109.25</ele>
        <time>2019-11-30T13:52:21Z</time>
      </trkpt>
      <trkpt lat="48.6814" lon="1.97341">
        <ele>109.73</ele>
        <time>2019-11-30T13:52:32Z</time>
      </trkpt>
      <trkpt lat="48.68131" lon="1.97323">
        <ele>110.69</ele>
        <time>2019-11-30T13:52:44Z</time>
      </trkpt>
      <trkpt lat="48.68129" lon="1.97317">
        <ele>110.69</ele>
        <time>2019-11-30T13:52:48Z</time>
      </trkpt>
      <trkpt lat="48.68128" lon="1.97315">
        <ele>110.21</ele>
        <time>2019-11-30T13:52:49Z</time>
      </trkpt>
      <trkpt lat="48.68126" lon="1.97313">
        <ele>110.69</ele>
        <time>2019-11-30T13:52:50Z</time>
      </trkpt>
      <trkpt lat="48.68123" lon="1.97303">
        <ele>110.69</ele>
        <time>2019-11-30T13:52:55Z</time>
      </trkpt>
      <trkpt lat="48.68123" lon="1.973">
        <ele>110.69</ele>
        <time>2019-11-30T13:52:56Z</time>
      </trkpt>
      <trkpt lat="48.68123" lon="1.97296">
        <ele>111.17</ele>
        <time>2019-11-30T13:52:58Z</time>
      </trkpt>
      <trkpt lat="48.68125" lon="1.97288">
        <ele>111.17</ele>
        <time>2019-11-30T13:53:04Z</time>
      </trkpt>
      <trkpt lat="48.68125" lon="1.97283">
        <ele>111.17</ele>
        <time>2019-11-30T13:53:14Z</time>
      </trkpt>
      <trkpt lat="48.68125" lon="1.97277">
        <ele>111.65</ele>
        <time>2019-11-30T13:53:20Z</time>
      </trkpt>
      <trkpt lat="48.68124" lon="1.97276">
        <ele>111.65</ele>
        <time>2019-11-30T13:53:21Z</time>
      </trkpt>
      <trkpt lat="48.68122" lon="1.97272">
        <ele>112.13</ele>
        <time>2019-11-30T13:53:26Z</time>
      </trkpt>
      <trkpt lat="48.68122" lon="1.97269">
        <ele>111.65</ele>
        <time>2019-11-30T13:53:27Z</time>
      </trkpt>
      <trkpt lat="48.68122" lon="1.97266">
        <ele>110.69</ele>
        <time>2019-11-30T13:53:28Z</time>
      </trkpt>
      <trkpt lat="48.68122" lon="1.97263">
        <ele>111.17</ele>
        <time>2019-11-30T13:53:29Z</time>
      </trkpt>
      <trkpt lat="48.68121" lon="1.9726">
        <ele>111.17</ele>
        <time>2019-11-30T13:53:30Z</time>
      </trkpt>
      <trkpt lat="48.6812" lon="1.97258">
        <ele>111.17</ele>
        <time>2019-11-30T13:53:31Z</time>
      </trkpt>
      <trkpt lat="48.68118" lon="1.97255">
        <ele>110.69</ele>
        <time>2019-11-30T13:53:32Z</time>
      </trkpt>
      <trkpt lat="48.68117" lon="1.97253">
        <ele>111.17</ele>
        <time>2019-11-30T13:53:33Z</time>
      </trkpt>
      <trkpt lat="48.68117" lon="1.97251">
        <ele>111.17</ele>
        <time>2019-11-30T13:53:34Z</time>
      </trkpt>
      <trkpt lat="48.68117" lon="1.97249">
        <ele>111.17</ele>
        <time>2019-11-30T13:53:35Z</time>
      </trkpt>
      <trkpt lat="48.68118" lon="1.97247">
        <ele>111.17</ele>
        <time>2019-11-30T13:53:36Z</time>
      </trkpt>
      <trkpt lat="48.68118" lon="1.97242">
        <ele>110.69</ele>
        <time>2019-11-30T13:53:45Z</time>
      </trkpt>
      <trkpt lat="48.68119" lon="1.9724">
        <ele>110.69</ele>
        <time>2019-11-30T13:53:46Z</time>
      </trkpt>
      <trkpt lat="48.68118" lon="1.97236">
        <ele>110.69</ele>
        <time>2019-11-30T13:53:49Z</time>
      </trkpt>
      <trkpt lat="48.68118" lon="1.97224">
        <ele>110.69</ele>
        <time>2019-11-30T13:53:56Z</time>
      </trkpt>
      <trkpt lat="48.68118" lon="1.97222">
        <ele>110.69</ele>
        <time>2019-11-30T13:53:57Z</time>
      </trkpt>
      <trkpt lat="48.68118" lon="1.97219">
        <ele>110.69</ele>
        <time>2019-11-30T13:53:58Z</time>
      </trkpt>
      <trkpt lat="48.68118" lon="1.97217">
        <ele>110.69</ele>
        <time>2019-11-30T13:53:59Z</time>
      </trkpt>
      <trkpt lat="48.68118" lon="1.97215">
        <ele>110.69</ele>
        <time>2019-11-30T13:54:00Z</time>
      </trkpt>
      <trkpt lat="48.68121" lon="1.97197">
        <ele>110.69</ele>
        <time>2019-11-30T13:54:09Z</time>
      </trkpt>
      <trkpt lat="48.68122" lon="1.97194">
        <ele>110.21</ele>
        <time>2019-11-30T13:54:10Z</time>
      </trkpt>
      <trkpt lat="48.68123" lon="1.97191">
        <ele>111.17</ele>
        <time>2019-11-30T13:54:11Z</time>
      </trkpt>
      <trkpt lat="48.68122" lon="1.97184">
        <ele>110.69</ele>
        <time>2019-11-30T13:54:16Z</time>
      </trkpt>
      <trkpt lat="48.68123" lon="1.97182">
        <ele>110.69</ele>
        <time>2019-11-30T13:54:17Z</time>
      </trkpt>
      <trkpt lat="48.68124" lon="1.97169">
        <ele>110.69</ele>
        <time>2019-11-30T13:54:30Z</time>
      </trkpt>
      <trkpt lat="48.68121" lon="1.97162">
        <ele>110.69</ele>
        <time>2019-11-30T13:54:37Z</time>
      </trkpt>
      <trkpt lat="48.68122" lon="1.97157">
        <ele>111.17</ele>
        <time>2019-11-30T13:54:44Z</time>
      </trkpt>
      <trkpt lat="48.68122" lon="1.97154">
        <ele>110.69</ele>
        <time>2019-11-30T13:54:45Z</time>
      </trkpt>
      <trkpt lat="48.68124" lon="1.97147">
        <ele>110.69</ele>
        <time>2019-11-30T13:54:49Z</time>
      </trkpt>
      <trkpt lat="48.68127" lon="1.9713">
        <ele>110.69</ele>
        <time>2019-11-30T13:55:00Z</time>
      </trkpt>
      <trkpt lat="48.68127" lon="1.97128">
        <ele>111.17</ele>
        <time>2019-11-30T13:55:01Z</time>
      </trkpt>
      <trkpt lat="48.68129" lon="1.97125">
        <ele>110.69</ele>
        <time>2019-11-30T13:55:03Z</time>
      </trkpt>
      <trkpt lat="48.68135" lon="1.97113">
        <ele>110.21</ele>
        <time>2019-11-30T13:55:12Z</time>
      </trkpt>
      <trkpt lat="48.68136" lon="1.97112">
        <ele>110.21</ele>
        <time>2019-11-30T13:55:13Z</time>
      </trkpt>
      <trkpt lat="48.68139" lon="1.97103">
        <ele>110.69</ele>
        <time>2019-11-30T13:55:19Z</time>
      </trkpt>
      <trkpt lat="48.68139" lon="1.97081">
        <ele>111.17</ele>
        <time>2019-11-30T13:55:29Z</time>
      </trkpt>
      <trkpt lat="48.68145" lon="1.97063">
        <ele>111.17</ele>
        <time>2019-11-30T13:55:38Z</time>
      </trkpt>
      <trkpt lat="48.68145" lon="1.9706">
        <ele>111.17</ele>
        <time>2019-11-30T13:55:39Z</time>
      </trkpt>
      <trkpt lat="48.68144" lon="1.97058">
        <ele>110.69</ele>
        <time>2019-11-30T13:55:40Z</time>
      </trkpt>
      <trkpt lat="48.68143" lon="1.97056">
        <ele>110.69</ele>
        <time>2019-11-30T13:55:41Z</time>
      </trkpt>
      <trkpt lat="48.68141" lon="1.97052">
        <ele>110.21</ele>
        <time>2019-11-30T13:55:50Z</time>
      </trkpt>
      <trkpt lat="48.68142" lon="1.97038">
        <ele>110.21</ele>
        <time>2019-11-30T13:56:02Z</time>
      </trkpt>
      <trkpt lat="48.68143" lon="1.97032">
        <ele>110.21</ele>
        <time>2019-11-30T13:56:10Z</time>
      </trkpt>
      <trkpt lat="48.68139" lon="1.97026">
        <ele>110.21</ele>
        <time>2019-11-30T13:56:15Z</time>
      </trkpt>
      <trkpt lat="48.68139" lon="1.97022">
        <ele>110.21</ele>
        <time>2019-11-30T13:56:19Z</time>
      </trkpt>
      <trkpt lat="48.68139" lon="1.9702">
        <ele>109.73</ele>
        <time>2019-11-30T13:56:20Z</time>
      </trkpt>
      <trkpt lat="48.68137" lon="1.97011">
        <ele>110.21</ele>
        <time>2019-11-30T13:56:30Z</time>
      </trkpt>
      <trkpt lat="48.68138" lon="1.97009">
        <ele>110.69</ele>
        <time>2019-11-30T13:56:31Z</time>
      </trkpt>
      <trkpt lat="48.68139" lon="1.97007">
        <ele>111.17</ele>
        <time>2019-11-30T13:56:32Z</time>
      </trkpt>
      <trkpt lat="48.68145" lon="1.96994">
        <ele>110.21</ele>
        <time>2019-11-30T13:56:42Z</time>
      </trkpt>
      <trkpt lat="48.68143" lon="1.96983">
        <ele>111.17</ele>
        <time>2019-11-30T13:56:57Z</time>
      </trkpt>
      <trkpt lat="48.68135" lon="1.96972">
        <ele>112.13</ele>
        <time>2019-11-30T13:57:10Z</time>
      </trkpt>
      <trkpt lat="48.68121" lon="1.96973">
        <ele>112.13</ele>
        <time>2019-11-30T13:57:22Z</time>
      </trkpt>
      <trkpt lat="48.6811" lon="1.96974">
        <ele>113.57</ele>
        <time>2019-11-30T13:57:31Z</time>
      </trkpt>
      <trkpt lat="48.68102" lon="1.96978">
        <ele>114.53</ele>
        <time>2019-11-30T13:57:37Z</time>
      </trkpt>
      <trkpt lat="48.68096" lon="1.96985">
        <ele>115.98</ele>
        <time>2019-11-30T13:57:45Z</time>
      </trkpt>
      <trkpt lat="48.6809" lon="1.96986">
        <ele>116.46</ele>
        <time>2019-11-30T13:57:54Z</time>
      </trkpt>
      <trkpt lat="48.68088" lon="1.96987">
        <ele>116.46</ele>
        <time>2019-11-30T13:57:55Z</time>
      </trkpt>
      <trkpt lat="48.68087" lon="1.96987">
        <ele>116.94</ele>
        <time>2019-11-30T13:57:56Z</time>
      </trkpt>
      <trkpt lat="48.68081" lon="1.96991">
        <ele>118.86</ele>
        <time>2019-11-30T13:58:07Z</time>
      </trkpt>
      <trkpt lat="48.68075" lon="1.96993">
        <ele>119.82</ele>
        <time>2019-11-30T13:58:16Z</time>
      </trkpt>
      <trkpt lat="48.68064" lon="1.96996">
        <ele>121.26</ele>
        <time>2019-11-30T13:58:28Z</time>
      </trkpt>
      <trkpt lat="48.68062" lon="1.96997">
        <ele>121.26</ele>
        <time>2019-11-30T13:58:30Z</time>
      </trkpt>
      <trkpt lat="48.68053" lon="1.97007">
        <ele>123.67</ele>
        <time>2019-11-30T13:58:44Z</time>
      </trkpt>
      <trkpt lat="48.68042" lon="1.97016">
        <ele>124.63</ele>
        <time>2019-11-30T13:58:55Z</time>
      </trkpt>
      <trkpt lat="48.68039" lon="1.97016">
        <ele>124.63</ele>
        <time>2019-11-30T13:58:57Z</time>
      </trkpt>
      <trkpt lat="48.68032" lon="1.9702">
        <ele>126.07</ele>
        <time>2019-11-30T13:59:03Z</time>
      </trkpt>
      <trkpt lat="48.68022" lon="1.97027">
        <ele>126.55</ele>
        <time>2019-11-30T13:59:10Z</time>
      </trkpt>
      <trkpt lat="48.6802" lon="1.97027">
        <ele>126.55</ele>
        <time>2019-11-30T13:59:11Z</time>
      </trkpt>
      <trkpt lat="48.6801" lon="1.97021">
        <ele>127.51</ele>
        <time>2019-11-30T13:59:20Z</time>
      </trkpt>
      <trkpt lat="48.68009" lon="1.97021">
        <ele>127.03</ele>
        <time>2019-11-30T13:59:31Z</time>
      </trkpt>
      <trkpt lat="48.68008" lon="1.9702">
        <ele>127.03</ele>
        <time>2019-11-30T13:59:32Z</time>
      </trkpt>
      <trkpt lat="48.68007" lon="1.97019">
        <ele>126.55</ele>
        <time>2019-11-30T13:59:33Z</time>
      </trkpt>
      <trkpt lat="48.68005" lon="1.97017">
        <ele>126.55</ele>
        <time>2019-11-30T13:59:34Z</time>
      </trkpt>
      <trkpt lat="48.68004" lon="1.97015">
        <ele>126.07</ele>
        <time>2019-11-30T13:59:35Z</time>
      </trkpt>
      <trkpt lat="48.68003" lon="1.97013">
        <ele>126.55</ele>
        <time>2019-11-30T13:59:38Z</time>
      </trkpt>
      <trkpt lat="48.68002" lon="1.97012">
        <ele>126.55</ele>
        <time>2019-11-30T13:59:39Z</time>
      </trkpt>
      <trkpt lat="48.68001" lon="1.97011">
        <ele>126.07</ele>
        <time>2019-11-30T13:59:40Z</time>
      </trkpt>
      <trkpt lat="48.68001" lon="1.97006">
        <ele>125.59</ele>
        <time>2019-11-30T13:59:46Z</time>
      </trkpt>
      <trkpt lat="48.67997" lon="1.97006">
        <ele>126.55</ele>
        <time>2019-11-30T13:59:55Z</time>
      </trkpt>
      <trkpt lat="48.67995" lon="1.97016">
        <ele>126.07</ele>
        <time>2019-11-30T14:00:20Z</time>
      </trkpt>
      <trkpt lat="48.67995" lon="1.97007">
        <ele>126.07</ele>
        <time>2019-11-30T14:00:46Z</time>
      </trkpt>
      <trkpt lat="48.68001" lon="1.97002">
        <ele>126.55</ele>
        <time>2019-11-30T14:01:07Z</time>
      </trkpt>
      <trkpt lat="48.67995" lon="1.96998">
        <ele>126.55</ele>
        <time>2019-11-30T14:01:31Z</time>
      </trkpt>
      <trkpt lat="48.67997" lon="1.96992">
        <ele>127.03</ele>
        <time>2019-11-30T14:01:41Z</time>
      </trkpt>
      <trkpt lat="48.67997" lon="1.9699">
        <ele>126.55</ele>
        <time>2019-11-30T14:01:42Z</time>
      </trkpt>
      <trkpt lat="48.67998" lon="1.96987">
        <ele>127.03</ele>
        <time>2019-11-30T14:01:45Z</time>
      </trkpt>
      <trkpt lat="48.67997" lon="1.96984">
        <ele>127.03</ele>
        <time>2019-11-30T14:01:47Z</time>
      </trkpt>
      <trkpt lat="48.67997" lon="1.96983">
        <ele>127.03</ele>
        <time>2019-11-30T14:01:48Z</time>
      </trkpt>
      <trkpt lat="48.67996" lon="1.96982">
        <ele>127.03</ele>
        <time>2019-11-30T14:01:49Z</time>
      </trkpt>
      <trkpt lat="48.67997" lon="1.96967">
        <ele>126.55</ele>
        <time>2019-11-30T14:01:59Z</time>
      </trkpt>
      <trkpt lat="48.67996" lon="1.96964">
        <ele>126.07</ele>
        <time>2019-11-30T14:02:00Z</time>
      </trkpt>
      <trkpt lat="48.67996" lon="1.96962">
        <ele>126.07</ele>
        <time>2019-11-30T14:02:01Z</time>
      </trkpt>
      <trkpt lat="48.67995" lon="1.9696">
        <ele>126.07</ele>
        <time>2019-11-30T14:02:02Z</time>
      </trkpt>
      <trkpt lat="48.67995" lon="1.96958">
        <ele>125.59</ele>
        <time>2019-11-30T14:02:03Z</time>
      </trkpt>
      <trkpt lat="48.67994" lon="1.96956">
        <ele>126.55</ele>
        <time>2019-11-30T14:02:04Z</time>
      </trkpt>
      <trkpt lat="48.67994" lon="1.96954">
        <ele>126.07</ele>
        <time>2019-11-30T14:02:05Z</time>
      </trkpt>
      <trkpt lat="48.67993" lon="1.96944">
        <ele>125.59</ele>
        <time>2019-11-30T14:02:14Z</time>
      </trkpt>
      <trkpt lat="48.67993" lon="1.96942">
        <ele>125.59</ele>
        <time>2019-11-30T14:02:15Z</time>
      </trkpt>
      <trkpt lat="48.67988" lon="1.96921">
        <ele>124.63</ele>
        <time>2019-11-30T14:02:26Z</time>
      </trkpt>
      <trkpt lat="48.67984" lon="1.96899">
        <ele>123.67</ele>
        <time>2019-11-30T14:02:36Z</time>
      </trkpt>
      <trkpt lat="48.67977" lon="1.96881">
        <ele>123.67</ele>
        <time>2019-11-30T14:02:43Z</time>
      </trkpt>
      <trkpt lat="48.67981" lon="1.96869">
        <ele>122.71</ele>
        <time>2019-11-30T14:02:51Z</time>
      </trkpt>
      <trkpt lat="48.67981" lon="1.96862">
        <ele>123.67</ele>
        <time>2019-11-30T14:02:54Z</time>
      </trkpt>
      <trkpt lat="48.67981" lon="1.96859">
        <ele>123.19</ele>
        <time>2019-11-30T14:02:55Z</time>
      </trkpt>
      <trkpt lat="48.67981" lon="1.96856">
        <ele>123.19</ele>
        <time>2019-11-30T14:02:56Z</time>
      </trkpt>
      <trkpt lat="48.67979" lon="1.96838">
        <ele>122.22</ele>
        <time>2019-11-30T14:03:07Z</time>
      </trkpt>
      <trkpt lat="48.67974" lon="1.96823">
        <ele>121.26</ele>
        <time>2019-11-30T14:03:18Z</time>
      </trkpt>
      <trkpt lat="48.67971" lon="1.96817">
        <ele>121.26</ele>
        <time>2019-11-30T14:03:22Z</time>
      </trkpt>
      <trkpt lat="48.67955" lon="1.96804">
        <ele>120.3</ele>
        <time>2019-11-30T14:03:32Z</time>
      </trkpt>
      <trkpt lat="48.67943" lon="1.96793">
        <ele>119.34</ele>
        <time>2019-11-30T14:03:43Z</time>
      </trkpt>
      <trkpt lat="48.6794" lon="1.96786">
        <ele>119.34</ele>
        <time>2019-11-30T14:03:51Z</time>
      </trkpt>
      <trkpt lat="48.67939" lon="1.96785">
        <ele>119.34</ele>
        <time>2019-11-30T14:03:52Z</time>
      </trkpt>
      <trkpt lat="48.67938" lon="1.96784">
        <ele>119.34</ele>
        <time>2019-11-30T14:03:53Z</time>
      </trkpt>
      <trkpt lat="48.67937" lon="1.96781">
        <ele>119.34</ele>
        <time>2019-11-30T14:03:55Z</time>
      </trkpt>
      <trkpt lat="48.67934" lon="1.96774">
        <ele>119.34</ele>
        <time>2019-11-30T14:04:01Z</time>
      </trkpt>
      <trkpt lat="48.67933" lon="1.96772">
        <ele>119.34</ele>
        <time>2019-11-30T14:04:02Z</time>
      </trkpt>
      <trkpt lat="48.67928" lon="1.96761">
        <ele>119.82</ele>
        <time>2019-11-30T14:04:10Z</time>
      </trkpt>
      <trkpt lat="48.67927" lon="1.96757">
        <ele>119.34</ele>
        <time>2019-11-30T14:04:12Z</time>
      </trkpt>
      <trkpt lat="48.67929" lon="1.9674">
        <ele>119.34</ele>
        <time>2019-11-30T14:04:24Z</time>
      </trkpt>
      <trkpt lat="48.67927" lon="1.96735">
        <ele>119.34</ele>
        <time>2019-11-30T14:04:26Z</time>
      </trkpt>
      <trkpt lat="48.67926" lon="1.96731">
        <ele>119.34</ele>
        <time>2019-11-30T14:04:27Z</time>
      </trkpt>
      <trkpt lat="48.67927" lon="1.96723">
        <ele>119.34</ele>
        <time>2019-11-30T14:04:29Z</time>
      </trkpt>
      <trkpt lat="48.67928" lon="1.96714">
        <ele>119.82</ele>
        <time>2019-11-30T14:04:32Z</time>
      </trkpt>
      <trkpt lat="48.67927" lon="1.96711">
        <ele>119.82</ele>
        <time>2019-11-30T14:04:34Z</time>
      </trkpt>
      <trkpt lat="48.67928" lon="1.96706">
        <ele>119.82</ele>
        <time>2019-11-30T14:04:37Z</time>
      </trkpt>
      <trkpt lat="48.67925" lon="1.96699">
        <ele>119.34</ele>
        <time>2019-11-30T14:04:42Z</time>
      </trkpt>
      <trkpt lat="48.67925" lon="1.96688">
        <ele>119.82</ele>
        <time>2019-11-30T14:04:48Z</time>
      </trkpt>
      <trkpt lat="48.67926" lon="1.96687">
        <ele>120.3</ele>
        <time>2019-11-30T14:04:49Z</time>
      </trkpt>
      <trkpt lat="48.67929" lon="1.96665">
        <ele>120.3</ele>
        <time>2019-11-30T14:04:59Z</time>
      </trkpt>
      <trkpt lat="48.67931" lon="1.96663">
        <ele>119.82</ele>
        <time>2019-11-30T14:05:00Z</time>
      </trkpt>
      <trkpt lat="48.67927" lon="1.96652">
        <ele>120.78</ele>
        <time>2019-11-30T14:05:08Z</time>
      </trkpt>
      <trkpt lat="48.67925" lon="1.96649">
        <ele>120.78</ele>
        <time>2019-11-30T14:05:09Z</time>
      </trkpt>
      <trkpt lat="48.67923" lon="1.96647">
        <ele>121.26</ele>
        <time>2019-11-30T14:05:10Z</time>
      </trkpt>
      <trkpt lat="48.67919" lon="1.96639">
        <ele>121.26</ele>
        <time>2019-11-30T14:05:17Z</time>
      </trkpt>
      <trkpt lat="48.67919" lon="1.96615">
        <ele>122.71</ele>
        <time>2019-11-30T14:05:31Z</time>
      </trkpt>
      <trkpt lat="48.67919" lon="1.96612">
        <ele>122.22</ele>
        <time>2019-11-30T14:05:43Z</time>
      </trkpt>
      <trkpt lat="48.67929" lon="1.96612">
        <ele>121.26</ele>
        <time>2019-11-30T14:05:50Z</time>
      </trkpt>
      <trkpt lat="48.6793" lon="1.96612">
        <ele>121.74</ele>
        <time>2019-11-30T14:05:51Z</time>
      </trkpt>
      <trkpt lat="48.67932" lon="1.96612">
        <ele>121.26</ele>
        <time>2019-11-30T14:05:52Z</time>
      </trkpt>
      <trkpt lat="48.67945" lon="1.96608">
        <ele>120.3</ele>
        <time>2019-11-30T14:06:03Z</time>
      </trkpt>
      <trkpt lat="48.6795" lon="1.96608">
        <ele>119.82</ele>
        <time>2019-11-30T14:06:13Z</time>
      </trkpt>
      <trkpt lat="48.6795" lon="1.96609">
        <ele>119.34</ele>
        <time>2019-11-30T14:06:14Z</time>
      </trkpt>
      <trkpt lat="48.67951" lon="1.96608">
        <ele>119.82</ele>
        <time>2019-11-30T14:06:15Z</time>
      </trkpt>
      <trkpt lat="48.67956" lon="1.96609">
        <ele>119.82</ele>
        <time>2019-11-30T14:06:22Z</time>
      </trkpt>
      <trkpt lat="48.67958" lon="1.9661">
        <ele>119.82</ele>
        <time>2019-11-30T14:06:23Z</time>
      </trkpt>
      <trkpt lat="48.67961" lon="1.9661">
        <ele>119.82</ele>
        <time>2019-11-30T14:06:24Z</time>
      </trkpt>
      <trkpt lat="48.67965" lon="1.9661">
        <ele>120.3</ele>
        <time>2019-11-30T14:06:27Z</time>
      </trkpt>
      <trkpt lat="48.67967" lon="1.96609">
        <ele>119.34</ele>
        <time>2019-11-30T14:06:28Z</time>
      </trkpt>
      <trkpt lat="48.67969" lon="1.96607">
        <ele>119.34</ele>
        <time>2019-11-30T14:06:30Z</time>
      </trkpt>
      <trkpt lat="48.67971" lon="1.96605">
        <ele>118.86</ele>
        <time>2019-11-30T14:06:31Z</time>
      </trkpt>
      <trkpt lat="48.67972" lon="1.9659">
        <ele>118.38</ele>
        <time>2019-11-30T14:06:39Z</time>
      </trkpt>
      <trkpt lat="48.67968" lon="1.96574">
        <ele>118.86</ele>
        <time>2019-11-30T14:06:50Z</time>
      </trkpt>
      <trkpt lat="48.67968" lon="1.96572">
        <ele>118.86</ele>
        <time>2019-11-30T14:06:51Z</time>
      </trkpt>
      <trkpt lat="48.67963" lon="1.96561">
        <ele>118.86</ele>
        <time>2019-11-30T14:06:58Z</time>
      </trkpt>
      <trkpt lat="48.67956" lon="1.96552">
        <ele>118.38</ele>
        <time>2019-11-30T14:07:06Z</time>
      </trkpt>
      <trkpt lat="48.67956" lon="1.96551">
        <ele>118.38</ele>
        <time>2019-11-30T14:07:07Z</time>
      </trkpt>
      <trkpt lat="48.67954" lon="1.96545">
        <ele>118.86</ele>
        <time>2019-11-30T14:07:13Z</time>
      </trkpt>
      <trkpt lat="48.67946" lon="1.96547">
        <ele>120.78</ele>
        <time>2019-11-30T14:07:22Z</time>
      </trkpt>
      <trkpt lat="48.67946" lon="1.96547">
        <ele>120.78</ele>
        <time>2019-11-30T14:07:23Z</time>
      </trkpt>
      <trkpt lat="48.67945" lon="1.96548">
        <ele>120.78</ele>
        <time>2019-11-30T14:07:24Z</time>
      </trkpt>
      <trkpt lat="48.67943" lon="1.96548">
        <ele>120.78</ele>
        <time>2019-11-30T14:07:25Z</time>
      </trkpt>
      <trkpt lat="48.67941" lon="1.96549">
        <ele>120.3</ele>
        <time>2019-11-30T14:07:26Z</time>
      </trkpt>
      <trkpt lat="48.6794" lon="1.9655">
        <ele>120.78</ele>
        <time>2019-11-30T14:07:27Z</time>
      </trkpt>
      <trkpt lat="48.67939" lon="1.96549">
        <ele>120.3</ele>
        <time>2019-11-30T14:07:28Z</time>
      </trkpt>
      <trkpt lat="48.6793" lon="1.96551">
        <ele>121.26</ele>
        <time>2019-11-30T14:07:40Z</time>
      </trkpt>
      <trkpt lat="48.67928" lon="1.9655">
        <ele>120.78</ele>
        <time>2019-11-30T14:07:44Z</time>
      </trkpt>
      <trkpt lat="48.67918" lon="1.96548">
        <ele>120.78</ele>
        <time>2019-11-30T14:07:56Z</time>
      </trkpt>
      <trkpt lat="48.67909" lon="1.9655">
        <ele>122.22</ele>
        <time>2019-11-30T14:08:03Z</time>
      </trkpt>
      <trkpt lat="48.67908" lon="1.96549">
        <ele>122.71</ele>
        <time>2019-11-30T14:08:04Z</time>
      </trkpt>
      <trkpt lat="48.67904" lon="1.96545">
        <ele>123.19</ele>
        <time>2019-11-30T14:08:09Z</time>
      </trkpt>
      <trkpt lat="48.67903" lon="1.96544">
        <ele>123.67</ele>
        <time>2019-11-30T14:08:10Z</time>
      </trkpt>
      <trkpt lat="48.67895" lon="1.96539">
        <ele>125.11</ele>
        <time>2019-11-30T14:08:20Z</time>
      </trkpt>
      <trkpt lat="48.67894" lon="1.96539">
        <ele>125.59</ele>
        <time>2019-11-30T14:08:21Z</time>
      </trkpt>
      <trkpt lat="48.67886" lon="1.9653">
        <ele>126.55</ele>
        <time>2019-11-30T14:08:33Z</time>
      </trkpt>
      <trkpt lat="48.67876" lon="1.96529">
        <ele>127.99</ele>
        <time>2019-11-30T14:08:44Z</time>
      </trkpt>
      <trkpt lat="48.67875" lon="1.96528">
        <ele>127.51</ele>
        <time>2019-11-30T14:08:45Z</time>
      </trkpt>
      <trkpt lat="48.67868" lon="1.96519">
        <ele>126.07</ele>
        <time>2019-11-30T14:08:55Z</time>
      </trkpt>
      <trkpt lat="48.67867" lon="1.96518">
        <ele>125.11</ele>
        <time>2019-11-30T14:08:56Z</time>
      </trkpt>
      <trkpt lat="48.67864" lon="1.96517">
        <ele>124.15</ele>
        <time>2019-11-30T14:08:57Z</time>
      </trkpt>
      <trkpt lat="48.67861" lon="1.96516">
        <ele>124.15</ele>
        <time>2019-11-30T14:09:00Z</time>
      </trkpt>
      <trkpt lat="48.67855" lon="1.96514">
        <ele>124.63</ele>
        <time>2019-11-30T14:09:11Z</time>
      </trkpt>
      <trkpt lat="48.67853" lon="1.96513">
        <ele>124.15</ele>
        <time>2019-11-30T14:09:12Z</time>
      </trkpt>
      <trkpt lat="48.67841" lon="1.9651">
        <ele>124.63</ele>
        <time>2019-11-30T14:09:22Z</time>
      </trkpt>
      <trkpt lat="48.6783" lon="1.96501">
        <ele>123.19</ele>
        <time>2019-11-30T14:09:33Z</time>
      </trkpt>
      <trkpt lat="48.67829" lon="1.96491">
        <ele>122.22</ele>
        <time>2019-11-30T14:09:43Z</time>
      </trkpt>
      <trkpt lat="48.67832" lon="1.9648">
        <ele>120.3</ele>
        <time>2019-11-30T14:09:55Z</time>
      </trkpt>
      <trkpt lat="48.6782" lon="1.96486">
        <ele>119.82</ele>
        <time>2019-11-30T14:10:06Z</time>
      </trkpt>
      <trkpt lat="48.67791" lon="1.96487">
        <ele>120.78</ele>
        <time>2019-11-30T14:10:25Z</time>
      </trkpt>
      <trkpt lat="48.67787" lon="1.9649">
        <ele>119.34</ele>
        <time>2019-11-30T14:10:45Z</time>
      </trkpt>
      <trkpt lat="48.67783" lon="1.96486">
        <ele>119.82</ele>
        <time>2019-11-30T14:10:52Z</time>
      </trkpt>
      <trkpt lat="48.67781" lon="1.96486">
        <ele>119.82</ele>
        <time>2019-11-30T14:11:01Z</time>
      </trkpt>
      <trkpt lat="48.67786" lon="1.96484">
        <ele>119.34</ele>
        <time>2019-11-30T14:11:13Z</time>
      </trkpt>
      <trkpt lat="48.67785" lon="1.9648">
        <ele>119.34</ele>
        <time>2019-11-30T14:11:23Z</time>
      </trkpt>
      <trkpt lat="48.67784" lon="1.96481">
        <ele>119.34</ele>
        <time>2019-11-30T14:11:36Z</time>
      </trkpt>
      <trkpt lat="48.6778" lon="1.96479">
        <ele>119.34</ele>
        <time>2019-11-30T14:11:39Z</time>
      </trkpt>
      <trkpt lat="48.67778" lon="1.96479">
        <ele>119.82</ele>
        <time>2019-11-30T14:11:41Z</time>
      </trkpt>
      <trkpt lat="48.67775" lon="1.96481">
        <ele>119.82</ele>
        <time>2019-11-30T14:11:51Z</time>
      </trkpt>
      <trkpt lat="48.67762" lon="1.9648">
        <ele>120.78</ele>
        <time>2019-11-30T14:12:02Z</time>
      </trkpt>
      <trkpt lat="48.67761" lon="1.96473">
        <ele>121.26</ele>
        <time>2019-11-30T14:12:06Z</time>
      </trkpt>
      <trkpt lat="48.67762" lon="1.96466">
        <ele>121.74</ele>
        <time>2019-11-30T14:12:11Z</time>
      </trkpt>
      <trkpt lat="48.67761" lon="1.9646">
        <ele>122.22</ele>
        <time>2019-11-30T14:12:15Z</time>
      </trkpt>
      <trkpt lat="48.67761" lon="1.96446">
        <ele>122.22</ele>
        <time>2019-11-30T14:12:24Z</time>
      </trkpt>
      <trkpt lat="48.67763" lon="1.96441">
        <ele>122.22</ele>
        <time>2019-11-30T14:12:29Z</time>
      </trkpt>
      <trkpt lat="48.67764" lon="1.96433">
        <ele>122.71</ele>
        <time>2019-11-30T14:12:36Z</time>
      </trkpt>
      <trkpt lat="48.67765" lon="1.9643">
        <ele>122.22</ele>
        <time>2019-11-30T14:12:38Z</time>
      </trkpt>
      <trkpt lat="48.67767" lon="1.9642">
        <ele>123.19</ele>
        <time>2019-11-30T14:12:44Z</time>
      </trkpt>
      <trkpt lat="48.6777" lon="1.96411">
        <ele>122.71</ele>
        <time>2019-11-30T14:12:52Z</time>
      </trkpt>
      <trkpt lat="48.67768" lon="1.96411">
        <ele>122.71</ele>
        <time>2019-11-30T14:12:55Z</time>
      </trkpt>
      <trkpt lat="48.67763" lon="1.96408">
        <ele>123.19</ele>
        <time>2019-11-30T14:13:02Z</time>
      </trkpt>
      <trkpt lat="48.67758" lon="1.96404">
        <ele>123.67</ele>
        <time>2019-11-30T14:13:06Z</time>
      </trkpt>
      <trkpt lat="48.67751" lon="1.96398">
        <ele>123.67</ele>
        <time>2019-11-30T14:13:13Z</time>
      </trkpt>
      <trkpt lat="48.67748" lon="1.96396">
        <ele>123.67</ele>
        <time>2019-11-30T14:13:15Z</time>
      </trkpt>
      <trkpt lat="48.6774" lon="1.96388">
        <ele>123.19</ele>
        <time>2019-11-30T14:13:21Z</time>
      </trkpt>
      <trkpt lat="48.67734" lon="1.96375">
        <ele>122.71</ele>
        <time>2019-11-30T14:13:32Z</time>
      </trkpt>
      <trkpt lat="48.67733" lon="1.96374">
        <ele>122.71</ele>
        <time>2019-11-30T14:13:34Z</time>
      </trkpt>
      <trkpt lat="48.67732" lon="1.96371">
        <ele>122.71</ele>
        <time>2019-11-30T14:13:36Z</time>
      </trkpt>
      <trkpt lat="48.67732" lon="1.96355">
        <ele>123.19</ele>
        <time>2019-11-30T14:13:46Z</time>
      </trkpt>
      <trkpt lat="48.67732" lon="1.96354">
        <ele>122.71</ele>
        <time>2019-11-30T14:13:47Z</time>
      </trkpt>
      <trkpt lat="48.6773" lon="1.96348">
        <ele>122.71</ele>
        <time>2019-11-30T14:13:52Z</time>
      </trkpt>
      <trkpt lat="48.67728" lon="1.9634">
        <ele>123.19</ele>
        <time>2019-11-30T14:13:58Z</time>
      </trkpt>
      <trkpt lat="48.67729" lon="1.96327">
        <ele>123.19</ele>
        <time>2019-11-30T14:14:04Z</time>
      </trkpt>
      <trkpt lat="48.67729" lon="1.96322">
        <ele>124.63</ele>
        <time>2019-11-30T14:14:09Z</time>
      </trkpt>
      <trkpt lat="48.67726" lon="1.96315">
        <ele>125.11</ele>
        <time>2019-11-30T14:14:14Z</time>
      </trkpt>
      <trkpt lat="48.67722" lon="1.96298">
        <ele>128.47</ele>
        <time>2019-11-30T14:14:26Z</time>
      </trkpt>
      <trkpt lat="48.67703" lon="1.96283">
        <ele>128.95</ele>
        <time>2019-11-30T14:14:42Z</time>
      </trkpt>
      <trkpt lat="48.67698" lon="1.96279">
        <ele>129.92</ele>
        <time>2019-11-30T14:14:48Z</time>
      </trkpt>
      <trkpt lat="48.67692" lon="1.96272">
        <ele>129.92</ele>
        <time>2019-11-30T14:14:53Z</time>
      </trkpt>
      <trkpt lat="48.67684" lon="1.96267">
        <ele>130.88</ele>
        <time>2019-11-30T14:15:06Z</time>
      </trkpt>
      <trkpt lat="48.67683" lon="1.96268">
        <ele>130.88</ele>
        <time>2019-11-30T14:15:28Z</time>
      </trkpt>
      <trkpt lat="48.67684" lon="1.9625">
        <ele>129.92</ele>
        <time>2019-11-30T14:15:40Z</time>
      </trkpt>
      <trkpt lat="48.6768" lon="1.96246">
        <ele>128.95</ele>
        <time>2019-11-30T14:15:46Z</time>
      </trkpt>
      <trkpt lat="48.67678" lon="1.96242">
        <ele>128.47</ele>
        <time>2019-11-30T14:15:49Z</time>
      </trkpt>
      <trkpt lat="48.67681" lon="1.96225">
        <ele>126.55</ele>
        <time>2019-11-30T14:16:00Z</time>
      </trkpt>
      <trkpt lat="48.67678" lon="1.96219">
        <ele>126.07</ele>
        <time>2019-11-30T14:16:03Z</time>
      </trkpt>
      <trkpt lat="48.67685" lon="1.96198">
        <ele>126.55</ele>
        <time>2019-11-30T14:16:15Z</time>
      </trkpt>
      <trkpt lat="48.67691" lon="1.96187">
        <ele>127.99</ele>
        <time>2019-11-30T14:16:28Z</time>
      </trkpt>
      <trkpt lat="48.67691" lon="1.96178">
        <ele>128.95</ele>
        <time>2019-11-30T14:16:34Z</time>
      </trkpt>
      <trkpt lat="48.67693" lon="1.96154">
        <ele>129.92</ele>
        <time>2019-11-30T14:16:46Z</time>
      </trkpt>
      <trkpt lat="48.67692" lon="1.96149">
        <ele>129.43</ele>
        <time>2019-11-30T14:16:50Z</time>
      </trkpt>
      <trkpt lat="48.67691" lon="1.96143">
        <ele>129.92</ele>
        <time>2019-11-30T14:16:53Z</time>
      </trkpt>
      <trkpt lat="48.67689" lon="1.96119">
        <ele>129.43</ele>
        <time>2019-11-30T14:17:06Z</time>
      </trkpt>
      <trkpt lat="48.67685" lon="1.96129">
        <ele>129.43</ele>
        <time>2019-11-30T14:17:20Z</time>
      </trkpt>
      <trkpt lat="48.67688" lon="1.96133">
        <ele>129.43</ele>
        <time>2019-11-30T14:17:31Z</time>
      </trkpt>
      <trkpt lat="48.6769" lon="1.96129">
        <ele>129.92</ele>
        <time>2019-11-30T14:17:44Z</time>
      </trkpt>
      <trkpt lat="48.67691" lon="1.96116">
        <ele>129.43</ele>
        <time>2019-11-30T14:17:52Z</time>
      </trkpt>
      <trkpt lat="48.67693" lon="1.96101">
        <ele>129.43</ele>
        <time>2019-11-30T14:18:02Z</time>
      </trkpt>
      <trkpt lat="48.67694" lon="1.96099">
        <ele>128.95</ele>
        <time>2019-11-30T14:18:03Z</time>
      </trkpt>
      <trkpt lat="48.67696" lon="1.96092">
        <ele>128.95</ele>
        <time>2019-11-30T14:18:08Z</time>
      </trkpt>
      <trkpt lat="48.67697" lon="1.96083">
        <ele>128.47</ele>
        <time>2019-11-30T14:18:12Z</time>
      </trkpt>
      <trkpt lat="48.67697" lon="1.9608">
        <ele>128.95</ele>
        <time>2019-11-30T14:18:13Z</time>
      </trkpt>
      <trkpt lat="48.67698" lon="1.96071">
        <ele>128.47</ele>
        <time>2019-11-30T14:18:20Z</time>
      </trkpt>
      <trkpt lat="48.67694" lon="1.96044">
        <ele>128.47</ele>
        <time>2019-11-30T14:18:33Z</time>
      </trkpt>
      <trkpt lat="48.67693" lon="1.96036">
        <ele>127.99</ele>
        <time>2019-11-30T14:18:38Z</time>
      </trkpt>
      <trkpt lat="48.67692" lon="1.96034">
        <ele>127.99</ele>
        <time>2019-11-30T14:18:39Z</time>
      </trkpt>
      <trkpt lat="48.67692" lon="1.96029">
        <ele>127.99</ele>
        <time>2019-11-30T14:18:42Z</time>
      </trkpt>
      <trkpt lat="48.67696" lon="1.96007">
        <ele>127.99</ele>
        <time>2019-11-30T14:18:54Z</time>
      </trkpt>
      <trkpt lat="48.67697" lon="1.96002">
        <ele>127.99</ele>
        <time>2019-11-30T14:18:56Z</time>
      </trkpt>
      <trkpt lat="48.677" lon="1.95989">
        <ele>128.47</ele>
        <time>2019-11-30T14:19:04Z</time>
      </trkpt>
      <trkpt lat="48.677" lon="1.95987">
        <ele>128.47</ele>
        <time>2019-11-30T14:19:05Z</time>
      </trkpt>
      <trkpt lat="48.67703" lon="1.95968">
        <ele>128.47</ele>
        <time>2019-11-30T14:19:14Z</time>
      </trkpt>
      <trkpt lat="48.67703" lon="1.95961">
        <ele>129.43</ele>
        <time>2019-11-30T14:19:18Z</time>
      </trkpt>
      <trkpt lat="48.67703" lon="1.95959">
        <ele>129.43</ele>
        <time>2019-11-30T14:19:19Z</time>
      </trkpt>
      <trkpt lat="48.67704" lon="1.95953">
        <ele>129.43</ele>
        <time>2019-11-30T14:19:22Z</time>
      </trkpt>
      <trkpt lat="48.67704" lon="1.95951">
        <ele>128.95</ele>
        <time>2019-11-30T14:19:23Z</time>
      </trkpt>
      <trkpt lat="48.67711" lon="1.95925">
        <ele>128.47</ele>
        <time>2019-11-30T14:19:38Z</time>
      </trkpt>
      <trkpt lat="48.67715" lon="1.95912">
        <ele>128.95</ele>
        <time>2019-11-30T14:19:46Z</time>
      </trkpt>
      <trkpt lat="48.67724" lon="1.95888">
        <ele>127.99</ele>
        <time>2019-11-30T14:20:00Z</time>
      </trkpt>
      <trkpt lat="48.67736" lon="1.95868">
        <ele>128.95</ele>
        <time>2019-11-30T14:20:13Z</time>
      </trkpt>
      <trkpt lat="48.67741" lon="1.95858">
        <ele>128.95</ele>
        <time>2019-11-30T14:20:20Z</time>
      </trkpt>
      <trkpt lat="48.67741" lon="1.95855">
        <ele>128.95</ele>
        <time>2019-11-30T14:20:21Z</time>
      </trkpt>
      <trkpt lat="48.6775" lon="1.95834">
        <ele>128.95</ele>
        <time>2019-11-30T14:20:34Z</time>
      </trkpt>
      <trkpt lat="48.67747" lon="1.95826">
        <ele>129.92</ele>
        <time>2019-11-30T14:20:38Z</time>
      </trkpt>
      <trkpt lat="48.67747" lon="1.95825">
        <ele>129.43</ele>
        <time>2019-11-30T14:20:39Z</time>
      </trkpt>
      <trkpt lat="48.67749" lon="1.95818">
        <ele>129.92</ele>
        <time>2019-11-30T14:20:44Z</time>
      </trkpt>
      <trkpt lat="48.6775" lon="1.95817">
        <ele>129.92</ele>
        <time>2019-11-30T14:20:45Z</time>
      </trkpt>
      <trkpt lat="48.67752" lon="1.9581">
        <ele>129.92</ele>
        <time>2019-11-30T14:20:49Z</time>
      </trkpt>
      <trkpt lat="48.67763" lon="1.9579">
        <ele>128.95</ele>
        <time>2019-11-30T14:21:02Z</time>
      </trkpt>
      <trkpt lat="48.67767" lon="1.95778">
        <ele>130.4</ele>
        <time>2019-11-30T14:21:12Z</time>
      </trkpt>
      <trkpt lat="48.67767" lon="1.95776">
        <ele>129.92</ele>
        <time>2019-11-30T14:21:13Z</time>
      </trkpt>
      <trkpt lat="48.67767" lon="1.95773">
        <ele>129.92</ele>
        <time>2019-11-30T14:21:14Z</time>
      </trkpt>
      <trkpt lat="48.67768" lon="1.95771">
        <ele>129.43</ele>
        <time>2019-11-30T14:21:15Z</time>
      </trkpt>
      <trkpt lat="48.67768" lon="1.95769">
        <ele>129.43</ele>
        <time>2019-11-30T14:21:16Z</time>
      </trkpt>
      <trkpt lat="48.67774" lon="1.95751">
        <ele>129.43</ele>
        <time>2019-11-30T14:21:29Z</time>
      </trkpt>
      <trkpt lat="48.67775" lon="1.9575">
        <ele>129.43</ele>
        <time>2019-11-30T14:21:30Z</time>
      </trkpt>
      <trkpt lat="48.67776" lon="1.95748">
        <ele>129.43</ele>
        <time>2019-11-30T14:21:31Z</time>
      </trkpt>
      <trkpt lat="48.67788" lon="1.95725">
        <ele>129.43</ele>
        <time>2019-11-30T14:21:46Z</time>
      </trkpt>
      <trkpt lat="48.67795" lon="1.95719">
        <ele>129.92</ele>
        <time>2019-11-30T14:21:55Z</time>
      </trkpt>
      <trkpt lat="48.67799" lon="1.95715">
        <ele>129.43</ele>
        <time>2019-11-30T14:21:58Z</time>
      </trkpt>
      <trkpt lat="48.67803" lon="1.95702">
        <ele>129.92</ele>
        <time>2019-11-30T14:22:11Z</time>
      </trkpt>
      <trkpt lat="48.67809" lon="1.95692">
        <ele>129.92</ele>
        <time>2019-11-30T14:22:22Z</time>
      </trkpt>
      <trkpt lat="48.6781" lon="1.95691">
        <ele>129.92</ele>
        <time>2019-11-30T14:22:23Z</time>
      </trkpt>
      <trkpt lat="48.67813" lon="1.95687">
        <ele>129.92</ele>
        <time>2019-11-30T14:22:24Z</time>
      </trkpt>
      <trkpt lat="48.67823" lon="1.95675">
        <ele>129.92</ele>
        <time>2019-11-30T14:22:33Z</time>
      </trkpt>
      <trkpt lat="48.6783" lon="1.95664">
        <ele>130.4</ele>
        <time>2019-11-30T14:22:43Z</time>
      </trkpt>
      <trkpt lat="48.67831" lon="1.95663">
        <ele>129.92</ele>
        <time>2019-11-30T14:22:44Z</time>
      </trkpt>
      <trkpt lat="48.67834" lon="1.9566">
        <ele>131.36</ele>
        <time>2019-11-30T14:22:53Z</time>
      </trkpt>
      <trkpt lat="48.67836" lon="1.95657">
        <ele>131.84</ele>
        <time>2019-11-30T14:22:56Z</time>
      </trkpt>
      <trkpt lat="48.67838" lon="1.95656">
        <ele>131.84</ele>
        <time>2019-11-30T14:22:57Z</time>
      </trkpt>
      <trkpt lat="48.67839" lon="1.95655">
        <ele>131.84</ele>
        <time>2019-11-30T14:22:58Z</time>
      </trkpt>
      <trkpt lat="48.6784" lon="1.95653">
        <ele>131.84</ele>
        <time>2019-11-30T14:22:59Z</time>
      </trkpt>
      <trkpt lat="48.67849" lon="1.95643">
        <ele>133.28</ele>
        <time>2019-11-30T14:23:11Z</time>
      </trkpt>
      <trkpt lat="48.67851" lon="1.95639">
        <ele>133.76</ele>
        <time>2019-11-30T14:23:14Z</time>
      </trkpt>
      <trkpt lat="48.67855" lon="1.9562">
        <ele>131.36</ele>
        <time>2019-11-30T14:23:24Z</time>
      </trkpt>
      <trkpt lat="48.67862" lon="1.95609">
        <ele>130.88</ele>
        <time>2019-11-30T14:23:32Z</time>
      </trkpt>
      <trkpt lat="48.67866" lon="1.95603">
        <ele>130.88</ele>
        <time>2019-11-30T14:23:37Z</time>
      </trkpt>
      <trkpt lat="48.67866" lon="1.95601">
        <ele>130.88</ele>
        <time>2019-11-30T14:23:38Z</time>
      </trkpt>
      <trkpt lat="48.67868" lon="1.956">
        <ele>130.88</ele>
        <time>2019-11-30T14:23:39Z</time>
      </trkpt>
      <trkpt lat="48.67869" lon="1.95598">
        <ele>130.88</ele>
        <time>2019-11-30T14:23:40Z</time>
      </trkpt>
      <trkpt lat="48.67869" lon="1.95583">
        <ele>131.84</ele>
        <time>2019-11-30T14:23:52Z</time>
      </trkpt>
      <trkpt lat="48.6787" lon="1.95582">
        <ele>131.36</ele>
        <time>2019-11-30T14:23:53Z</time>
      </trkpt>
      <trkpt lat="48.67869" lon="1.95579">
        <ele>131.84</ele>
        <time>2019-11-30T14:23:55Z</time>
      </trkpt>
      <trkpt lat="48.67867" lon="1.95569">
        <ele>131.36</ele>
        <time>2019-11-30T14:24:04Z</time>
      </trkpt>
      <trkpt lat="48.67869" lon="1.95555">
        <ele>131.84</ele>
        <time>2019-11-30T14:24:14Z</time>
      </trkpt>
      <trkpt lat="48.67869" lon="1.95552">
        <ele>131.36</ele>
        <time>2019-11-30T14:24:16Z</time>
      </trkpt>
      <trkpt lat="48.6787" lon="1.95534">
        <ele>132.32</ele>
        <time>2019-11-30T14:24:30Z</time>
      </trkpt>
      <trkpt lat="48.67872" lon="1.95517">
        <ele>132.32</ele>
        <time>2019-11-30T14:24:40Z</time>
      </trkpt>
      <trkpt lat="48.67872" lon="1.95507">
        <ele>132.8</ele>
        <time>2019-11-30T14:24:49Z</time>
      </trkpt>
      <trkpt lat="48.6787" lon="1.95497">
        <ele>133.28</ele>
        <time>2019-11-30T14:24:57Z</time>
      </trkpt>
      <trkpt lat="48.67869" lon="1.95491">
        <ele>133.28</ele>
        <time>2019-11-30T14:25:03Z</time>
      </trkpt>
      <trkpt lat="48.67868" lon="1.9548">
        <ele>133.76</ele>
        <time>2019-11-30T14:25:11Z</time>
      </trkpt>
      <trkpt lat="48.67869" lon="1.95455">
        <ele>133.76</ele>
        <time>2019-11-30T14:25:25Z</time>
      </trkpt>
      <trkpt lat="48.67876" lon="1.95437">
        <ele>134.24</ele>
        <time>2019-11-30T14:25:32Z</time>
      </trkpt>
      <trkpt lat="48.67887" lon="1.95404">
        <ele>134.24</ele>
        <time>2019-11-30T14:25:49Z</time>
      </trkpt>
      <trkpt lat="48.67895" lon="1.95385">
        <ele>134.72</ele>
        <time>2019-11-30T14:26:01Z</time>
      </trkpt>
      <trkpt lat="48.67902" lon="1.95362">
        <ele>135.2</ele>
        <time>2019-11-30T14:26:16Z</time>
      </trkpt>
      <trkpt lat="48.67907" lon="1.95344">
        <ele>136.16</ele>
        <time>2019-11-30T14:26:30Z</time>
      </trkpt>
      <trkpt lat="48.67919" lon="1.95327">
        <ele>136.64</ele>
        <time>2019-11-30T14:26:42Z</time>
      </trkpt>
      <trkpt lat="48.67925" lon="1.95317">
        <ele>136.16</ele>
        <time>2019-11-30T14:26:51Z</time>
      </trkpt>
      <trkpt lat="48.67928" lon="1.95312">
        <ele>136.64</ele>
        <time>2019-11-30T14:26:54Z</time>
      </trkpt>
      <trkpt lat="48.67929" lon="1.95309">
        <ele>135.68</ele>
        <time>2019-11-30T14:26:55Z</time>
      </trkpt>
      <trkpt lat="48.6793" lon="1.95306">
        <ele>135.68</ele>
        <time>2019-11-30T14:26:56Z</time>
      </trkpt>
      <trkpt lat="48.67932" lon="1.95304">
        <ele>135.68</ele>
        <time>2019-11-30T14:26:57Z</time>
      </trkpt>
      <trkpt lat="48.67932" lon="1.95302">
        <ele>135.68</ele>
        <time>2019-11-30T14:26:58Z</time>
      </trkpt>
      <trkpt lat="48.67933" lon="1.95301">
        <ele>135.68</ele>
        <time>2019-11-30T14:26:59Z</time>
      </trkpt>
      <trkpt lat="48.67934" lon="1.953">
        <ele>135.68</ele>
        <time>2019-11-30T14:27:00Z</time>
      </trkpt>
      <trkpt lat="48.67942" lon="1.95293">
        <ele>134.72</ele>
        <time>2019-11-30T14:27:08Z</time>
      </trkpt>
      <trkpt lat="48.67948" lon="1.95286">
        <ele>135.68</ele>
        <time>2019-11-30T14:27:16Z</time>
      </trkpt>
      <trkpt lat="48.6795" lon="1.95285">
        <ele>135.68</ele>
        <time>2019-11-30T14:27:17Z</time>
      </trkpt>
      <trkpt lat="48.67947" lon="1.95268">
        <ele>135.2</ele>
        <time>2019-11-30T14:27:28Z</time>
      </trkpt>
      <trkpt lat="48.67949" lon="1.95261">
        <ele>135.68</ele>
        <time>2019-11-30T14:27:33Z</time>
      </trkpt>
      <trkpt lat="48.67949" lon="1.95258">
        <ele>135.2</ele>
        <time>2019-11-30T14:27:34Z</time>
      </trkpt>
      <trkpt lat="48.67949" lon="1.95256">
        <ele>135.2</ele>
        <time>2019-11-30T14:27:35Z</time>
      </trkpt>
      <trkpt lat="48.67949" lon="1.95253">
        <ele>135.68</ele>
        <time>2019-11-30T14:27:36Z</time>
      </trkpt>
      <trkpt lat="48.67949" lon="1.95251">
        <ele>134.72</ele>
        <time>2019-11-30T14:27:37Z</time>
      </trkpt>
      <trkpt lat="48.67951" lon="1.95248">
        <ele>135.2</ele>
        <time>2019-11-30T14:27:38Z</time>
      </trkpt>
      <trkpt lat="48.67953" lon="1.95236">
        <ele>135.2</ele>
        <time>2019-11-30T14:27:45Z</time>
      </trkpt>
      <trkpt lat="48.67953" lon="1.95234">
        <ele>135.2</ele>
        <time>2019-11-30T14:27:46Z</time>
      </trkpt>
      <trkpt lat="48.67953" lon="1.95227">
        <ele>135.68</ele>
        <time>2019-11-30T14:27:49Z</time>
      </trkpt>
      <trkpt lat="48.67955" lon="1.95205">
        <ele>135.68</ele>
        <time>2019-11-30T14:28:03Z</time>
      </trkpt>
      <trkpt lat="48.67954" lon="1.95199">
        <ele>135.68</ele>
        <time>2019-11-30T14:28:06Z</time>
      </trkpt>
      <trkpt lat="48.67956" lon="1.95189">
        <ele>136.64</ele>
        <time>2019-11-30T14:28:12Z</time>
      </trkpt>
      <trkpt lat="48.67963" lon="1.95179">
        <ele>136.64</ele>
        <time>2019-11-30T14:28:23Z</time>
      </trkpt>
      <trkpt lat="48.67958" lon="1.9517">
        <ele>136.64</ele>
        <time>2019-11-30T14:28:34Z</time>
      </trkpt>
      <trkpt lat="48.67957" lon="1.95168">
        <ele>136.64</ele>
        <time>2019-11-30T14:28:35Z</time>
      </trkpt>
      <trkpt lat="48.67953" lon="1.95161">
        <ele>135.68</ele>
        <time>2019-11-30T14:28:45Z</time>
      </trkpt>
      <trkpt lat="48.67955" lon="1.95144">
        <ele>135.2</ele>
        <time>2019-11-30T14:28:57Z</time>
      </trkpt>
      <trkpt lat="48.67957" lon="1.95135">
        <ele>136.16</ele>
        <time>2019-11-30T14:29:04Z</time>
      </trkpt>
      <trkpt lat="48.67965" lon="1.95114">
        <ele>137.13</ele>
        <time>2019-11-30T14:29:18Z</time>
      </trkpt>
      <trkpt lat="48.6797" lon="1.95094">
        <ele>137.13</ele>
        <time>2019-11-30T14:29:31Z</time>
      </trkpt>
      <trkpt lat="48.67973" lon="1.95088">
        <ele>137.13</ele>
        <time>2019-11-30T14:29:35Z</time>
      </trkpt>
      <trkpt lat="48.67974" lon="1.95086">
        <ele>137.13</ele>
        <time>2019-11-30T14:29:36Z</time>
      </trkpt>
      <trkpt lat="48.67975" lon="1.9507">
        <ele>137.13</ele>
        <time>2019-11-30T14:29:47Z</time>
      </trkpt>
      <trkpt lat="48.6798" lon="1.95058">
        <ele>136.64</ele>
        <time>2019-11-30T14:29:54Z</time>
      </trkpt>
      <trkpt lat="48.67982" lon="1.95054">
        <ele>136.64</ele>
        <time>2019-11-30T14:29:56Z</time>
      </trkpt>
      <trkpt lat="48.67988" lon="1.95042">
        <ele>137.61</ele>
        <time>2019-11-30T14:30:08Z</time>
      </trkpt>
      <trkpt lat="48.67989" lon="1.95042">
        <ele>137.61</ele>
        <time>2019-11-30T14:30:09Z</time>
      </trkpt>
      <trkpt lat="48.6799" lon="1.95042">
        <ele>137.61</ele>
        <time>2019-11-30T14:30:10Z</time>
      </trkpt>
      <trkpt lat="48.68002" lon="1.95022">
        <ele>139.05</ele>
        <time>2019-11-30T14:30:23Z</time>
      </trkpt>
      <trkpt lat="48.68009" lon="1.95015">
        <ele>138.57</ele>
        <time>2019-11-30T14:30:35Z</time>
      </trkpt>
      <trkpt lat="48.68017" lon="1.95007">
        <ele>137.61</ele>
        <time>2019-11-30T14:30:43Z</time>
      </trkpt>
      <trkpt lat="48.68019" lon="1.95006">
        <ele>137.61</ele>
        <time>2019-11-30T14:30:44Z</time>
      </trkpt>
      <trkpt lat="48.68021" lon="1.95005">
        <ele>137.61</ele>
        <time>2019-11-30T14:30:45Z</time>
      </trkpt>
      <trkpt lat="48.68034" lon="1.94994">
        <ele>139.05</ele>
        <time>2019-11-30T14:30:58Z</time>
      </trkpt>
      <trkpt lat="48.68039" lon="1.94988">
        <ele>138.57</ele>
        <time>2019-11-30T14:31:03Z</time>
      </trkpt>
      <trkpt lat="48.68041" lon="1.94986">
        <ele>138.57</ele>
        <time>2019-11-30T14:31:04Z</time>
      </trkpt>
      <trkpt lat="48.68042" lon="1.94984">
        <ele>137.61</ele>
        <time>2019-11-30T14:31:05Z</time>
      </trkpt>
      <trkpt lat="48.68044" lon="1.94982">
        <ele>138.57</ele>
        <time>2019-11-30T14:31:06Z</time>
      </trkpt>
      <trkpt lat="48.68046" lon="1.9498">
        <ele>137.61</ele>
        <time>2019-11-30T14:31:07Z</time>
      </trkpt>
      <trkpt lat="48.68048" lon="1.94979">
        <ele>138.09</ele>
        <time>2019-11-30T14:31:08Z</time>
      </trkpt>
      <trkpt lat="48.68049" lon="1.94978">
        <ele>137.61</ele>
        <time>2019-11-30T14:31:09Z</time>
      </trkpt>
      <trkpt lat="48.6806" lon="1.94981">
        <ele>137.61</ele>
        <time>2019-11-30T14:31:20Z</time>
      </trkpt>
      <trkpt lat="48.68062" lon="1.94979">
        <ele>137.61</ele>
        <time>2019-11-30T14:31:21Z</time>
      </trkpt>
      <trkpt lat="48.68064" lon="1.94978">
        <ele>137.61</ele>
        <time>2019-11-30T14:31:22Z</time>
      </trkpt>
      <trkpt lat="48.68065" lon="1.94977">
        <ele>137.61</ele>
        <time>2019-11-30T14:31:23Z</time>
      </trkpt>
      <trkpt lat="48.68074" lon="1.94967">
        <ele>138.09</ele>
        <time>2019-11-30T14:31:35Z</time>
      </trkpt>
      <trkpt lat="48.6808" lon="1.94958">
        <ele>139.05</ele>
        <time>2019-11-30T14:31:39Z</time>
      </trkpt>
      <trkpt lat="48.68086" lon="1.94944">
        <ele>139.05</ele>
        <time>2019-11-30T14:31:48Z</time>
      </trkpt>
      <trkpt lat="48.68086" lon="1.94942">
        <ele>139.05</ele>
        <time>2019-11-30T14:31:49Z</time>
      </trkpt>
      <trkpt lat="48.68086" lon="1.9494">
        <ele>139.05</ele>
        <time>2019-11-30T14:31:50Z</time>
      </trkpt>
      <trkpt lat="48.68088" lon="1.94937">
        <ele>139.53</ele>
        <time>2019-11-30T14:31:52Z</time>
      </trkpt>
      <trkpt lat="48.68089" lon="1.94936">
        <ele>140.01</ele>
        <time>2019-11-30T14:31:53Z</time>
      </trkpt>
      <trkpt lat="48.681" lon="1.9492">
        <ele>140.01</ele>
        <time>2019-11-30T14:32:04Z</time>
      </trkpt>
      <trkpt lat="48.68099" lon="1.94905">
        <ele>140.49</ele>
        <time>2019-11-30T14:32:12Z</time>
      </trkpt>
      <trkpt lat="48.68097" lon="1.94904">
        <ele>140.01</ele>
        <time>2019-11-30T14:32:13Z</time>
      </trkpt>
      <trkpt lat="48.68096" lon="1.94902">
        <ele>140.01</ele>
        <time>2019-11-30T14:32:14Z</time>
      </trkpt>
      <trkpt lat="48.68096" lon="1.94901">
        <ele>140.01</ele>
        <time>2019-11-30T14:32:15Z</time>
      </trkpt>
      <trkpt lat="48.68096" lon="1.949">
        <ele>140.01</ele>
        <time>2019-11-30T14:32:16Z</time>
      </trkpt>
      <trkpt lat="48.68095" lon="1.94898">
        <ele>140.01</ele>
        <time>2019-11-30T14:32:17Z</time>
      </trkpt>
      <trkpt lat="48.68096" lon="1.94893">
        <ele>139.53</ele>
        <time>2019-11-30T14:32:21Z</time>
      </trkpt>
      <trkpt lat="48.68095" lon="1.94892">
        <ele>139.53</ele>
        <time>2019-11-30T14:32:22Z</time>
      </trkpt>
      <trkpt lat="48.68093" lon="1.94887">
        <ele>140.01</ele>
        <time>2019-11-30T14:32:25Z</time>
      </trkpt>
      <trkpt lat="48.68091" lon="1.94881">
        <ele>139.53</ele>
        <time>2019-11-30T14:32:32Z</time>
      </trkpt>
      <trkpt lat="48.68091" lon="1.94878">
        <ele>139.05</ele>
        <time>2019-11-30T14:32:34Z</time>
      </trkpt>
      <trkpt lat="48.68092" lon="1.9486">
        <ele>139.05</ele>
        <time>2019-11-30T14:32:44Z</time>
      </trkpt>
      <trkpt lat="48.68094" lon="1.94853">
        <ele>140.01</ele>
        <time>2019-11-30T14:32:47Z</time>
      </trkpt>
      <trkpt lat="48.68096" lon="1.94842">
        <ele>140.49</ele>
        <time>2019-11-30T14:32:56Z</time>
      </trkpt>
      <trkpt lat="48.681" lon="1.94834">
        <ele>140.97</ele>
        <time>2019-11-30T14:33:02Z</time>
      </trkpt>
      <trkpt lat="48.68106" lon="1.94822">
        <ele>140.97</ele>
        <time>2019-11-30T14:33:11Z</time>
      </trkpt>
      <trkpt lat="48.68107" lon="1.94814">
        <ele>141.45</ele>
        <time>2019-11-30T14:33:18Z</time>
      </trkpt>
      <trkpt lat="48.6811" lon="1.94804">
        <ele>142.41</ele>
        <time>2019-11-30T14:33:28Z</time>
      </trkpt>
      <trkpt lat="48.68111" lon="1.948">
        <ele>142.89</ele>
        <time>2019-11-30T14:33:31Z</time>
      </trkpt>
      <trkpt lat="48.68112" lon="1.94793">
        <ele>143.37</ele>
        <time>2019-11-30T14:33:36Z</time>
      </trkpt>
      <trkpt lat="48.68113" lon="1.9479">
        <ele>143.85</ele>
        <time>2019-11-30T14:33:37Z</time>
      </trkpt>
      <trkpt lat="48.68114" lon="1.94788">
        <ele>143.37</ele>
        <time>2019-11-30T14:33:38Z</time>
      </trkpt>
      <trkpt lat="48.68119" lon="1.94777">
        <ele>144.34</ele>
        <time>2019-11-30T14:33:46Z</time>
      </trkpt>
      <trkpt lat="48.68122" lon="1.94761">
        <ele>145.3</ele>
        <time>2019-11-30T14:33:56Z</time>
      </trkpt>
      <trkpt lat="48.68123" lon="1.94759">
        <ele>145.78</ele>
        <time>2019-11-30T14:33:57Z</time>
      </trkpt>
      <trkpt lat="48.68126" lon="1.94743">
        <ele>146.74</ele>
        <time>2019-11-30T14:34:10Z</time>
      </trkpt>
      <trkpt lat="48.6813" lon="1.94738">
        <ele>146.74</ele>
        <time>2019-11-30T14:34:14Z</time>
      </trkpt>
      <trkpt lat="48.68135" lon="1.94731">
        <ele>147.22</ele>
        <time>2019-11-30T14:34:18Z</time>
      </trkpt>
      <trkpt lat="48.68141" lon="1.94718">
        <ele>147.7</ele>
        <time>2019-11-30T14:34:26Z</time>
      </trkpt>
      <trkpt lat="48.68142" lon="1.94716">
        <ele>147.7</ele>
        <time>2019-11-30T14:34:27Z</time>
      </trkpt>
      <trkpt lat="48.68148" lon="1.94704">
        <ele>148.66</ele>
        <time>2019-11-30T14:34:34Z</time>
      </trkpt>
      <trkpt lat="48.68149" lon="1.94701">
        <ele>148.18</ele>
        <time>2019-11-30T14:34:35Z</time>
      </trkpt>
      <trkpt lat="48.68149" lon="1.94698">
        <ele>148.18</ele>
        <time>2019-11-30T14:34:36Z</time>
      </trkpt>
      <trkpt lat="48.68149" lon="1.94696">
        <ele>148.18</ele>
        <time>2019-11-30T14:34:37Z</time>
      </trkpt>
      <trkpt lat="48.68149" lon="1.94694">
        <ele>148.18</ele>
        <time>2019-11-30T14:34:38Z</time>
      </trkpt>
      <trkpt lat="48.68149" lon="1.94692">
        <ele>147.7</ele>
        <time>2019-11-30T14:34:39Z</time>
      </trkpt>
      <trkpt lat="48.68148" lon="1.9469">
        <ele>148.18</ele>
        <time>2019-11-30T14:34:40Z</time>
      </trkpt>
      <trkpt lat="48.68147" lon="1.94684">
        <ele>147.7</ele>
        <time>2019-11-30T14:34:44Z</time>
      </trkpt>
      <trkpt lat="48.68146" lon="1.94675">
        <ele>148.18</ele>
        <time>2019-11-30T14:34:47Z</time>
      </trkpt>
      <trkpt lat="48.68145" lon="1.94672">
        <ele>147.7</ele>
        <time>2019-11-30T14:34:48Z</time>
      </trkpt>
      <trkpt lat="48.68144" lon="1.94655">
        <ele>147.22</ele>
        <time>2019-11-30T14:34:58Z</time>
      </trkpt>
      <trkpt lat="48.68141" lon="1.94637">
        <ele>146.26</ele>
        <time>2019-11-30T14:35:10Z</time>
      </trkpt>
      <trkpt lat="48.68137" lon="1.94621">
        <ele>144.82</ele>
        <time>2019-11-30T14:35:21Z</time>
      </trkpt>
      <trkpt lat="48.68138" lon="1.94619">
        <ele>145.3</ele>
        <time>2019-11-30T14:35:22Z</time>
      </trkpt>
      <trkpt lat="48.68138" lon="1.94617">
        <ele>144.82</ele>
        <time>2019-11-30T14:35:23Z</time>
      </trkpt>
      <trkpt lat="48.68139" lon="1.94615">
        <ele>144.82</ele>
        <time>2019-11-30T14:35:24Z</time>
      </trkpt>
      <trkpt lat="48.6814" lon="1.94612">
        <ele>144.34</ele>
        <time>2019-11-30T14:35:25Z</time>
      </trkpt>
      <trkpt lat="48.68136" lon="1.94602">
        <ele>143.37</ele>
        <time>2019-11-30T14:35:34Z</time>
      </trkpt>
      <trkpt lat="48.68134" lon="1.94593">
        <ele>142.89</ele>
        <time>2019-11-30T14:35:38Z</time>
      </trkpt>
      <trkpt lat="48.68134" lon="1.9459">
        <ele>142.41</ele>
        <time>2019-11-30T14:35:39Z</time>
      </trkpt>
      <trkpt lat="48.68134" lon="1.94587">
        <ele>142.89</ele>
        <time>2019-11-30T14:35:40Z</time>
      </trkpt>
      <trkpt lat="48.68135" lon="1.94575">
        <ele>142.41</ele>
        <time>2019-11-30T14:35:47Z</time>
      </trkpt>
      <trkpt lat="48.68135" lon="1.94572">
        <ele>141.93</ele>
        <time>2019-11-30T14:35:48Z</time>
      </trkpt>
      <trkpt lat="48.68136" lon="1.94561">
        <ele>140.97</ele>
        <time>2019-11-30T14:35:54Z</time>
      </trkpt>
      <trkpt lat="48.68137" lon="1.94553">
        <ele>140.97</ele>
        <time>2019-11-30T14:35:59Z</time>
      </trkpt>
      <trkpt lat="48.68139" lon="1.94544">
        <ele>140.49</ele>
        <time>2019-11-30T14:36:03Z</time>
      </trkpt>
      <trkpt lat="48.68141" lon="1.94537">
        <ele>140.49</ele>
        <time>2019-11-30T14:36:06Z</time>
      </trkpt>
      <trkpt lat="48.68142" lon="1.94517">
        <ele>140.49</ele>
        <time>2019-11-30T14:36:18Z</time>
      </trkpt>
      <trkpt lat="48.68149" lon="1.94498">
        <ele>138.57</ele>
        <time>2019-11-30T14:36:30Z</time>
      </trkpt>
      <trkpt lat="48.68153" lon="1.94491">
        <ele>139.53</ele>
        <time>2019-11-30T14:36:37Z</time>
      </trkpt>
      <trkpt lat="48.68154" lon="1.94489">
        <ele>140.01</ele>
        <time>2019-11-30T14:36:38Z</time>
      </trkpt>
      <trkpt lat="48.68155" lon="1.94487">
        <ele>139.53</ele>
        <time>2019-11-30T14:36:39Z</time>
      </trkpt>
      <trkpt lat="48.68159" lon="1.94479">
        <ele>140.49</ele>
        <time>2019-11-30T14:36:45Z</time>
      </trkpt>
      <trkpt lat="48.68165" lon="1.94466">
        <ele>140.01</ele>
        <time>2019-11-30T14:36:54Z</time>
      </trkpt>
      <trkpt lat="48.68166" lon="1.94465">
        <ele>140.01</ele>
        <time>2019-11-30T14:36:55Z</time>
      </trkpt>
      <trkpt lat="48.68168" lon="1.94464">
        <ele>139.53</ele>
        <time>2019-11-30T14:36:56Z</time>
      </trkpt>
      <trkpt lat="48.68169" lon="1.94463">
        <ele>139.05</ele>
        <time>2019-11-30T14:36:57Z</time>
      </trkpt>
      <trkpt lat="48.6817" lon="1.94461">
        <ele>139.05</ele>
        <time>2019-11-30T14:36:58Z</time>
      </trkpt>
      <trkpt lat="48.68171" lon="1.94461">
        <ele>139.05</ele>
        <time>2019-11-30T14:36:59Z</time>
      </trkpt>
      <trkpt lat="48.68178" lon="1.94461">
        <ele>137.61</ele>
        <time>2019-11-30T14:37:10Z</time>
      </trkpt>
      <trkpt lat="48.6819" lon="1.94459">
        <ele>139.05</ele>
        <time>2019-11-30T14:37:20Z</time>
      </trkpt>
      <trkpt lat="48.68204" lon="1.94453">
        <ele>139.53</ele>
        <time>2019-11-30T14:37:31Z</time>
      </trkpt>
      <trkpt lat="48.68218" lon="1.94446">
        <ele>138.57</ele>
        <time>2019-11-30T14:37:43Z</time>
      </trkpt>
      <trkpt lat="48.68226" lon="1.94439">
        <ele>139.05</ele>
        <time>2019-11-30T14:37:50Z</time>
      </trkpt>
      <trkpt lat="48.68228" lon="1.94438">
        <ele>139.05</ele>
        <time>2019-11-30T14:37:51Z</time>
      </trkpt>
      <trkpt lat="48.68234" lon="1.94429">
        <ele>138.09</ele>
        <time>2019-11-30T14:38:00Z</time>
      </trkpt>
      <trkpt lat="48.68245" lon="1.94412">
        <ele>138.57</ele>
        <time>2019-11-30T14:38:11Z</time>
      </trkpt>
      <trkpt lat="48.68248" lon="1.94404">
        <ele>137.61</ele>
        <time>2019-11-30T14:38:15Z</time>
      </trkpt>
      <trkpt lat="48.68252" lon="1.94385">
        <ele>137.61</ele>
        <time>2019-11-30T14:38:25Z</time>
      </trkpt>
      <trkpt lat="48.68254" lon="1.94375">
        <ele>138.09</ele>
        <time>2019-11-30T14:38:35Z</time>
      </trkpt>
      <trkpt lat="48.68255" lon="1.94373">
        <ele>138.09</ele>
        <time>2019-11-30T14:38:36Z</time>
      </trkpt>
      <trkpt lat="48.68256" lon="1.94371">
        <ele>137.61</ele>
        <time>2019-11-30T14:38:37Z</time>
      </trkpt>
      <trkpt lat="48.68257" lon="1.94369">
        <ele>137.61</ele>
        <time>2019-11-30T14:38:38Z</time>
      </trkpt>
      <trkpt lat="48.68262" lon="1.94353">
        <ele>138.09</ele>
        <time>2019-11-30T14:38:47Z</time>
      </trkpt>
      <trkpt lat="48.68264" lon="1.94339">
        <ele>137.61</ele>
        <time>2019-11-30T14:38:56Z</time>
      </trkpt>
      <trkpt lat="48.68265" lon="1.94338">
        <ele>137.61</ele>
        <time>2019-11-30T14:38:57Z</time>
      </trkpt>
      <trkpt lat="48.68276" lon="1.94316">
        <ele>138.09</ele>
        <time>2019-11-30T14:39:08Z</time>
      </trkpt>
      <trkpt lat="48.68277" lon="1.9431">
        <ele>137.61</ele>
        <time>2019-11-30T14:39:12Z</time>
      </trkpt>
      <trkpt lat="48.68278" lon="1.94295">
        <ele>137.61</ele>
        <time>2019-11-30T14:39:17Z</time>
      </trkpt>
      <trkpt lat="48.68284" lon="1.94282">
        <ele>137.61</ele>
        <time>2019-11-30T14:39:27Z</time>
      </trkpt>
      <trkpt lat="48.68288" lon="1.94267">
        <ele>137.61</ele>
        <time>2019-11-30T14:39:37Z</time>
      </trkpt>
      <trkpt lat="48.68289" lon="1.94251">
        <ele>138.09</ele>
        <time>2019-11-30T14:39:49Z</time>
      </trkpt>
      <trkpt lat="48.68295" lon="1.94225">
        <ele>137.61</ele>
        <time>2019-11-30T14:40:03Z</time>
      </trkpt>
      <trkpt lat="48.68289" lon="1.94217">
        <ele>137.13</ele>
        <time>2019-11-30T14:40:15Z</time>
      </trkpt>
      <trkpt lat="48.68284" lon="1.94218">
        <ele>136.16</ele>
        <time>2019-11-30T14:40:38Z</time>
      </trkpt>
      <trkpt lat="48.68284" lon="1.94216">
        <ele>135.68</ele>
        <time>2019-11-30T14:40:58Z</time>
      </trkpt>
      <trkpt lat="48.68292" lon="1.94223">
        <ele>135.68</ele>
        <time>2019-11-30T14:41:30Z</time>
      </trkpt>
      <trkpt lat="48.68286" lon="1.94221">
        <ele>135.2</ele>
        <time>2019-11-30T14:41:56Z</time>
      </trkpt>
      <trkpt lat="48.68284" lon="1.94211">
        <ele>135.2</ele>
        <time>2019-11-30T14:42:19Z</time>
      </trkpt>
      <trkpt lat="48.68289" lon="1.94226">
        <ele>134.72</ele>
        <time>2019-11-30T14:42:48Z</time>
      </trkpt>
      <trkpt lat="48.68285" lon="1.94222">
        <ele>135.2</ele>
        <time>2019-11-30T14:43:05Z</time>
      </trkpt>
      <trkpt lat="48.6829" lon="1.9422">
        <ele>135.2</ele>
        <time>2019-11-30T14:43:37Z</time>
      </trkpt>
      <trkpt lat="48.68291" lon="1.94222">
        <ele>134.72</ele>
        <time>2019-11-30T14:44:02Z</time>
      </trkpt>
      <trkpt lat="48.68293" lon="1.94218">
        <ele>134.72</ele>
        <time>2019-11-30T14:44:19Z</time>
      </trkpt>
      <trkpt lat="48.68296" lon="1.94216">
        <ele>135.2</ele>
        <time>2019-11-30T14:44:22Z</time>
      </trkpt>
      <trkpt lat="48.68298" lon="1.94213">
        <ele>134.72</ele>
        <time>2019-11-30T14:44:25Z</time>
      </trkpt>
      <trkpt lat="48.68298" lon="1.9421">
        <ele>135.2</ele>
        <time>2019-11-30T14:44:26Z</time>
      </trkpt>
      <trkpt lat="48.68299" lon="1.94208">
        <ele>134.72</ele>
        <time>2019-11-30T14:44:27Z</time>
      </trkpt>
      <trkpt lat="48.68299" lon="1.94206">
        <ele>135.2</ele>
        <time>2019-11-30T14:44:28Z</time>
      </trkpt>
      <trkpt lat="48.683" lon="1.94203">
        <ele>135.2</ele>
        <time>2019-11-30T14:44:29Z</time>
      </trkpt>
      <trkpt lat="48.68301" lon="1.94201">
        <ele>135.2</ele>
        <time>2019-11-30T14:44:30Z</time>
      </trkpt>
      <trkpt lat="48.68301" lon="1.94199">
        <ele>135.68</ele>
        <time>2019-11-30T14:44:31Z</time>
      </trkpt>
      <trkpt lat="48.68304" lon="1.9419">
        <ele>135.68</ele>
        <time>2019-11-30T14:44:36Z</time>
      </trkpt>
      <trkpt lat="48.68308" lon="1.94182">
        <ele>135.68</ele>
        <time>2019-11-30T14:44:42Z</time>
      </trkpt>
      <trkpt lat="48.68309" lon="1.9418">
        <ele>135.68</ele>
        <time>2019-11-30T14:44:43Z</time>
      </trkpt>
      <trkpt lat="48.68311" lon="1.94178">
        <ele>135.68</ele>
        <time>2019-11-30T14:44:44Z</time>
      </trkpt>
      <trkpt lat="48.68315" lon="1.94168">
        <ele>135.68</ele>
        <time>2019-11-30T14:44:51Z</time>
      </trkpt>
      <trkpt lat="48.68315" lon="1.94166">
        <ele>135.68</ele>
        <time>2019-11-30T14:44:52Z</time>
      </trkpt>
      <trkpt lat="48.68315" lon="1.94165">
        <ele>136.16</ele>
        <time>2019-11-30T14:44:53Z</time>
      </trkpt>
      <trkpt lat="48.68316" lon="1.94163">
        <ele>135.68</ele>
        <time>2019-11-30T14:44:54Z</time>
      </trkpt>
      <trkpt lat="48.68317" lon="1.94161">
        <ele>135.68</ele>
        <time>2019-11-30T14:44:55Z</time>
      </trkpt>
      <trkpt lat="48.68318" lon="1.9416">
        <ele>135.68</ele>
        <time>2019-11-30T14:44:56Z</time>
      </trkpt>
      <trkpt lat="48.68321" lon="1.94144">
        <ele>135.68</ele>
        <time>2019-11-30T14:45:06Z</time>
      </trkpt>
      <trkpt lat="48.68321" lon="1.94143">
        <ele>135.68</ele>
        <time>2019-11-30T14:45:07Z</time>
      </trkpt>
      <trkpt lat="48.68321" lon="1.9414">
        <ele>135.68</ele>
        <time>2019-11-30T14:45:08Z</time>
      </trkpt>
      <trkpt lat="48.68322" lon="1.94138">
        <ele>136.16</ele>
        <time>2019-11-30T14:45:09Z</time>
      </trkpt>
      <trkpt lat="48.68322" lon="1.94136">
        <ele>136.16</ele>
        <time>2019-11-30T14:45:10Z</time>
      </trkpt>
      <trkpt lat="48.68326" lon="1.94116">
        <ele>136.64</ele>
        <time>2019-11-30T14:45:23Z</time>
      </trkpt>
      <trkpt lat="48.68326" lon="1.94114">
        <ele>136.16</ele>
        <time>2019-11-30T14:45:24Z</time>
      </trkpt>
      <trkpt lat="48.68326" lon="1.94112">
        <ele>136.64</ele>
        <time>2019-11-30T14:45:25Z</time>
      </trkpt>
      <trkpt lat="48.68329" lon="1.94102">
        <ele>138.09</ele>
        <time>2019-11-30T14:45:31Z</time>
      </trkpt>
      <trkpt lat="48.6833" lon="1.94097">
        <ele>136.64</ele>
        <time>2019-11-30T14:45:34Z</time>
      </trkpt>
      <trkpt lat="48.68332" lon="1.94086">
        <ele>136.16</ele>
        <time>2019-11-30T14:45:39Z</time>
      </trkpt>
      <trkpt lat="48.68333" lon="1.94084">
        <ele>136.16</ele>
        <time>2019-11-30T14:45:40Z</time>
      </trkpt>
      <trkpt lat="48.68333" lon="1.94082">
        <ele>136.64</ele>
        <time>2019-11-30T14:45:41Z</time>
      </trkpt>
      <trkpt lat="48.68335" lon="1.94077">
        <ele>136.16</ele>
        <time>2019-11-30T14:45:44Z</time>
      </trkpt>
      <trkpt lat="48.68338" lon="1.94067">
        <ele>135.68</ele>
        <time>2019-11-30T14:45:50Z</time>
      </trkpt>
      <trkpt lat="48.68342" lon="1.94048">
        <ele>135.2</ele>
        <time>2019-11-30T14:45:58Z</time>
      </trkpt>
      <trkpt lat="48.68347" lon="1.9403">
        <ele>134.72</ele>
        <time>2019-11-30T14:46:10Z</time>
      </trkpt>
      <trkpt lat="48.68348" lon="1.94028">
        <ele>134.72</ele>
        <time>2019-11-30T14:46:11Z</time>
      </trkpt>
      <trkpt lat="48.68357" lon="1.94006">
        <ele>134.72</ele>
        <time>2019-11-30T14:46:25Z</time>
      </trkpt>
      <trkpt lat="48.68365" lon="1.93991">
        <ele>134.72</ele>
        <time>2019-11-30T14:46:37Z</time>
      </trkpt>
      <trkpt lat="48.68374" lon="1.93976">
        <ele>134.72</ele>
        <time>2019-11-30T14:46:47Z</time>
      </trkpt>
      <trkpt lat="48.68385" lon="1.93962">
        <ele>134.24</ele>
        <time>2019-11-30T14:46:58Z</time>
      </trkpt>
      <trkpt lat="48.68386" lon="1.9396">
        <ele>134.72</ele>
        <time>2019-11-30T14:46:59Z</time>
      </trkpt>
      <trkpt lat="48.68387" lon="1.93959">
        <ele>134.24</ele>
        <time>2019-11-30T14:47:00Z</time>
      </trkpt>
      <trkpt lat="48.684" lon="1.93943">
        <ele>134.72</ele>
        <time>2019-11-30T14:47:13Z</time>
      </trkpt>
      <trkpt lat="48.68403" lon="1.93939">
        <ele>135.2</ele>
        <time>2019-11-30T14:47:17Z</time>
      </trkpt>
      <trkpt lat="48.68414" lon="1.9393">
        <ele>134.72</ele>
        <time>2019-11-30T14:47:28Z</time>
      </trkpt>
      <trkpt lat="48.68415" lon="1.93928">
        <ele>134.72</ele>
        <time>2019-11-30T14:47:29Z</time>
      </trkpt>
      <trkpt lat="48.68416" lon="1.93927">
        <ele>134.72</ele>
        <time>2019-11-30T14:47:30Z</time>
      </trkpt>
      <trkpt lat="48.68416" lon="1.93926">
        <ele>135.2</ele>
        <time>2019-11-30T14:47:31Z</time>
      </trkpt>
      <trkpt lat="48.68417" lon="1.93924">
        <ele>135.2</ele>
        <time>2019-11-30T14:47:32Z</time>
      </trkpt>
      <trkpt lat="48.68425" lon="1.9391">
        <ele>136.16</ele>
        <time>2019-11-30T14:47:40Z</time>
      </trkpt>
      <trkpt lat="48.68429" lon="1.93904">
        <ele>135.68</ele>
        <time>2019-11-30T14:47:44Z</time>
      </trkpt>
      <trkpt lat="48.68432" lon="1.93896">
        <ele>135.68</ele>
        <time>2019-11-30T14:47:49Z</time>
      </trkpt>
      <trkpt lat="48.68433" lon="1.93893">
        <ele>135.2</ele>
        <time>2019-11-30T14:47:50Z</time>
      </trkpt>
      <trkpt lat="48.68434" lon="1.93891">
        <ele>135.2</ele>
        <time>2019-11-30T14:47:51Z</time>
      </trkpt>
      <trkpt lat="48.68435" lon="1.93889">
        <ele>134.72</ele>
        <time>2019-11-30T14:47:52Z</time>
      </trkpt>
      <trkpt lat="48.68435" lon="1.93887">
        <ele>135.2</ele>
        <time>2019-11-30T14:47:53Z</time>
      </trkpt>
      <trkpt lat="48.68444" lon="1.93872">
        <ele>135.2</ele>
        <time>2019-11-30T14:48:05Z</time>
      </trkpt>
      <trkpt lat="48.68451" lon="1.93862">
        <ele>135.68</ele>
        <time>2019-11-30T14:48:15Z</time>
      </trkpt>
      <trkpt lat="48.68456" lon="1.93854">
        <ele>135.2</ele>
        <time>2019-11-30T14:48:21Z</time>
      </trkpt>
      <trkpt lat="48.68456" lon="1.93853">
        <ele>135.2</ele>
        <time>2019-11-30T14:48:22Z</time>
      </trkpt>
      <trkpt lat="48.68457" lon="1.93851">
        <ele>134.72</ele>
        <time>2019-11-30T14:48:23Z</time>
      </trkpt>
      <trkpt lat="48.68458" lon="1.9385">
        <ele>134.72</ele>
        <time>2019-11-30T14:48:24Z</time>
      </trkpt>
      <trkpt lat="48.68459" lon="1.93849">
        <ele>135.2</ele>
        <time>2019-11-30T14:48:25Z</time>
      </trkpt>
      <trkpt lat="48.6847" lon="1.93836">
        <ele>135.2</ele>
        <time>2019-11-30T14:48:38Z</time>
      </trkpt>
      <trkpt lat="48.68473" lon="1.93828">
        <ele>134.24</ele>
        <time>2019-11-30T14:48:42Z</time>
      </trkpt>
      <trkpt lat="48.68475" lon="1.93821">
        <ele>134.24</ele>
        <time>2019-11-30T14:48:45Z</time>
      </trkpt>
      <trkpt lat="48.68488" lon="1.93799">
        <ele>134.72</ele>
        <time>2019-11-30T14:48:58Z</time>
      </trkpt>
      <trkpt lat="48.68497" lon="1.93781">
        <ele>134.24</ele>
        <time>2019-11-30T14:49:09Z</time>
      </trkpt>
      <trkpt lat="48.685" lon="1.93761">
        <ele>134.24</ele>
        <time>2019-11-30T14:49:22Z</time>
      </trkpt>
      <trkpt lat="48.685" lon="1.93759">
        <ele>134.24</ele>
        <time>2019-11-30T14:49:23Z</time>
      </trkpt>
      <trkpt lat="48.68502" lon="1.93738">
        <ele>134.24</ele>
        <time>2019-11-30T14:49:37Z</time>
      </trkpt>
      <trkpt lat="48.68508" lon="1.93712">
        <ele>134.24</ele>
        <time>2019-11-30T14:49:51Z</time>
      </trkpt>
      <trkpt lat="48.68513" lon="1.93699">
        <ele>133.76</ele>
        <time>2019-11-30T14:50:02Z</time>
      </trkpt>
      <trkpt lat="48.68514" lon="1.93697">
        <ele>134.24</ele>
        <time>2019-11-30T14:50:03Z</time>
      </trkpt>
      <trkpt lat="48.68517" lon="1.93674">
        <ele>133.76</ele>
        <time>2019-11-30T14:50:17Z</time>
      </trkpt>
      <trkpt lat="48.68517" lon="1.9366">
        <ele>133.76</ele>
        <time>2019-11-30T14:50:25Z</time>
      </trkpt>
      <trkpt lat="48.68518" lon="1.93658">
        <ele>133.76</ele>
        <time>2019-11-30T14:50:26Z</time>
      </trkpt>
      <trkpt lat="48.68525" lon="1.93631">
        <ele>133.28</ele>
        <time>2019-11-30T14:50:37Z</time>
      </trkpt>
      <trkpt lat="48.68526" lon="1.93626">
        <ele>133.28</ele>
        <time>2019-11-30T14:50:40Z</time>
      </trkpt>
      <trkpt lat="48.68532" lon="1.93607">
        <ele>133.76</ele>
        <time>2019-11-30T14:50:53Z</time>
      </trkpt>
      <trkpt lat="48.68544" lon="1.9359">
        <ele>133.76</ele>
        <time>2019-11-30T14:51:06Z</time>
      </trkpt>
      <trkpt lat="48.68545" lon="1.93588">
        <ele>134.24</ele>
        <time>2019-11-30T14:51:07Z</time>
      </trkpt>
      <trkpt lat="48.68554" lon="1.93574">
        <ele>134.24</ele>
        <time>2019-11-30T14:51:17Z</time>
      </trkpt>
      <trkpt lat="48.68557" lon="1.93562">
        <ele>134.24</ele>
        <time>2019-11-30T14:51:25Z</time>
      </trkpt>
      <trkpt lat="48.68564" lon="1.9354">
        <ele>135.2</ele>
        <time>2019-11-30T14:51:39Z</time>
      </trkpt>
      <trkpt lat="48.68565" lon="1.93539">
        <ele>135.2</ele>
        <time>2019-11-30T14:51:40Z</time>
      </trkpt>
      <trkpt lat="48.68568" lon="1.93518">
        <ele>136.16</ele>
        <time>2019-11-30T14:51:52Z</time>
      </trkpt>
      <trkpt lat="48.68571" lon="1.93507">
        <ele>136.64</ele>
        <time>2019-11-30T14:51:59Z</time>
      </trkpt>
      <trkpt lat="48.68576" lon="1.93482">
        <ele>137.13</ele>
        <time>2019-11-30T14:52:13Z</time>
      </trkpt>
      <trkpt lat="48.68578" lon="1.93479">
        <ele>137.61</ele>
        <time>2019-11-30T14:52:15Z</time>
      </trkpt>
      <trkpt lat="48.68579" lon="1.93477">
        <ele>137.61</ele>
        <time>2019-11-30T14:52:16Z</time>
      </trkpt>
      <trkpt lat="48.6858" lon="1.93475">
        <ele>137.61</ele>
        <time>2019-11-30T14:52:17Z</time>
      </trkpt>
      <trkpt lat="48.68589" lon="1.93459">
        <ele>139.53</ele>
        <time>2019-11-30T14:52:31Z</time>
      </trkpt>
      <trkpt lat="48.68591" lon="1.93454">
        <ele>139.53</ele>
        <time>2019-11-30T14:52:36Z</time>
      </trkpt>
      <trkpt lat="48.68598" lon="1.93445">
        <ele>140.01</ele>
        <time>2019-11-30T14:52:44Z</time>
      </trkpt>
      <trkpt lat="48.68599" lon="1.93444">
        <ele>140.49</ele>
        <time>2019-11-30T14:52:45Z</time>
      </trkpt>
      <trkpt lat="48.6861" lon="1.93423">
        <ele>142.41</ele>
        <time>2019-11-30T14:53:00Z</time>
      </trkpt>
      <trkpt lat="48.68617" lon="1.93405">
        <ele>143.37</ele>
        <time>2019-11-30T14:53:13Z</time>
      </trkpt>
      <trkpt lat="48.68626" lon="1.93393">
        <ele>143.37</ele>
        <time>2019-11-30T14:53:24Z</time>
      </trkpt>
      <trkpt lat="48.68641" lon="1.93383">
        <ele>142.89</ele>
        <time>2019-11-30T14:53:37Z</time>
      </trkpt>
      <trkpt lat="48.68651" lon="1.93377">
        <ele>141.45</ele>
        <time>2019-11-30T14:53:48Z</time>
      </trkpt>
      <trkpt lat="48.68661" lon="1.93365">
        <ele>140.49</ele>
        <time>2019-11-30T14:53:57Z</time>
      </trkpt>
      <trkpt lat="48.68664" lon="1.93359">
        <ele>140.49</ele>
        <time>2019-11-30T14:54:02Z</time>
      </trkpt>
      <trkpt lat="48.68662" lon="1.93339">
        <ele>140.49</ele>
        <time>2019-11-30T14:54:12Z</time>
      </trkpt>
      <trkpt lat="48.68659" lon="1.93317">
        <ele>140.01</ele>
        <time>2019-11-30T14:54:26Z</time>
      </trkpt>
      <trkpt lat="48.68651" lon="1.93298">
        <ele>140.97</ele>
        <time>2019-11-30T14:54:40Z</time>
      </trkpt>
      <trkpt lat="48.68652" lon="1.93296">
        <ele>140.97</ele>
        <time>2019-11-30T14:54:41Z</time>
      </trkpt>
      <trkpt lat="48.68645" lon="1.93272">
        <ele>141.93</ele>
        <time>2019-11-30T14:54:56Z</time>
      </trkpt>
      <trkpt lat="48.68646" lon="1.93238">
        <ele>142.41</ele>
        <time>2019-11-30T14:55:11Z</time>
      </trkpt>
      <trkpt lat="48.68647" lon="1.93229">
        <ele>142.41</ele>
        <time>2019-11-30T14:55:17Z</time>
      </trkpt>
      <trkpt lat="48.68652" lon="1.93205">
        <ele>142.41</ele>
        <time>2019-11-30T14:55:29Z</time>
      </trkpt>
      <trkpt lat="48.68659" lon="1.93177">
        <ele>142.41</ele>
        <time>2019-11-30T14:55:45Z</time>
      </trkpt>
      <trkpt lat="48.68659" lon="1.93172">
        <ele>142.89</ele>
        <time>2019-11-30T14:55:49Z</time>
      </trkpt>
      <trkpt lat="48.68659" lon="1.93165">
        <ele>142.89</ele>
        <time>2019-11-30T14:55:53Z</time>
      </trkpt>
      <trkpt lat="48.68661" lon="1.93146">
        <ele>143.37</ele>
        <time>2019-11-30T14:56:04Z</time>
      </trkpt>
      <trkpt lat="48.68664" lon="1.93127">
        <ele>142.89</ele>
        <time>2019-11-30T14:56:14Z</time>
      </trkpt>
      <trkpt lat="48.68665" lon="1.93121">
        <ele>142.41</ele>
        <time>2019-11-30T14:56:19Z</time>
      </trkpt>
      <trkpt lat="48.68666" lon="1.93101">
        <ele>142.89</ele>
        <time>2019-11-30T14:56:29Z</time>
      </trkpt>
      <trkpt lat="48.68666" lon="1.93075">
        <ele>141.45</ele>
        <time>2019-11-30T14:56:43Z</time>
      </trkpt>
      <trkpt lat="48.68664" lon="1.93063">
        <ele>141.93</ele>
        <time>2019-11-30T14:56:51Z</time>
      </trkpt>
      <trkpt lat="48.68667" lon="1.93055">
        <ele>141.93</ele>
        <time>2019-11-30T14:56:54Z</time>
      </trkpt>
      <trkpt lat="48.68667" lon="1.93033">
        <ele>140.97</ele>
        <time>2019-11-30T14:57:06Z</time>
      </trkpt>
      <trkpt lat="48.68668" lon="1.93027">
        <ele>141.45</ele>
        <time>2019-11-30T14:57:11Z</time>
      </trkpt>
      <trkpt lat="48.68674" lon="1.93012">
        <ele>140.97</ele>
        <time>2019-11-30T14:57:17Z</time>
      </trkpt>
      <trkpt lat="48.68679" lon="1.92991">
        <ele>140.01</ele>
        <time>2019-11-30T14:57:27Z</time>
      </trkpt>
      <trkpt lat="48.68679" lon="1.92986">
        <ele>139.53</ele>
        <time>2019-11-30T14:57:29Z</time>
      </trkpt>
      <trkpt lat="48.68681" lon="1.92977">
        <ele>139.05</ele>
        <time>2019-11-30T14:57:32Z</time>
      </trkpt>
      <trkpt lat="48.68687" lon="1.92957">
        <ele>138.09</ele>
        <time>2019-11-30T14:57:44Z</time>
      </trkpt>
      <trkpt lat="48.68694" lon="1.92947">
        <ele>138.09</ele>
        <time>2019-11-30T14:57:52Z</time>
      </trkpt>
      <trkpt lat="48.68698" lon="1.92934">
        <ele>138.09</ele>
        <time>2019-11-30T14:58:00Z</time>
      </trkpt>
      <trkpt lat="48.68697" lon="1.9293">
        <ele>137.61</ele>
        <time>2019-11-30T14:58:02Z</time>
      </trkpt>
      <trkpt lat="48.68707" lon="1.92909">
        <ele>137.61</ele>
        <time>2019-11-30T14:58:17Z</time>
      </trkpt>
      <trkpt lat="48.68711" lon="1.92901">
        <ele>138.09</ele>
        <time>2019-11-30T14:58:27Z</time>
      </trkpt>
      <trkpt lat="48.68718" lon="1.92877">
        <ele>138.09</ele>
        <time>2019-11-30T14:58:37Z</time>
      </trkpt>
      <trkpt lat="48.6873" lon="1.92848">
        <ele>138.09</ele>
        <time>2019-11-30T14:58:51Z</time>
      </trkpt>
      <trkpt lat="48.6874" lon="1.92829">
        <ele>138.57</ele>
        <time>2019-11-30T14:59:04Z</time>
      </trkpt>
      <trkpt lat="48.68748" lon="1.92813">
        <ele>139.05</ele>
        <time>2019-11-30T14:59:14Z</time>
      </trkpt>
      <trkpt lat="48.6875" lon="1.92809">
        <ele>138.57</ele>
        <time>2019-11-30T14:59:17Z</time>
      </trkpt>
      <trkpt lat="48.68751" lon="1.92807">
        <ele>139.05</ele>
        <time>2019-11-30T14:59:18Z</time>
      </trkpt>
      <trkpt lat="48.68755" lon="1.928">
        <ele>139.05</ele>
        <time>2019-11-30T14:59:25Z</time>
      </trkpt>
      <trkpt lat="48.68766" lon="1.92785">
        <ele>138.57</ele>
        <time>2019-11-30T14:59:35Z</time>
      </trkpt>
      <trkpt lat="48.68768" lon="1.92781">
        <ele>138.09</ele>
        <time>2019-11-30T14:59:37Z</time>
      </trkpt>
      <trkpt lat="48.6877" lon="1.92774">
        <ele>138.57</ele>
        <time>2019-11-30T14:59:40Z</time>
      </trkpt>
      <trkpt lat="48.68771" lon="1.92772">
        <ele>138.57</ele>
        <time>2019-11-30T14:59:41Z</time>
      </trkpt>
      <trkpt lat="48.68772" lon="1.92769">
        <ele>138.57</ele>
        <time>2019-11-30T14:59:42Z</time>
      </trkpt>
      <trkpt lat="48.68773" lon="1.92767">
        <ele>138.57</ele>
        <time>2019-11-30T14:59:43Z</time>
      </trkpt>
      <trkpt lat="48.68773" lon="1.92765">
        <ele>138.57</ele>
        <time>2019-11-30T14:59:44Z</time>
      </trkpt>
      <trkpt lat="48.68774" lon="1.92763">
        <ele>138.57</ele>
        <time>2019-11-30T14:59:45Z</time>
      </trkpt>
      <trkpt lat="48.68774" lon="1.92762">
        <ele>138.57</ele>
        <time>2019-11-30T14:59:46Z</time>
      </trkpt>
      <trkpt lat="48.68774" lon="1.92759">
        <ele>138.57</ele>
        <time>2019-11-30T14:59:47Z</time>
      </trkpt>
      <trkpt lat="48.68775" lon="1.92758">
        <ele>138.57</ele>
        <time>2019-11-30T14:59:48Z</time>
      </trkpt>
      <trkpt lat="48.68778" lon="1.92748">
        <ele>139.05</ele>
        <time>2019-11-30T14:59:54Z</time>
      </trkpt>
      <trkpt lat="48.68782" lon="1.92731">
        <ele>139.53</ele>
        <time>2019-11-30T15:00:04Z</time>
      </trkpt>
      <trkpt lat="48.68786" lon="1.9271">
        <ele>139.05</ele>
        <time>2019-11-30T15:00:13Z</time>
      </trkpt>
      <trkpt lat="48.68787" lon="1.92709">
        <ele>139.53</ele>
        <time>2019-11-30T15:00:14Z</time>
      </trkpt>
      <trkpt lat="48.68787" lon="1.92707">
        <ele>139.05</ele>
        <time>2019-11-30T15:00:15Z</time>
      </trkpt>
      <trkpt lat="48.68792" lon="1.92684">
        <ele>139.53</ele>
        <time>2019-11-30T15:00:28Z</time>
      </trkpt>
      <trkpt lat="48.68799" lon="1.92664">
        <ele>140.01</ele>
        <time>2019-11-30T15:00:42Z</time>
      </trkpt>
      <trkpt lat="48.68799" lon="1.92663">
        <ele>139.53</ele>
        <time>2019-11-30T15:00:43Z</time>
      </trkpt>
      <trkpt lat="48.688" lon="1.92662">
        <ele>139.05</ele>
        <time>2019-11-30T15:00:44Z</time>
      </trkpt>
      <trkpt lat="48.68812" lon="1.92643">
        <ele>139.53</ele>
        <time>2019-11-30T15:00:58Z</time>
      </trkpt>
      <trkpt lat="48.68821" lon="1.92633">
        <ele>139.05</ele>
        <time>2019-11-30T15:01:05Z</time>
      </trkpt>
      <trkpt lat="48.68827" lon="1.92628">
        <ele>139.53</ele>
        <time>2019-11-30T15:01:12Z</time>
      </trkpt>
      <trkpt lat="48.68831" lon="1.92622">
        <ele>140.01</ele>
        <time>2019-11-30T15:01:16Z</time>
      </trkpt>
      <trkpt lat="48.68832" lon="1.9262">
        <ele>140.01</ele>
        <time>2019-11-30T15:01:17Z</time>
      </trkpt>
      <trkpt lat="48.68846" lon="1.92597">
        <ele>140.01</ele>
        <time>2019-11-30T15:01:31Z</time>
      </trkpt>
      <trkpt lat="48.68847" lon="1.92595">
        <ele>140.01</ele>
        <time>2019-11-30T15:01:32Z</time>
      </trkpt>
      <trkpt lat="48.68847" lon="1.92593">
        <ele>140.01</ele>
        <time>2019-11-30T15:01:33Z</time>
      </trkpt>
      <trkpt lat="48.68845" lon="1.9259">
        <ele>140.01</ele>
        <time>2019-11-30T15:01:35Z</time>
      </trkpt>
      <trkpt lat="48.68844" lon="1.92588">
        <ele>140.01</ele>
        <time>2019-11-30T15:01:36Z</time>
      </trkpt>
      <trkpt lat="48.68839" lon="1.92583">
        <ele>139.05</ele>
        <time>2019-11-30T15:01:42Z</time>
      </trkpt>
      <trkpt lat="48.68836" lon="1.92582">
        <ele>137.61</ele>
        <time>2019-11-30T15:01:45Z</time>
      </trkpt>
      <trkpt lat="48.68835" lon="1.92581">
        <ele>137.61</ele>
        <time>2019-11-30T15:01:46Z</time>
      </trkpt>
      <trkpt lat="48.68834" lon="1.92579">
        <ele>137.61</ele>
        <time>2019-11-30T15:01:47Z</time>
      </trkpt>
      <trkpt lat="48.68833" lon="1.92577">
        <ele>137.61</ele>
        <time>2019-11-30T15:01:48Z</time>
      </trkpt>
      <trkpt lat="48.68831" lon="1.92576">
        <ele>137.61</ele>
        <time>2019-11-30T15:01:49Z</time>
      </trkpt>
      <trkpt lat="48.68826" lon="1.92572">
        <ele>137.13</ele>
        <time>2019-11-30T15:01:52Z</time>
      </trkpt>
      <trkpt lat="48.68819" lon="1.92564">
        <ele>137.13</ele>
        <time>2019-11-30T15:02:01Z</time>
      </trkpt>
      <trkpt lat="48.68817" lon="1.92563">
        <ele>136.64</ele>
        <time>2019-11-30T15:02:02Z</time>
      </trkpt>
      <trkpt lat="48.68816" lon="1.92562">
        <ele>136.16</ele>
        <time>2019-11-30T15:02:03Z</time>
      </trkpt>
      <trkpt lat="48.68814" lon="1.9256">
        <ele>136.16</ele>
        <time>2019-11-30T15:02:04Z</time>
      </trkpt>
      <trkpt lat="48.68813" lon="1.92558">
        <ele>136.64</ele>
        <time>2019-11-30T15:02:05Z</time>
      </trkpt>
      <trkpt lat="48.68811" lon="1.92556">
        <ele>136.16</ele>
        <time>2019-11-30T15:02:06Z</time>
      </trkpt>
      <trkpt lat="48.6881" lon="1.92554">
        <ele>136.16</ele>
        <time>2019-11-30T15:02:07Z</time>
      </trkpt>
      <trkpt lat="48.68808" lon="1.92533">
        <ele>135.68</ele>
        <time>2019-11-30T15:02:20Z</time>
      </trkpt>
      <trkpt lat="48.68803" lon="1.92523">
        <ele>134.72</ele>
        <time>2019-11-30T15:02:25Z</time>
      </trkpt>
      <trkpt lat="48.68803" lon="1.92521">
        <ele>135.2</ele>
        <time>2019-11-30T15:02:26Z</time>
      </trkpt>
      <trkpt lat="48.68806" lon="1.92509">
        <ele>135.2</ele>
        <time>2019-11-30T15:02:35Z</time>
      </trkpt>
      <trkpt lat="48.68804" lon="1.92483">
        <ele>135.2</ele>
        <time>2019-11-30T15:02:48Z</time>
      </trkpt>
      <trkpt lat="48.68808" lon="1.92464">
        <ele>134.72</ele>
        <time>2019-11-30T15:03:00Z</time>
      </trkpt>
      <trkpt lat="48.68808" lon="1.92462">
        <ele>134.72</ele>
        <time>2019-11-30T15:03:01Z</time>
      </trkpt>
      <trkpt lat="48.68809" lon="1.92459">
        <ele>134.72</ele>
        <time>2019-11-30T15:03:02Z</time>
      </trkpt>
      <trkpt lat="48.68811" lon="1.92449">
        <ele>134.24</ele>
        <time>2019-11-30T15:03:16Z</time>
      </trkpt>
      <trkpt lat="48.68813" lon="1.92442">
        <ele>134.24</ele>
        <time>2019-11-30T15:03:29Z</time>
      </trkpt>
      <trkpt lat="48.68817" lon="1.92433">
        <ele>134.24</ele>
        <time>2019-11-30T15:03:40Z</time>
      </trkpt>
      <trkpt lat="48.68819" lon="1.92434">
        <ele>133.76</ele>
        <time>2019-11-30T15:03:50Z</time>
      </trkpt>
      <trkpt lat="48.68815" lon="1.92434">
        <ele>134.72</ele>
        <time>2019-11-30T15:04:01Z</time>
      </trkpt>
      <trkpt lat="48.68815" lon="1.92438">
        <ele>134.24</ele>
        <time>2019-11-30T15:04:12Z</time>
      </trkpt>
      <trkpt lat="48.68812" lon="1.92439">
        <ele>134.24</ele>
        <time>2019-11-30T15:04:23Z</time>
      </trkpt>
      <trkpt lat="48.6881" lon="1.92439">
        <ele>134.24</ele>
        <time>2019-11-30T15:04:24Z</time>
      </trkpt>
      <trkpt lat="48.68809" lon="1.92439">
        <ele>134.24</ele>
        <time>2019-11-30T15:04:25Z</time>
      </trkpt>
      <trkpt lat="48.68806" lon="1.9244">
        <ele>134.24</ele>
        <time>2019-11-30T15:04:31Z</time>
      </trkpt>
      <trkpt lat="48.68805" lon="1.92441">
        <ele>134.24</ele>
        <time>2019-11-30T15:04:32Z</time>
      </trkpt>
      <trkpt lat="48.68804" lon="1.92448">
        <ele>134.24</ele>
        <time>2019-11-30T15:04:37Z</time>
      </trkpt>
      <trkpt lat="48.68804" lon="1.9245">
        <ele>133.76</ele>
        <time>2019-11-30T15:04:38Z</time>
      </trkpt>
      <trkpt lat="48.68804" lon="1.92452">
        <ele>134.24</ele>
        <time>2019-11-30T15:04:39Z</time>
      </trkpt>
      <trkpt lat="48.68803" lon="1.92455">
        <ele>134.24</ele>
        <time>2019-11-30T15:04:40Z</time>
      </trkpt>
      <trkpt lat="48.68804" lon="1.92465">
        <ele>134.24</ele>
        <time>2019-11-30T15:04:47Z</time>
      </trkpt>
      <trkpt lat="48.68804" lon="1.92467">
        <ele>134.24</ele>
        <time>2019-11-30T15:04:48Z</time>
      </trkpt>
      <trkpt lat="48.68804" lon="1.92469">
        <ele>134.24</ele>
        <time>2019-11-30T15:04:49Z</time>
      </trkpt>
      <trkpt lat="48.68806" lon="1.92488">
        <ele>134.24</ele>
        <time>2019-11-30T15:05:01Z</time>
      </trkpt>
      <trkpt lat="48.68807" lon="1.92495">
        <ele>134.24</ele>
        <time>2019-11-30T15:05:06Z</time>
      </trkpt>
      <trkpt lat="48.68808" lon="1.92498">
        <ele>134.24</ele>
        <time>2019-11-30T15:05:07Z</time>
      </trkpt>
      <trkpt lat="48.68805" lon="1.92515">
        <ele>135.2</ele>
        <time>2019-11-30T15:05:20Z</time>
      </trkpt>
      <trkpt lat="48.68809" lon="1.92528">
        <ele>135.68</ele>
        <time>2019-11-30T15:05:28Z</time>
      </trkpt>
      <trkpt lat="48.6881" lon="1.9253">
        <ele>135.68</ele>
        <time>2019-11-30T15:05:29Z</time>
      </trkpt>
      <trkpt lat="48.6882" lon="1.92527">
        <ele>136.16</ele>
        <time>2019-11-30T15:05:43Z</time>
      </trkpt>
      <trkpt lat="48.68821" lon="1.92525">
        <ele>136.16</ele>
        <time>2019-11-30T15:05:44Z</time>
      </trkpt>
      <trkpt lat="48.68822" lon="1.92524">
        <ele>136.64</ele>
        <time>2019-11-30T15:05:45Z</time>
      </trkpt>
      <trkpt lat="48.68825" lon="1.9251">
        <ele>137.61</ele>
        <time>2019-11-30T15:05:57Z</time>
      </trkpt>
      <trkpt lat="48.68829" lon="1.92502">
        <ele>138.57</ele>
        <time>2019-11-30T15:06:04Z</time>
      </trkpt>
      <trkpt lat="48.68835" lon="1.92496">
        <ele>140.01</ele>
        <time>2019-11-30T15:06:12Z</time>
      </trkpt>
      <trkpt lat="48.68835" lon="1.92494">
        <ele>140.49</ele>
        <time>2019-11-30T15:06:13Z</time>
      </trkpt>
      <trkpt lat="48.68838" lon="1.92492">
        <ele>140.97</ele>
        <time>2019-11-30T15:06:18Z</time>
      </trkpt>
      <trkpt lat="48.68839" lon="1.9249">
        <ele>141.45</ele>
        <time>2019-11-30T15:06:19Z</time>
      </trkpt>
      <trkpt lat="48.68849" lon="1.92482">
        <ele>142.89</ele>
        <time>2019-11-30T15:06:31Z</time>
      </trkpt>
      <trkpt lat="48.68856" lon="1.92468">
        <ele>143.37</ele>
        <time>2019-11-30T15:06:42Z</time>
      </trkpt>
      <trkpt lat="48.68873" lon="1.9245">
        <ele>143.85</ele>
        <time>2019-11-30T15:06:55Z</time>
      </trkpt>
      <trkpt lat="48.68874" lon="1.92447">
        <ele>143.37</ele>
        <time>2019-11-30T15:06:57Z</time>
      </trkpt>
      <trkpt lat="48.68875" lon="1.92445">
        <ele>143.37</ele>
        <time>2019-11-30T15:06:58Z</time>
      </trkpt>
      <trkpt lat="48.68876" lon="1.92443">
        <ele>143.37</ele>
        <time>2019-11-30T15:06:59Z</time>
      </trkpt>
      <trkpt lat="48.68877" lon="1.92441">
        <ele>143.37</ele>
        <time>2019-11-30T15:07:00Z</time>
      </trkpt>
      <trkpt lat="48.68886" lon="1.92422">
        <ele>140.49</ele>
        <time>2019-11-30T15:07:10Z</time>
      </trkpt>
      <trkpt lat="48.68897" lon="1.92407">
        <ele>140.01</ele>
        <time>2019-11-30T15:07:22Z</time>
      </trkpt>
      <trkpt lat="48.68899" lon="1.92405">
        <ele>140.01</ele>
        <time>2019-11-30T15:07:24Z</time>
      </trkpt>
      <trkpt lat="48.689" lon="1.92403">
        <ele>140.01</ele>
        <time>2019-11-30T15:07:25Z</time>
      </trkpt>
      <trkpt lat="48.68901" lon="1.92401">
        <ele>140.49</ele>
        <time>2019-11-30T15:07:26Z</time>
      </trkpt>
      <trkpt lat="48.68901" lon="1.92398">
        <ele>140.49</ele>
        <time>2019-11-30T15:07:28Z</time>
      </trkpt>
      <trkpt lat="48.68902" lon="1.92397">
        <ele>140.97</ele>
        <time>2019-11-30T15:07:29Z</time>
      </trkpt>
      <trkpt lat="48.68903" lon="1.92395">
        <ele>140.97</ele>
        <time>2019-11-30T15:07:30Z</time>
      </trkpt>
      <trkpt lat="48.68904" lon="1.92393">
        <ele>140.97</ele>
        <time>2019-11-30T15:07:31Z</time>
      </trkpt>
      <trkpt lat="48.68905" lon="1.92392">
        <ele>140.49</ele>
        <time>2019-11-30T15:07:32Z</time>
      </trkpt>
      <trkpt lat="48.68911" lon="1.92383">
        <ele>140.01</ele>
        <time>2019-11-30T15:07:42Z</time>
      </trkpt>
      <trkpt lat="48.68913" lon="1.92381">
        <ele>140.01</ele>
        <time>2019-11-30T15:07:43Z</time>
      </trkpt>
      <trkpt lat="48.68914" lon="1.92379">
        <ele>140.01</ele>
        <time>2019-11-30T15:07:44Z</time>
      </trkpt>
      <trkpt lat="48.68915" lon="1.92377">
        <ele>140.01</ele>
        <time>2019-11-30T15:07:45Z</time>
      </trkpt>
      <trkpt lat="48.68916" lon="1.92376">
        <ele>140.49</ele>
        <time>2019-11-30T15:07:46Z</time>
      </trkpt>
      <trkpt lat="48.68916" lon="1.92374">
        <ele>140.49</ele>
        <time>2019-11-30T15:07:47Z</time>
      </trkpt>
      <trkpt lat="48.68926" lon="1.92361">
        <ele>141.45</ele>
        <time>2019-11-30T15:07:59Z</time>
      </trkpt>
      <trkpt lat="48.68937" lon="1.92348">
        <ele>140.97</ele>
        <time>2019-11-30T15:08:11Z</time>
      </trkpt>
      <trkpt lat="48.68937" lon="1.92344">
        <ele>140.01</ele>
        <time>2019-11-30T15:08:13Z</time>
      </trkpt>
      <trkpt lat="48.68946" lon="1.92331">
        <ele>137.13</ele>
        <time>2019-11-30T15:08:23Z</time>
      </trkpt>
      <trkpt lat="48.68958" lon="1.9233">
        <ele>136.64</ele>
        <time>2019-11-30T15:08:36Z</time>
      </trkpt>
      <trkpt lat="48.68959" lon="1.92332">
        <ele>136.16</ele>
        <time>2019-11-30T15:08:37Z</time>
      </trkpt>
      <trkpt lat="48.68961" lon="1.92332">
        <ele>136.16</ele>
        <time>2019-11-30T15:08:38Z</time>
      </trkpt>
      <trkpt lat="48.68965" lon="1.92332">
        <ele>136.16</ele>
        <time>2019-11-30T15:08:41Z</time>
      </trkpt>
      <trkpt lat="48.68972" lon="1.9233">
        <ele>137.13</ele>
        <time>2019-11-30T15:08:48Z</time>
      </trkpt>
      <trkpt lat="48.6898" lon="1.92318">
        <ele>137.61</ele>
        <time>2019-11-30T15:08:56Z</time>
      </trkpt>
      <trkpt lat="48.68982" lon="1.9231">
        <ele>137.61</ele>
        <time>2019-11-30T15:09:00Z</time>
      </trkpt>
      <trkpt lat="48.6898" lon="1.9229">
        <ele>137.61</ele>
        <time>2019-11-30T15:09:12Z</time>
      </trkpt>
      <trkpt lat="48.68978" lon="1.92288">
        <ele>137.61</ele>
        <time>2019-11-30T15:09:13Z</time>
      </trkpt>
      <trkpt lat="48.68978" lon="1.9227">
        <ele>137.61</ele>
        <time>2019-11-30T15:09:24Z</time>
      </trkpt>
      <trkpt lat="48.68978" lon="1.92268">
        <ele>137.61</ele>
        <time>2019-11-30T15:09:25Z</time>
      </trkpt>
      <trkpt lat="48.68978" lon="1.92265">
        <ele>137.61</ele>
        <time>2019-11-30T15:09:26Z</time>
      </trkpt>
      <trkpt lat="48.68982" lon="1.92247">
        <ele>137.61</ele>
        <time>2019-11-30T15:09:36Z</time>
      </trkpt>
      <trkpt lat="48.68982" lon="1.92244">
        <ele>137.61</ele>
        <time>2019-11-30T15:09:37Z</time>
      </trkpt>
      <trkpt lat="48.68985" lon="1.92222">
        <ele>136.64</ele>
        <time>2019-11-30T15:09:49Z</time>
      </trkpt>
      <trkpt lat="48.68983" lon="1.9222">
        <ele>136.64</ele>
        <time>2019-11-30T15:09:50Z</time>
      </trkpt>
      <trkpt lat="48.6898" lon="1.92209">
        <ele>136.64</ele>
        <time>2019-11-30T15:10:01Z</time>
      </trkpt>
      <trkpt lat="48.6898" lon="1.92201">
        <ele>136.64</ele>
        <time>2019-11-30T15:10:06Z</time>
      </trkpt>
      <trkpt lat="48.68985" lon="1.92181">
        <ele>137.61</ele>
        <time>2019-11-30T15:10:19Z</time>
      </trkpt>
      <trkpt lat="48.68986" lon="1.92178">
        <ele>137.61</ele>
        <time>2019-11-30T15:10:20Z</time>
      </trkpt>
      <trkpt lat="48.68986" lon="1.92176">
        <ele>137.61</ele>
        <time>2019-11-30T15:10:21Z</time>
      </trkpt>
      <trkpt lat="48.68987" lon="1.92158">
        <ele>138.09</ele>
        <time>2019-11-30T15:10:32Z</time>
      </trkpt>
      <trkpt lat="48.68993" lon="1.92135">
        <ele>137.61</ele>
        <time>2019-11-30T15:10:45Z</time>
      </trkpt>
      <trkpt lat="48.68996" lon="1.92112">
        <ele>138.09</ele>
        <time>2019-11-30T15:10:56Z</time>
      </trkpt>
      <trkpt lat="48.68996" lon="1.9211">
        <ele>138.09</ele>
        <time>2019-11-30T15:10:57Z</time>
      </trkpt>
      <trkpt lat="48.68996" lon="1.92107">
        <ele>138.09</ele>
        <time>2019-11-30T15:10:58Z</time>
      </trkpt>
      <trkpt lat="48.68996" lon="1.92106">
        <ele>138.09</ele>
        <time>2019-11-30T15:10:59Z</time>
      </trkpt>
      <trkpt lat="48.68996" lon="1.92104">
        <ele>138.09</ele>
        <time>2019-11-30T15:11:00Z</time>
      </trkpt>
      <trkpt lat="48.68999" lon="1.92095">
        <ele>138.09</ele>
        <time>2019-11-30T15:11:07Z</time>
      </trkpt>
      <trkpt lat="48.69" lon="1.92093">
        <ele>138.09</ele>
        <time>2019-11-30T15:11:08Z</time>
      </trkpt>
      <trkpt lat="48.69" lon="1.92091">
        <ele>138.09</ele>
        <time>2019-11-30T15:11:09Z</time>
      </trkpt>
      <trkpt lat="48.69006" lon="1.92074">
        <ele>139.05</ele>
        <time>2019-11-30T15:11:20Z</time>
      </trkpt>
      <trkpt lat="48.69006" lon="1.92072">
        <ele>139.53</ele>
        <time>2019-11-30T15:11:21Z</time>
      </trkpt>
      <trkpt lat="48.69007" lon="1.92069">
        <ele>139.53</ele>
        <time>2019-11-30T15:11:22Z</time>
      </trkpt>
      <trkpt lat="48.69007" lon="1.92067">
        <ele>139.05</ele>
        <time>2019-11-30T15:11:23Z</time>
      </trkpt>
      <trkpt lat="48.69008" lon="1.92064">
        <ele>139.05</ele>
        <time>2019-11-30T15:11:24Z</time>
      </trkpt>
      <trkpt lat="48.69009" lon="1.92061">
        <ele>139.05</ele>
        <time>2019-11-30T15:11:25Z</time>
      </trkpt>
      <trkpt lat="48.6901" lon="1.92059">
        <ele>138.57</ele>
        <time>2019-11-30T15:11:26Z</time>
      </trkpt>
      <trkpt lat="48.6902" lon="1.92041">
        <ele>137.61</ele>
        <time>2019-11-30T15:11:35Z</time>
      </trkpt>
      <trkpt lat="48.69022" lon="1.9203">
        <ele>137.13</ele>
        <time>2019-11-30T15:11:42Z</time>
      </trkpt>
      <trkpt lat="48.69022" lon="1.92028">
        <ele>137.61</ele>
        <time>2019-11-30T15:11:43Z</time>
      </trkpt>
      <trkpt lat="48.69026" lon="1.92014">
        <ele>138.57</ele>
        <time>2019-11-30T15:11:54Z</time>
      </trkpt>
      <trkpt lat="48.69028" lon="1.9201">
        <ele>139.05</ele>
        <time>2019-11-30T15:11:58Z</time>
      </trkpt>
      <trkpt lat="48.69028" lon="1.92007">
        <ele>138.57</ele>
        <time>2019-11-30T15:12:00Z</time>
      </trkpt>
      <trkpt lat="48.69028" lon="1.92002">
        <ele>138.57</ele>
        <time>2019-11-30T15:12:02Z</time>
      </trkpt>
      <trkpt lat="48.69026" lon="1.91998">
        <ele>138.09</ele>
        <time>2019-11-30T15:12:05Z</time>
      </trkpt>
      <trkpt lat="48.69027" lon="1.9199">
        <ele>138.09</ele>
        <time>2019-11-30T15:12:10Z</time>
      </trkpt>
      <trkpt lat="48.69036" lon="1.91978">
        <ele>139.53</ele>
        <time>2019-11-30T15:12:23Z</time>
      </trkpt>
      <trkpt lat="48.69036" lon="1.91977">
        <ele>139.53</ele>
        <time>2019-11-30T15:12:24Z</time>
      </trkpt>
      <trkpt lat="48.69045" lon="1.91963">
        <ele>137.61</ele>
        <time>2019-11-30T15:12:37Z</time>
      </trkpt>
      <trkpt lat="48.69047" lon="1.91961">
        <ele>138.09</ele>
        <time>2019-11-30T15:12:38Z</time>
      </trkpt>
      <trkpt lat="48.69053" lon="1.91938">
        <ele>138.09</ele>
        <time>2019-11-30T15:12:48Z</time>
      </trkpt>
      <trkpt lat="48.69054" lon="1.91936">
        <ele>138.57</ele>
        <time>2019-11-30T15:12:49Z</time>
      </trkpt>
      <trkpt lat="48.69054" lon="1.91934">
        <ele>138.09</ele>
        <time>2019-11-30T15:12:50Z</time>
      </trkpt>
      <trkpt lat="48.69055" lon="1.91932">
        <ele>138.57</ele>
        <time>2019-11-30T15:12:51Z</time>
      </trkpt>
      <trkpt lat="48.69056" lon="1.9193">
        <ele>138.57</ele>
        <time>2019-11-30T15:12:52Z</time>
      </trkpt>
      <trkpt lat="48.69063" lon="1.91913">
        <ele>137.13</ele>
        <time>2019-11-30T15:13:04Z</time>
      </trkpt>
      <trkpt lat="48.69068" lon="1.919">
        <ele>137.13</ele>
        <time>2019-11-30T15:13:11Z</time>
      </trkpt>
      <trkpt lat="48.69072" lon="1.91891">
        <ele>138.09</ele>
        <time>2019-11-30T15:13:22Z</time>
      </trkpt>
      <trkpt lat="48.69073" lon="1.91888">
        <ele>138.09</ele>
        <time>2019-11-30T15:13:24Z</time>
      </trkpt>
      <trkpt lat="48.69072" lon="1.91885">
        <ele>138.09</ele>
        <time>2019-11-30T15:13:25Z</time>
      </trkpt>
      <trkpt lat="48.69077" lon="1.91875">
        <ele>138.09</ele>
        <time>2019-11-30T15:13:31Z</time>
      </trkpt>
      <trkpt lat="48.69079" lon="1.91867">
        <ele>139.05</ele>
        <time>2019-11-30T15:13:34Z</time>
      </trkpt>
      <trkpt lat="48.69078" lon="1.91863">
        <ele>139.05</ele>
        <time>2019-11-30T15:13:36Z</time>
      </trkpt>
      <trkpt lat="48.69082" lon="1.91851">
        <ele>138.57</ele>
        <time>2019-11-30T15:13:48Z</time>
      </trkpt>
      <trkpt lat="48.69082" lon="1.91848">
        <ele>138.57</ele>
        <time>2019-11-30T15:13:50Z</time>
      </trkpt>
      <trkpt lat="48.69087" lon="1.91833">
        <ele>138.57</ele>
        <time>2019-11-30T15:14:01Z</time>
      </trkpt>
      <trkpt lat="48.6909" lon="1.9183">
        <ele>138.57</ele>
        <time>2019-11-30T15:14:05Z</time>
      </trkpt>
      <trkpt lat="48.69101" lon="1.91814">
        <ele>138.57</ele>
        <time>2019-11-30T15:14:16Z</time>
      </trkpt>
      <trkpt lat="48.69115" lon="1.91795">
        <ele>138.57</ele>
        <time>2019-11-30T15:14:29Z</time>
      </trkpt>
      <trkpt lat="48.69116" lon="1.91792">
        <ele>138.57</ele>
        <time>2019-11-30T15:14:30Z</time>
      </trkpt>
      <trkpt lat="48.69121" lon="1.91773">
        <ele>139.05</ele>
        <time>2019-11-30T15:14:41Z</time>
      </trkpt>
      <trkpt lat="48.69131" lon="1.91757">
        <ele>140.01</ele>
        <time>2019-11-30T15:14:53Z</time>
      </trkpt>
      <trkpt lat="48.69134" lon="1.9175">
        <ele>140.01</ele>
        <time>2019-11-30T15:14:58Z</time>
      </trkpt>
      <trkpt lat="48.69135" lon="1.91747">
        <ele>140.01</ele>
        <time>2019-11-30T15:14:59Z</time>
      </trkpt>
      <trkpt lat="48.69141" lon="1.91732">
        <ele>139.53</ele>
        <time>2019-11-30T15:15:10Z</time>
      </trkpt>
      <trkpt lat="48.6915" lon="1.91718">
        <ele>140.01</ele>
        <time>2019-11-30T15:15:23Z</time>
      </trkpt>
      <trkpt lat="48.6915" lon="1.91714">
        <ele>140.01</ele>
        <time>2019-11-30T15:15:25Z</time>
      </trkpt>
      <trkpt lat="48.69151" lon="1.91711">
        <ele>139.53</ele>
        <time>2019-11-30T15:15:26Z</time>
      </trkpt>
      <trkpt lat="48.69152" lon="1.91708">
        <ele>139.53</ele>
        <time>2019-11-30T15:15:27Z</time>
      </trkpt>
      <trkpt lat="48.69153" lon="1.91701">
        <ele>139.53</ele>
        <time>2019-11-30T15:15:31Z</time>
      </trkpt>
      <trkpt lat="48.69161" lon="1.91681">
        <ele>140.49</ele>
        <time>2019-11-30T15:15:42Z</time>
      </trkpt>
      <trkpt lat="48.69164" lon="1.91678">
        <ele>140.01</ele>
        <time>2019-11-30T15:15:48Z</time>
      </trkpt>
      <trkpt lat="48.69165" lon="1.91676">
        <ele>140.49</ele>
        <time>2019-11-30T15:15:49Z</time>
      </trkpt>
      <trkpt lat="48.69167" lon="1.91676">
        <ele>140.49</ele>
        <time>2019-11-30T15:15:50Z</time>
      </trkpt>
      <trkpt lat="48.69168" lon="1.91675">
        <ele>140.01</ele>
        <time>2019-11-30T15:15:51Z</time>
      </trkpt>
      <trkpt lat="48.6917" lon="1.91674">
        <ele>140.49</ele>
        <time>2019-11-30T15:15:52Z</time>
      </trkpt>
      <trkpt lat="48.69171" lon="1.91672">
        <ele>140.49</ele>
        <time>2019-11-30T15:15:53Z</time>
      </trkpt>
      <trkpt lat="48.69184" lon="1.91664">
        <ele>141.45</ele>
        <time>2019-11-30T15:16:05Z</time>
      </trkpt>
      <trkpt lat="48.69187" lon="1.91664">
        <ele>140.97</ele>
        <time>2019-11-30T15:16:08Z</time>
      </trkpt>
      <trkpt lat="48.69188" lon="1.91663">
        <ele>140.97</ele>
        <time>2019-11-30T15:16:09Z</time>
      </trkpt>
      <trkpt lat="48.69196" lon="1.91662">
        <ele>140.49</ele>
        <time>2019-11-30T15:16:17Z</time>
      </trkpt>
      <trkpt lat="48.69198" lon="1.91663">
        <ele>140.49</ele>
        <time>2019-11-30T15:16:19Z</time>
      </trkpt>
      <trkpt lat="48.69206" lon="1.91672">
        <ele>141.45</ele>
        <time>2019-11-30T15:16:26Z</time>
      </trkpt>
      <trkpt lat="48.69208" lon="1.91671">
        <ele>140.97</ele>
        <time>2019-11-30T15:16:27Z</time>
      </trkpt>
      <trkpt lat="48.69219" lon="1.91675">
        <ele>140.97</ele>
        <time>2019-11-30T15:16:37Z</time>
      </trkpt>
      <trkpt lat="48.6922" lon="1.91676">
        <ele>140.97</ele>
        <time>2019-11-30T15:16:38Z</time>
      </trkpt>
      <trkpt lat="48.69221" lon="1.91677">
        <ele>140.49</ele>
        <time>2019-11-30T15:16:39Z</time>
      </trkpt>
      <trkpt lat="48.69224" lon="1.91679">
        <ele>141.45</ele>
        <time>2019-11-30T15:16:42Z</time>
      </trkpt>
      <trkpt lat="48.6923" lon="1.91671">
        <ele>141.45</ele>
        <time>2019-11-30T15:16:53Z</time>
      </trkpt>
      <trkpt lat="48.69233" lon="1.91667">
        <ele>140.97</ele>
        <time>2019-11-30T15:16:56Z</time>
      </trkpt>
      <trkpt lat="48.69236" lon="1.91661">
        <ele>140.49</ele>
        <time>2019-11-30T15:17:04Z</time>
      </trkpt>
      <trkpt lat="48.69242" lon="1.91656">
        <ele>139.53</ele>
        <time>2019-11-30T15:17:14Z</time>
      </trkpt>
      <trkpt lat="48.69261" lon="1.91631">
        <ele>139.53</ele>
        <time>2019-11-30T15:17:23Z</time>
      </trkpt>
      <trkpt lat="48.69267" lon="1.91626">
        <ele>139.53</ele>
        <time>2019-11-30T15:17:29Z</time>
      </trkpt>
      <trkpt lat="48.69268" lon="1.91625">
        <ele>139.53</ele>
        <time>2019-11-30T15:17:30Z</time>
      </trkpt>
      <trkpt lat="48.6928" lon="1.91611">
        <ele>139.53</ele>
        <time>2019-11-30T15:17:40Z</time>
      </trkpt>
      <trkpt lat="48.69285" lon="1.91603">
        <ele>139.05</ele>
        <time>2019-11-30T15:17:48Z</time>
      </trkpt>
      <trkpt lat="48.69287" lon="1.91599">
        <ele>138.57</ele>
        <time>2019-11-30T15:17:50Z</time>
      </trkpt>
      <trkpt lat="48.69288" lon="1.91597">
        <ele>138.57</ele>
        <time>2019-11-30T15:17:51Z</time>
      </trkpt>
      <trkpt lat="48.69289" lon="1.91595">
        <ele>139.05</ele>
        <time>2019-11-30T15:17:52Z</time>
      </trkpt>
      <trkpt lat="48.69291" lon="1.91593">
        <ele>139.05</ele>
        <time>2019-11-30T15:17:53Z</time>
      </trkpt>
      <trkpt lat="48.69291" lon="1.91592">
        <ele>139.05</ele>
        <time>2019-11-30T15:17:54Z</time>
      </trkpt>
      <trkpt lat="48.69293" lon="1.91585">
        <ele>139.05</ele>
        <time>2019-11-30T15:17:58Z</time>
      </trkpt>
      <trkpt lat="48.69294" lon="1.91583">
        <ele>139.05</ele>
        <time>2019-11-30T15:17:59Z</time>
      </trkpt>
      <trkpt lat="48.69294" lon="1.91582">
        <ele>139.05</ele>
        <time>2019-11-30T15:18:00Z</time>
      </trkpt>
      <trkpt lat="48.69298" lon="1.91574">
        <ele>138.57</ele>
        <time>2019-11-30T15:18:03Z</time>
      </trkpt>
      <trkpt lat="48.69303" lon="1.91568">
        <ele>139.53</ele>
        <time>2019-11-30T15:18:11Z</time>
      </trkpt>
      <trkpt lat="48.69305" lon="1.91563">
        <ele>139.53</ele>
        <time>2019-11-30T15:18:15Z</time>
      </trkpt>
      <trkpt lat="48.69312" lon="1.9155">
        <ele>139.53</ele>
        <time>2019-11-30T15:18:25Z</time>
      </trkpt>
      <trkpt lat="48.6932" lon="1.91546">
        <ele>140.01</ele>
        <time>2019-11-30T15:18:37Z</time>
      </trkpt>
      <trkpt lat="48.69323" lon="1.91544">
        <ele>139.53</ele>
        <time>2019-11-30T15:18:40Z</time>
      </trkpt>
      <trkpt lat="48.69332" lon="1.91528">
        <ele>138.57</ele>
        <time>2019-11-30T15:18:53Z</time>
      </trkpt>
      <trkpt lat="48.69334" lon="1.91525">
        <ele>139.05</ele>
        <time>2019-11-30T15:18:55Z</time>
      </trkpt>
      <trkpt lat="48.69335" lon="1.91523">
        <ele>139.05</ele>
        <time>2019-11-30T15:18:56Z</time>
      </trkpt>
      <trkpt lat="48.69341" lon="1.91516">
        <ele>139.53</ele>
        <time>2019-11-30T15:19:05Z</time>
      </trkpt>
      <trkpt lat="48.69354" lon="1.91513">
        <ele>140.01</ele>
        <time>2019-11-30T15:19:18Z</time>
      </trkpt>
      <trkpt lat="48.69365" lon="1.91502">
        <ele>140.01</ele>
        <time>2019-11-30T15:19:31Z</time>
      </trkpt>
      <trkpt lat="48.69365" lon="1.91497">
        <ele>140.01</ele>
        <time>2019-11-30T15:19:33Z</time>
      </trkpt>
      <trkpt lat="48.69365" lon="1.91495">
        <ele>140.01</ele>
        <time>2019-11-30T15:19:34Z</time>
      </trkpt>
      <trkpt lat="48.69357" lon="1.91477">
        <ele>138.57</ele>
        <time>2019-11-30T15:19:46Z</time>
      </trkpt>
      <trkpt lat="48.69349" lon="1.9146">
        <ele>139.05</ele>
        <time>2019-11-30T15:19:58Z</time>
      </trkpt>
      <trkpt lat="48.6934" lon="1.91439">
        <ele>138.57</ele>
        <time>2019-11-30T15:20:12Z</time>
      </trkpt>
      <trkpt lat="48.69332" lon="1.9142">
        <ele>138.57</ele>
        <time>2019-11-30T15:20:24Z</time>
      </trkpt>
      <trkpt lat="48.69325" lon="1.91401">
        <ele>138.57</ele>
        <time>2019-11-30T15:20:38Z</time>
      </trkpt>
      <trkpt lat="48.69321" lon="1.91386">
        <ele>140.49</ele>
        <time>2019-11-30T15:20:51Z</time>
      </trkpt>
      <trkpt lat="48.6932" lon="1.9138">
        <ele>140.01</ele>
        <time>2019-11-30T15:20:54Z</time>
      </trkpt>
      <trkpt lat="48.69318" lon="1.91371">
        <ele>140.49</ele>
        <time>2019-11-30T15:21:00Z</time>
      </trkpt>
      <trkpt lat="48.69305" lon="1.9135">
        <ele>141.45</ele>
        <time>2019-11-30T15:21:13Z</time>
      </trkpt>
      <trkpt lat="48.69299" lon="1.91337">
        <ele>141.45</ele>
        <time>2019-11-30T15:21:22Z</time>
      </trkpt>
      <trkpt lat="48.69291" lon="1.91326">
        <ele>141.93</ele>
        <time>2019-11-30T15:21:31Z</time>
      </trkpt>
      <trkpt lat="48.6929" lon="1.91323">
        <ele>141.93</ele>
        <time>2019-11-30T15:21:33Z</time>
      </trkpt>
      <trkpt lat="48.69284" lon="1.9131">
        <ele>142.89</ele>
        <time>2019-11-30T15:21:43Z</time>
      </trkpt>
      <trkpt lat="48.69283" lon="1.91303">
        <ele>142.89</ele>
        <time>2019-11-30T15:21:48Z</time>
      </trkpt>
      <trkpt lat="48.69274" lon="1.9129">
        <ele>142.89</ele>
        <time>2019-11-30T15:22:00Z</time>
      </trkpt>
      <trkpt lat="48.69268" lon="1.91264">
        <ele>143.85</ele>
        <time>2019-11-30T15:22:12Z</time>
      </trkpt>
      <trkpt lat="48.6926" lon="1.91244">
        <ele>143.85</ele>
        <time>2019-11-30T15:22:24Z</time>
      </trkpt>
      <trkpt lat="48.69258" lon="1.9123">
        <ele>144.34</ele>
        <time>2019-11-30T15:22:29Z</time>
      </trkpt>
      <trkpt lat="48.69253" lon="1.91216">
        <ele>145.3</ele>
        <time>2019-11-30T15:22:40Z</time>
      </trkpt>
      <trkpt lat="48.6925" lon="1.91209">
        <ele>144.82</ele>
        <time>2019-11-30T15:22:44Z</time>
      </trkpt>
      <trkpt lat="48.69246" lon="1.91204">
        <ele>144.82</ele>
        <time>2019-11-30T15:22:50Z</time>
      </trkpt>
      <trkpt lat="48.69244" lon="1.91203">
        <ele>144.82</ele>
        <time>2019-11-30T15:22:51Z</time>
      </trkpt>
      <trkpt lat="48.69242" lon="1.91201">
        <ele>145.3</ele>
        <time>2019-11-30T15:22:52Z</time>
      </trkpt>
      <trkpt lat="48.69234" lon="1.91187">
        <ele>145.3</ele>
        <time>2019-11-30T15:23:04Z</time>
      </trkpt>
      <trkpt lat="48.69226" lon="1.91165">
        <ele>146.74</ele>
        <time>2019-11-30T15:23:17Z</time>
      </trkpt>
      <trkpt lat="48.6922" lon="1.91145">
        <ele>147.7</ele>
        <time>2019-11-30T15:23:32Z</time>
      </trkpt>
      <trkpt lat="48.69214" lon="1.91126">
        <ele>148.66</ele>
        <time>2019-11-30T15:23:46Z</time>
      </trkpt>
      <trkpt lat="48.69207" lon="1.91104">
        <ele>150.58</ele>
        <time>2019-11-30T15:24:01Z</time>
      </trkpt>
      <trkpt lat="48.69202" lon="1.9109">
        <ele>151.06</ele>
        <time>2019-11-30T15:24:12Z</time>
      </trkpt>
      <trkpt lat="48.69194" lon="1.91067">
        <ele>150.1</ele>
        <time>2019-11-30T15:24:26Z</time>
      </trkpt>
      <trkpt lat="48.69194" lon="1.91065">
        <ele>150.58</ele>
        <time>2019-11-30T15:24:27Z</time>
      </trkpt>
      <trkpt lat="48.69189" lon="1.91053">
        <ele>150.58</ele>
        <time>2019-11-30T15:24:33Z</time>
      </trkpt>
      <trkpt lat="48.69189" lon="1.9105">
        <ele>150.58</ele>
        <time>2019-11-30T15:24:34Z</time>
      </trkpt>
      <trkpt lat="48.69184" lon="1.91034">
        <ele>149.14</ele>
        <time>2019-11-30T15:24:45Z</time>
      </trkpt>
      <trkpt lat="48.69184" lon="1.91018">
        <ele>148.66</ele>
        <time>2019-11-30T15:24:53Z</time>
      </trkpt>
      <trkpt lat="48.69184" lon="1.91011">
        <ele>148.18</ele>
        <time>2019-11-30T15:24:56Z</time>
      </trkpt>
      <trkpt lat="48.69184" lon="1.91008">
        <ele>149.14</ele>
        <time>2019-11-30T15:24:57Z</time>
      </trkpt>
      <trkpt lat="48.69183" lon="1.91001">
        <ele>149.14</ele>
        <time>2019-11-30T15:25:01Z</time>
      </trkpt>
      <trkpt lat="48.69183" lon="1.90998">
        <ele>149.14</ele>
        <time>2019-11-30T15:25:02Z</time>
      </trkpt>
      <trkpt lat="48.69183" lon="1.90995">
        <ele>149.14</ele>
        <time>2019-11-30T15:25:03Z</time>
      </trkpt>
      <trkpt lat="48.69184" lon="1.90993">
        <ele>149.14</ele>
        <time>2019-11-30T15:25:04Z</time>
      </trkpt>
      <trkpt lat="48.69184" lon="1.9099">
        <ele>149.14</ele>
        <time>2019-11-30T15:25:05Z</time>
      </trkpt>
      <trkpt lat="48.6919" lon="1.90977">
        <ele>149.62</ele>
        <time>2019-11-30T15:25:15Z</time>
      </trkpt>
      <trkpt lat="48.69193" lon="1.90973">
        <ele>149.62</ele>
        <time>2019-11-30T15:25:19Z</time>
      </trkpt>
      <trkpt lat="48.69202" lon="1.90956">
        <ele>149.62</ele>
        <time>2019-11-30T15:25:30Z</time>
      </trkpt>
      <trkpt lat="48.69205" lon="1.9095">
        <ele>150.1</ele>
        <time>2019-11-30T15:25:35Z</time>
      </trkpt>
      <trkpt lat="48.69206" lon="1.90948">
        <ele>150.1</ele>
        <time>2019-11-30T15:25:36Z</time>
      </trkpt>
      <trkpt lat="48.69207" lon="1.90945">
        <ele>150.1</ele>
        <time>2019-11-30T15:25:37Z</time>
      </trkpt>
      <trkpt lat="48.69208" lon="1.90943">
        <ele>150.1</ele>
        <time>2019-11-30T15:25:38Z</time>
      </trkpt>
      <trkpt lat="48.69209" lon="1.90941">
        <ele>150.1</ele>
        <time>2019-11-30T15:25:39Z</time>
      </trkpt>
      <trkpt lat="48.6921" lon="1.90938">
        <ele>150.1</ele>
        <time>2019-11-30T15:25:40Z</time>
      </trkpt>
      <trkpt lat="48.69221" lon="1.90918">
        <ele>151.06</ele>
        <time>2019-11-30T15:25:53Z</time>
      </trkpt>
      <trkpt lat="48.69234" lon="1.90899">
        <ele>151.54</ele>
        <time>2019-11-30T15:26:08Z</time>
      </trkpt>
      <trkpt lat="48.69237" lon="1.90892">
        <ele>151.06</ele>
        <time>2019-11-30T15:26:13Z</time>
      </trkpt>
      <trkpt lat="48.6925" lon="1.9088">
        <ele>153.47</ele>
        <time>2019-11-30T15:26:27Z</time>
      </trkpt>
      <trkpt lat="48.69261" lon="1.90859">
        <ele>153.47</ele>
        <time>2019-11-30T15:26:41Z</time>
      </trkpt>
      <trkpt lat="48.69272" lon="1.90842">
        <ele>152.51</ele>
        <time>2019-11-30T15:26:54Z</time>
      </trkpt>
      <trkpt lat="48.69282" lon="1.90832">
        <ele>152.99</ele>
        <time>2019-11-30T15:27:06Z</time>
      </trkpt>
      <trkpt lat="48.69294" lon="1.90819">
        <ele>152.03</ele>
        <time>2019-11-30T15:27:18Z</time>
      </trkpt>
      <trkpt lat="48.69305" lon="1.90809">
        <ele>152.51</ele>
        <time>2019-11-30T15:27:31Z</time>
      </trkpt>
    </trkseg>
  </trk>
</gpx>